<?xml version="1.0" encoding="UTF-8" standalone="no" ?>
<gpx xmlns="http://www.topografix.com/GPX/1/1" xmlns:xsi="http://www.w3.org/2001/XMLSchema-instance" xsi:schemaLocation="http://www.topografix.com/GPX/1/1 http://www.topografix.com/GPX/1/1/gpx.xsd" version="1.1" creator="VisuGPX - https://www.visugpx.com">
  <metadata>
    <name>Au tour d aizenay</name>
  </metadata>
  <trk>
    <name><![CDATA[Cyclisme en extérieur]]></name>
    <extensions>
      <line xmlns="http://www.topografix.com/GPX/gpx_style/0/2">
        <color>0000FF</color>
        <opacity>1</opacity>
        <width>4</width>
      </line>
    </extensions>
    <trkseg>
      <trkpt lat="46.77418" lon="-1.66628">
        <ele>21</ele>
        <time>2025-08-07T18:44:15Z</time>
      </trkpt>
      <trkpt lat="46.77419" lon="-1.66613">
        <ele>21</ele>
        <time>2025-08-07T18:44:17Z</time>
      </trkpt>
      <trkpt lat="46.7742" lon="-1.66598">
        <ele>21</ele>
        <time>2025-08-07T18:44:19Z</time>
      </trkpt>
      <trkpt lat="46.77421" lon="-1.66581">
        <ele>20</ele>
        <time>2025-08-07T18:44:21Z</time>
      </trkpt>
      <trkpt lat="46.77422" lon="-1.66561">
        <ele>19</ele>
        <time>2025-08-07T18:44:24Z</time>
      </trkpt>
      <trkpt lat="46.77424" lon="-1.66539">
        <ele>18</ele>
        <time>2025-08-07T18:44:26Z</time>
      </trkpt>
      <trkpt lat="46.77426" lon="-1.66516">
        <ele>17</ele>
        <time>2025-08-07T18:44:28Z</time>
      </trkpt>
      <trkpt lat="46.77428" lon="-1.66491">
        <ele>16</ele>
        <time>2025-08-07T18:44:30Z</time>
      </trkpt>
      <trkpt lat="46.77428" lon="-1.66467">
        <ele>15</ele>
        <time>2025-08-07T18:44:32Z</time>
      </trkpt>
      <trkpt lat="46.77428" lon="-1.66441">
        <ele>13</ele>
        <time>2025-08-07T18:44:34Z</time>
      </trkpt>
      <trkpt lat="46.77429" lon="-1.66413">
        <ele>12</ele>
        <time>2025-08-07T18:44:36Z</time>
      </trkpt>
      <trkpt lat="46.77432" lon="-1.66386">
        <ele>11</ele>
        <time>2025-08-07T18:44:38Z</time>
      </trkpt>
      <trkpt lat="46.77435" lon="-1.66361">
        <ele>10</ele>
        <time>2025-08-07T18:44:40Z</time>
      </trkpt>
      <trkpt lat="46.77437" lon="-1.66337">
        <ele>10</ele>
        <time>2025-08-07T18:44:42Z</time>
      </trkpt>
      <trkpt lat="46.7744" lon="-1.66316">
        <ele>11</ele>
        <time>2025-08-07T18:44:44Z</time>
      </trkpt>
      <trkpt lat="46.77443" lon="-1.66298">
        <ele>11</ele>
        <time>2025-08-07T18:44:46Z</time>
      </trkpt>
      <trkpt lat="46.77445" lon="-1.66282">
        <ele>12</ele>
        <time>2025-08-07T18:44:48Z</time>
      </trkpt>
      <trkpt lat="46.77445" lon="-1.66266">
        <ele>12</ele>
        <time>2025-08-07T18:44:50Z</time>
      </trkpt>
      <trkpt lat="46.77444" lon="-1.6625">
        <ele>12</ele>
        <time>2025-08-07T18:44:52Z</time>
      </trkpt>
      <trkpt lat="46.77441" lon="-1.66231">
        <ele>11</ele>
        <time>2025-08-07T18:44:54Z</time>
      </trkpt>
      <trkpt lat="46.77442" lon="-1.66212">
        <ele>11</ele>
        <time>2025-08-07T18:44:56Z</time>
      </trkpt>
      <trkpt lat="46.77445" lon="-1.66193">
        <ele>11</ele>
        <time>2025-08-07T18:44:58Z</time>
      </trkpt>
      <trkpt lat="46.77448" lon="-1.66177">
        <ele>12</ele>
        <time>2025-08-07T18:45:00Z</time>
      </trkpt>
      <trkpt lat="46.77453" lon="-1.66166">
        <ele>13</ele>
        <time>2025-08-07T18:45:02Z</time>
      </trkpt>
      <trkpt lat="46.77456" lon="-1.66158">
        <ele>13</ele>
        <time>2025-08-07T18:45:04Z</time>
      </trkpt>
      <trkpt lat="46.77456" lon="-1.66148">
        <ele>14</ele>
        <time>2025-08-07T18:45:06Z</time>
      </trkpt>
      <trkpt lat="46.77454" lon="-1.66137">
        <ele>14</ele>
        <time>2025-08-07T18:45:08Z</time>
      </trkpt>
      <trkpt lat="46.77452" lon="-1.66125">
        <ele>15</ele>
        <time>2025-08-07T18:45:10Z</time>
      </trkpt>
      <trkpt lat="46.7745" lon="-1.66114">
        <ele>15</ele>
        <time>2025-08-07T18:45:12Z</time>
      </trkpt>
      <trkpt lat="46.77449" lon="-1.66103">
        <ele>16</ele>
        <time>2025-08-07T18:45:14Z</time>
      </trkpt>
      <trkpt lat="46.77449" lon="-1.66093">
        <ele>16</ele>
        <time>2025-08-07T18:45:16Z</time>
      </trkpt>
      <trkpt lat="46.77448" lon="-1.66082">
        <ele>17</ele>
        <time>2025-08-07T18:45:18Z</time>
      </trkpt>
      <trkpt lat="46.77446" lon="-1.66071">
        <ele>17</ele>
        <time>2025-08-07T18:45:20Z</time>
      </trkpt>
      <trkpt lat="46.77445" lon="-1.6606">
        <ele>17</ele>
        <time>2025-08-07T18:45:22Z</time>
      </trkpt>
      <trkpt lat="46.77444" lon="-1.6605">
        <ele>18</ele>
        <time>2025-08-07T18:45:24Z</time>
      </trkpt>
      <trkpt lat="46.77443" lon="-1.66039">
        <ele>18</ele>
        <time>2025-08-07T18:45:26Z</time>
      </trkpt>
      <trkpt lat="46.77442" lon="-1.66028">
        <ele>18</ele>
        <time>2025-08-07T18:45:28Z</time>
      </trkpt>
      <trkpt lat="46.77441" lon="-1.66017">
        <ele>18</ele>
        <time>2025-08-07T18:45:30Z</time>
      </trkpt>
      <trkpt lat="46.7744" lon="-1.66007">
        <ele>19</ele>
        <time>2025-08-07T18:45:32Z</time>
      </trkpt>
      <trkpt lat="46.77438" lon="-1.65996">
        <ele>19</ele>
        <time>2025-08-07T18:45:34Z</time>
      </trkpt>
      <trkpt lat="46.77438" lon="-1.65985">
        <ele>19</ele>
        <time>2025-08-07T18:45:36Z</time>
      </trkpt>
      <trkpt lat="46.77437" lon="-1.65974">
        <ele>19</ele>
        <time>2025-08-07T18:45:38Z</time>
      </trkpt>
      <trkpt lat="46.77436" lon="-1.65963">
        <ele>19</ele>
        <time>2025-08-07T18:45:40Z</time>
      </trkpt>
      <trkpt lat="46.77435" lon="-1.65952">
        <ele>19</ele>
        <time>2025-08-07T18:45:42Z</time>
      </trkpt>
      <trkpt lat="46.77433" lon="-1.65941">
        <ele>19</ele>
        <time>2025-08-07T18:45:44Z</time>
      </trkpt>
      <trkpt lat="46.77433" lon="-1.6593">
        <ele>19</ele>
        <time>2025-08-07T18:45:46Z</time>
      </trkpt>
      <trkpt lat="46.77432" lon="-1.65918">
        <ele>19</ele>
        <time>2025-08-07T18:45:48Z</time>
      </trkpt>
      <trkpt lat="46.7743" lon="-1.65904">
        <ele>19</ele>
        <time>2025-08-07T18:45:50Z</time>
      </trkpt>
      <trkpt lat="46.77428" lon="-1.65887">
        <ele>18</ele>
        <time>2025-08-07T18:45:52Z</time>
      </trkpt>
      <trkpt lat="46.77427" lon="-1.6587">
        <ele>18</ele>
        <time>2025-08-07T18:45:54Z</time>
      </trkpt>
      <trkpt lat="46.77425" lon="-1.65851">
        <ele>17</ele>
        <time>2025-08-07T18:45:56Z</time>
      </trkpt>
      <trkpt lat="46.77424" lon="-1.65832">
        <ele>17</ele>
        <time>2025-08-07T18:45:58Z</time>
      </trkpt>
      <trkpt lat="46.77422" lon="-1.65814">
        <ele>17</ele>
        <time>2025-08-07T18:46:00Z</time>
      </trkpt>
      <trkpt lat="46.7742" lon="-1.65796">
        <ele>17</ele>
        <time>2025-08-07T18:46:02Z</time>
      </trkpt>
      <trkpt lat="46.77418" lon="-1.65778">
        <ele>17</ele>
        <time>2025-08-07T18:46:04Z</time>
      </trkpt>
      <trkpt lat="46.77416" lon="-1.6576">
        <ele>17</ele>
        <time>2025-08-07T18:46:06Z</time>
      </trkpt>
      <trkpt lat="46.77414" lon="-1.65743">
        <ele>17</ele>
        <time>2025-08-07T18:46:08Z</time>
      </trkpt>
      <trkpt lat="46.77412" lon="-1.65725">
        <ele>17</ele>
        <time>2025-08-07T18:46:10Z</time>
      </trkpt>
      <trkpt lat="46.77411" lon="-1.65706">
        <ele>17</ele>
        <time>2025-08-07T18:46:12Z</time>
      </trkpt>
      <trkpt lat="46.77409" lon="-1.65689">
        <ele>17</ele>
        <time>2025-08-07T18:46:14Z</time>
      </trkpt>
      <trkpt lat="46.77407" lon="-1.65672">
        <ele>17</ele>
        <time>2025-08-07T18:46:16Z</time>
      </trkpt>
      <trkpt lat="46.77405" lon="-1.65652">
        <ele>17</ele>
        <time>2025-08-07T18:46:18Z</time>
      </trkpt>
      <trkpt lat="46.77404" lon="-1.65633">
        <ele>18</ele>
        <time>2025-08-07T18:46:20Z</time>
      </trkpt>
      <trkpt lat="46.77405" lon="-1.65612">
        <ele>18</ele>
        <time>2025-08-07T18:46:22Z</time>
      </trkpt>
      <trkpt lat="46.77408" lon="-1.65594">
        <ele>18</ele>
        <time>2025-08-07T18:46:24Z</time>
      </trkpt>
      <trkpt lat="46.77413" lon="-1.65579">
        <ele>18</ele>
        <time>2025-08-07T18:46:26Z</time>
      </trkpt>
      <trkpt lat="46.77417" lon="-1.65563">
        <ele>18</ele>
        <time>2025-08-07T18:46:28Z</time>
      </trkpt>
      <trkpt lat="46.77422" lon="-1.65548">
        <ele>19</ele>
        <time>2025-08-07T18:46:30Z</time>
      </trkpt>
      <trkpt lat="46.77427" lon="-1.65533">
        <ele>19</ele>
        <time>2025-08-07T18:46:32Z</time>
      </trkpt>
      <trkpt lat="46.77432" lon="-1.65518">
        <ele>19</ele>
        <time>2025-08-07T18:46:35Z</time>
      </trkpt>
      <trkpt lat="46.77436" lon="-1.65503">
        <ele>19</ele>
        <time>2025-08-07T18:46:37Z</time>
      </trkpt>
      <trkpt lat="46.7744" lon="-1.65488">
        <ele>19</ele>
        <time>2025-08-07T18:46:39Z</time>
      </trkpt>
      <trkpt lat="46.77446" lon="-1.65474">
        <ele>19</ele>
        <time>2025-08-07T18:46:41Z</time>
      </trkpt>
      <trkpt lat="46.77454" lon="-1.65461">
        <ele>19</ele>
        <time>2025-08-07T18:46:43Z</time>
      </trkpt>
      <trkpt lat="46.77464" lon="-1.65453">
        <ele>18</ele>
        <time>2025-08-07T18:46:45Z</time>
      </trkpt>
      <trkpt lat="46.77477" lon="-1.65449">
        <ele>18</ele>
        <time>2025-08-07T18:46:47Z</time>
      </trkpt>
      <trkpt lat="46.77491" lon="-1.65448">
        <ele>18</ele>
        <time>2025-08-07T18:46:49Z</time>
      </trkpt>
      <trkpt lat="46.77504" lon="-1.65449">
        <ele>18</ele>
        <time>2025-08-07T18:46:51Z</time>
      </trkpt>
      <trkpt lat="46.77518" lon="-1.65449">
        <ele>18</ele>
        <time>2025-08-07T18:46:53Z</time>
      </trkpt>
      <trkpt lat="46.77529" lon="-1.65449">
        <ele>19</ele>
        <time>2025-08-07T18:46:55Z</time>
      </trkpt>
      <trkpt lat="46.7754" lon="-1.65448">
        <ele>19</ele>
        <time>2025-08-07T18:46:57Z</time>
      </trkpt>
      <trkpt lat="46.77551" lon="-1.65447">
        <ele>20</ele>
        <time>2025-08-07T18:46:59Z</time>
      </trkpt>
      <trkpt lat="46.7756" lon="-1.65446">
        <ele>20</ele>
        <time>2025-08-07T18:47:01Z</time>
      </trkpt>
      <trkpt lat="46.77571" lon="-1.65445">
        <ele>20</ele>
        <time>2025-08-07T18:47:03Z</time>
      </trkpt>
      <trkpt lat="46.77581" lon="-1.65443">
        <ele>21</ele>
        <time>2025-08-07T18:47:05Z</time>
      </trkpt>
      <trkpt lat="46.7759" lon="-1.6544">
        <ele>21</ele>
        <time>2025-08-07T18:47:07Z</time>
      </trkpt>
      <trkpt lat="46.77599" lon="-1.65436">
        <ele>21</ele>
        <time>2025-08-07T18:47:09Z</time>
      </trkpt>
      <trkpt lat="46.77605" lon="-1.65428">
        <ele>21</ele>
        <time>2025-08-07T18:47:11Z</time>
      </trkpt>
      <trkpt lat="46.77605" lon="-1.65414">
        <ele>20</ele>
        <time>2025-08-07T18:47:13Z</time>
      </trkpt>
      <trkpt lat="46.77602" lon="-1.65399">
        <ele>20</ele>
        <time>2025-08-07T18:47:15Z</time>
      </trkpt>
      <trkpt lat="46.77598" lon="-1.65383">
        <ele>20</ele>
        <time>2025-08-07T18:47:17Z</time>
      </trkpt>
      <trkpt lat="46.77595" lon="-1.65366">
        <ele>20</ele>
        <time>2025-08-07T18:47:19Z</time>
      </trkpt>
      <trkpt lat="46.77592" lon="-1.6535">
        <ele>20</ele>
        <time>2025-08-07T18:47:21Z</time>
      </trkpt>
      <trkpt lat="46.77589" lon="-1.65335">
        <ele>19</ele>
        <time>2025-08-07T18:47:23Z</time>
      </trkpt>
      <trkpt lat="46.77587" lon="-1.6532">
        <ele>19</ele>
        <time>2025-08-07T18:47:25Z</time>
      </trkpt>
      <trkpt lat="46.77584" lon="-1.65306">
        <ele>19</ele>
        <time>2025-08-07T18:47:27Z</time>
      </trkpt>
      <trkpt lat="46.77581" lon="-1.65291">
        <ele>19</ele>
        <time>2025-08-07T18:47:29Z</time>
      </trkpt>
      <trkpt lat="46.77579" lon="-1.65276">
        <ele>19</ele>
        <time>2025-08-07T18:47:31Z</time>
      </trkpt>
      <trkpt lat="46.77576" lon="-1.6526">
        <ele>19</ele>
        <time>2025-08-07T18:47:33Z</time>
      </trkpt>
      <trkpt lat="46.77573" lon="-1.65243">
        <ele>18</ele>
        <time>2025-08-07T18:47:35Z</time>
      </trkpt>
      <trkpt lat="46.7757" lon="-1.65225">
        <ele>18</ele>
        <time>2025-08-07T18:47:37Z</time>
      </trkpt>
      <trkpt lat="46.77567" lon="-1.65207">
        <ele>18</ele>
        <time>2025-08-07T18:47:39Z</time>
      </trkpt>
      <trkpt lat="46.77564" lon="-1.65188">
        <ele>17</ele>
        <time>2025-08-07T18:47:41Z</time>
      </trkpt>
      <trkpt lat="46.7756" lon="-1.65168">
        <ele>16</ele>
        <time>2025-08-07T18:47:43Z</time>
      </trkpt>
      <trkpt lat="46.77557" lon="-1.65147">
        <ele>15</ele>
        <time>2025-08-07T18:47:45Z</time>
      </trkpt>
      <trkpt lat="46.77553" lon="-1.65125">
        <ele>15</ele>
        <time>2025-08-07T18:47:47Z</time>
      </trkpt>
      <trkpt lat="46.77551" lon="-1.65104">
        <ele>15</ele>
        <time>2025-08-07T18:47:49Z</time>
      </trkpt>
      <trkpt lat="46.77549" lon="-1.65085">
        <ele>15</ele>
        <time>2025-08-07T18:47:51Z</time>
      </trkpt>
      <trkpt lat="46.77547" lon="-1.65069">
        <ele>15</ele>
        <time>2025-08-07T18:47:53Z</time>
      </trkpt>
      <trkpt lat="46.77546" lon="-1.65054">
        <ele>16</ele>
        <time>2025-08-07T18:47:55Z</time>
      </trkpt>
      <trkpt lat="46.77545" lon="-1.6504">
        <ele>16</ele>
        <time>2025-08-07T18:47:57Z</time>
      </trkpt>
      <trkpt lat="46.77544" lon="-1.65027">
        <ele>17</ele>
        <time>2025-08-07T18:47:59Z</time>
      </trkpt>
      <trkpt lat="46.77543" lon="-1.65014">
        <ele>17</ele>
        <time>2025-08-07T18:48:01Z</time>
      </trkpt>
      <trkpt lat="46.77541" lon="-1.65002">
        <ele>18</ele>
        <time>2025-08-07T18:48:03Z</time>
      </trkpt>
      <trkpt lat="46.7754" lon="-1.6499">
        <ele>19</ele>
        <time>2025-08-07T18:48:05Z</time>
      </trkpt>
      <trkpt lat="46.77539" lon="-1.64978">
        <ele>19</ele>
        <time>2025-08-07T18:48:07Z</time>
      </trkpt>
      <trkpt lat="46.77538" lon="-1.64966">
        <ele>20</ele>
        <time>2025-08-07T18:48:09Z</time>
      </trkpt>
      <trkpt lat="46.77536" lon="-1.64954">
        <ele>20</ele>
        <time>2025-08-07T18:48:11Z</time>
      </trkpt>
      <trkpt lat="46.77535" lon="-1.64943">
        <ele>20</ele>
        <time>2025-08-07T18:48:13Z</time>
      </trkpt>
      <trkpt lat="46.77534" lon="-1.64932">
        <ele>21</ele>
        <time>2025-08-07T18:48:15Z</time>
      </trkpt>
      <trkpt lat="46.77533" lon="-1.64921">
        <ele>21</ele>
        <time>2025-08-07T18:48:17Z</time>
      </trkpt>
      <trkpt lat="46.77532" lon="-1.6491">
        <ele>21</ele>
        <time>2025-08-07T18:48:19Z</time>
      </trkpt>
      <trkpt lat="46.77531" lon="-1.64899">
        <ele>21</ele>
        <time>2025-08-07T18:48:21Z</time>
      </trkpt>
      <trkpt lat="46.77529" lon="-1.64886">
        <ele>21</ele>
        <time>2025-08-07T18:48:23Z</time>
      </trkpt>
      <trkpt lat="46.77528" lon="-1.64872">
        <ele>21</ele>
        <time>2025-08-07T18:48:25Z</time>
      </trkpt>
      <trkpt lat="46.77527" lon="-1.64858">
        <ele>21</ele>
        <time>2025-08-07T18:48:27Z</time>
      </trkpt>
      <trkpt lat="46.77525" lon="-1.64845">
        <ele>22</ele>
        <time>2025-08-07T18:48:29Z</time>
      </trkpt>
      <trkpt lat="46.77524" lon="-1.64832">
        <ele>22</ele>
        <time>2025-08-07T18:48:31Z</time>
      </trkpt>
      <trkpt lat="46.77522" lon="-1.64818">
        <ele>22</ele>
        <time>2025-08-07T18:48:34Z</time>
      </trkpt>
      <trkpt lat="46.77521" lon="-1.64805">
        <ele>21</ele>
        <time>2025-08-07T18:48:36Z</time>
      </trkpt>
      <trkpt lat="46.7752" lon="-1.6479">
        <ele>21</ele>
        <time>2025-08-07T18:48:38Z</time>
      </trkpt>
      <trkpt lat="46.77518" lon="-1.64774">
        <ele>21</ele>
        <time>2025-08-07T18:48:40Z</time>
      </trkpt>
      <trkpt lat="46.77515" lon="-1.64759">
        <ele>21</ele>
        <time>2025-08-07T18:48:42Z</time>
      </trkpt>
      <trkpt lat="46.7751" lon="-1.64745">
        <ele>20</ele>
        <time>2025-08-07T18:48:44Z</time>
      </trkpt>
      <trkpt lat="46.77501" lon="-1.64732">
        <ele>20</ele>
        <time>2025-08-07T18:48:46Z</time>
      </trkpt>
      <trkpt lat="46.77492" lon="-1.64718">
        <ele>19</ele>
        <time>2025-08-07T18:48:48Z</time>
      </trkpt>
      <trkpt lat="46.77486" lon="-1.64703">
        <ele>19</ele>
        <time>2025-08-07T18:48:50Z</time>
      </trkpt>
      <trkpt lat="46.77482" lon="-1.64686">
        <ele>18</ele>
        <time>2025-08-07T18:48:52Z</time>
      </trkpt>
      <trkpt lat="46.7748" lon="-1.64671">
        <ele>19</ele>
        <time>2025-08-07T18:48:54Z</time>
      </trkpt>
      <trkpt lat="46.77478" lon="-1.64664">
        <ele>19</ele>
        <time>2025-08-07T18:48:56Z</time>
      </trkpt>
      <trkpt lat="46.77472" lon="-1.64674">
        <ele>18</ele>
        <time>2025-08-07T18:49:00Z</time>
      </trkpt>
      <trkpt lat="46.77466" lon="-1.64677">
        <ele>17</ele>
        <time>2025-08-07T18:49:02Z</time>
      </trkpt>
      <trkpt lat="46.77457" lon="-1.64671">
        <ele>16</ele>
        <time>2025-08-07T18:49:04Z</time>
      </trkpt>
      <trkpt lat="46.77451" lon="-1.64659">
        <ele>15</ele>
        <time>2025-08-07T18:49:06Z</time>
      </trkpt>
      <trkpt lat="46.77451" lon="-1.64645">
        <ele>14</ele>
        <time>2025-08-07T18:49:08Z</time>
      </trkpt>
      <trkpt lat="46.77451" lon="-1.64632">
        <ele>13</ele>
        <time>2025-08-07T18:49:10Z</time>
      </trkpt>
      <trkpt lat="46.77452" lon="-1.6462">
        <ele>13</ele>
        <time>2025-08-07T18:49:12Z</time>
      </trkpt>
      <trkpt lat="46.77452" lon="-1.6461">
        <ele>13</ele>
        <time>2025-08-07T18:49:14Z</time>
      </trkpt>
      <trkpt lat="46.77448" lon="-1.64607">
        <ele>12</ele>
        <time>2025-08-07T18:49:16Z</time>
      </trkpt>
      <trkpt lat="46.77441" lon="-1.6461">
        <ele>12</ele>
        <time>2025-08-07T18:49:18Z</time>
      </trkpt>
      <trkpt lat="46.77433" lon="-1.64612">
        <ele>12</ele>
        <time>2025-08-07T18:49:20Z</time>
      </trkpt>
      <trkpt lat="46.77427" lon="-1.64608">
        <ele>12</ele>
        <time>2025-08-07T18:49:22Z</time>
      </trkpt>
      <trkpt lat="46.77424" lon="-1.64598">
        <ele>12</ele>
        <time>2025-08-07T18:49:24Z</time>
      </trkpt>
      <trkpt lat="46.77421" lon="-1.64587">
        <ele>12</ele>
        <time>2025-08-07T18:49:26Z</time>
      </trkpt>
      <trkpt lat="46.77417" lon="-1.64576">
        <ele>11</ele>
        <time>2025-08-07T18:49:28Z</time>
      </trkpt>
      <trkpt lat="46.77412" lon="-1.64567">
        <ele>11</ele>
        <time>2025-08-07T18:49:30Z</time>
      </trkpt>
      <trkpt lat="46.77407" lon="-1.64559">
        <ele>12</ele>
        <time>2025-08-07T18:49:32Z</time>
      </trkpt>
      <trkpt lat="46.77402" lon="-1.64551">
        <ele>11</ele>
        <time>2025-08-07T18:49:34Z</time>
      </trkpt>
      <trkpt lat="46.77397" lon="-1.64542">
        <ele>11</ele>
        <time>2025-08-07T18:49:36Z</time>
      </trkpt>
      <trkpt lat="46.77394" lon="-1.64531">
        <ele>11</ele>
        <time>2025-08-07T18:49:38Z</time>
      </trkpt>
      <trkpt lat="46.77392" lon="-1.6452">
        <ele>12</ele>
        <time>2025-08-07T18:49:40Z</time>
      </trkpt>
      <trkpt lat="46.77388" lon="-1.64509">
        <ele>11</ele>
        <time>2025-08-07T18:49:42Z</time>
      </trkpt>
      <trkpt lat="46.77383" lon="-1.64501">
        <ele>11</ele>
        <time>2025-08-07T18:49:44Z</time>
      </trkpt>
      <trkpt lat="46.77377" lon="-1.64494">
        <ele>11</ele>
        <time>2025-08-07T18:49:46Z</time>
      </trkpt>
      <trkpt lat="46.77371" lon="-1.64487">
        <ele>11</ele>
        <time>2025-08-07T18:49:48Z</time>
      </trkpt>
      <trkpt lat="46.77366" lon="-1.64478">
        <ele>12</ele>
        <time>2025-08-07T18:49:50Z</time>
      </trkpt>
      <trkpt lat="46.77362" lon="-1.6447">
        <ele>12</ele>
        <time>2025-08-07T18:49:52Z</time>
      </trkpt>
      <trkpt lat="46.77359" lon="-1.64461">
        <ele>12</ele>
        <time>2025-08-07T18:49:54Z</time>
      </trkpt>
      <trkpt lat="46.77356" lon="-1.64451">
        <ele>12</ele>
        <time>2025-08-07T18:49:56Z</time>
      </trkpt>
      <trkpt lat="46.77354" lon="-1.64441">
        <ele>12</ele>
        <time>2025-08-07T18:49:58Z</time>
      </trkpt>
      <trkpt lat="46.77352" lon="-1.64432">
        <ele>13</ele>
        <time>2025-08-07T18:50:00Z</time>
      </trkpt>
      <trkpt lat="46.77351" lon="-1.64423">
        <ele>13</ele>
        <time>2025-08-07T18:50:02Z</time>
      </trkpt>
      <trkpt lat="46.7735" lon="-1.64413">
        <ele>13</ele>
        <time>2025-08-07T18:50:04Z</time>
      </trkpt>
      <trkpt lat="46.77349" lon="-1.64403">
        <ele>13</ele>
        <time>2025-08-07T18:50:06Z</time>
      </trkpt>
      <trkpt lat="46.77348" lon="-1.64393">
        <ele>13</ele>
        <time>2025-08-07T18:50:08Z</time>
      </trkpt>
      <trkpt lat="46.77347" lon="-1.64383">
        <ele>13</ele>
        <time>2025-08-07T18:50:10Z</time>
      </trkpt>
      <trkpt lat="46.77345" lon="-1.64373">
        <ele>14</ele>
        <time>2025-08-07T18:50:12Z</time>
      </trkpt>
      <trkpt lat="46.77343" lon="-1.64363">
        <ele>14</ele>
        <time>2025-08-07T18:50:14Z</time>
      </trkpt>
      <trkpt lat="46.77341" lon="-1.64353">
        <ele>14</ele>
        <time>2025-08-07T18:50:16Z</time>
      </trkpt>
      <trkpt lat="46.77339" lon="-1.64343">
        <ele>15</ele>
        <time>2025-08-07T18:50:18Z</time>
      </trkpt>
      <trkpt lat="46.77337" lon="-1.64334">
        <ele>15</ele>
        <time>2025-08-07T18:50:20Z</time>
      </trkpt>
      <trkpt lat="46.77335" lon="-1.64324">
        <ele>15</ele>
        <time>2025-08-07T18:50:22Z</time>
      </trkpt>
      <trkpt lat="46.77332" lon="-1.64314">
        <ele>15</ele>
        <time>2025-08-07T18:50:24Z</time>
      </trkpt>
      <trkpt lat="46.77331" lon="-1.64304">
        <ele>15</ele>
        <time>2025-08-07T18:50:26Z</time>
      </trkpt>
      <trkpt lat="46.7733" lon="-1.64294">
        <ele>15</ele>
        <time>2025-08-07T18:50:28Z</time>
      </trkpt>
      <trkpt lat="46.77329" lon="-1.64283">
        <ele>15</ele>
        <time>2025-08-07T18:50:30Z</time>
      </trkpt>
      <trkpt lat="46.77328" lon="-1.64274">
        <ele>15</ele>
        <time>2025-08-07T18:50:32Z</time>
      </trkpt>
      <trkpt lat="46.77327" lon="-1.64265">
        <ele>15</ele>
        <time>2025-08-07T18:50:34Z</time>
      </trkpt>
      <trkpt lat="46.77326" lon="-1.64255">
        <ele>15</ele>
        <time>2025-08-07T18:50:36Z</time>
      </trkpt>
      <trkpt lat="46.77324" lon="-1.64245">
        <ele>15</ele>
        <time>2025-08-07T18:50:38Z</time>
      </trkpt>
      <trkpt lat="46.77321" lon="-1.64234">
        <ele>15</ele>
        <time>2025-08-07T18:50:40Z</time>
      </trkpt>
      <trkpt lat="46.77316" lon="-1.64222">
        <ele>16</ele>
        <time>2025-08-07T18:50:42Z</time>
      </trkpt>
      <trkpt lat="46.77314" lon="-1.64213">
        <ele>16</ele>
        <time>2025-08-07T18:50:44Z</time>
      </trkpt>
      <trkpt lat="46.77313" lon="-1.64205">
        <ele>16</ele>
        <time>2025-08-07T18:50:46Z</time>
      </trkpt>
      <trkpt lat="46.77313" lon="-1.64196">
        <ele>17</ele>
        <time>2025-08-07T18:50:48Z</time>
      </trkpt>
      <trkpt lat="46.77311" lon="-1.64187">
        <ele>17</ele>
        <time>2025-08-07T18:50:50Z</time>
      </trkpt>
      <trkpt lat="46.7731" lon="-1.64177">
        <ele>17</ele>
        <time>2025-08-07T18:50:52Z</time>
      </trkpt>
      <trkpt lat="46.77309" lon="-1.64168">
        <ele>17</ele>
        <time>2025-08-07T18:50:54Z</time>
      </trkpt>
      <trkpt lat="46.77306" lon="-1.64159">
        <ele>18</ele>
        <time>2025-08-07T18:50:56Z</time>
      </trkpt>
      <trkpt lat="46.77305" lon="-1.6415">
        <ele>18</ele>
        <time>2025-08-07T18:50:58Z</time>
      </trkpt>
      <trkpt lat="46.77303" lon="-1.6414">
        <ele>19</ele>
        <time>2025-08-07T18:51:00Z</time>
      </trkpt>
      <trkpt lat="46.77303" lon="-1.64131">
        <ele>19</ele>
        <time>2025-08-07T18:51:02Z</time>
      </trkpt>
      <trkpt lat="46.77302" lon="-1.64123">
        <ele>20</ele>
        <time>2025-08-07T18:51:05Z</time>
      </trkpt>
      <trkpt lat="46.773" lon="-1.64116">
        <ele>21</ele>
        <time>2025-08-07T18:51:07Z</time>
      </trkpt>
      <trkpt lat="46.77299" lon="-1.64109">
        <ele>21</ele>
        <time>2025-08-07T18:51:09Z</time>
      </trkpt>
      <trkpt lat="46.77298" lon="-1.64101">
        <ele>22</ele>
        <time>2025-08-07T18:51:11Z</time>
      </trkpt>
      <trkpt lat="46.77296" lon="-1.64094">
        <ele>23</ele>
        <time>2025-08-07T18:51:13Z</time>
      </trkpt>
      <trkpt lat="46.77295" lon="-1.64087">
        <ele>24</ele>
        <time>2025-08-07T18:51:15Z</time>
      </trkpt>
      <trkpt lat="46.77293" lon="-1.6408">
        <ele>25</ele>
        <time>2025-08-07T18:51:17Z</time>
      </trkpt>
      <trkpt lat="46.77291" lon="-1.64072">
        <ele>25</ele>
        <time>2025-08-07T18:51:19Z</time>
      </trkpt>
      <trkpt lat="46.77288" lon="-1.64064">
        <ele>26</ele>
        <time>2025-08-07T18:51:21Z</time>
      </trkpt>
      <trkpt lat="46.77287" lon="-1.64056">
        <ele>26</ele>
        <time>2025-08-07T18:51:23Z</time>
      </trkpt>
      <trkpt lat="46.77284" lon="-1.64048">
        <ele>27</ele>
        <time>2025-08-07T18:51:25Z</time>
      </trkpt>
      <trkpt lat="46.77282" lon="-1.6404">
        <ele>27</ele>
        <time>2025-08-07T18:51:27Z</time>
      </trkpt>
      <trkpt lat="46.7728" lon="-1.64032">
        <ele>28</ele>
        <time>2025-08-07T18:51:29Z</time>
      </trkpt>
      <trkpt lat="46.77279" lon="-1.64025">
        <ele>28</ele>
        <time>2025-08-07T18:51:31Z</time>
      </trkpt>
      <trkpt lat="46.77279" lon="-1.64016">
        <ele>28</ele>
        <time>2025-08-07T18:51:33Z</time>
      </trkpt>
      <trkpt lat="46.7728" lon="-1.64006">
        <ele>28</ele>
        <time>2025-08-07T18:51:35Z</time>
      </trkpt>
      <trkpt lat="46.77283" lon="-1.63995">
        <ele>28</ele>
        <time>2025-08-07T18:51:37Z</time>
      </trkpt>
      <trkpt lat="46.77285" lon="-1.63984">
        <ele>29</ele>
        <time>2025-08-07T18:51:39Z</time>
      </trkpt>
      <trkpt lat="46.77288" lon="-1.63973">
        <ele>29</ele>
        <time>2025-08-07T18:51:41Z</time>
      </trkpt>
      <trkpt lat="46.7729" lon="-1.63962">
        <ele>29</ele>
        <time>2025-08-07T18:51:43Z</time>
      </trkpt>
      <trkpt lat="46.77292" lon="-1.63951">
        <ele>29</ele>
        <time>2025-08-07T18:51:45Z</time>
      </trkpt>
      <trkpt lat="46.77295" lon="-1.6394">
        <ele>29</ele>
        <time>2025-08-07T18:51:47Z</time>
      </trkpt>
      <trkpt lat="46.77297" lon="-1.63928">
        <ele>29</ele>
        <time>2025-08-07T18:51:49Z</time>
      </trkpt>
      <trkpt lat="46.77298" lon="-1.63916">
        <ele>29</ele>
        <time>2025-08-07T18:51:51Z</time>
      </trkpt>
      <trkpt lat="46.77297" lon="-1.63904">
        <ele>29</ele>
        <time>2025-08-07T18:51:53Z</time>
      </trkpt>
      <trkpt lat="46.77294" lon="-1.63891">
        <ele>29</ele>
        <time>2025-08-07T18:51:55Z</time>
      </trkpt>
      <trkpt lat="46.7729" lon="-1.63879">
        <ele>29</ele>
        <time>2025-08-07T18:51:57Z</time>
      </trkpt>
      <trkpt lat="46.77287" lon="-1.63864">
        <ele>29</ele>
        <time>2025-08-07T18:51:59Z</time>
      </trkpt>
      <trkpt lat="46.77286" lon="-1.63847">
        <ele>28</ele>
        <time>2025-08-07T18:52:01Z</time>
      </trkpt>
      <trkpt lat="46.77287" lon="-1.63827">
        <ele>27</ele>
        <time>2025-08-07T18:52:03Z</time>
      </trkpt>
      <trkpt lat="46.77288" lon="-1.63805">
        <ele>26</ele>
        <time>2025-08-07T18:52:05Z</time>
      </trkpt>
      <trkpt lat="46.77291" lon="-1.63782">
        <ele>25</ele>
        <time>2025-08-07T18:52:07Z</time>
      </trkpt>
      <trkpt lat="46.77292" lon="-1.6376">
        <ele>24</ele>
        <time>2025-08-07T18:52:09Z</time>
      </trkpt>
      <trkpt lat="46.77293" lon="-1.63737">
        <ele>24</ele>
        <time>2025-08-07T18:52:11Z</time>
      </trkpt>
      <trkpt lat="46.77295" lon="-1.63715">
        <ele>23</ele>
        <time>2025-08-07T18:52:13Z</time>
      </trkpt>
      <trkpt lat="46.77299" lon="-1.63694">
        <ele>22</ele>
        <time>2025-08-07T18:52:15Z</time>
      </trkpt>
      <trkpt lat="46.77305" lon="-1.63675">
        <ele>22</ele>
        <time>2025-08-07T18:52:17Z</time>
      </trkpt>
      <trkpt lat="46.77312" lon="-1.63657">
        <ele>22</ele>
        <time>2025-08-07T18:52:19Z</time>
      </trkpt>
      <trkpt lat="46.77318" lon="-1.63639">
        <ele>22</ele>
        <time>2025-08-07T18:52:21Z</time>
      </trkpt>
      <trkpt lat="46.77322" lon="-1.63622">
        <ele>22</ele>
        <time>2025-08-07T18:52:23Z</time>
      </trkpt>
      <trkpt lat="46.77326" lon="-1.63605">
        <ele>22</ele>
        <time>2025-08-07T18:52:25Z</time>
      </trkpt>
      <trkpt lat="46.77326" lon="-1.63587">
        <ele>23</ele>
        <time>2025-08-07T18:52:27Z</time>
      </trkpt>
      <trkpt lat="46.77321" lon="-1.63572">
        <ele>23</ele>
        <time>2025-08-07T18:52:29Z</time>
      </trkpt>
      <trkpt lat="46.77313" lon="-1.63559">
        <ele>23</ele>
        <time>2025-08-07T18:52:31Z</time>
      </trkpt>
      <trkpt lat="46.77307" lon="-1.63546">
        <ele>24</ele>
        <time>2025-08-07T18:52:33Z</time>
      </trkpt>
      <trkpt lat="46.77305" lon="-1.63532">
        <ele>25</ele>
        <time>2025-08-07T18:52:35Z</time>
      </trkpt>
      <trkpt lat="46.77304" lon="-1.6352">
        <ele>25</ele>
        <time>2025-08-07T18:52:37Z</time>
      </trkpt>
      <trkpt lat="46.77304" lon="-1.63508">
        <ele>26</ele>
        <time>2025-08-07T18:52:39Z</time>
      </trkpt>
      <trkpt lat="46.77304" lon="-1.63497">
        <ele>26</ele>
        <time>2025-08-07T18:52:41Z</time>
      </trkpt>
      <trkpt lat="46.77303" lon="-1.63487">
        <ele>26</ele>
        <time>2025-08-07T18:52:43Z</time>
      </trkpt>
      <trkpt lat="46.77299" lon="-1.63479">
        <ele>26</ele>
        <time>2025-08-07T18:52:45Z</time>
      </trkpt>
      <trkpt lat="46.7729" lon="-1.63477">
        <ele>25</ele>
        <time>2025-08-07T18:52:47Z</time>
      </trkpt>
      <trkpt lat="46.77279" lon="-1.63477">
        <ele>25</ele>
        <time>2025-08-07T18:52:49Z</time>
      </trkpt>
      <trkpt lat="46.77267" lon="-1.63478">
        <ele>24</ele>
        <time>2025-08-07T18:52:51Z</time>
      </trkpt>
      <trkpt lat="46.77255" lon="-1.63478">
        <ele>23</ele>
        <time>2025-08-07T18:52:53Z</time>
      </trkpt>
      <trkpt lat="46.77242" lon="-1.6348">
        <ele>22</ele>
        <time>2025-08-07T18:52:55Z</time>
      </trkpt>
      <trkpt lat="46.7723" lon="-1.63482">
        <ele>22</ele>
        <time>2025-08-07T18:52:57Z</time>
      </trkpt>
      <trkpt lat="46.77218" lon="-1.63486">
        <ele>21</ele>
        <time>2025-08-07T18:52:59Z</time>
      </trkpt>
      <trkpt lat="46.77207" lon="-1.63491">
        <ele>21</ele>
        <time>2025-08-07T18:53:01Z</time>
      </trkpt>
      <trkpt lat="46.77196" lon="-1.63496">
        <ele>21</ele>
        <time>2025-08-07T18:53:03Z</time>
      </trkpt>
      <trkpt lat="46.77184" lon="-1.635">
        <ele>21</ele>
        <time>2025-08-07T18:53:05Z</time>
      </trkpt>
      <trkpt lat="46.77174" lon="-1.63502">
        <ele>21</ele>
        <time>2025-08-07T18:53:07Z</time>
      </trkpt>
      <trkpt lat="46.77159" lon="-1.63504">
        <ele>21</ele>
        <time>2025-08-07T18:53:09Z</time>
      </trkpt>
      <trkpt lat="46.7715" lon="-1.63505">
        <ele>21</ele>
        <time>2025-08-07T18:53:11Z</time>
      </trkpt>
      <trkpt lat="46.77138" lon="-1.63506">
        <ele>21</ele>
        <time>2025-08-07T18:53:13Z</time>
      </trkpt>
      <trkpt lat="46.77127" lon="-1.63506">
        <ele>21</ele>
        <time>2025-08-07T18:53:15Z</time>
      </trkpt>
      <trkpt lat="46.77116" lon="-1.63505">
        <ele>21</ele>
        <time>2025-08-07T18:53:17Z</time>
      </trkpt>
      <trkpt lat="46.77107" lon="-1.63504">
        <ele>21</ele>
        <time>2025-08-07T18:53:19Z</time>
      </trkpt>
      <trkpt lat="46.771" lon="-1.63496">
        <ele>21</ele>
        <time>2025-08-07T18:53:21Z</time>
      </trkpt>
      <trkpt lat="46.771" lon="-1.63483">
        <ele>21</ele>
        <time>2025-08-07T18:53:23Z</time>
      </trkpt>
      <trkpt lat="46.77102" lon="-1.63467">
        <ele>21</ele>
        <time>2025-08-07T18:53:25Z</time>
      </trkpt>
      <trkpt lat="46.77104" lon="-1.63451">
        <ele>21</ele>
        <time>2025-08-07T18:53:28Z</time>
      </trkpt>
      <trkpt lat="46.77106" lon="-1.63435">
        <ele>21</ele>
        <time>2025-08-07T18:53:30Z</time>
      </trkpt>
      <trkpt lat="46.77107" lon="-1.63421">
        <ele>21</ele>
        <time>2025-08-07T18:53:32Z</time>
      </trkpt>
      <trkpt lat="46.77108" lon="-1.63407">
        <ele>21</ele>
        <time>2025-08-07T18:53:34Z</time>
      </trkpt>
      <trkpt lat="46.77109" lon="-1.63393">
        <ele>21</ele>
        <time>2025-08-07T18:53:36Z</time>
      </trkpt>
      <trkpt lat="46.77109" lon="-1.6338">
        <ele>21</ele>
        <time>2025-08-07T18:53:38Z</time>
      </trkpt>
      <trkpt lat="46.7711" lon="-1.63366">
        <ele>21</ele>
        <time>2025-08-07T18:53:40Z</time>
      </trkpt>
      <trkpt lat="46.77111" lon="-1.63352">
        <ele>21</ele>
        <time>2025-08-07T18:53:42Z</time>
      </trkpt>
      <trkpt lat="46.77112" lon="-1.63338">
        <ele>21</ele>
        <time>2025-08-07T18:53:44Z</time>
      </trkpt>
      <trkpt lat="46.77112" lon="-1.63324">
        <ele>21</ele>
        <time>2025-08-07T18:53:46Z</time>
      </trkpt>
      <trkpt lat="46.77112" lon="-1.6331">
        <ele>21</ele>
        <time>2025-08-07T18:53:48Z</time>
      </trkpt>
      <trkpt lat="46.77112" lon="-1.63296">
        <ele>21</ele>
        <time>2025-08-07T18:53:50Z</time>
      </trkpt>
      <trkpt lat="46.77111" lon="-1.63282">
        <ele>21</ele>
        <time>2025-08-07T18:53:52Z</time>
      </trkpt>
      <trkpt lat="46.77111" lon="-1.63268">
        <ele>21</ele>
        <time>2025-08-07T18:53:54Z</time>
      </trkpt>
      <trkpt lat="46.77111" lon="-1.63255">
        <ele>21</ele>
        <time>2025-08-07T18:53:56Z</time>
      </trkpt>
      <trkpt lat="46.77112" lon="-1.63241">
        <ele>21</ele>
        <time>2025-08-07T18:53:58Z</time>
      </trkpt>
      <trkpt lat="46.77114" lon="-1.63228">
        <ele>21</ele>
        <time>2025-08-07T18:54:00Z</time>
      </trkpt>
      <trkpt lat="46.77115" lon="-1.63215">
        <ele>21</ele>
        <time>2025-08-07T18:54:02Z</time>
      </trkpt>
      <trkpt lat="46.77115" lon="-1.63203">
        <ele>22</ele>
        <time>2025-08-07T18:54:04Z</time>
      </trkpt>
      <trkpt lat="46.77115" lon="-1.6319">
        <ele>22</ele>
        <time>2025-08-07T18:54:06Z</time>
      </trkpt>
      <trkpt lat="46.77114" lon="-1.63178">
        <ele>22</ele>
        <time>2025-08-07T18:54:08Z</time>
      </trkpt>
      <trkpt lat="46.77114" lon="-1.63166">
        <ele>22</ele>
        <time>2025-08-07T18:54:10Z</time>
      </trkpt>
      <trkpt lat="46.77113" lon="-1.63155">
        <ele>23</ele>
        <time>2025-08-07T18:54:12Z</time>
      </trkpt>
      <trkpt lat="46.77113" lon="-1.63144">
        <ele>23</ele>
        <time>2025-08-07T18:54:14Z</time>
      </trkpt>
      <trkpt lat="46.77113" lon="-1.63134">
        <ele>24</ele>
        <time>2025-08-07T18:54:16Z</time>
      </trkpt>
      <trkpt lat="46.77112" lon="-1.63124">
        <ele>24</ele>
        <time>2025-08-07T18:54:18Z</time>
      </trkpt>
      <trkpt lat="46.77111" lon="-1.63113">
        <ele>25</ele>
        <time>2025-08-07T18:54:20Z</time>
      </trkpt>
      <trkpt lat="46.77111" lon="-1.63102">
        <ele>25</ele>
        <time>2025-08-07T18:54:22Z</time>
      </trkpt>
      <trkpt lat="46.7711" lon="-1.63091">
        <ele>25</ele>
        <time>2025-08-07T18:54:24Z</time>
      </trkpt>
      <trkpt lat="46.7711" lon="-1.6308">
        <ele>25</ele>
        <time>2025-08-07T18:54:26Z</time>
      </trkpt>
      <trkpt lat="46.77109" lon="-1.6307">
        <ele>25</ele>
        <time>2025-08-07T18:54:28Z</time>
      </trkpt>
      <trkpt lat="46.77107" lon="-1.63061">
        <ele>25</ele>
        <time>2025-08-07T18:54:30Z</time>
      </trkpt>
      <trkpt lat="46.77104" lon="-1.63052">
        <ele>25</ele>
        <time>2025-08-07T18:54:32Z</time>
      </trkpt>
      <trkpt lat="46.771" lon="-1.63041">
        <ele>25</ele>
        <time>2025-08-07T18:54:34Z</time>
      </trkpt>
      <trkpt lat="46.77097" lon="-1.6303">
        <ele>25</ele>
        <time>2025-08-07T18:54:36Z</time>
      </trkpt>
      <trkpt lat="46.77093" lon="-1.63018">
        <ele>25</ele>
        <time>2025-08-07T18:54:38Z</time>
      </trkpt>
      <trkpt lat="46.77089" lon="-1.63006">
        <ele>25</ele>
        <time>2025-08-07T18:54:40Z</time>
      </trkpt>
      <trkpt lat="46.77087" lon="-1.62993">
        <ele>25</ele>
        <time>2025-08-07T18:54:42Z</time>
      </trkpt>
      <trkpt lat="46.77084" lon="-1.62979">
        <ele>25</ele>
        <time>2025-08-07T18:54:44Z</time>
      </trkpt>
      <trkpt lat="46.77082" lon="-1.62966">
        <ele>25</ele>
        <time>2025-08-07T18:54:46Z</time>
      </trkpt>
      <trkpt lat="46.77079" lon="-1.62954">
        <ele>25</ele>
        <time>2025-08-07T18:54:48Z</time>
      </trkpt>
      <trkpt lat="46.77075" lon="-1.62943">
        <ele>25</ele>
        <time>2025-08-07T18:54:50Z</time>
      </trkpt>
      <trkpt lat="46.77073" lon="-1.62932">
        <ele>25</ele>
        <time>2025-08-07T18:54:52Z</time>
      </trkpt>
      <trkpt lat="46.7707" lon="-1.6292">
        <ele>25</ele>
        <time>2025-08-07T18:54:54Z</time>
      </trkpt>
      <trkpt lat="46.77068" lon="-1.6291">
        <ele>25</ele>
        <time>2025-08-07T18:54:56Z</time>
      </trkpt>
      <trkpt lat="46.77066" lon="-1.62901">
        <ele>25</ele>
        <time>2025-08-07T18:54:58Z</time>
      </trkpt>
      <trkpt lat="46.77064" lon="-1.62893">
        <ele>25</ele>
        <time>2025-08-07T18:55:00Z</time>
      </trkpt>
      <trkpt lat="46.77063" lon="-1.62886">
        <ele>25</ele>
        <time>2025-08-07T18:55:02Z</time>
      </trkpt>
      <trkpt lat="46.7707" lon="-1.62874">
        <ele>25</ele>
        <time>2025-08-07T18:55:04Z</time>
      </trkpt>
      <trkpt lat="46.77078" lon="-1.62864">
        <ele>25</ele>
        <time>2025-08-07T18:55:06Z</time>
      </trkpt>
      <trkpt lat="46.77085" lon="-1.62852">
        <ele>25</ele>
        <time>2025-08-07T18:55:08Z</time>
      </trkpt>
      <trkpt lat="46.77087" lon="-1.62837">
        <ele>24</ele>
        <time>2025-08-07T18:55:10Z</time>
      </trkpt>
      <trkpt lat="46.77087" lon="-1.6282">
        <ele>24</ele>
        <time>2025-08-07T18:55:12Z</time>
      </trkpt>
      <trkpt lat="46.77087" lon="-1.62804">
        <ele>23</ele>
        <time>2025-08-07T18:55:14Z</time>
      </trkpt>
      <trkpt lat="46.77089" lon="-1.62789">
        <ele>23</ele>
        <time>2025-08-07T18:55:16Z</time>
      </trkpt>
      <trkpt lat="46.77089" lon="-1.62776">
        <ele>22</ele>
        <time>2025-08-07T18:55:18Z</time>
      </trkpt>
      <trkpt lat="46.77088" lon="-1.62763">
        <ele>22</ele>
        <time>2025-08-07T18:55:20Z</time>
      </trkpt>
      <trkpt lat="46.77086" lon="-1.6275">
        <ele>22</ele>
        <time>2025-08-07T18:55:22Z</time>
      </trkpt>
      <trkpt lat="46.77083" lon="-1.62736">
        <ele>22</ele>
        <time>2025-08-07T18:55:24Z</time>
      </trkpt>
      <trkpt lat="46.7708" lon="-1.62723">
        <ele>22</ele>
        <time>2025-08-07T18:55:27Z</time>
      </trkpt>
      <trkpt lat="46.77074" lon="-1.62713">
        <ele>22</ele>
        <time>2025-08-07T18:55:29Z</time>
      </trkpt>
      <trkpt lat="46.77066" lon="-1.62706">
        <ele>22</ele>
        <time>2025-08-07T18:55:31Z</time>
      </trkpt>
      <trkpt lat="46.77059" lon="-1.627">
        <ele>22</ele>
        <time>2025-08-07T18:55:33Z</time>
      </trkpt>
      <trkpt lat="46.77052" lon="-1.62694">
        <ele>22</ele>
        <time>2025-08-07T18:55:35Z</time>
      </trkpt>
      <trkpt lat="46.77045" lon="-1.62688">
        <ele>23</ele>
        <time>2025-08-07T18:55:37Z</time>
      </trkpt>
      <trkpt lat="46.77038" lon="-1.62682">
        <ele>23</ele>
        <time>2025-08-07T18:55:39Z</time>
      </trkpt>
      <trkpt lat="46.77031" lon="-1.62676">
        <ele>23</ele>
        <time>2025-08-07T18:55:41Z</time>
      </trkpt>
      <trkpt lat="46.77023" lon="-1.6267">
        <ele>23</ele>
        <time>2025-08-07T18:55:43Z</time>
      </trkpt>
      <trkpt lat="46.77016" lon="-1.62665">
        <ele>23</ele>
        <time>2025-08-07T18:55:45Z</time>
      </trkpt>
      <trkpt lat="46.77009" lon="-1.62659">
        <ele>23</ele>
        <time>2025-08-07T18:55:47Z</time>
      </trkpt>
      <trkpt lat="46.77001" lon="-1.62653">
        <ele>23</ele>
        <time>2025-08-07T18:55:49Z</time>
      </trkpt>
      <trkpt lat="46.76993" lon="-1.62647">
        <ele>23</ele>
        <time>2025-08-07T18:55:51Z</time>
      </trkpt>
      <trkpt lat="46.76986" lon="-1.62641">
        <ele>23</ele>
        <time>2025-08-07T18:55:53Z</time>
      </trkpt>
      <trkpt lat="46.76978" lon="-1.62636">
        <ele>23</ele>
        <time>2025-08-07T18:55:55Z</time>
      </trkpt>
      <trkpt lat="46.76971" lon="-1.62633">
        <ele>23</ele>
        <time>2025-08-07T18:55:57Z</time>
      </trkpt>
      <trkpt lat="46.76963" lon="-1.6263">
        <ele>23</ele>
        <time>2025-08-07T18:55:59Z</time>
      </trkpt>
      <trkpt lat="46.76958" lon="-1.62626">
        <ele>23</ele>
        <time>2025-08-07T18:56:01Z</time>
      </trkpt>
      <trkpt lat="46.76954" lon="-1.62618">
        <ele>24</ele>
        <time>2025-08-07T18:56:03Z</time>
      </trkpt>
      <trkpt lat="46.76952" lon="-1.62608">
        <ele>24</ele>
        <time>2025-08-07T18:56:05Z</time>
      </trkpt>
      <trkpt lat="46.7695" lon="-1.62597">
        <ele>24</ele>
        <time>2025-08-07T18:56:07Z</time>
      </trkpt>
      <trkpt lat="46.76949" lon="-1.62586">
        <ele>24</ele>
        <time>2025-08-07T18:56:09Z</time>
      </trkpt>
      <trkpt lat="46.76948" lon="-1.62576">
        <ele>24</ele>
        <time>2025-08-07T18:56:11Z</time>
      </trkpt>
      <trkpt lat="46.76947" lon="-1.62566">
        <ele>24</ele>
        <time>2025-08-07T18:56:13Z</time>
      </trkpt>
      <trkpt lat="46.76948" lon="-1.62557">
        <ele>24</ele>
        <time>2025-08-07T18:56:15Z</time>
      </trkpt>
      <trkpt lat="46.7695" lon="-1.62548">
        <ele>24</ele>
        <time>2025-08-07T18:56:17Z</time>
      </trkpt>
      <trkpt lat="46.76952" lon="-1.62538">
        <ele>24</ele>
        <time>2025-08-07T18:56:19Z</time>
      </trkpt>
      <trkpt lat="46.76955" lon="-1.62529">
        <ele>24</ele>
        <time>2025-08-07T18:56:21Z</time>
      </trkpt>
      <trkpt lat="46.76958" lon="-1.62519">
        <ele>24</ele>
        <time>2025-08-07T18:56:23Z</time>
      </trkpt>
      <trkpt lat="46.76962" lon="-1.6251">
        <ele>24</ele>
        <time>2025-08-07T18:56:25Z</time>
      </trkpt>
      <trkpt lat="46.76964" lon="-1.625">
        <ele>24</ele>
        <time>2025-08-07T18:56:27Z</time>
      </trkpt>
      <trkpt lat="46.76963" lon="-1.62489">
        <ele>24</ele>
        <time>2025-08-07T18:56:29Z</time>
      </trkpt>
      <trkpt lat="46.76961" lon="-1.62479">
        <ele>24</ele>
        <time>2025-08-07T18:56:31Z</time>
      </trkpt>
      <trkpt lat="46.76959" lon="-1.62468">
        <ele>24</ele>
        <time>2025-08-07T18:56:33Z</time>
      </trkpt>
      <trkpt lat="46.76957" lon="-1.62458">
        <ele>24</ele>
        <time>2025-08-07T18:56:35Z</time>
      </trkpt>
      <trkpt lat="46.76956" lon="-1.62449">
        <ele>25</ele>
        <time>2025-08-07T18:56:37Z</time>
      </trkpt>
      <trkpt lat="46.76954" lon="-1.62439">
        <ele>25</ele>
        <time>2025-08-07T18:56:39Z</time>
      </trkpt>
      <trkpt lat="46.76953" lon="-1.6243">
        <ele>25</ele>
        <time>2025-08-07T18:56:41Z</time>
      </trkpt>
      <trkpt lat="46.76952" lon="-1.62419">
        <ele>25</ele>
        <time>2025-08-07T18:56:43Z</time>
      </trkpt>
      <trkpt lat="46.76951" lon="-1.62408">
        <ele>25</ele>
        <time>2025-08-07T18:56:45Z</time>
      </trkpt>
      <trkpt lat="46.7695" lon="-1.62398">
        <ele>25</ele>
        <time>2025-08-07T18:56:47Z</time>
      </trkpt>
      <trkpt lat="46.76949" lon="-1.62387">
        <ele>25</ele>
        <time>2025-08-07T18:56:49Z</time>
      </trkpt>
      <trkpt lat="46.76948" lon="-1.62377">
        <ele>25</ele>
        <time>2025-08-07T18:56:51Z</time>
      </trkpt>
      <trkpt lat="46.76946" lon="-1.62366">
        <ele>25</ele>
        <time>2025-08-07T18:56:53Z</time>
      </trkpt>
      <trkpt lat="46.76945" lon="-1.62356">
        <ele>25</ele>
        <time>2025-08-07T18:56:55Z</time>
      </trkpt>
      <trkpt lat="46.76944" lon="-1.62345">
        <ele>25</ele>
        <time>2025-08-07T18:56:57Z</time>
      </trkpt>
      <trkpt lat="46.76944" lon="-1.62335">
        <ele>25</ele>
        <time>2025-08-07T18:56:59Z</time>
      </trkpt>
      <trkpt lat="46.76945" lon="-1.62325">
        <ele>25</ele>
        <time>2025-08-07T18:57:01Z</time>
      </trkpt>
      <trkpt lat="46.76946" lon="-1.62315">
        <ele>25</ele>
        <time>2025-08-07T18:57:03Z</time>
      </trkpt>
      <trkpt lat="46.76945" lon="-1.62306">
        <ele>25</ele>
        <time>2025-08-07T18:57:05Z</time>
      </trkpt>
      <trkpt lat="46.76942" lon="-1.62296">
        <ele>25</ele>
        <time>2025-08-07T18:57:07Z</time>
      </trkpt>
      <trkpt lat="46.76939" lon="-1.62287">
        <ele>26</ele>
        <time>2025-08-07T18:57:09Z</time>
      </trkpt>
      <trkpt lat="46.76936" lon="-1.62278">
        <ele>26</ele>
        <time>2025-08-07T18:57:11Z</time>
      </trkpt>
      <trkpt lat="46.76933" lon="-1.62268">
        <ele>26</ele>
        <time>2025-08-07T18:57:13Z</time>
      </trkpt>
      <trkpt lat="46.7693" lon="-1.62259">
        <ele>26</ele>
        <time>2025-08-07T18:57:15Z</time>
      </trkpt>
      <trkpt lat="46.76928" lon="-1.62249">
        <ele>26</ele>
        <time>2025-08-07T18:57:17Z</time>
      </trkpt>
      <trkpt lat="46.76926" lon="-1.6224">
        <ele>26</ele>
        <time>2025-08-07T18:57:19Z</time>
      </trkpt>
      <trkpt lat="46.76923" lon="-1.62231">
        <ele>26</ele>
        <time>2025-08-07T18:57:21Z</time>
      </trkpt>
      <trkpt lat="46.76919" lon="-1.62221">
        <ele>26</ele>
        <time>2025-08-07T18:57:23Z</time>
      </trkpt>
      <trkpt lat="46.76914" lon="-1.62211">
        <ele>26</ele>
        <time>2025-08-07T18:57:25Z</time>
      </trkpt>
      <trkpt lat="46.76907" lon="-1.62197">
        <ele>27</ele>
        <time>2025-08-07T18:57:27Z</time>
      </trkpt>
      <trkpt lat="46.76901" lon="-1.62187">
        <ele>27</ele>
        <time>2025-08-07T18:57:29Z</time>
      </trkpt>
      <trkpt lat="46.76896" lon="-1.62179">
        <ele>27</ele>
        <time>2025-08-07T18:57:31Z</time>
      </trkpt>
      <trkpt lat="46.7689" lon="-1.62173">
        <ele>27</ele>
        <time>2025-08-07T18:57:33Z</time>
      </trkpt>
      <trkpt lat="46.76885" lon="-1.62167">
        <ele>27</ele>
        <time>2025-08-07T18:57:35Z</time>
      </trkpt>
      <trkpt lat="46.76879" lon="-1.62161">
        <ele>28</ele>
        <time>2025-08-07T18:57:37Z</time>
      </trkpt>
      <trkpt lat="46.76874" lon="-1.62153">
        <ele>28</ele>
        <time>2025-08-07T18:57:39Z</time>
      </trkpt>
      <trkpt lat="46.76869" lon="-1.62145">
        <ele>28</ele>
        <time>2025-08-07T18:57:41Z</time>
      </trkpt>
      <trkpt lat="46.76865" lon="-1.62136">
        <ele>28</ele>
        <time>2025-08-07T18:57:43Z</time>
      </trkpt>
      <trkpt lat="46.7686" lon="-1.62128">
        <ele>29</ele>
        <time>2025-08-07T18:57:45Z</time>
      </trkpt>
      <trkpt lat="46.76856" lon="-1.62122">
        <ele>29</ele>
        <time>2025-08-07T18:57:48Z</time>
      </trkpt>
      <trkpt lat="46.7685" lon="-1.62116">
        <ele>29</ele>
        <time>2025-08-07T18:57:50Z</time>
      </trkpt>
      <trkpt lat="46.76844" lon="-1.6211">
        <ele>30</ele>
        <time>2025-08-07T18:57:52Z</time>
      </trkpt>
      <trkpt lat="46.76839" lon="-1.62104">
        <ele>30</ele>
        <time>2025-08-07T18:57:54Z</time>
      </trkpt>
      <trkpt lat="46.76834" lon="-1.62098">
        <ele>30</ele>
        <time>2025-08-07T18:57:56Z</time>
      </trkpt>
      <trkpt lat="46.76828" lon="-1.62091">
        <ele>30</ele>
        <time>2025-08-07T18:57:58Z</time>
      </trkpt>
      <trkpt lat="46.76823" lon="-1.62086">
        <ele>31</ele>
        <time>2025-08-07T18:58:00Z</time>
      </trkpt>
      <trkpt lat="46.76818" lon="-1.62081">
        <ele>31</ele>
        <time>2025-08-07T18:58:02Z</time>
      </trkpt>
      <trkpt lat="46.76812" lon="-1.62077">
        <ele>31</ele>
        <time>2025-08-07T18:58:04Z</time>
      </trkpt>
      <trkpt lat="46.76806" lon="-1.62072">
        <ele>31</ele>
        <time>2025-08-07T18:58:06Z</time>
      </trkpt>
      <trkpt lat="46.76799" lon="-1.62068">
        <ele>32</ele>
        <time>2025-08-07T18:58:08Z</time>
      </trkpt>
      <trkpt lat="46.76793" lon="-1.62062">
        <ele>32</ele>
        <time>2025-08-07T18:58:10Z</time>
      </trkpt>
      <trkpt lat="46.76788" lon="-1.62056">
        <ele>32</ele>
        <time>2025-08-07T18:58:12Z</time>
      </trkpt>
      <trkpt lat="46.76783" lon="-1.62049">
        <ele>32</ele>
        <time>2025-08-07T18:58:14Z</time>
      </trkpt>
      <trkpt lat="46.76778" lon="-1.62042">
        <ele>32</ele>
        <time>2025-08-07T18:58:16Z</time>
      </trkpt>
      <trkpt lat="46.76773" lon="-1.62035">
        <ele>32</ele>
        <time>2025-08-07T18:58:18Z</time>
      </trkpt>
      <trkpt lat="46.76769" lon="-1.62028">
        <ele>33</ele>
        <time>2025-08-07T18:58:20Z</time>
      </trkpt>
      <trkpt lat="46.76764" lon="-1.62022">
        <ele>33</ele>
        <time>2025-08-07T18:58:22Z</time>
      </trkpt>
      <trkpt lat="46.76761" lon="-1.62015">
        <ele>33</ele>
        <time>2025-08-07T18:58:24Z</time>
      </trkpt>
      <trkpt lat="46.76758" lon="-1.62006">
        <ele>34</ele>
        <time>2025-08-07T18:58:26Z</time>
      </trkpt>
      <trkpt lat="46.76758" lon="-1.61998">
        <ele>34</ele>
        <time>2025-08-07T18:58:28Z</time>
      </trkpt>
      <trkpt lat="46.76759" lon="-1.6199">
        <ele>35</ele>
        <time>2025-08-07T18:58:30Z</time>
      </trkpt>
      <trkpt lat="46.7676" lon="-1.61983">
        <ele>35</ele>
        <time>2025-08-07T18:58:32Z</time>
      </trkpt>
      <trkpt lat="46.76761" lon="-1.61975">
        <ele>36</ele>
        <time>2025-08-07T18:58:34Z</time>
      </trkpt>
      <trkpt lat="46.76761" lon="-1.61967">
        <ele>36</ele>
        <time>2025-08-07T18:58:36Z</time>
      </trkpt>
      <trkpt lat="46.76762" lon="-1.61959">
        <ele>36</ele>
        <time>2025-08-07T18:58:38Z</time>
      </trkpt>
      <trkpt lat="46.76762" lon="-1.61952">
        <ele>37</ele>
        <time>2025-08-07T18:58:40Z</time>
      </trkpt>
      <trkpt lat="46.76762" lon="-1.61944">
        <ele>37</ele>
        <time>2025-08-07T18:58:42Z</time>
      </trkpt>
      <trkpt lat="46.76764" lon="-1.61938">
        <ele>37</ele>
        <time>2025-08-07T18:58:44Z</time>
      </trkpt>
      <trkpt lat="46.76773" lon="-1.61935">
        <ele>38</ele>
        <time>2025-08-07T18:58:48Z</time>
      </trkpt>
      <trkpt lat="46.76778" lon="-1.61933">
        <ele>39</ele>
        <time>2025-08-07T18:58:50Z</time>
      </trkpt>
      <trkpt lat="46.76782" lon="-1.61927">
        <ele>39</ele>
        <time>2025-08-07T18:58:52Z</time>
      </trkpt>
      <trkpt lat="46.76786" lon="-1.6192">
        <ele>39</ele>
        <time>2025-08-07T18:58:54Z</time>
      </trkpt>
      <trkpt lat="46.7679" lon="-1.61914">
        <ele>40</ele>
        <time>2025-08-07T18:58:56Z</time>
      </trkpt>
      <trkpt lat="46.76794" lon="-1.61908">
        <ele>40</ele>
        <time>2025-08-07T18:58:58Z</time>
      </trkpt>
      <trkpt lat="46.76799" lon="-1.61903">
        <ele>40</ele>
        <time>2025-08-07T18:59:00Z</time>
      </trkpt>
      <trkpt lat="46.76803" lon="-1.61899">
        <ele>40</ele>
        <time>2025-08-07T18:59:02Z</time>
      </trkpt>
      <trkpt lat="46.76809" lon="-1.61895">
        <ele>40</ele>
        <time>2025-08-07T18:59:04Z</time>
      </trkpt>
      <trkpt lat="46.76814" lon="-1.61891">
        <ele>40</ele>
        <time>2025-08-07T18:59:06Z</time>
      </trkpt>
      <trkpt lat="46.7682" lon="-1.61888">
        <ele>41</ele>
        <time>2025-08-07T18:59:08Z</time>
      </trkpt>
      <trkpt lat="46.76827" lon="-1.61887">
        <ele>41</ele>
        <time>2025-08-07T18:59:10Z</time>
      </trkpt>
      <trkpt lat="46.76834" lon="-1.61886">
        <ele>40</ele>
        <time>2025-08-07T18:59:12Z</time>
      </trkpt>
      <trkpt lat="46.76842" lon="-1.61885">
        <ele>40</ele>
        <time>2025-08-07T18:59:14Z</time>
      </trkpt>
      <trkpt lat="46.76851" lon="-1.61885">
        <ele>40</ele>
        <time>2025-08-07T18:59:16Z</time>
      </trkpt>
      <trkpt lat="46.7686" lon="-1.61886">
        <ele>39</ele>
        <time>2025-08-07T18:59:18Z</time>
      </trkpt>
      <trkpt lat="46.76871" lon="-1.61888">
        <ele>38</ele>
        <time>2025-08-07T18:59:20Z</time>
      </trkpt>
      <trkpt lat="46.76881" lon="-1.61889">
        <ele>38</ele>
        <time>2025-08-07T18:59:22Z</time>
      </trkpt>
      <trkpt lat="46.76892" lon="-1.61895">
        <ele>37</ele>
        <time>2025-08-07T18:59:24Z</time>
      </trkpt>
      <trkpt lat="46.76901" lon="-1.61906">
        <ele>37</ele>
        <time>2025-08-07T18:59:26Z</time>
      </trkpt>
      <trkpt lat="46.76908" lon="-1.61919">
        <ele>37</ele>
        <time>2025-08-07T18:59:28Z</time>
      </trkpt>
      <trkpt lat="46.76916" lon="-1.61931">
        <ele>36</ele>
        <time>2025-08-07T18:59:30Z</time>
      </trkpt>
      <trkpt lat="46.76923" lon="-1.61943">
        <ele>36</ele>
        <time>2025-08-07T18:59:32Z</time>
      </trkpt>
      <trkpt lat="46.76931" lon="-1.61954">
        <ele>36</ele>
        <time>2025-08-07T18:59:34Z</time>
      </trkpt>
      <trkpt lat="46.76937" lon="-1.61965">
        <ele>35</ele>
        <time>2025-08-07T18:59:36Z</time>
      </trkpt>
      <trkpt lat="46.76943" lon="-1.61975">
        <ele>35</ele>
        <time>2025-08-07T18:59:38Z</time>
      </trkpt>
      <trkpt lat="46.76949" lon="-1.61986">
        <ele>35</ele>
        <time>2025-08-07T18:59:40Z</time>
      </trkpt>
      <trkpt lat="46.76955" lon="-1.61995">
        <ele>35</ele>
        <time>2025-08-07T18:59:42Z</time>
      </trkpt>
      <trkpt lat="46.7696" lon="-1.62003">
        <ele>35</ele>
        <time>2025-08-07T18:59:44Z</time>
      </trkpt>
      <trkpt lat="46.76966" lon="-1.62011">
        <ele>35</ele>
        <time>2025-08-07T18:59:46Z</time>
      </trkpt>
      <trkpt lat="46.76973" lon="-1.62019">
        <ele>35</ele>
        <time>2025-08-07T18:59:48Z</time>
      </trkpt>
      <trkpt lat="46.76982" lon="-1.62028">
        <ele>35</ele>
        <time>2025-08-07T18:59:50Z</time>
      </trkpt>
      <trkpt lat="46.76992" lon="-1.62035">
        <ele>35</ele>
        <time>2025-08-07T18:59:52Z</time>
      </trkpt>
      <trkpt lat="46.77001" lon="-1.62039">
        <ele>35</ele>
        <time>2025-08-07T18:59:54Z</time>
      </trkpt>
      <trkpt lat="46.77007" lon="-1.62044">
        <ele>35</ele>
        <time>2025-08-07T18:59:56Z</time>
      </trkpt>
      <trkpt lat="46.77013" lon="-1.62052">
        <ele>35</ele>
        <time>2025-08-07T18:59:58Z</time>
      </trkpt>
      <trkpt lat="46.77019" lon="-1.62061">
        <ele>35</ele>
        <time>2025-08-07T19:00:00Z</time>
      </trkpt>
      <trkpt lat="46.77025" lon="-1.62071">
        <ele>35</ele>
        <time>2025-08-07T19:00:02Z</time>
      </trkpt>
      <trkpt lat="46.7703" lon="-1.62081">
        <ele>35</ele>
        <time>2025-08-07T19:00:04Z</time>
      </trkpt>
      <trkpt lat="46.77035" lon="-1.62092">
        <ele>35</ele>
        <time>2025-08-07T19:00:06Z</time>
      </trkpt>
      <trkpt lat="46.77039" lon="-1.62103">
        <ele>35</ele>
        <time>2025-08-07T19:00:09Z</time>
      </trkpt>
      <trkpt lat="46.77043" lon="-1.62113">
        <ele>35</ele>
        <time>2025-08-07T19:00:11Z</time>
      </trkpt>
      <trkpt lat="46.77047" lon="-1.62123">
        <ele>36</ele>
        <time>2025-08-07T19:00:13Z</time>
      </trkpt>
      <trkpt lat="46.77051" lon="-1.62134">
        <ele>36</ele>
        <time>2025-08-07T19:00:15Z</time>
      </trkpt>
      <trkpt lat="46.77054" lon="-1.62144">
        <ele>36</ele>
        <time>2025-08-07T19:00:17Z</time>
      </trkpt>
      <trkpt lat="46.77058" lon="-1.62154">
        <ele>36</ele>
        <time>2025-08-07T19:00:19Z</time>
      </trkpt>
      <trkpt lat="46.77062" lon="-1.62164">
        <ele>36</ele>
        <time>2025-08-07T19:00:21Z</time>
      </trkpt>
      <trkpt lat="46.77066" lon="-1.62173">
        <ele>37</ele>
        <time>2025-08-07T19:00:23Z</time>
      </trkpt>
      <trkpt lat="46.77071" lon="-1.62181">
        <ele>37</ele>
        <time>2025-08-07T19:00:25Z</time>
      </trkpt>
      <trkpt lat="46.77075" lon="-1.6219">
        <ele>37</ele>
        <time>2025-08-07T19:00:27Z</time>
      </trkpt>
      <trkpt lat="46.7708" lon="-1.622">
        <ele>37</ele>
        <time>2025-08-07T19:00:29Z</time>
      </trkpt>
      <trkpt lat="46.77085" lon="-1.6221">
        <ele>37</ele>
        <time>2025-08-07T19:00:31Z</time>
      </trkpt>
      <trkpt lat="46.77091" lon="-1.6222">
        <ele>37</ele>
        <time>2025-08-07T19:00:33Z</time>
      </trkpt>
      <trkpt lat="46.77097" lon="-1.6223">
        <ele>37</ele>
        <time>2025-08-07T19:00:35Z</time>
      </trkpt>
      <trkpt lat="46.77102" lon="-1.62239">
        <ele>37</ele>
        <time>2025-08-07T19:00:37Z</time>
      </trkpt>
      <trkpt lat="46.77107" lon="-1.62249">
        <ele>37</ele>
        <time>2025-08-07T19:00:39Z</time>
      </trkpt>
      <trkpt lat="46.77111" lon="-1.62258">
        <ele>38</ele>
        <time>2025-08-07T19:00:41Z</time>
      </trkpt>
      <trkpt lat="46.77116" lon="-1.62268">
        <ele>38</ele>
        <time>2025-08-07T19:00:43Z</time>
      </trkpt>
      <trkpt lat="46.77122" lon="-1.62278">
        <ele>38</ele>
        <time>2025-08-07T19:00:45Z</time>
      </trkpt>
      <trkpt lat="46.77128" lon="-1.62284">
        <ele>38</ele>
        <time>2025-08-07T19:00:47Z</time>
      </trkpt>
      <trkpt lat="46.77134" lon="-1.62289">
        <ele>38</ele>
        <time>2025-08-07T19:00:49Z</time>
      </trkpt>
      <trkpt lat="46.7714" lon="-1.62295">
        <ele>38</ele>
        <time>2025-08-07T19:00:51Z</time>
      </trkpt>
      <trkpt lat="46.77144" lon="-1.62303">
        <ele>38</ele>
        <time>2025-08-07T19:00:53Z</time>
      </trkpt>
      <trkpt lat="46.77147" lon="-1.62313">
        <ele>37</ele>
        <time>2025-08-07T19:00:55Z</time>
      </trkpt>
      <trkpt lat="46.77151" lon="-1.62324">
        <ele>37</ele>
        <time>2025-08-07T19:00:57Z</time>
      </trkpt>
      <trkpt lat="46.77156" lon="-1.62334">
        <ele>37</ele>
        <time>2025-08-07T19:00:59Z</time>
      </trkpt>
      <trkpt lat="46.7716" lon="-1.62346">
        <ele>36</ele>
        <time>2025-08-07T19:01:01Z</time>
      </trkpt>
      <trkpt lat="46.77165" lon="-1.62359">
        <ele>36</ele>
        <time>2025-08-07T19:01:03Z</time>
      </trkpt>
      <trkpt lat="46.77169" lon="-1.62372">
        <ele>36</ele>
        <time>2025-08-07T19:01:05Z</time>
      </trkpt>
      <trkpt lat="46.77175" lon="-1.62387">
        <ele>35</ele>
        <time>2025-08-07T19:01:07Z</time>
      </trkpt>
      <trkpt lat="46.77181" lon="-1.62404">
        <ele>34</ele>
        <time>2025-08-07T19:01:09Z</time>
      </trkpt>
      <trkpt lat="46.77186" lon="-1.62421">
        <ele>34</ele>
        <time>2025-08-07T19:01:11Z</time>
      </trkpt>
      <trkpt lat="46.77191" lon="-1.62437">
        <ele>33</ele>
        <time>2025-08-07T19:01:13Z</time>
      </trkpt>
      <trkpt lat="46.77195" lon="-1.62452">
        <ele>32</ele>
        <time>2025-08-07T19:01:15Z</time>
      </trkpt>
      <trkpt lat="46.77199" lon="-1.62463">
        <ele>32</ele>
        <time>2025-08-07T19:01:17Z</time>
      </trkpt>
      <trkpt lat="46.77207" lon="-1.62462">
        <ele>32</ele>
        <time>2025-08-07T19:01:19Z</time>
      </trkpt>
      <trkpt lat="46.77215" lon="-1.62455">
        <ele>32</ele>
        <time>2025-08-07T19:01:21Z</time>
      </trkpt>
      <trkpt lat="46.77224" lon="-1.62446">
        <ele>32</ele>
        <time>2025-08-07T19:01:23Z</time>
      </trkpt>
      <trkpt lat="46.77231" lon="-1.62437">
        <ele>32</ele>
        <time>2025-08-07T19:01:25Z</time>
      </trkpt>
      <trkpt lat="46.77239" lon="-1.62429">
        <ele>32</ele>
        <time>2025-08-07T19:01:27Z</time>
      </trkpt>
      <trkpt lat="46.77247" lon="-1.62421">
        <ele>32</ele>
        <time>2025-08-07T19:01:29Z</time>
      </trkpt>
      <trkpt lat="46.77257" lon="-1.62413">
        <ele>31</ele>
        <time>2025-08-07T19:01:31Z</time>
      </trkpt>
      <trkpt lat="46.77266" lon="-1.62403">
        <ele>31</ele>
        <time>2025-08-07T19:01:33Z</time>
      </trkpt>
      <trkpt lat="46.77276" lon="-1.6239">
        <ele>30</ele>
        <time>2025-08-07T19:01:35Z</time>
      </trkpt>
      <trkpt lat="46.77287" lon="-1.62378">
        <ele>28</ele>
        <time>2025-08-07T19:01:37Z</time>
      </trkpt>
      <trkpt lat="46.77299" lon="-1.62368">
        <ele>28</ele>
        <time>2025-08-07T19:01:39Z</time>
      </trkpt>
      <trkpt lat="46.77313" lon="-1.6236">
        <ele>27</ele>
        <time>2025-08-07T19:01:41Z</time>
      </trkpt>
      <trkpt lat="46.77327" lon="-1.62356">
        <ele>26</ele>
        <time>2025-08-07T19:01:43Z</time>
      </trkpt>
      <trkpt lat="46.77341" lon="-1.62355">
        <ele>26</ele>
        <time>2025-08-07T19:01:45Z</time>
      </trkpt>
      <trkpt lat="46.77353" lon="-1.62358">
        <ele>25</ele>
        <time>2025-08-07T19:01:47Z</time>
      </trkpt>
      <trkpt lat="46.77363" lon="-1.62369">
        <ele>24</ele>
        <time>2025-08-07T19:01:49Z</time>
      </trkpt>
      <trkpt lat="46.77372" lon="-1.62383">
        <ele>22</ele>
        <time>2025-08-07T19:01:51Z</time>
      </trkpt>
      <trkpt lat="46.7738" lon="-1.62391">
        <ele>21</ele>
        <time>2025-08-07T19:01:53Z</time>
      </trkpt>
      <trkpt lat="46.77386" lon="-1.62387">
        <ele>20</ele>
        <time>2025-08-07T19:01:55Z</time>
      </trkpt>
      <trkpt lat="46.77392" lon="-1.62377">
        <ele>19</ele>
        <time>2025-08-07T19:01:57Z</time>
      </trkpt>
      <trkpt lat="46.77402" lon="-1.62371">
        <ele>18</ele>
        <time>2025-08-07T19:01:59Z</time>
      </trkpt>
      <trkpt lat="46.77414" lon="-1.62366">
        <ele>18</ele>
        <time>2025-08-07T19:02:01Z</time>
      </trkpt>
      <trkpt lat="46.77424" lon="-1.6236">
        <ele>17</ele>
        <time>2025-08-07T19:02:03Z</time>
      </trkpt>
      <trkpt lat="46.77433" lon="-1.62347">
        <ele>17</ele>
        <time>2025-08-07T19:02:05Z</time>
      </trkpt>
      <trkpt lat="46.7744" lon="-1.62336">
        <ele>17</ele>
        <time>2025-08-07T19:02:07Z</time>
      </trkpt>
      <trkpt lat="46.77445" lon="-1.62326">
        <ele>17</ele>
        <time>2025-08-07T19:02:09Z</time>
      </trkpt>
      <trkpt lat="46.77448" lon="-1.62314">
        <ele>17</ele>
        <time>2025-08-07T19:02:11Z</time>
      </trkpt>
      <trkpt lat="46.77451" lon="-1.62301">
        <ele>17</ele>
        <time>2025-08-07T19:02:13Z</time>
      </trkpt>
      <trkpt lat="46.77455" lon="-1.62289">
        <ele>17</ele>
        <time>2025-08-07T19:02:15Z</time>
      </trkpt>
      <trkpt lat="46.77459" lon="-1.62277">
        <ele>17</ele>
        <time>2025-08-07T19:02:17Z</time>
      </trkpt>
      <trkpt lat="46.77464" lon="-1.62266">
        <ele>18</ele>
        <time>2025-08-07T19:02:19Z</time>
      </trkpt>
      <trkpt lat="46.7747" lon="-1.62257">
        <ele>18</ele>
        <time>2025-08-07T19:02:21Z</time>
      </trkpt>
      <trkpt lat="46.77476" lon="-1.62249">
        <ele>18</ele>
        <time>2025-08-07T19:02:23Z</time>
      </trkpt>
      <trkpt lat="46.77481" lon="-1.6224">
        <ele>19</ele>
        <time>2025-08-07T19:02:25Z</time>
      </trkpt>
      <trkpt lat="46.77486" lon="-1.62232">
        <ele>19</ele>
        <time>2025-08-07T19:02:27Z</time>
      </trkpt>
      <trkpt lat="46.77491" lon="-1.62228">
        <ele>20</ele>
        <time>2025-08-07T19:02:29Z</time>
      </trkpt>
      <trkpt lat="46.77498" lon="-1.62224">
        <ele>20</ele>
        <time>2025-08-07T19:02:32Z</time>
      </trkpt>
      <trkpt lat="46.77504" lon="-1.62222">
        <ele>21</ele>
        <time>2025-08-07T19:02:34Z</time>
      </trkpt>
      <trkpt lat="46.77512" lon="-1.62218">
        <ele>20</ele>
        <time>2025-08-07T19:02:36Z</time>
      </trkpt>
      <trkpt lat="46.7752" lon="-1.6221">
        <ele>20</ele>
        <time>2025-08-07T19:02:38Z</time>
      </trkpt>
      <trkpt lat="46.77527" lon="-1.62203">
        <ele>20</ele>
        <time>2025-08-07T19:02:40Z</time>
      </trkpt>
      <trkpt lat="46.77532" lon="-1.62195">
        <ele>20</ele>
        <time>2025-08-07T19:02:42Z</time>
      </trkpt>
      <trkpt lat="46.7753" lon="-1.62184">
        <ele>21</ele>
        <time>2025-08-07T19:02:44Z</time>
      </trkpt>
      <trkpt lat="46.77526" lon="-1.62174">
        <ele>21</ele>
        <time>2025-08-07T19:02:46Z</time>
      </trkpt>
      <trkpt lat="46.77523" lon="-1.62163">
        <ele>22</ele>
        <time>2025-08-07T19:02:48Z</time>
      </trkpt>
      <trkpt lat="46.7752" lon="-1.62153">
        <ele>22</ele>
        <time>2025-08-07T19:02:50Z</time>
      </trkpt>
      <trkpt lat="46.77518" lon="-1.62144">
        <ele>23</ele>
        <time>2025-08-07T19:02:52Z</time>
      </trkpt>
      <trkpt lat="46.77515" lon="-1.62136">
        <ele>23</ele>
        <time>2025-08-07T19:02:54Z</time>
      </trkpt>
      <trkpt lat="46.77513" lon="-1.62127">
        <ele>24</ele>
        <time>2025-08-07T19:02:56Z</time>
      </trkpt>
      <trkpt lat="46.7751" lon="-1.62119">
        <ele>24</ele>
        <time>2025-08-07T19:02:58Z</time>
      </trkpt>
      <trkpt lat="46.77506" lon="-1.6211">
        <ele>24</ele>
        <time>2025-08-07T19:03:00Z</time>
      </trkpt>
      <trkpt lat="46.77504" lon="-1.62102">
        <ele>24</ele>
        <time>2025-08-07T19:03:02Z</time>
      </trkpt>
      <trkpt lat="46.77501" lon="-1.62093">
        <ele>24</ele>
        <time>2025-08-07T19:03:04Z</time>
      </trkpt>
      <trkpt lat="46.77498" lon="-1.62085">
        <ele>25</ele>
        <time>2025-08-07T19:03:06Z</time>
      </trkpt>
      <trkpt lat="46.77495" lon="-1.62077">
        <ele>25</ele>
        <time>2025-08-07T19:03:08Z</time>
      </trkpt>
      <trkpt lat="46.77492" lon="-1.62068">
        <ele>25</ele>
        <time>2025-08-07T19:03:10Z</time>
      </trkpt>
      <trkpt lat="46.77491" lon="-1.62059">
        <ele>25</ele>
        <time>2025-08-07T19:03:12Z</time>
      </trkpt>
      <trkpt lat="46.77494" lon="-1.62053">
        <ele>26</ele>
        <time>2025-08-07T19:03:14Z</time>
      </trkpt>
      <trkpt lat="46.77498" lon="-1.62049">
        <ele>26</ele>
        <time>2025-08-07T19:03:16Z</time>
      </trkpt>
      <trkpt lat="46.77504" lon="-1.62046">
        <ele>27</ele>
        <time>2025-08-07T19:03:18Z</time>
      </trkpt>
      <trkpt lat="46.77508" lon="-1.62042">
        <ele>27</ele>
        <time>2025-08-07T19:03:20Z</time>
      </trkpt>
      <trkpt lat="46.77513" lon="-1.62039">
        <ele>27</ele>
        <time>2025-08-07T19:03:22Z</time>
      </trkpt>
      <trkpt lat="46.77517" lon="-1.62035">
        <ele>28</ele>
        <time>2025-08-07T19:03:24Z</time>
      </trkpt>
      <trkpt lat="46.77522" lon="-1.62031">
        <ele>28</ele>
        <time>2025-08-07T19:03:26Z</time>
      </trkpt>
      <trkpt lat="46.77527" lon="-1.62028">
        <ele>28</ele>
        <time>2025-08-07T19:03:28Z</time>
      </trkpt>
      <trkpt lat="46.77531" lon="-1.62025">
        <ele>28</ele>
        <time>2025-08-07T19:03:30Z</time>
      </trkpt>
      <trkpt lat="46.77536" lon="-1.62021">
        <ele>29</ele>
        <time>2025-08-07T19:03:32Z</time>
      </trkpt>
      <trkpt lat="46.77539" lon="-1.62017">
        <ele>29</ele>
        <time>2025-08-07T19:03:34Z</time>
      </trkpt>
      <trkpt lat="46.77543" lon="-1.62012">
        <ele>29</ele>
        <time>2025-08-07T19:03:36Z</time>
      </trkpt>
      <trkpt lat="46.77544" lon="-1.62005">
        <ele>29</ele>
        <time>2025-08-07T19:03:38Z</time>
      </trkpt>
      <trkpt lat="46.77542" lon="-1.61998">
        <ele>30</ele>
        <time>2025-08-07T19:03:40Z</time>
      </trkpt>
      <trkpt lat="46.77539" lon="-1.61991">
        <ele>30</ele>
        <time>2025-08-07T19:03:42Z</time>
      </trkpt>
      <trkpt lat="46.77536" lon="-1.61983">
        <ele>30</ele>
        <time>2025-08-07T19:03:44Z</time>
      </trkpt>
      <trkpt lat="46.77533" lon="-1.61975">
        <ele>30</ele>
        <time>2025-08-07T19:03:46Z</time>
      </trkpt>
      <trkpt lat="46.77531" lon="-1.61965">
        <ele>30</ele>
        <time>2025-08-07T19:03:48Z</time>
      </trkpt>
      <trkpt lat="46.77528" lon="-1.61956">
        <ele>30</ele>
        <time>2025-08-07T19:03:50Z</time>
      </trkpt>
      <trkpt lat="46.77525" lon="-1.61947">
        <ele>30</ele>
        <time>2025-08-07T19:03:52Z</time>
      </trkpt>
      <trkpt lat="46.7752" lon="-1.61939">
        <ele>30</ele>
        <time>2025-08-07T19:03:54Z</time>
      </trkpt>
      <trkpt lat="46.77515" lon="-1.61933">
        <ele>29</ele>
        <time>2025-08-07T19:03:56Z</time>
      </trkpt>
      <trkpt lat="46.77509" lon="-1.61927">
        <ele>29</ele>
        <time>2025-08-07T19:03:58Z</time>
      </trkpt>
      <trkpt lat="46.77502" lon="-1.61921">
        <ele>29</ele>
        <time>2025-08-07T19:04:00Z</time>
      </trkpt>
      <trkpt lat="46.77496" lon="-1.61914">
        <ele>29</ele>
        <time>2025-08-07T19:04:02Z</time>
      </trkpt>
      <trkpt lat="46.77492" lon="-1.61904">
        <ele>28</ele>
        <time>2025-08-07T19:04:04Z</time>
      </trkpt>
      <trkpt lat="46.7749" lon="-1.61891">
        <ele>28</ele>
        <time>2025-08-07T19:04:06Z</time>
      </trkpt>
      <trkpt lat="46.77487" lon="-1.61878">
        <ele>28</ele>
        <time>2025-08-07T19:04:08Z</time>
      </trkpt>
      <trkpt lat="46.77485" lon="-1.61866">
        <ele>28</ele>
        <time>2025-08-07T19:04:10Z</time>
      </trkpt>
      <trkpt lat="46.77482" lon="-1.61855">
        <ele>28</ele>
        <time>2025-08-07T19:04:12Z</time>
      </trkpt>
      <trkpt lat="46.7748" lon="-1.61844">
        <ele>28</ele>
        <time>2025-08-07T19:04:14Z</time>
      </trkpt>
      <trkpt lat="46.77478" lon="-1.61834">
        <ele>28</ele>
        <time>2025-08-07T19:04:16Z</time>
      </trkpt>
      <trkpt lat="46.77477" lon="-1.61822">
        <ele>27</ele>
        <time>2025-08-07T19:04:18Z</time>
      </trkpt>
      <trkpt lat="46.77473" lon="-1.61812">
        <ele>27</ele>
        <time>2025-08-07T19:04:20Z</time>
      </trkpt>
      <trkpt lat="46.77467" lon="-1.61807">
        <ele>27</ele>
        <time>2025-08-07T19:04:22Z</time>
      </trkpt>
      <trkpt lat="46.77461" lon="-1.61805">
        <ele>27</ele>
        <time>2025-08-07T19:04:24Z</time>
      </trkpt>
      <trkpt lat="46.77454" lon="-1.61805">
        <ele>27</ele>
        <time>2025-08-07T19:04:26Z</time>
      </trkpt>
      <trkpt lat="46.77449" lon="-1.61805">
        <ele>27</ele>
        <time>2025-08-07T19:04:28Z</time>
      </trkpt>
      <trkpt lat="46.77443" lon="-1.61803">
        <ele>27</ele>
        <time>2025-08-07T19:04:30Z</time>
      </trkpt>
      <trkpt lat="46.77438" lon="-1.61801">
        <ele>28</ele>
        <time>2025-08-07T19:04:32Z</time>
      </trkpt>
      <trkpt lat="46.77433" lon="-1.61794">
        <ele>28</ele>
        <time>2025-08-07T19:04:34Z</time>
      </trkpt>
      <trkpt lat="46.77432" lon="-1.61785">
        <ele>28</ele>
        <time>2025-08-07T19:04:36Z</time>
      </trkpt>
      <trkpt lat="46.77436" lon="-1.61778">
        <ele>28</ele>
        <time>2025-08-07T19:04:38Z</time>
      </trkpt>
      <trkpt lat="46.77442" lon="-1.61775">
        <ele>28</ele>
        <time>2025-08-07T19:04:40Z</time>
      </trkpt>
      <trkpt lat="46.7745" lon="-1.61775">
        <ele>29</ele>
        <time>2025-08-07T19:04:42Z</time>
      </trkpt>
      <trkpt lat="46.77457" lon="-1.61776">
        <ele>29</ele>
        <time>2025-08-07T19:04:44Z</time>
      </trkpt>
      <trkpt lat="46.77463" lon="-1.61777">
        <ele>29</ele>
        <time>2025-08-07T19:04:46Z</time>
      </trkpt>
      <trkpt lat="46.7747" lon="-1.61778">
        <ele>29</ele>
        <time>2025-08-07T19:04:48Z</time>
      </trkpt>
      <trkpt lat="46.77476" lon="-1.61777">
        <ele>29</ele>
        <time>2025-08-07T19:04:50Z</time>
      </trkpt>
      <trkpt lat="46.77482" lon="-1.61774">
        <ele>29</ele>
        <time>2025-08-07T19:04:52Z</time>
      </trkpt>
      <trkpt lat="46.77485" lon="-1.61766">
        <ele>29</ele>
        <time>2025-08-07T19:04:55Z</time>
      </trkpt>
      <trkpt lat="46.77489" lon="-1.61754">
        <ele>28</ele>
        <time>2025-08-07T19:04:57Z</time>
      </trkpt>
      <trkpt lat="46.77498" lon="-1.61743">
        <ele>27</ele>
        <time>2025-08-07T19:04:59Z</time>
      </trkpt>
      <trkpt lat="46.77508" lon="-1.61735">
        <ele>26</ele>
        <time>2025-08-07T19:05:01Z</time>
      </trkpt>
      <trkpt lat="46.77517" lon="-1.61726">
        <ele>26</ele>
        <time>2025-08-07T19:05:03Z</time>
      </trkpt>
      <trkpt lat="46.77527" lon="-1.61716">
        <ele>25</ele>
        <time>2025-08-07T19:05:05Z</time>
      </trkpt>
      <trkpt lat="46.77535" lon="-1.61705">
        <ele>25</ele>
        <time>2025-08-07T19:05:07Z</time>
      </trkpt>
      <trkpt lat="46.77542" lon="-1.61694">
        <ele>25</ele>
        <time>2025-08-07T19:05:09Z</time>
      </trkpt>
      <trkpt lat="46.77549" lon="-1.61682">
        <ele>24</ele>
        <time>2025-08-07T19:05:11Z</time>
      </trkpt>
      <trkpt lat="46.77554" lon="-1.61671">
        <ele>24</ele>
        <time>2025-08-07T19:05:13Z</time>
      </trkpt>
      <trkpt lat="46.77559" lon="-1.61659">
        <ele>24</ele>
        <time>2025-08-07T19:05:15Z</time>
      </trkpt>
      <trkpt lat="46.77563" lon="-1.61646">
        <ele>23</ele>
        <time>2025-08-07T19:05:17Z</time>
      </trkpt>
      <trkpt lat="46.77568" lon="-1.61632">
        <ele>23</ele>
        <time>2025-08-07T19:05:19Z</time>
      </trkpt>
      <trkpt lat="46.77572" lon="-1.61619">
        <ele>23</ele>
        <time>2025-08-07T19:05:21Z</time>
      </trkpt>
      <trkpt lat="46.77577" lon="-1.61606">
        <ele>23</ele>
        <time>2025-08-07T19:05:23Z</time>
      </trkpt>
      <trkpt lat="46.77582" lon="-1.61594">
        <ele>22</ele>
        <time>2025-08-07T19:05:25Z</time>
      </trkpt>
      <trkpt lat="46.77586" lon="-1.61583">
        <ele>22</ele>
        <time>2025-08-07T19:05:27Z</time>
      </trkpt>
      <trkpt lat="46.7759" lon="-1.61572">
        <ele>22</ele>
        <time>2025-08-07T19:05:29Z</time>
      </trkpt>
      <trkpt lat="46.77594" lon="-1.61561">
        <ele>22</ele>
        <time>2025-08-07T19:05:31Z</time>
      </trkpt>
      <trkpt lat="46.77598" lon="-1.61552">
        <ele>22</ele>
        <time>2025-08-07T19:05:33Z</time>
      </trkpt>
      <trkpt lat="46.77604" lon="-1.61543">
        <ele>22</ele>
        <time>2025-08-07T19:05:35Z</time>
      </trkpt>
      <trkpt lat="46.77611" lon="-1.61534">
        <ele>21</ele>
        <time>2025-08-07T19:05:37Z</time>
      </trkpt>
      <trkpt lat="46.77619" lon="-1.61524">
        <ele>21</ele>
        <time>2025-08-07T19:05:39Z</time>
      </trkpt>
      <trkpt lat="46.77628" lon="-1.61515">
        <ele>21</ele>
        <time>2025-08-07T19:05:41Z</time>
      </trkpt>
      <trkpt lat="46.77635" lon="-1.61505">
        <ele>20</ele>
        <time>2025-08-07T19:05:43Z</time>
      </trkpt>
      <trkpt lat="46.7764" lon="-1.61495">
        <ele>20</ele>
        <time>2025-08-07T19:05:45Z</time>
      </trkpt>
      <trkpt lat="46.7764" lon="-1.61488">
        <ele>20</ele>
        <time>2025-08-07T19:05:49Z</time>
      </trkpt>
      <trkpt lat="46.77642" lon="-1.61482">
        <ele>20</ele>
        <time>2025-08-07T19:06:27Z</time>
      </trkpt>
      <trkpt lat="46.77644" lon="-1.61473">
        <ele>20</ele>
        <time>2025-08-07T19:06:35Z</time>
      </trkpt>
      <trkpt lat="46.77647" lon="-1.61465">
        <ele>19</ele>
        <time>2025-08-07T19:06:37Z</time>
      </trkpt>
      <trkpt lat="46.7765" lon="-1.61455">
        <ele>20</ele>
        <time>2025-08-07T19:06:39Z</time>
      </trkpt>
      <trkpt lat="46.77652" lon="-1.61445">
        <ele>20</ele>
        <time>2025-08-07T19:06:41Z</time>
      </trkpt>
      <trkpt lat="46.77654" lon="-1.61434">
        <ele>20</ele>
        <time>2025-08-07T19:06:43Z</time>
      </trkpt>
      <trkpt lat="46.77657" lon="-1.61425">
        <ele>21</ele>
        <time>2025-08-07T19:06:45Z</time>
      </trkpt>
      <trkpt lat="46.77662" lon="-1.61418">
        <ele>21</ele>
        <time>2025-08-07T19:06:47Z</time>
      </trkpt>
      <trkpt lat="46.77667" lon="-1.61411">
        <ele>22</ele>
        <time>2025-08-07T19:06:49Z</time>
      </trkpt>
      <trkpt lat="46.77671" lon="-1.61404">
        <ele>22</ele>
        <time>2025-08-07T19:06:51Z</time>
      </trkpt>
      <trkpt lat="46.77676" lon="-1.61396">
        <ele>22</ele>
        <time>2025-08-07T19:06:53Z</time>
      </trkpt>
      <trkpt lat="46.77683" lon="-1.61385">
        <ele>22</ele>
        <time>2025-08-07T19:06:55Z</time>
      </trkpt>
      <trkpt lat="46.77687" lon="-1.61373">
        <ele>22</ele>
        <time>2025-08-07T19:06:57Z</time>
      </trkpt>
      <trkpt lat="46.77694" lon="-1.61356">
        <ele>21</ele>
        <time>2025-08-07T19:06:59Z</time>
      </trkpt>
      <trkpt lat="46.77699" lon="-1.61339">
        <ele>20</ele>
        <time>2025-08-07T19:07:01Z</time>
      </trkpt>
      <trkpt lat="46.77702" lon="-1.61321">
        <ele>20</ele>
        <time>2025-08-07T19:07:03Z</time>
      </trkpt>
      <trkpt lat="46.77704" lon="-1.61303">
        <ele>19</ele>
        <time>2025-08-07T19:07:05Z</time>
      </trkpt>
      <trkpt lat="46.77704" lon="-1.61287">
        <ele>18</ele>
        <time>2025-08-07T19:07:07Z</time>
      </trkpt>
      <trkpt lat="46.77701" lon="-1.61274">
        <ele>18</ele>
        <time>2025-08-07T19:07:09Z</time>
      </trkpt>
      <trkpt lat="46.77699" lon="-1.61261">
        <ele>18</ele>
        <time>2025-08-07T19:07:11Z</time>
      </trkpt>
      <trkpt lat="46.77702" lon="-1.61248">
        <ele>17</ele>
        <time>2025-08-07T19:07:13Z</time>
      </trkpt>
      <trkpt lat="46.77708" lon="-1.61239">
        <ele>17</ele>
        <time>2025-08-07T19:07:15Z</time>
      </trkpt>
      <trkpt lat="46.77714" lon="-1.61232">
        <ele>17</ele>
        <time>2025-08-07T19:07:17Z</time>
      </trkpt>
      <trkpt lat="46.77719" lon="-1.61223">
        <ele>17</ele>
        <time>2025-08-07T19:07:19Z</time>
      </trkpt>
      <trkpt lat="46.77724" lon="-1.61213">
        <ele>17</ele>
        <time>2025-08-07T19:07:21Z</time>
      </trkpt>
      <trkpt lat="46.7773" lon="-1.61202">
        <ele>17</ele>
        <time>2025-08-07T19:07:23Z</time>
      </trkpt>
      <trkpt lat="46.77736" lon="-1.61191">
        <ele>17</ele>
        <time>2025-08-07T19:07:26Z</time>
      </trkpt>
      <trkpt lat="46.77742" lon="-1.6118">
        <ele>17</ele>
        <time>2025-08-07T19:07:28Z</time>
      </trkpt>
      <trkpt lat="46.77748" lon="-1.61169">
        <ele>17</ele>
        <time>2025-08-07T19:07:30Z</time>
      </trkpt>
      <trkpt lat="46.77754" lon="-1.61158">
        <ele>17</ele>
        <time>2025-08-07T19:07:32Z</time>
      </trkpt>
      <trkpt lat="46.77761" lon="-1.61149">
        <ele>17</ele>
        <time>2025-08-07T19:07:34Z</time>
      </trkpt>
      <trkpt lat="46.77767" lon="-1.61141">
        <ele>17</ele>
        <time>2025-08-07T19:07:36Z</time>
      </trkpt>
      <trkpt lat="46.77773" lon="-1.61133">
        <ele>17</ele>
        <time>2025-08-07T19:07:38Z</time>
      </trkpt>
      <trkpt lat="46.77778" lon="-1.61125">
        <ele>17</ele>
        <time>2025-08-07T19:07:40Z</time>
      </trkpt>
      <trkpt lat="46.77782" lon="-1.61118">
        <ele>17</ele>
        <time>2025-08-07T19:07:42Z</time>
      </trkpt>
      <trkpt lat="46.77785" lon="-1.61109">
        <ele>17</ele>
        <time>2025-08-07T19:07:44Z</time>
      </trkpt>
      <trkpt lat="46.77787" lon="-1.61098">
        <ele>16</ele>
        <time>2025-08-07T19:07:46Z</time>
      </trkpt>
      <trkpt lat="46.7779" lon="-1.61086">
        <ele>16</ele>
        <time>2025-08-07T19:07:48Z</time>
      </trkpt>
      <trkpt lat="46.77792" lon="-1.61075">
        <ele>16</ele>
        <time>2025-08-07T19:07:50Z</time>
      </trkpt>
      <trkpt lat="46.77796" lon="-1.61065">
        <ele>16</ele>
        <time>2025-08-07T19:07:52Z</time>
      </trkpt>
      <trkpt lat="46.77801" lon="-1.61056">
        <ele>16</ele>
        <time>2025-08-07T19:07:54Z</time>
      </trkpt>
      <trkpt lat="46.77807" lon="-1.61049">
        <ele>16</ele>
        <time>2025-08-07T19:07:56Z</time>
      </trkpt>
      <trkpt lat="46.77813" lon="-1.61043">
        <ele>16</ele>
        <time>2025-08-07T19:07:58Z</time>
      </trkpt>
      <trkpt lat="46.77819" lon="-1.61037">
        <ele>16</ele>
        <time>2025-08-07T19:08:00Z</time>
      </trkpt>
      <trkpt lat="46.77824" lon="-1.61029">
        <ele>16</ele>
        <time>2025-08-07T19:08:02Z</time>
      </trkpt>
      <trkpt lat="46.77829" lon="-1.61019">
        <ele>16</ele>
        <time>2025-08-07T19:08:04Z</time>
      </trkpt>
      <trkpt lat="46.77836" lon="-1.61011">
        <ele>16</ele>
        <time>2025-08-07T19:08:06Z</time>
      </trkpt>
      <trkpt lat="46.77842" lon="-1.61004">
        <ele>16</ele>
        <time>2025-08-07T19:08:08Z</time>
      </trkpt>
      <trkpt lat="46.77848" lon="-1.60998">
        <ele>16</ele>
        <time>2025-08-07T19:08:10Z</time>
      </trkpt>
      <trkpt lat="46.77853" lon="-1.60993">
        <ele>16</ele>
        <time>2025-08-07T19:08:12Z</time>
      </trkpt>
      <trkpt lat="46.77856" lon="-1.60989">
        <ele>16</ele>
        <time>2025-08-07T19:08:14Z</time>
      </trkpt>
      <trkpt lat="46.77861" lon="-1.60983">
        <ele>16</ele>
        <time>2025-08-07T19:08:16Z</time>
      </trkpt>
      <trkpt lat="46.7786" lon="-1.60974">
        <ele>16</ele>
        <time>2025-08-07T19:08:20Z</time>
      </trkpt>
      <trkpt lat="46.77856" lon="-1.60975">
        <ele>16</ele>
        <time>2025-08-07T19:08:22Z</time>
      </trkpt>
      <trkpt lat="46.77851" lon="-1.60975">
        <ele>17</ele>
        <time>2025-08-07T19:08:24Z</time>
      </trkpt>
      <trkpt lat="46.77846" lon="-1.60974">
        <ele>17</ele>
        <time>2025-08-07T19:08:26Z</time>
      </trkpt>
      <trkpt lat="46.77841" lon="-1.60974">
        <ele>17</ele>
        <time>2025-08-07T19:08:28Z</time>
      </trkpt>
      <trkpt lat="46.77834" lon="-1.60976">
        <ele>18</ele>
        <time>2025-08-07T19:08:32Z</time>
      </trkpt>
      <trkpt lat="46.7783" lon="-1.60981">
        <ele>18</ele>
        <time>2025-08-07T19:08:36Z</time>
      </trkpt>
      <trkpt lat="46.77826" lon="-1.60987">
        <ele>18</ele>
        <time>2025-08-07T19:08:40Z</time>
      </trkpt>
      <trkpt lat="46.77821" lon="-1.60992">
        <ele>18</ele>
        <time>2025-08-07T19:08:44Z</time>
      </trkpt>
      <trkpt lat="46.77817" lon="-1.60995">
        <ele>18</ele>
        <time>2025-08-07T19:08:46Z</time>
      </trkpt>
      <trkpt lat="46.77812" lon="-1.61">
        <ele>18</ele>
        <time>2025-08-07T19:08:48Z</time>
      </trkpt>
      <trkpt lat="46.77808" lon="-1.61005">
        <ele>17</ele>
        <time>2025-08-07T19:08:50Z</time>
      </trkpt>
      <trkpt lat="46.77805" lon="-1.6101">
        <ele>17</ele>
        <time>2025-08-07T19:08:52Z</time>
      </trkpt>
      <trkpt lat="46.778" lon="-1.61017">
        <ele>17</ele>
        <time>2025-08-07T19:08:56Z</time>
      </trkpt>
      <trkpt lat="46.77795" lon="-1.61025">
        <ele>17</ele>
        <time>2025-08-07T19:09:00Z</time>
      </trkpt>
      <trkpt lat="46.77788" lon="-1.61033">
        <ele>17</ele>
        <time>2025-08-07T19:09:02Z</time>
      </trkpt>
      <trkpt lat="46.77783" lon="-1.6104">
        <ele>17</ele>
        <time>2025-08-07T19:09:04Z</time>
      </trkpt>
      <trkpt lat="46.7778" lon="-1.61046">
        <ele>17</ele>
        <time>2025-08-07T19:09:06Z</time>
      </trkpt>
      <trkpt lat="46.77777" lon="-1.61052">
        <ele>17</ele>
        <time>2025-08-07T19:09:08Z</time>
      </trkpt>
      <trkpt lat="46.7777" lon="-1.61053">
        <ele>18</ele>
        <time>2025-08-07T19:09:12Z</time>
      </trkpt>
      <trkpt lat="46.77765" lon="-1.61051">
        <ele>18</ele>
        <time>2025-08-07T19:09:14Z</time>
      </trkpt>
      <trkpt lat="46.7776" lon="-1.61049">
        <ele>18</ele>
        <time>2025-08-07T19:09:16Z</time>
      </trkpt>
      <trkpt lat="46.77755" lon="-1.61047">
        <ele>19</ele>
        <time>2025-08-07T19:09:18Z</time>
      </trkpt>
      <trkpt lat="46.7775" lon="-1.61045">
        <ele>19</ele>
        <time>2025-08-07T19:09:20Z</time>
      </trkpt>
      <trkpt lat="46.77746" lon="-1.61043">
        <ele>19</ele>
        <time>2025-08-07T19:09:22Z</time>
      </trkpt>
      <trkpt lat="46.77739" lon="-1.61037">
        <ele>20</ele>
        <time>2025-08-07T19:09:26Z</time>
      </trkpt>
      <trkpt lat="46.77732" lon="-1.61033">
        <ele>21</ele>
        <time>2025-08-07T19:09:30Z</time>
      </trkpt>
      <trkpt lat="46.77731" lon="-1.61024">
        <ele>22</ele>
        <time>2025-08-07T19:09:35Z</time>
      </trkpt>
      <trkpt lat="46.77736" lon="-1.61021">
        <ele>22</ele>
        <time>2025-08-07T19:09:39Z</time>
      </trkpt>
      <trkpt lat="46.77742" lon="-1.61014">
        <ele>22</ele>
        <time>2025-08-07T19:09:43Z</time>
      </trkpt>
      <trkpt lat="46.77748" lon="-1.61007">
        <ele>21</ele>
        <time>2025-08-07T19:09:47Z</time>
      </trkpt>
      <trkpt lat="46.77755" lon="-1.61012">
        <ele>20</ele>
        <time>2025-08-07T19:09:51Z</time>
      </trkpt>
      <trkpt lat="46.77762" lon="-1.61019">
        <ele>19</ele>
        <time>2025-08-07T19:09:55Z</time>
      </trkpt>
      <trkpt lat="46.77768" lon="-1.6102">
        <ele>19</ele>
        <time>2025-08-07T19:09:57Z</time>
      </trkpt>
      <trkpt lat="46.77774" lon="-1.6102">
        <ele>19</ele>
        <time>2025-08-07T19:09:59Z</time>
      </trkpt>
      <trkpt lat="46.77781" lon="-1.61018">
        <ele>18</ele>
        <time>2025-08-07T19:10:01Z</time>
      </trkpt>
      <trkpt lat="46.77787" lon="-1.61013">
        <ele>18</ele>
        <time>2025-08-07T19:10:03Z</time>
      </trkpt>
      <trkpt lat="46.77792" lon="-1.61006">
        <ele>18</ele>
        <time>2025-08-07T19:10:05Z</time>
      </trkpt>
      <trkpt lat="46.77797" lon="-1.60997">
        <ele>18</ele>
        <time>2025-08-07T19:10:07Z</time>
      </trkpt>
      <trkpt lat="46.77797" lon="-1.60987">
        <ele>18</ele>
        <time>2025-08-07T19:10:09Z</time>
      </trkpt>
      <trkpt lat="46.77799" lon="-1.60979">
        <ele>19</ele>
        <time>2025-08-07T19:10:11Z</time>
      </trkpt>
      <trkpt lat="46.77802" lon="-1.60973">
        <ele>19</ele>
        <time>2025-08-07T19:10:13Z</time>
      </trkpt>
      <trkpt lat="46.77806" lon="-1.60967">
        <ele>19</ele>
        <time>2025-08-07T19:10:15Z</time>
      </trkpt>
      <trkpt lat="46.77803" lon="-1.60955">
        <ele>20</ele>
        <time>2025-08-07T19:10:19Z</time>
      </trkpt>
      <trkpt lat="46.77795" lon="-1.60949">
        <ele>21</ele>
        <time>2025-08-07T19:10:23Z</time>
      </trkpt>
      <trkpt lat="46.7779" lon="-1.60954">
        <ele>21</ele>
        <time>2025-08-07T19:10:27Z</time>
      </trkpt>
      <trkpt lat="46.77784" lon="-1.60954">
        <ele>22</ele>
        <time>2025-08-07T19:10:31Z</time>
      </trkpt>
      <trkpt lat="46.77782" lon="-1.60943">
        <ele>22</ele>
        <time>2025-08-07T19:10:35Z</time>
      </trkpt>
      <trkpt lat="46.77784" lon="-1.60936">
        <ele>22</ele>
        <time>2025-08-07T19:10:37Z</time>
      </trkpt>
      <trkpt lat="46.77787" lon="-1.6093">
        <ele>23</ele>
        <time>2025-08-07T19:10:39Z</time>
      </trkpt>
      <trkpt lat="46.77791" lon="-1.60926">
        <ele>23</ele>
        <time>2025-08-07T19:10:41Z</time>
      </trkpt>
      <trkpt lat="46.77795" lon="-1.60922">
        <ele>23</ele>
        <time>2025-08-07T19:10:43Z</time>
      </trkpt>
      <trkpt lat="46.77799" lon="-1.60917">
        <ele>23</ele>
        <time>2025-08-07T19:10:45Z</time>
      </trkpt>
      <trkpt lat="46.77801" lon="-1.60911">
        <ele>22</ele>
        <time>2025-08-07T19:10:47Z</time>
      </trkpt>
      <trkpt lat="46.77801" lon="-1.609">
        <ele>21</ele>
        <time>2025-08-07T19:10:49Z</time>
      </trkpt>
      <trkpt lat="46.77797" lon="-1.60886">
        <ele>21</ele>
        <time>2025-08-07T19:10:51Z</time>
      </trkpt>
      <trkpt lat="46.77791" lon="-1.60873">
        <ele>20</ele>
        <time>2025-08-07T19:10:53Z</time>
      </trkpt>
      <trkpt lat="46.77786" lon="-1.6086">
        <ele>20</ele>
        <time>2025-08-07T19:10:55Z</time>
      </trkpt>
      <trkpt lat="46.77786" lon="-1.60846">
        <ele>19</ele>
        <time>2025-08-07T19:10:57Z</time>
      </trkpt>
      <trkpt lat="46.77789" lon="-1.60832">
        <ele>19</ele>
        <time>2025-08-07T19:10:59Z</time>
      </trkpt>
      <trkpt lat="46.77794" lon="-1.60819">
        <ele>19</ele>
        <time>2025-08-07T19:11:01Z</time>
      </trkpt>
      <trkpt lat="46.77798" lon="-1.60806">
        <ele>19</ele>
        <time>2025-08-07T19:11:03Z</time>
      </trkpt>
      <trkpt lat="46.77801" lon="-1.60794">
        <ele>19</ele>
        <time>2025-08-07T19:11:05Z</time>
      </trkpt>
      <trkpt lat="46.77801" lon="-1.60781">
        <ele>19</ele>
        <time>2025-08-07T19:11:07Z</time>
      </trkpt>
      <trkpt lat="46.77798" lon="-1.6077">
        <ele>19</ele>
        <time>2025-08-07T19:11:09Z</time>
      </trkpt>
      <trkpt lat="46.77792" lon="-1.60756">
        <ele>20</ele>
        <time>2025-08-07T19:11:11Z</time>
      </trkpt>
      <trkpt lat="46.77788" lon="-1.60745">
        <ele>20</ele>
        <time>2025-08-07T19:11:13Z</time>
      </trkpt>
      <trkpt lat="46.77784" lon="-1.60736">
        <ele>20</ele>
        <time>2025-08-07T19:11:15Z</time>
      </trkpt>
      <trkpt lat="46.7778" lon="-1.60727">
        <ele>21</ele>
        <time>2025-08-07T19:11:17Z</time>
      </trkpt>
      <trkpt lat="46.77778" lon="-1.60717">
        <ele>21</ele>
        <time>2025-08-07T19:11:19Z</time>
      </trkpt>
      <trkpt lat="46.77776" lon="-1.60707">
        <ele>22</ele>
        <time>2025-08-07T19:11:21Z</time>
      </trkpt>
      <trkpt lat="46.77774" lon="-1.60697">
        <ele>22</ele>
        <time>2025-08-07T19:11:23Z</time>
      </trkpt>
      <trkpt lat="46.77771" lon="-1.60688">
        <ele>23</ele>
        <time>2025-08-07T19:11:25Z</time>
      </trkpt>
      <trkpt lat="46.7777" lon="-1.60678">
        <ele>23</ele>
        <time>2025-08-07T19:11:27Z</time>
      </trkpt>
      <trkpt lat="46.77768" lon="-1.60667">
        <ele>24</ele>
        <time>2025-08-07T19:11:29Z</time>
      </trkpt>
      <trkpt lat="46.77767" lon="-1.60657">
        <ele>24</ele>
        <time>2025-08-07T19:11:31Z</time>
      </trkpt>
      <trkpt lat="46.77765" lon="-1.60647">
        <ele>24</ele>
        <time>2025-08-07T19:11:34Z</time>
      </trkpt>
      <trkpt lat="46.77763" lon="-1.60637">
        <ele>25</ele>
        <time>2025-08-07T19:11:36Z</time>
      </trkpt>
      <trkpt lat="46.77762" lon="-1.60628">
        <ele>25</ele>
        <time>2025-08-07T19:11:38Z</time>
      </trkpt>
      <trkpt lat="46.7776" lon="-1.60618">
        <ele>26</ele>
        <time>2025-08-07T19:11:40Z</time>
      </trkpt>
      <trkpt lat="46.77758" lon="-1.60608">
        <ele>26</ele>
        <time>2025-08-07T19:11:42Z</time>
      </trkpt>
      <trkpt lat="46.77756" lon="-1.60598">
        <ele>27</ele>
        <time>2025-08-07T19:11:44Z</time>
      </trkpt>
      <trkpt lat="46.77754" lon="-1.60588">
        <ele>27</ele>
        <time>2025-08-07T19:11:46Z</time>
      </trkpt>
      <trkpt lat="46.77752" lon="-1.60579">
        <ele>27</ele>
        <time>2025-08-07T19:11:48Z</time>
      </trkpt>
      <trkpt lat="46.77751" lon="-1.60569">
        <ele>27</ele>
        <time>2025-08-07T19:11:50Z</time>
      </trkpt>
      <trkpt lat="46.77749" lon="-1.6056">
        <ele>28</ele>
        <time>2025-08-07T19:11:52Z</time>
      </trkpt>
      <trkpt lat="46.77747" lon="-1.60551">
        <ele>28</ele>
        <time>2025-08-07T19:11:54Z</time>
      </trkpt>
      <trkpt lat="46.77746" lon="-1.60541">
        <ele>28</ele>
        <time>2025-08-07T19:11:56Z</time>
      </trkpt>
      <trkpt lat="46.77744" lon="-1.60531">
        <ele>29</ele>
        <time>2025-08-07T19:11:58Z</time>
      </trkpt>
      <trkpt lat="46.77741" lon="-1.60521">
        <ele>29</ele>
        <time>2025-08-07T19:12:00Z</time>
      </trkpt>
      <trkpt lat="46.77737" lon="-1.60512">
        <ele>29</ele>
        <time>2025-08-07T19:12:02Z</time>
      </trkpt>
      <trkpt lat="46.77735" lon="-1.60502">
        <ele>29</ele>
        <time>2025-08-07T19:12:04Z</time>
      </trkpt>
      <trkpt lat="46.77733" lon="-1.60492">
        <ele>30</ele>
        <time>2025-08-07T19:12:06Z</time>
      </trkpt>
      <trkpt lat="46.77731" lon="-1.60482">
        <ele>30</ele>
        <time>2025-08-07T19:12:08Z</time>
      </trkpt>
      <trkpt lat="46.7773" lon="-1.60473">
        <ele>30</ele>
        <time>2025-08-07T19:12:10Z</time>
      </trkpt>
      <trkpt lat="46.77728" lon="-1.60463">
        <ele>31</ele>
        <time>2025-08-07T19:12:12Z</time>
      </trkpt>
      <trkpt lat="46.77725" lon="-1.60454">
        <ele>31</ele>
        <time>2025-08-07T19:12:14Z</time>
      </trkpt>
      <trkpt lat="46.77723" lon="-1.60445">
        <ele>31</ele>
        <time>2025-08-07T19:12:16Z</time>
      </trkpt>
      <trkpt lat="46.7772" lon="-1.60435">
        <ele>31</ele>
        <time>2025-08-07T19:12:18Z</time>
      </trkpt>
      <trkpt lat="46.77716" lon="-1.60426">
        <ele>32</ele>
        <time>2025-08-07T19:12:20Z</time>
      </trkpt>
      <trkpt lat="46.77712" lon="-1.60418">
        <ele>32</ele>
        <time>2025-08-07T19:12:22Z</time>
      </trkpt>
      <trkpt lat="46.77707" lon="-1.60411">
        <ele>32</ele>
        <time>2025-08-07T19:12:24Z</time>
      </trkpt>
      <trkpt lat="46.77701" lon="-1.60405">
        <ele>32</ele>
        <time>2025-08-07T19:12:26Z</time>
      </trkpt>
      <trkpt lat="46.77697" lon="-1.60399">
        <ele>33</ele>
        <time>2025-08-07T19:12:28Z</time>
      </trkpt>
      <trkpt lat="46.77699" lon="-1.60392">
        <ele>33</ele>
        <time>2025-08-07T19:12:30Z</time>
      </trkpt>
      <trkpt lat="46.77706" lon="-1.60388">
        <ele>33</ele>
        <time>2025-08-07T19:12:32Z</time>
      </trkpt>
      <trkpt lat="46.77713" lon="-1.60387">
        <ele>33</ele>
        <time>2025-08-07T19:12:34Z</time>
      </trkpt>
      <trkpt lat="46.77721" lon="-1.60388">
        <ele>33</ele>
        <time>2025-08-07T19:12:36Z</time>
      </trkpt>
      <trkpt lat="46.77728" lon="-1.60389">
        <ele>33</ele>
        <time>2025-08-07T19:12:38Z</time>
      </trkpt>
      <trkpt lat="46.77737" lon="-1.60391">
        <ele>32</ele>
        <time>2025-08-07T19:12:40Z</time>
      </trkpt>
      <trkpt lat="46.77746" lon="-1.6039">
        <ele>31</ele>
        <time>2025-08-07T19:12:42Z</time>
      </trkpt>
      <trkpt lat="46.77758" lon="-1.60387">
        <ele>30</ele>
        <time>2025-08-07T19:12:44Z</time>
      </trkpt>
      <trkpt lat="46.7777" lon="-1.60378">
        <ele>30</ele>
        <time>2025-08-07T19:12:46Z</time>
      </trkpt>
      <trkpt lat="46.7778" lon="-1.60362">
        <ele>29</ele>
        <time>2025-08-07T19:12:48Z</time>
      </trkpt>
      <trkpt lat="46.77787" lon="-1.60344">
        <ele>28</ele>
        <time>2025-08-07T19:12:50Z</time>
      </trkpt>
      <trkpt lat="46.77792" lon="-1.60326">
        <ele>28</ele>
        <time>2025-08-07T19:12:52Z</time>
      </trkpt>
      <trkpt lat="46.77797" lon="-1.60309">
        <ele>28</ele>
        <time>2025-08-07T19:12:54Z</time>
      </trkpt>
      <trkpt lat="46.77802" lon="-1.60294">
        <ele>28</ele>
        <time>2025-08-07T19:12:56Z</time>
      </trkpt>
      <trkpt lat="46.77807" lon="-1.60279">
        <ele>28</ele>
        <time>2025-08-07T19:12:58Z</time>
      </trkpt>
      <trkpt lat="46.77813" lon="-1.60264">
        <ele>28</ele>
        <time>2025-08-07T19:13:00Z</time>
      </trkpt>
      <trkpt lat="46.77818" lon="-1.60249">
        <ele>28</ele>
        <time>2025-08-07T19:13:02Z</time>
      </trkpt>
      <trkpt lat="46.77823" lon="-1.60235">
        <ele>28</ele>
        <time>2025-08-07T19:13:04Z</time>
      </trkpt>
      <trkpt lat="46.77827" lon="-1.6022">
        <ele>28</ele>
        <time>2025-08-07T19:13:06Z</time>
      </trkpt>
      <trkpt lat="46.77831" lon="-1.60206">
        <ele>29</ele>
        <time>2025-08-07T19:13:08Z</time>
      </trkpt>
      <trkpt lat="46.77836" lon="-1.60192">
        <ele>29</ele>
        <time>2025-08-07T19:13:10Z</time>
      </trkpt>
      <trkpt lat="46.7784" lon="-1.60177">
        <ele>29</ele>
        <time>2025-08-07T19:13:12Z</time>
      </trkpt>
      <trkpt lat="46.77844" lon="-1.60163">
        <ele>30</ele>
        <time>2025-08-07T19:13:14Z</time>
      </trkpt>
      <trkpt lat="46.77848" lon="-1.60149">
        <ele>31</ele>
        <time>2025-08-07T19:13:16Z</time>
      </trkpt>
      <trkpt lat="46.77851" lon="-1.60135">
        <ele>31</ele>
        <time>2025-08-07T19:13:18Z</time>
      </trkpt>
      <trkpt lat="46.77853" lon="-1.60121">
        <ele>31</ele>
        <time>2025-08-07T19:13:20Z</time>
      </trkpt>
      <trkpt lat="46.77853" lon="-1.60106">
        <ele>32</ele>
        <time>2025-08-07T19:13:22Z</time>
      </trkpt>
      <trkpt lat="46.77854" lon="-1.60092">
        <ele>32</ele>
        <time>2025-08-07T19:13:24Z</time>
      </trkpt>
      <trkpt lat="46.77855" lon="-1.60077">
        <ele>32</ele>
        <time>2025-08-07T19:13:26Z</time>
      </trkpt>
      <trkpt lat="46.77855" lon="-1.60063">
        <ele>33</ele>
        <time>2025-08-07T19:13:28Z</time>
      </trkpt>
      <trkpt lat="46.77855" lon="-1.6005">
        <ele>33</ele>
        <time>2025-08-07T19:13:30Z</time>
      </trkpt>
      <trkpt lat="46.77856" lon="-1.60039">
        <ele>33</ele>
        <time>2025-08-07T19:13:32Z</time>
      </trkpt>
      <trkpt lat="46.77858" lon="-1.60025">
        <ele>33</ele>
        <time>2025-08-07T19:13:34Z</time>
      </trkpt>
      <trkpt lat="46.77863" lon="-1.60011">
        <ele>33</ele>
        <time>2025-08-07T19:13:36Z</time>
      </trkpt>
      <trkpt lat="46.77868" lon="-1.59999">
        <ele>32</ele>
        <time>2025-08-07T19:13:38Z</time>
      </trkpt>
      <trkpt lat="46.77873" lon="-1.59986">
        <ele>32</ele>
        <time>2025-08-07T19:13:40Z</time>
      </trkpt>
      <trkpt lat="46.77878" lon="-1.59973">
        <ele>32</ele>
        <time>2025-08-07T19:13:42Z</time>
      </trkpt>
      <trkpt lat="46.77884" lon="-1.59957">
        <ele>31</ele>
        <time>2025-08-07T19:13:44Z</time>
      </trkpt>
      <trkpt lat="46.77889" lon="-1.59939">
        <ele>30</ele>
        <time>2025-08-07T19:13:46Z</time>
      </trkpt>
      <trkpt lat="46.77895" lon="-1.59918">
        <ele>28</ele>
        <time>2025-08-07T19:13:48Z</time>
      </trkpt>
      <trkpt lat="46.77902" lon="-1.59897">
        <ele>27</ele>
        <time>2025-08-07T19:13:51Z</time>
      </trkpt>
      <trkpt lat="46.77908" lon="-1.59875">
        <ele>26</ele>
        <time>2025-08-07T19:13:53Z</time>
      </trkpt>
      <trkpt lat="46.77912" lon="-1.59855">
        <ele>26</ele>
        <time>2025-08-07T19:13:55Z</time>
      </trkpt>
      <trkpt lat="46.77915" lon="-1.59837">
        <ele>26</ele>
        <time>2025-08-07T19:13:57Z</time>
      </trkpt>
      <trkpt lat="46.77921" lon="-1.59828">
        <ele>26</ele>
        <time>2025-08-07T19:13:59Z</time>
      </trkpt>
      <trkpt lat="46.77931" lon="-1.59827">
        <ele>26</ele>
        <time>2025-08-07T19:14:01Z</time>
      </trkpt>
      <trkpt lat="46.77942" lon="-1.5983">
        <ele>26</ele>
        <time>2025-08-07T19:14:03Z</time>
      </trkpt>
      <trkpt lat="46.77954" lon="-1.59828">
        <ele>25</ele>
        <time>2025-08-07T19:14:05Z</time>
      </trkpt>
      <trkpt lat="46.77964" lon="-1.59816">
        <ele>24</ele>
        <time>2025-08-07T19:14:07Z</time>
      </trkpt>
      <trkpt lat="46.7797" lon="-1.59797">
        <ele>23</ele>
        <time>2025-08-07T19:14:09Z</time>
      </trkpt>
      <trkpt lat="46.77976" lon="-1.59775">
        <ele>22</ele>
        <time>2025-08-07T19:14:11Z</time>
      </trkpt>
      <trkpt lat="46.77983" lon="-1.59755">
        <ele>21</ele>
        <time>2025-08-07T19:14:13Z</time>
      </trkpt>
      <trkpt lat="46.77993" lon="-1.59734">
        <ele>21</ele>
        <time>2025-08-07T19:14:15Z</time>
      </trkpt>
      <trkpt lat="46.77998" lon="-1.59712">
        <ele>21</ele>
        <time>2025-08-07T19:14:17Z</time>
      </trkpt>
      <trkpt lat="46.78" lon="-1.59689">
        <ele>21</ele>
        <time>2025-08-07T19:14:19Z</time>
      </trkpt>
      <trkpt lat="46.77999" lon="-1.59667">
        <ele>21</ele>
        <time>2025-08-07T19:14:21Z</time>
      </trkpt>
      <trkpt lat="46.78" lon="-1.59646">
        <ele>22</ele>
        <time>2025-08-07T19:14:23Z</time>
      </trkpt>
      <trkpt lat="46.78003" lon="-1.59626">
        <ele>22</ele>
        <time>2025-08-07T19:14:25Z</time>
      </trkpt>
      <trkpt lat="46.78007" lon="-1.59607">
        <ele>23</ele>
        <time>2025-08-07T19:14:27Z</time>
      </trkpt>
      <trkpt lat="46.78011" lon="-1.59591">
        <ele>24</ele>
        <time>2025-08-07T19:14:29Z</time>
      </trkpt>
      <trkpt lat="46.78014" lon="-1.59577">
        <ele>24</ele>
        <time>2025-08-07T19:14:31Z</time>
      </trkpt>
      <trkpt lat="46.78017" lon="-1.59564">
        <ele>25</ele>
        <time>2025-08-07T19:14:33Z</time>
      </trkpt>
      <trkpt lat="46.7802" lon="-1.5955">
        <ele>25</ele>
        <time>2025-08-07T19:14:35Z</time>
      </trkpt>
      <trkpt lat="46.78022" lon="-1.59537">
        <ele>26</ele>
        <time>2025-08-07T19:14:37Z</time>
      </trkpt>
      <trkpt lat="46.78022" lon="-1.59524">
        <ele>27</ele>
        <time>2025-08-07T19:14:39Z</time>
      </trkpt>
      <trkpt lat="46.78023" lon="-1.59513">
        <ele>27</ele>
        <time>2025-08-07T19:14:41Z</time>
      </trkpt>
      <trkpt lat="46.78023" lon="-1.59503">
        <ele>27</ele>
        <time>2025-08-07T19:14:43Z</time>
      </trkpt>
      <trkpt lat="46.78023" lon="-1.59491">
        <ele>27</ele>
        <time>2025-08-07T19:14:45Z</time>
      </trkpt>
      <trkpt lat="46.78022" lon="-1.59476">
        <ele>27</ele>
        <time>2025-08-07T19:14:47Z</time>
      </trkpt>
      <trkpt lat="46.78021" lon="-1.59461">
        <ele>26</ele>
        <time>2025-08-07T19:14:49Z</time>
      </trkpt>
      <trkpt lat="46.78019" lon="-1.59446">
        <ele>26</ele>
        <time>2025-08-07T19:14:51Z</time>
      </trkpt>
      <trkpt lat="46.78021" lon="-1.59432">
        <ele>26</ele>
        <time>2025-08-07T19:14:53Z</time>
      </trkpt>
      <trkpt lat="46.78024" lon="-1.59417">
        <ele>26</ele>
        <time>2025-08-07T19:14:55Z</time>
      </trkpt>
      <trkpt lat="46.78029" lon="-1.59404">
        <ele>26</ele>
        <time>2025-08-07T19:14:57Z</time>
      </trkpt>
      <trkpt lat="46.78035" lon="-1.59391">
        <ele>26</ele>
        <time>2025-08-07T19:14:59Z</time>
      </trkpt>
      <trkpt lat="46.78042" lon="-1.59379">
        <ele>27</ele>
        <time>2025-08-07T19:15:01Z</time>
      </trkpt>
      <trkpt lat="46.78048" lon="-1.59368">
        <ele>27</ele>
        <time>2025-08-07T19:15:03Z</time>
      </trkpt>
      <trkpt lat="46.78054" lon="-1.59356">
        <ele>27</ele>
        <time>2025-08-07T19:15:05Z</time>
      </trkpt>
      <trkpt lat="46.78058" lon="-1.59345">
        <ele>28</ele>
        <time>2025-08-07T19:15:07Z</time>
      </trkpt>
      <trkpt lat="46.78061" lon="-1.59334">
        <ele>28</ele>
        <time>2025-08-07T19:15:09Z</time>
      </trkpt>
      <trkpt lat="46.78064" lon="-1.59324">
        <ele>28</ele>
        <time>2025-08-07T19:15:11Z</time>
      </trkpt>
      <trkpt lat="46.78069" lon="-1.59313">
        <ele>28</ele>
        <time>2025-08-07T19:15:13Z</time>
      </trkpt>
      <trkpt lat="46.78073" lon="-1.59302">
        <ele>28</ele>
        <time>2025-08-07T19:15:15Z</time>
      </trkpt>
      <trkpt lat="46.78077" lon="-1.5929">
        <ele>28</ele>
        <time>2025-08-07T19:15:17Z</time>
      </trkpt>
      <trkpt lat="46.78082" lon="-1.59279">
        <ele>28</ele>
        <time>2025-08-07T19:15:19Z</time>
      </trkpt>
      <trkpt lat="46.78085" lon="-1.59268">
        <ele>28</ele>
        <time>2025-08-07T19:15:21Z</time>
      </trkpt>
      <trkpt lat="46.78088" lon="-1.59257">
        <ele>28</ele>
        <time>2025-08-07T19:15:23Z</time>
      </trkpt>
      <trkpt lat="46.7809" lon="-1.59245">
        <ele>29</ele>
        <time>2025-08-07T19:15:25Z</time>
      </trkpt>
      <trkpt lat="46.7809" lon="-1.59234">
        <ele>29</ele>
        <time>2025-08-07T19:15:27Z</time>
      </trkpt>
      <trkpt lat="46.78086" lon="-1.59224">
        <ele>29</ele>
        <time>2025-08-07T19:15:29Z</time>
      </trkpt>
      <trkpt lat="46.7808" lon="-1.59217">
        <ele>29</ele>
        <time>2025-08-07T19:15:31Z</time>
      </trkpt>
      <trkpt lat="46.78074" lon="-1.59211">
        <ele>30</ele>
        <time>2025-08-07T19:15:33Z</time>
      </trkpt>
      <trkpt lat="46.78068" lon="-1.59205">
        <ele>30</ele>
        <time>2025-08-07T19:15:35Z</time>
      </trkpt>
      <trkpt lat="46.78062" lon="-1.59199">
        <ele>30</ele>
        <time>2025-08-07T19:15:37Z</time>
      </trkpt>
      <trkpt lat="46.78056" lon="-1.59193">
        <ele>30</ele>
        <time>2025-08-07T19:15:39Z</time>
      </trkpt>
      <trkpt lat="46.78048" lon="-1.59183">
        <ele>31</ele>
        <time>2025-08-07T19:15:41Z</time>
      </trkpt>
      <trkpt lat="46.78042" lon="-1.59175">
        <ele>31</ele>
        <time>2025-08-07T19:15:43Z</time>
      </trkpt>
      <trkpt lat="46.78037" lon="-1.59169">
        <ele>31</ele>
        <time>2025-08-07T19:15:45Z</time>
      </trkpt>
      <trkpt lat="46.78032" lon="-1.59162">
        <ele>32</ele>
        <time>2025-08-07T19:15:47Z</time>
      </trkpt>
      <trkpt lat="46.78027" lon="-1.59156">
        <ele>32</ele>
        <time>2025-08-07T19:15:49Z</time>
      </trkpt>
      <trkpt lat="46.78022" lon="-1.59149">
        <ele>33</ele>
        <time>2025-08-07T19:15:51Z</time>
      </trkpt>
      <trkpt lat="46.78017" lon="-1.59143">
        <ele>33</ele>
        <time>2025-08-07T19:15:53Z</time>
      </trkpt>
      <trkpt lat="46.78012" lon="-1.59142">
        <ele>34</ele>
        <time>2025-08-07T19:15:55Z</time>
      </trkpt>
      <trkpt lat="46.78008" lon="-1.59146">
        <ele>34</ele>
        <time>2025-08-07T19:15:57Z</time>
      </trkpt>
      <trkpt lat="46.78004" lon="-1.59151">
        <ele>34</ele>
        <time>2025-08-07T19:15:59Z</time>
      </trkpt>
      <trkpt lat="46.77999" lon="-1.59156">
        <ele>35</ele>
        <time>2025-08-07T19:16:01Z</time>
      </trkpt>
      <trkpt lat="46.77994" lon="-1.5916">
        <ele>35</ele>
        <time>2025-08-07T19:16:03Z</time>
      </trkpt>
      <trkpt lat="46.77989" lon="-1.59164">
        <ele>35</ele>
        <time>2025-08-07T19:16:05Z</time>
      </trkpt>
      <trkpt lat="46.77984" lon="-1.59169">
        <ele>35</ele>
        <time>2025-08-07T19:16:08Z</time>
      </trkpt>
      <trkpt lat="46.7798" lon="-1.59173">
        <ele>35</ele>
        <time>2025-08-07T19:16:10Z</time>
      </trkpt>
      <trkpt lat="46.77976" lon="-1.59178">
        <ele>36</ele>
        <time>2025-08-07T19:16:12Z</time>
      </trkpt>
      <trkpt lat="46.77971" lon="-1.59182">
        <ele>36</ele>
        <time>2025-08-07T19:16:14Z</time>
      </trkpt>
      <trkpt lat="46.77967" lon="-1.59186">
        <ele>36</ele>
        <time>2025-08-07T19:16:16Z</time>
      </trkpt>
      <trkpt lat="46.77962" lon="-1.59191">
        <ele>36</ele>
        <time>2025-08-07T19:16:18Z</time>
      </trkpt>
      <trkpt lat="46.77957" lon="-1.59196">
        <ele>36</ele>
        <time>2025-08-07T19:16:20Z</time>
      </trkpt>
      <trkpt lat="46.77952" lon="-1.592">
        <ele>36</ele>
        <time>2025-08-07T19:16:22Z</time>
      </trkpt>
      <trkpt lat="46.77947" lon="-1.59205">
        <ele>37</ele>
        <time>2025-08-07T19:16:24Z</time>
      </trkpt>
      <trkpt lat="46.77942" lon="-1.5921">
        <ele>37</ele>
        <time>2025-08-07T19:16:26Z</time>
      </trkpt>
      <trkpt lat="46.77937" lon="-1.59215">
        <ele>37</ele>
        <time>2025-08-07T19:16:28Z</time>
      </trkpt>
      <trkpt lat="46.77932" lon="-1.5922">
        <ele>38</ele>
        <time>2025-08-07T19:16:30Z</time>
      </trkpt>
      <trkpt lat="46.77927" lon="-1.59225">
        <ele>38</ele>
        <time>2025-08-07T19:16:32Z</time>
      </trkpt>
      <trkpt lat="46.77923" lon="-1.5923">
        <ele>38</ele>
        <time>2025-08-07T19:16:34Z</time>
      </trkpt>
      <trkpt lat="46.77918" lon="-1.59235">
        <ele>39</ele>
        <time>2025-08-07T19:16:36Z</time>
      </trkpt>
      <trkpt lat="46.77914" lon="-1.59241">
        <ele>39</ele>
        <time>2025-08-07T19:16:38Z</time>
      </trkpt>
      <trkpt lat="46.77909" lon="-1.59247">
        <ele>39</ele>
        <time>2025-08-07T19:16:40Z</time>
      </trkpt>
      <trkpt lat="46.77905" lon="-1.59252">
        <ele>40</ele>
        <time>2025-08-07T19:16:42Z</time>
      </trkpt>
      <trkpt lat="46.779" lon="-1.59257">
        <ele>40</ele>
        <time>2025-08-07T19:16:44Z</time>
      </trkpt>
      <trkpt lat="46.77895" lon="-1.59263">
        <ele>40</ele>
        <time>2025-08-07T19:16:46Z</time>
      </trkpt>
      <trkpt lat="46.7789" lon="-1.59268">
        <ele>40</ele>
        <time>2025-08-07T19:16:48Z</time>
      </trkpt>
      <trkpt lat="46.77885" lon="-1.59273">
        <ele>40</ele>
        <time>2025-08-07T19:16:50Z</time>
      </trkpt>
      <trkpt lat="46.77879" lon="-1.59279">
        <ele>41</ele>
        <time>2025-08-07T19:16:52Z</time>
      </trkpt>
      <trkpt lat="46.77874" lon="-1.59284">
        <ele>41</ele>
        <time>2025-08-07T19:16:54Z</time>
      </trkpt>
      <trkpt lat="46.77869" lon="-1.59289">
        <ele>41</ele>
        <time>2025-08-07T19:16:56Z</time>
      </trkpt>
      <trkpt lat="46.77864" lon="-1.59293">
        <ele>42</ele>
        <time>2025-08-07T19:16:58Z</time>
      </trkpt>
      <trkpt lat="46.77858" lon="-1.59297">
        <ele>42</ele>
        <time>2025-08-07T19:17:00Z</time>
      </trkpt>
      <trkpt lat="46.77852" lon="-1.593">
        <ele>42</ele>
        <time>2025-08-07T19:17:02Z</time>
      </trkpt>
      <trkpt lat="46.77845" lon="-1.59303">
        <ele>43</ele>
        <time>2025-08-07T19:17:04Z</time>
      </trkpt>
      <trkpt lat="46.77839" lon="-1.59305">
        <ele>43</ele>
        <time>2025-08-07T19:17:06Z</time>
      </trkpt>
      <trkpt lat="46.77832" lon="-1.59308">
        <ele>43</ele>
        <time>2025-08-07T19:17:08Z</time>
      </trkpt>
      <trkpt lat="46.77826" lon="-1.5931">
        <ele>44</ele>
        <time>2025-08-07T19:17:10Z</time>
      </trkpt>
      <trkpt lat="46.77819" lon="-1.59312">
        <ele>44</ele>
        <time>2025-08-07T19:17:12Z</time>
      </trkpt>
      <trkpt lat="46.77812" lon="-1.59315">
        <ele>44</ele>
        <time>2025-08-07T19:17:14Z</time>
      </trkpt>
      <trkpt lat="46.77805" lon="-1.59318">
        <ele>44</ele>
        <time>2025-08-07T19:17:16Z</time>
      </trkpt>
      <trkpt lat="46.77797" lon="-1.59321">
        <ele>44</ele>
        <time>2025-08-07T19:17:18Z</time>
      </trkpt>
      <trkpt lat="46.7779" lon="-1.59325">
        <ele>44</ele>
        <time>2025-08-07T19:17:20Z</time>
      </trkpt>
      <trkpt lat="46.77782" lon="-1.59328">
        <ele>45</ele>
        <time>2025-08-07T19:17:22Z</time>
      </trkpt>
      <trkpt lat="46.77774" lon="-1.59332">
        <ele>45</ele>
        <time>2025-08-07T19:17:24Z</time>
      </trkpt>
      <trkpt lat="46.77767" lon="-1.59336">
        <ele>45</ele>
        <time>2025-08-07T19:17:26Z</time>
      </trkpt>
      <trkpt lat="46.77759" lon="-1.5934">
        <ele>45</ele>
        <time>2025-08-07T19:17:28Z</time>
      </trkpt>
      <trkpt lat="46.77752" lon="-1.59343">
        <ele>46</ele>
        <time>2025-08-07T19:17:30Z</time>
      </trkpt>
      <trkpt lat="46.77744" lon="-1.59348">
        <ele>46</ele>
        <time>2025-08-07T19:17:32Z</time>
      </trkpt>
      <trkpt lat="46.77737" lon="-1.59352">
        <ele>46</ele>
        <time>2025-08-07T19:17:34Z</time>
      </trkpt>
      <trkpt lat="46.77729" lon="-1.59356">
        <ele>46</ele>
        <time>2025-08-07T19:17:36Z</time>
      </trkpt>
      <trkpt lat="46.77721" lon="-1.59361">
        <ele>46</ele>
        <time>2025-08-07T19:17:38Z</time>
      </trkpt>
      <trkpt lat="46.77714" lon="-1.59366">
        <ele>47</ele>
        <time>2025-08-07T19:17:40Z</time>
      </trkpt>
      <trkpt lat="46.77707" lon="-1.5937">
        <ele>47</ele>
        <time>2025-08-07T19:17:42Z</time>
      </trkpt>
      <trkpt lat="46.77699" lon="-1.59375">
        <ele>47</ele>
        <time>2025-08-07T19:17:44Z</time>
      </trkpt>
      <trkpt lat="46.77691" lon="-1.5938">
        <ele>47</ele>
        <time>2025-08-07T19:17:46Z</time>
      </trkpt>
      <trkpt lat="46.77684" lon="-1.59385">
        <ele>47</ele>
        <time>2025-08-07T19:17:48Z</time>
      </trkpt>
      <trkpt lat="46.77676" lon="-1.5939">
        <ele>48</ele>
        <time>2025-08-07T19:17:50Z</time>
      </trkpt>
      <trkpt lat="46.77667" lon="-1.59395">
        <ele>48</ele>
        <time>2025-08-07T19:17:52Z</time>
      </trkpt>
      <trkpt lat="46.77657" lon="-1.59402">
        <ele>48</ele>
        <time>2025-08-07T19:17:54Z</time>
      </trkpt>
      <trkpt lat="46.77649" lon="-1.59406">
        <ele>48</ele>
        <time>2025-08-07T19:17:56Z</time>
      </trkpt>
      <trkpt lat="46.77642" lon="-1.5941">
        <ele>49</ele>
        <time>2025-08-07T19:17:58Z</time>
      </trkpt>
      <trkpt lat="46.77636" lon="-1.59414">
        <ele>49</ele>
        <time>2025-08-07T19:18:00Z</time>
      </trkpt>
      <trkpt lat="46.77628" lon="-1.59406">
        <ele>50</ele>
        <time>2025-08-07T19:19:05Z</time>
      </trkpt>
      <trkpt lat="46.77621" lon="-1.59401">
        <ele>50</ele>
        <time>2025-08-07T19:19:07Z</time>
      </trkpt>
      <trkpt lat="46.77614" lon="-1.59394">
        <ele>50</ele>
        <time>2025-08-07T19:19:09Z</time>
      </trkpt>
      <trkpt lat="46.77609" lon="-1.59385">
        <ele>50</ele>
        <time>2025-08-07T19:19:11Z</time>
      </trkpt>
      <trkpt lat="46.77604" lon="-1.59373">
        <ele>50</ele>
        <time>2025-08-07T19:19:13Z</time>
      </trkpt>
      <trkpt lat="46.77599" lon="-1.5936">
        <ele>50</ele>
        <time>2025-08-07T19:19:15Z</time>
      </trkpt>
      <trkpt lat="46.77594" lon="-1.59347">
        <ele>50</ele>
        <time>2025-08-07T19:19:17Z</time>
      </trkpt>
      <trkpt lat="46.77587" lon="-1.59335">
        <ele>50</ele>
        <time>2025-08-07T19:19:19Z</time>
      </trkpt>
      <trkpt lat="46.7758" lon="-1.59324">
        <ele>50</ele>
        <time>2025-08-07T19:19:21Z</time>
      </trkpt>
      <trkpt lat="46.77571" lon="-1.59313">
        <ele>49</ele>
        <time>2025-08-07T19:19:23Z</time>
      </trkpt>
      <trkpt lat="46.77562" lon="-1.59305">
        <ele>49</ele>
        <time>2025-08-07T19:19:25Z</time>
      </trkpt>
      <trkpt lat="46.77552" lon="-1.59298">
        <ele>49</ele>
        <time>2025-08-07T19:19:27Z</time>
      </trkpt>
      <trkpt lat="46.77541" lon="-1.59293">
        <ele>49</ele>
        <time>2025-08-07T19:19:29Z</time>
      </trkpt>
      <trkpt lat="46.7753" lon="-1.59291">
        <ele>49</ele>
        <time>2025-08-07T19:19:31Z</time>
      </trkpt>
      <trkpt lat="46.77519" lon="-1.5929">
        <ele>49</ele>
        <time>2025-08-07T19:19:33Z</time>
      </trkpt>
      <trkpt lat="46.77507" lon="-1.59289">
        <ele>49</ele>
        <time>2025-08-07T19:19:35Z</time>
      </trkpt>
      <trkpt lat="46.77496" lon="-1.59288">
        <ele>49</ele>
        <time>2025-08-07T19:19:37Z</time>
      </trkpt>
      <trkpt lat="46.77485" lon="-1.59287">
        <ele>50</ele>
        <time>2025-08-07T19:19:39Z</time>
      </trkpt>
      <trkpt lat="46.77473" lon="-1.59286">
        <ele>50</ele>
        <time>2025-08-07T19:19:41Z</time>
      </trkpt>
      <trkpt lat="46.77463" lon="-1.59285">
        <ele>50</ele>
        <time>2025-08-07T19:19:43Z</time>
      </trkpt>
      <trkpt lat="46.77452" lon="-1.59283">
        <ele>50</ele>
        <time>2025-08-07T19:19:45Z</time>
      </trkpt>
      <trkpt lat="46.77441" lon="-1.5928">
        <ele>50</ele>
        <time>2025-08-07T19:19:47Z</time>
      </trkpt>
      <trkpt lat="46.7743" lon="-1.59276">
        <ele>50</ele>
        <time>2025-08-07T19:19:49Z</time>
      </trkpt>
      <trkpt lat="46.7742" lon="-1.59272">
        <ele>50</ele>
        <time>2025-08-07T19:19:51Z</time>
      </trkpt>
      <trkpt lat="46.77409" lon="-1.59267">
        <ele>50</ele>
        <time>2025-08-07T19:19:53Z</time>
      </trkpt>
      <trkpt lat="46.77399" lon="-1.59263">
        <ele>51</ele>
        <time>2025-08-07T19:19:55Z</time>
      </trkpt>
      <trkpt lat="46.77389" lon="-1.59259">
        <ele>51</ele>
        <time>2025-08-07T19:19:57Z</time>
      </trkpt>
      <trkpt lat="46.77379" lon="-1.59255">
        <ele>51</ele>
        <time>2025-08-07T19:19:59Z</time>
      </trkpt>
      <trkpt lat="46.77369" lon="-1.59251">
        <ele>51</ele>
        <time>2025-08-07T19:20:01Z</time>
      </trkpt>
      <trkpt lat="46.77359" lon="-1.59247">
        <ele>52</ele>
        <time>2025-08-07T19:20:03Z</time>
      </trkpt>
      <trkpt lat="46.77352" lon="-1.59245">
        <ele>52</ele>
        <time>2025-08-07T19:20:05Z</time>
      </trkpt>
      <trkpt lat="46.77347" lon="-1.59243">
        <ele>52</ele>
        <time>2025-08-07T19:20:07Z</time>
      </trkpt>
      <trkpt lat="46.77343" lon="-1.5924">
        <ele>52</ele>
        <time>2025-08-07T19:20:09Z</time>
      </trkpt>
      <trkpt lat="46.77336" lon="-1.59236">
        <ele>52</ele>
        <time>2025-08-07T19:20:11Z</time>
      </trkpt>
      <trkpt lat="46.77327" lon="-1.59231">
        <ele>52</ele>
        <time>2025-08-07T19:20:13Z</time>
      </trkpt>
      <trkpt lat="46.77317" lon="-1.59227">
        <ele>52</ele>
        <time>2025-08-07T19:20:15Z</time>
      </trkpt>
      <trkpt lat="46.77308" lon="-1.59224">
        <ele>52</ele>
        <time>2025-08-07T19:20:17Z</time>
      </trkpt>
      <trkpt lat="46.77298" lon="-1.5922">
        <ele>52</ele>
        <time>2025-08-07T19:20:19Z</time>
      </trkpt>
      <trkpt lat="46.77289" lon="-1.59217">
        <ele>52</ele>
        <time>2025-08-07T19:20:21Z</time>
      </trkpt>
      <trkpt lat="46.7728" lon="-1.59214">
        <ele>52</ele>
        <time>2025-08-07T19:20:23Z</time>
      </trkpt>
      <trkpt lat="46.7727" lon="-1.59211">
        <ele>52</ele>
        <time>2025-08-07T19:20:25Z</time>
      </trkpt>
      <trkpt lat="46.7726" lon="-1.59208">
        <ele>52</ele>
        <time>2025-08-07T19:20:27Z</time>
      </trkpt>
      <trkpt lat="46.77247" lon="-1.59206">
        <ele>52</ele>
        <time>2025-08-07T19:20:29Z</time>
      </trkpt>
      <trkpt lat="46.77234" lon="-1.59205">
        <ele>52</ele>
        <time>2025-08-07T19:20:31Z</time>
      </trkpt>
      <trkpt lat="46.77221" lon="-1.59204">
        <ele>52</ele>
        <time>2025-08-07T19:20:33Z</time>
      </trkpt>
      <trkpt lat="46.7721" lon="-1.59203">
        <ele>52</ele>
        <time>2025-08-07T19:20:35Z</time>
      </trkpt>
      <trkpt lat="46.77199" lon="-1.59202">
        <ele>52</ele>
        <time>2025-08-07T19:20:37Z</time>
      </trkpt>
      <trkpt lat="46.77188" lon="-1.59201">
        <ele>52</ele>
        <time>2025-08-07T19:20:39Z</time>
      </trkpt>
      <trkpt lat="46.77178" lon="-1.592">
        <ele>52</ele>
        <time>2025-08-07T19:20:41Z</time>
      </trkpt>
      <trkpt lat="46.77169" lon="-1.59198">
        <ele>52</ele>
        <time>2025-08-07T19:20:43Z</time>
      </trkpt>
      <trkpt lat="46.77161" lon="-1.59196">
        <ele>52</ele>
        <time>2025-08-07T19:20:45Z</time>
      </trkpt>
      <trkpt lat="46.77154" lon="-1.59193">
        <ele>52</ele>
        <time>2025-08-07T19:20:47Z</time>
      </trkpt>
      <trkpt lat="46.77146" lon="-1.5919">
        <ele>53</ele>
        <time>2025-08-07T19:20:49Z</time>
      </trkpt>
      <trkpt lat="46.77138" lon="-1.59186">
        <ele>53</ele>
        <time>2025-08-07T19:20:52Z</time>
      </trkpt>
      <trkpt lat="46.77129" lon="-1.59182">
        <ele>53</ele>
        <time>2025-08-07T19:20:54Z</time>
      </trkpt>
      <trkpt lat="46.77121" lon="-1.59178">
        <ele>53</ele>
        <time>2025-08-07T19:20:56Z</time>
      </trkpt>
      <trkpt lat="46.77113" lon="-1.59174">
        <ele>53</ele>
        <time>2025-08-07T19:20:58Z</time>
      </trkpt>
      <trkpt lat="46.77106" lon="-1.5917">
        <ele>53</ele>
        <time>2025-08-07T19:21:00Z</time>
      </trkpt>
      <trkpt lat="46.77099" lon="-1.59167">
        <ele>53</ele>
        <time>2025-08-07T19:21:02Z</time>
      </trkpt>
      <trkpt lat="46.77091" lon="-1.59163">
        <ele>52</ele>
        <time>2025-08-07T19:21:04Z</time>
      </trkpt>
      <trkpt lat="46.77082" lon="-1.59159">
        <ele>53</ele>
        <time>2025-08-07T19:21:06Z</time>
      </trkpt>
      <trkpt lat="46.77077" lon="-1.59151">
        <ele>53</ele>
        <time>2025-08-07T19:21:08Z</time>
      </trkpt>
      <trkpt lat="46.77077" lon="-1.59138">
        <ele>52</ele>
        <time>2025-08-07T19:21:10Z</time>
      </trkpt>
      <trkpt lat="46.77082" lon="-1.59122">
        <ele>52</ele>
        <time>2025-08-07T19:21:12Z</time>
      </trkpt>
      <trkpt lat="46.77088" lon="-1.59105">
        <ele>52</ele>
        <time>2025-08-07T19:21:14Z</time>
      </trkpt>
      <trkpt lat="46.77093" lon="-1.59087">
        <ele>51</ele>
        <time>2025-08-07T19:21:16Z</time>
      </trkpt>
      <trkpt lat="46.77097" lon="-1.59069">
        <ele>51</ele>
        <time>2025-08-07T19:21:18Z</time>
      </trkpt>
      <trkpt lat="46.771" lon="-1.59052">
        <ele>51</ele>
        <time>2025-08-07T19:21:20Z</time>
      </trkpt>
      <trkpt lat="46.77103" lon="-1.59034">
        <ele>51</ele>
        <time>2025-08-07T19:21:22Z</time>
      </trkpt>
      <trkpt lat="46.77107" lon="-1.59016">
        <ele>51</ele>
        <time>2025-08-07T19:21:24Z</time>
      </trkpt>
      <trkpt lat="46.7711" lon="-1.58996">
        <ele>50</ele>
        <time>2025-08-07T19:21:26Z</time>
      </trkpt>
      <trkpt lat="46.77113" lon="-1.58977">
        <ele>50</ele>
        <time>2025-08-07T19:21:28Z</time>
      </trkpt>
      <trkpt lat="46.77116" lon="-1.58959">
        <ele>50</ele>
        <time>2025-08-07T19:21:30Z</time>
      </trkpt>
      <trkpt lat="46.77118" lon="-1.58941">
        <ele>50</ele>
        <time>2025-08-07T19:21:32Z</time>
      </trkpt>
      <trkpt lat="46.7712" lon="-1.58923">
        <ele>50</ele>
        <time>2025-08-07T19:21:34Z</time>
      </trkpt>
      <trkpt lat="46.77122" lon="-1.58906">
        <ele>49</ele>
        <time>2025-08-07T19:21:36Z</time>
      </trkpt>
      <trkpt lat="46.77123" lon="-1.58889">
        <ele>49</ele>
        <time>2025-08-07T19:21:38Z</time>
      </trkpt>
      <trkpt lat="46.77123" lon="-1.5887">
        <ele>49</ele>
        <time>2025-08-07T19:21:40Z</time>
      </trkpt>
      <trkpt lat="46.77123" lon="-1.58853">
        <ele>49</ele>
        <time>2025-08-07T19:21:42Z</time>
      </trkpt>
      <trkpt lat="46.77117" lon="-1.5884">
        <ele>49</ele>
        <time>2025-08-07T19:21:44Z</time>
      </trkpt>
      <trkpt lat="46.77108" lon="-1.58839">
        <ele>49</ele>
        <time>2025-08-07T19:21:46Z</time>
      </trkpt>
      <trkpt lat="46.77097" lon="-1.5884">
        <ele>49</ele>
        <time>2025-08-07T19:21:48Z</time>
      </trkpt>
      <trkpt lat="46.77086" lon="-1.58841">
        <ele>49</ele>
        <time>2025-08-07T19:21:50Z</time>
      </trkpt>
      <trkpt lat="46.77077" lon="-1.5884">
        <ele>49</ele>
        <time>2025-08-07T19:21:52Z</time>
      </trkpt>
      <trkpt lat="46.77067" lon="-1.58838">
        <ele>50</ele>
        <time>2025-08-07T19:21:54Z</time>
      </trkpt>
      <trkpt lat="46.77058" lon="-1.58836">
        <ele>50</ele>
        <time>2025-08-07T19:21:56Z</time>
      </trkpt>
      <trkpt lat="46.7705" lon="-1.58833">
        <ele>51</ele>
        <time>2025-08-07T19:21:58Z</time>
      </trkpt>
      <trkpt lat="46.77042" lon="-1.58831">
        <ele>51</ele>
        <time>2025-08-07T19:22:00Z</time>
      </trkpt>
      <trkpt lat="46.77035" lon="-1.58829">
        <ele>51</ele>
        <time>2025-08-07T19:22:02Z</time>
      </trkpt>
      <trkpt lat="46.77028" lon="-1.58828">
        <ele>52</ele>
        <time>2025-08-07T19:22:04Z</time>
      </trkpt>
      <trkpt lat="46.7702" lon="-1.58826">
        <ele>52</ele>
        <time>2025-08-07T19:22:06Z</time>
      </trkpt>
      <trkpt lat="46.77013" lon="-1.58822">
        <ele>52</ele>
        <time>2025-08-07T19:22:08Z</time>
      </trkpt>
      <trkpt lat="46.77005" lon="-1.58819">
        <ele>53</ele>
        <time>2025-08-07T19:22:10Z</time>
      </trkpt>
      <trkpt lat="46.76997" lon="-1.58818">
        <ele>53</ele>
        <time>2025-08-07T19:22:12Z</time>
      </trkpt>
      <trkpt lat="46.76989" lon="-1.58819">
        <ele>53</ele>
        <time>2025-08-07T19:22:14Z</time>
      </trkpt>
      <trkpt lat="46.76982" lon="-1.5882">
        <ele>53</ele>
        <time>2025-08-07T19:22:16Z</time>
      </trkpt>
      <trkpt lat="46.76975" lon="-1.58821">
        <ele>54</ele>
        <time>2025-08-07T19:22:18Z</time>
      </trkpt>
      <trkpt lat="46.76967" lon="-1.58823">
        <ele>54</ele>
        <time>2025-08-07T19:22:20Z</time>
      </trkpt>
      <trkpt lat="46.76959" lon="-1.58824">
        <ele>54</ele>
        <time>2025-08-07T19:22:22Z</time>
      </trkpt>
      <trkpt lat="46.76952" lon="-1.58826">
        <ele>54</ele>
        <time>2025-08-07T19:22:24Z</time>
      </trkpt>
      <trkpt lat="46.76944" lon="-1.58827">
        <ele>54</ele>
        <time>2025-08-07T19:22:26Z</time>
      </trkpt>
      <trkpt lat="46.76936" lon="-1.58828">
        <ele>54</ele>
        <time>2025-08-07T19:22:28Z</time>
      </trkpt>
      <trkpt lat="46.76928" lon="-1.58829">
        <ele>54</ele>
        <time>2025-08-07T19:22:30Z</time>
      </trkpt>
      <trkpt lat="46.76921" lon="-1.5883">
        <ele>55</ele>
        <time>2025-08-07T19:22:32Z</time>
      </trkpt>
      <trkpt lat="46.76914" lon="-1.5883">
        <ele>55</ele>
        <time>2025-08-07T19:22:34Z</time>
      </trkpt>
      <trkpt lat="46.76906" lon="-1.5883">
        <ele>55</ele>
        <time>2025-08-07T19:22:36Z</time>
      </trkpt>
      <trkpt lat="46.76899" lon="-1.58828">
        <ele>55</ele>
        <time>2025-08-07T19:22:38Z</time>
      </trkpt>
      <trkpt lat="46.76891" lon="-1.58826">
        <ele>56</ele>
        <time>2025-08-07T19:22:40Z</time>
      </trkpt>
      <trkpt lat="46.76883" lon="-1.58825">
        <ele>56</ele>
        <time>2025-08-07T19:22:42Z</time>
      </trkpt>
      <trkpt lat="46.76876" lon="-1.58824">
        <ele>56</ele>
        <time>2025-08-07T19:22:44Z</time>
      </trkpt>
      <trkpt lat="46.76868" lon="-1.58823">
        <ele>56</ele>
        <time>2025-08-07T19:22:46Z</time>
      </trkpt>
      <trkpt lat="46.7686" lon="-1.58822">
        <ele>56</ele>
        <time>2025-08-07T19:22:48Z</time>
      </trkpt>
      <trkpt lat="46.76853" lon="-1.5882">
        <ele>56</ele>
        <time>2025-08-07T19:22:50Z</time>
      </trkpt>
      <trkpt lat="46.76846" lon="-1.58818">
        <ele>56</ele>
        <time>2025-08-07T19:22:52Z</time>
      </trkpt>
      <trkpt lat="46.76835" lon="-1.58814">
        <ele>56</ele>
        <time>2025-08-07T19:22:54Z</time>
      </trkpt>
      <trkpt lat="46.76826" lon="-1.5881">
        <ele>56</ele>
        <time>2025-08-07T19:22:56Z</time>
      </trkpt>
      <trkpt lat="46.76818" lon="-1.58807">
        <ele>57</ele>
        <time>2025-08-07T19:22:58Z</time>
      </trkpt>
      <trkpt lat="46.7681" lon="-1.58805">
        <ele>57</ele>
        <time>2025-08-07T19:23:00Z</time>
      </trkpt>
      <trkpt lat="46.76802" lon="-1.58803">
        <ele>57</ele>
        <time>2025-08-07T19:23:02Z</time>
      </trkpt>
      <trkpt lat="46.76795" lon="-1.588">
        <ele>57</ele>
        <time>2025-08-07T19:23:04Z</time>
      </trkpt>
      <trkpt lat="46.76788" lon="-1.58797">
        <ele>57</ele>
        <time>2025-08-07T19:23:06Z</time>
      </trkpt>
      <trkpt lat="46.7678" lon="-1.58795">
        <ele>57</ele>
        <time>2025-08-07T19:23:08Z</time>
      </trkpt>
      <trkpt lat="46.76772" lon="-1.58792">
        <ele>57</ele>
        <time>2025-08-07T19:23:10Z</time>
      </trkpt>
      <trkpt lat="46.76764" lon="-1.58788">
        <ele>57</ele>
        <time>2025-08-07T19:23:12Z</time>
      </trkpt>
      <trkpt lat="46.76756" lon="-1.58784">
        <ele>57</ele>
        <time>2025-08-07T19:23:14Z</time>
      </trkpt>
      <trkpt lat="46.76748" lon="-1.58782">
        <ele>57</ele>
        <time>2025-08-07T19:23:16Z</time>
      </trkpt>
      <trkpt lat="46.7674" lon="-1.58781">
        <ele>57</ele>
        <time>2025-08-07T19:23:18Z</time>
      </trkpt>
      <trkpt lat="46.76733" lon="-1.58779">
        <ele>57</ele>
        <time>2025-08-07T19:23:20Z</time>
      </trkpt>
      <trkpt lat="46.76725" lon="-1.58777">
        <ele>57</ele>
        <time>2025-08-07T19:23:23Z</time>
      </trkpt>
      <trkpt lat="46.76717" lon="-1.58774">
        <ele>57</ele>
        <time>2025-08-07T19:23:25Z</time>
      </trkpt>
      <trkpt lat="46.76709" lon="-1.58772">
        <ele>57</ele>
        <time>2025-08-07T19:23:27Z</time>
      </trkpt>
      <trkpt lat="46.76701" lon="-1.5877">
        <ele>58</ele>
        <time>2025-08-07T19:23:29Z</time>
      </trkpt>
      <trkpt lat="46.76694" lon="-1.58771">
        <ele>58</ele>
        <time>2025-08-07T19:23:31Z</time>
      </trkpt>
      <trkpt lat="46.76689" lon="-1.58779">
        <ele>58</ele>
        <time>2025-08-07T19:23:33Z</time>
      </trkpt>
      <trkpt lat="46.76687" lon="-1.58791">
        <ele>58</ele>
        <time>2025-08-07T19:23:35Z</time>
      </trkpt>
      <trkpt lat="46.76685" lon="-1.58803">
        <ele>58</ele>
        <time>2025-08-07T19:23:37Z</time>
      </trkpt>
      <trkpt lat="46.76684" lon="-1.58816">
        <ele>58</ele>
        <time>2025-08-07T19:23:39Z</time>
      </trkpt>
      <trkpt lat="46.76682" lon="-1.58827">
        <ele>58</ele>
        <time>2025-08-07T19:23:41Z</time>
      </trkpt>
      <trkpt lat="46.7668" lon="-1.58839">
        <ele>58</ele>
        <time>2025-08-07T19:23:43Z</time>
      </trkpt>
      <trkpt lat="46.76677" lon="-1.5885">
        <ele>58</ele>
        <time>2025-08-07T19:23:45Z</time>
      </trkpt>
      <trkpt lat="46.76674" lon="-1.58863">
        <ele>58</ele>
        <time>2025-08-07T19:23:47Z</time>
      </trkpt>
      <trkpt lat="46.76672" lon="-1.58875">
        <ele>58</ele>
        <time>2025-08-07T19:23:49Z</time>
      </trkpt>
      <trkpt lat="46.76671" lon="-1.58888">
        <ele>58</ele>
        <time>2025-08-07T19:23:51Z</time>
      </trkpt>
      <trkpt lat="46.76667" lon="-1.58899">
        <ele>58</ele>
        <time>2025-08-07T19:23:53Z</time>
      </trkpt>
      <trkpt lat="46.7666" lon="-1.58904">
        <ele>58</ele>
        <time>2025-08-07T19:23:55Z</time>
      </trkpt>
      <trkpt lat="46.76651" lon="-1.58903">
        <ele>58</ele>
        <time>2025-08-07T19:23:57Z</time>
      </trkpt>
      <trkpt lat="46.76643" lon="-1.589">
        <ele>58</ele>
        <time>2025-08-07T19:23:59Z</time>
      </trkpt>
      <trkpt lat="46.76635" lon="-1.58898">
        <ele>58</ele>
        <time>2025-08-07T19:24:01Z</time>
      </trkpt>
      <trkpt lat="46.76627" lon="-1.58896">
        <ele>58</ele>
        <time>2025-08-07T19:24:03Z</time>
      </trkpt>
      <trkpt lat="46.7662" lon="-1.58891">
        <ele>59</ele>
        <time>2025-08-07T19:24:05Z</time>
      </trkpt>
      <trkpt lat="46.76614" lon="-1.58884">
        <ele>59</ele>
        <time>2025-08-07T19:24:07Z</time>
      </trkpt>
      <trkpt lat="46.7661" lon="-1.58875">
        <ele>59</ele>
        <time>2025-08-07T19:24:09Z</time>
      </trkpt>
      <trkpt lat="46.76606" lon="-1.58867">
        <ele>59</ele>
        <time>2025-08-07T19:24:11Z</time>
      </trkpt>
      <trkpt lat="46.76601" lon="-1.58861">
        <ele>59</ele>
        <time>2025-08-07T19:24:13Z</time>
      </trkpt>
      <trkpt lat="46.76597" lon="-1.58855">
        <ele>59</ele>
        <time>2025-08-07T19:24:15Z</time>
      </trkpt>
      <trkpt lat="46.76593" lon="-1.5885">
        <ele>59</ele>
        <time>2025-08-07T19:24:17Z</time>
      </trkpt>
      <trkpt lat="46.76588" lon="-1.58846">
        <ele>59</ele>
        <time>2025-08-07T19:24:19Z</time>
      </trkpt>
      <trkpt lat="46.76585" lon="-1.58841">
        <ele>59</ele>
        <time>2025-08-07T19:24:21Z</time>
      </trkpt>
      <trkpt lat="46.76577" lon="-1.58833">
        <ele>59</ele>
        <time>2025-08-07T19:24:25Z</time>
      </trkpt>
      <trkpt lat="46.76574" lon="-1.58828">
        <ele>59</ele>
        <time>2025-08-07T19:24:27Z</time>
      </trkpt>
      <trkpt lat="46.76571" lon="-1.58823">
        <ele>59</ele>
        <time>2025-08-07T19:24:29Z</time>
      </trkpt>
      <trkpt lat="46.76567" lon="-1.58819">
        <ele>59</ele>
        <time>2025-08-07T19:24:31Z</time>
      </trkpt>
      <trkpt lat="46.76563" lon="-1.58814">
        <ele>59</ele>
        <time>2025-08-07T19:24:33Z</time>
      </trkpt>
      <trkpt lat="46.7656" lon="-1.58808">
        <ele>59</ele>
        <time>2025-08-07T19:24:35Z</time>
      </trkpt>
      <trkpt lat="46.76559" lon="-1.588">
        <ele>59</ele>
        <time>2025-08-07T19:24:37Z</time>
      </trkpt>
      <trkpt lat="46.76561" lon="-1.58793">
        <ele>59</ele>
        <time>2025-08-07T19:24:39Z</time>
      </trkpt>
      <trkpt lat="46.76564" lon="-1.58786">
        <ele>59</ele>
        <time>2025-08-07T19:24:41Z</time>
      </trkpt>
      <trkpt lat="46.76569" lon="-1.58782">
        <ele>60</ele>
        <time>2025-08-07T19:24:43Z</time>
      </trkpt>
      <trkpt lat="46.76574" lon="-1.58777">
        <ele>60</ele>
        <time>2025-08-07T19:24:45Z</time>
      </trkpt>
      <trkpt lat="46.76579" lon="-1.58773">
        <ele>60</ele>
        <time>2025-08-07T19:24:47Z</time>
      </trkpt>
      <trkpt lat="46.76583" lon="-1.58768">
        <ele>60</ele>
        <time>2025-08-07T19:24:49Z</time>
      </trkpt>
      <trkpt lat="46.76587" lon="-1.58763">
        <ele>60</ele>
        <time>2025-08-07T19:24:51Z</time>
      </trkpt>
      <trkpt lat="46.76591" lon="-1.58757">
        <ele>60</ele>
        <time>2025-08-07T19:24:53Z</time>
      </trkpt>
      <trkpt lat="46.76595" lon="-1.58751">
        <ele>60</ele>
        <time>2025-08-07T19:24:55Z</time>
      </trkpt>
      <trkpt lat="46.766" lon="-1.58746">
        <ele>60</ele>
        <time>2025-08-07T19:24:57Z</time>
      </trkpt>
      <trkpt lat="46.76604" lon="-1.5874">
        <ele>60</ele>
        <time>2025-08-07T19:24:59Z</time>
      </trkpt>
      <trkpt lat="46.76609" lon="-1.58735">
        <ele>60</ele>
        <time>2025-08-07T19:25:01Z</time>
      </trkpt>
      <trkpt lat="46.76614" lon="-1.58729">
        <ele>60</ele>
        <time>2025-08-07T19:25:03Z</time>
      </trkpt>
      <trkpt lat="46.76619" lon="-1.58722">
        <ele>59</ele>
        <time>2025-08-07T19:25:05Z</time>
      </trkpt>
      <trkpt lat="46.76625" lon="-1.58715">
        <ele>59</ele>
        <time>2025-08-07T19:25:07Z</time>
      </trkpt>
      <trkpt lat="46.76632" lon="-1.58707">
        <ele>59</ele>
        <time>2025-08-07T19:25:09Z</time>
      </trkpt>
      <trkpt lat="46.76638" lon="-1.587">
        <ele>58</ele>
        <time>2025-08-07T19:25:11Z</time>
      </trkpt>
      <trkpt lat="46.76644" lon="-1.58692">
        <ele>58</ele>
        <time>2025-08-07T19:25:13Z</time>
      </trkpt>
      <trkpt lat="46.7665" lon="-1.58685">
        <ele>57</ele>
        <time>2025-08-07T19:25:15Z</time>
      </trkpt>
      <trkpt lat="46.76656" lon="-1.58678">
        <ele>57</ele>
        <time>2025-08-07T19:25:17Z</time>
      </trkpt>
      <trkpt lat="46.76662" lon="-1.5867">
        <ele>57</ele>
        <time>2025-08-07T19:25:19Z</time>
      </trkpt>
      <trkpt lat="46.76668" lon="-1.58664">
        <ele>56</ele>
        <time>2025-08-07T19:25:21Z</time>
      </trkpt>
      <trkpt lat="46.76677" lon="-1.58656">
        <ele>56</ele>
        <time>2025-08-07T19:25:23Z</time>
      </trkpt>
      <trkpt lat="46.76685" lon="-1.5865">
        <ele>55</ele>
        <time>2025-08-07T19:25:25Z</time>
      </trkpt>
      <trkpt lat="46.76691" lon="-1.58645">
        <ele>55</ele>
        <time>2025-08-07T19:25:27Z</time>
      </trkpt>
      <trkpt lat="46.76698" lon="-1.58642">
        <ele>54</ele>
        <time>2025-08-07T19:25:29Z</time>
      </trkpt>
      <trkpt lat="46.76706" lon="-1.58638">
        <ele>54</ele>
        <time>2025-08-07T19:25:31Z</time>
      </trkpt>
      <trkpt lat="46.76712" lon="-1.5863">
        <ele>53</ele>
        <time>2025-08-07T19:25:33Z</time>
      </trkpt>
      <trkpt lat="46.76716" lon="-1.58617">
        <ele>52</ele>
        <time>2025-08-07T19:25:35Z</time>
      </trkpt>
      <trkpt lat="46.76714" lon="-1.58602">
        <ele>52</ele>
        <time>2025-08-07T19:25:37Z</time>
      </trkpt>
      <trkpt lat="46.76709" lon="-1.58588">
        <ele>51</ele>
        <time>2025-08-07T19:25:39Z</time>
      </trkpt>
      <trkpt lat="46.76703" lon="-1.58574">
        <ele>51</ele>
        <time>2025-08-07T19:25:41Z</time>
      </trkpt>
      <trkpt lat="46.767" lon="-1.58559">
        <ele>50</ele>
        <time>2025-08-07T19:25:43Z</time>
      </trkpt>
      <trkpt lat="46.76702" lon="-1.58541">
        <ele>49</ele>
        <time>2025-08-07T19:25:45Z</time>
      </trkpt>
      <trkpt lat="46.76708" lon="-1.58522">
        <ele>48</ele>
        <time>2025-08-07T19:25:47Z</time>
      </trkpt>
      <trkpt lat="46.76715" lon="-1.58503">
        <ele>48</ele>
        <time>2025-08-07T19:25:50Z</time>
      </trkpt>
      <trkpt lat="46.76722" lon="-1.58484">
        <ele>47</ele>
        <time>2025-08-07T19:25:52Z</time>
      </trkpt>
      <trkpt lat="46.7673" lon="-1.58464">
        <ele>46</ele>
        <time>2025-08-07T19:25:54Z</time>
      </trkpt>
      <trkpt lat="46.76737" lon="-1.58444">
        <ele>46</ele>
        <time>2025-08-07T19:25:56Z</time>
      </trkpt>
      <trkpt lat="46.76745" lon="-1.58425">
        <ele>46</ele>
        <time>2025-08-07T19:25:58Z</time>
      </trkpt>
      <trkpt lat="46.76753" lon="-1.58407">
        <ele>45</ele>
        <time>2025-08-07T19:26:00Z</time>
      </trkpt>
      <trkpt lat="46.76754" lon="-1.58387">
        <ele>45</ele>
        <time>2025-08-07T19:26:02Z</time>
      </trkpt>
      <trkpt lat="46.76747" lon="-1.58367">
        <ele>44</ele>
        <time>2025-08-07T19:26:04Z</time>
      </trkpt>
      <trkpt lat="46.76739" lon="-1.58348">
        <ele>44</ele>
        <time>2025-08-07T19:26:06Z</time>
      </trkpt>
      <trkpt lat="46.76733" lon="-1.58328">
        <ele>44</ele>
        <time>2025-08-07T19:26:08Z</time>
      </trkpt>
      <trkpt lat="46.76729" lon="-1.58309">
        <ele>43</ele>
        <time>2025-08-07T19:26:10Z</time>
      </trkpt>
      <trkpt lat="46.76726" lon="-1.58289">
        <ele>43</ele>
        <time>2025-08-07T19:26:12Z</time>
      </trkpt>
      <trkpt lat="46.76723" lon="-1.58268">
        <ele>42</ele>
        <time>2025-08-07T19:26:14Z</time>
      </trkpt>
      <trkpt lat="46.7672" lon="-1.58246">
        <ele>41</ele>
        <time>2025-08-07T19:26:16Z</time>
      </trkpt>
      <trkpt lat="46.76719" lon="-1.58223">
        <ele>40</ele>
        <time>2025-08-07T19:26:18Z</time>
      </trkpt>
      <trkpt lat="46.76714" lon="-1.58198">
        <ele>39</ele>
        <time>2025-08-07T19:26:20Z</time>
      </trkpt>
      <trkpt lat="46.76706" lon="-1.58173">
        <ele>38</ele>
        <time>2025-08-07T19:26:22Z</time>
      </trkpt>
      <trkpt lat="46.76698" lon="-1.58148">
        <ele>36</ele>
        <time>2025-08-07T19:26:24Z</time>
      </trkpt>
      <trkpt lat="46.7669" lon="-1.58122">
        <ele>35</ele>
        <time>2025-08-07T19:26:26Z</time>
      </trkpt>
      <trkpt lat="46.76683" lon="-1.58097">
        <ele>33</ele>
        <time>2025-08-07T19:26:28Z</time>
      </trkpt>
      <trkpt lat="46.76678" lon="-1.58074">
        <ele>32</ele>
        <time>2025-08-07T19:26:30Z</time>
      </trkpt>
      <trkpt lat="46.76676" lon="-1.58051">
        <ele>31</ele>
        <time>2025-08-07T19:26:32Z</time>
      </trkpt>
      <trkpt lat="46.7668" lon="-1.58031">
        <ele>31</ele>
        <time>2025-08-07T19:26:34Z</time>
      </trkpt>
      <trkpt lat="46.76687" lon="-1.58013">
        <ele>31</ele>
        <time>2025-08-07T19:26:36Z</time>
      </trkpt>
      <trkpt lat="46.76696" lon="-1.57997">
        <ele>30</ele>
        <time>2025-08-07T19:26:38Z</time>
      </trkpt>
      <trkpt lat="46.76703" lon="-1.57977">
        <ele>29</ele>
        <time>2025-08-07T19:26:40Z</time>
      </trkpt>
      <trkpt lat="46.76705" lon="-1.57954">
        <ele>28</ele>
        <time>2025-08-07T19:26:42Z</time>
      </trkpt>
      <trkpt lat="46.76702" lon="-1.57929">
        <ele>26</ele>
        <time>2025-08-07T19:26:44Z</time>
      </trkpt>
      <trkpt lat="46.76696" lon="-1.57906">
        <ele>26</ele>
        <time>2025-08-07T19:26:46Z</time>
      </trkpt>
      <trkpt lat="46.76688" lon="-1.57893">
        <ele>25</ele>
        <time>2025-08-07T19:26:48Z</time>
      </trkpt>
      <trkpt lat="46.7668" lon="-1.57888">
        <ele>25</ele>
        <time>2025-08-07T19:26:50Z</time>
      </trkpt>
      <trkpt lat="46.76677" lon="-1.5788">
        <ele>25</ele>
        <time>2025-08-07T19:26:54Z</time>
      </trkpt>
      <trkpt lat="46.76675" lon="-1.57874">
        <ele>25</ele>
        <time>2025-08-07T19:26:56Z</time>
      </trkpt>
      <trkpt lat="46.76674" lon="-1.57867">
        <ele>25</ele>
        <time>2025-08-07T19:27:00Z</time>
      </trkpt>
      <trkpt lat="46.76674" lon="-1.5786">
        <ele>26</ele>
        <time>2025-08-07T19:27:06Z</time>
      </trkpt>
      <trkpt lat="46.76677" lon="-1.57851">
        <ele>26</ele>
        <time>2025-08-07T19:28:29Z</time>
      </trkpt>
      <trkpt lat="46.76679" lon="-1.57845">
        <ele>26</ele>
        <time>2025-08-07T19:28:31Z</time>
      </trkpt>
      <trkpt lat="46.76681" lon="-1.57838">
        <ele>26</ele>
        <time>2025-08-07T19:28:33Z</time>
      </trkpt>
      <trkpt lat="46.76683" lon="-1.5783">
        <ele>27</ele>
        <time>2025-08-07T19:28:35Z</time>
      </trkpt>
      <trkpt lat="46.76686" lon="-1.57823">
        <ele>27</ele>
        <time>2025-08-07T19:28:37Z</time>
      </trkpt>
      <trkpt lat="46.76688" lon="-1.57816">
        <ele>28</ele>
        <time>2025-08-07T19:28:39Z</time>
      </trkpt>
      <trkpt lat="46.7669" lon="-1.57809">
        <ele>28</ele>
        <time>2025-08-07T19:28:41Z</time>
      </trkpt>
      <trkpt lat="46.76691" lon="-1.57801">
        <ele>29</ele>
        <time>2025-08-07T19:28:43Z</time>
      </trkpt>
      <trkpt lat="46.76694" lon="-1.57794">
        <ele>29</ele>
        <time>2025-08-07T19:28:45Z</time>
      </trkpt>
      <trkpt lat="46.76696" lon="-1.57786">
        <ele>30</ele>
        <time>2025-08-07T19:28:47Z</time>
      </trkpt>
      <trkpt lat="46.76698" lon="-1.57778">
        <ele>30</ele>
        <time>2025-08-07T19:28:49Z</time>
      </trkpt>
      <trkpt lat="46.76699" lon="-1.57771">
        <ele>31</ele>
        <time>2025-08-07T19:28:51Z</time>
      </trkpt>
      <trkpt lat="46.76702" lon="-1.57764">
        <ele>31</ele>
        <time>2025-08-07T19:28:53Z</time>
      </trkpt>
      <trkpt lat="46.76704" lon="-1.57757">
        <ele>32</ele>
        <time>2025-08-07T19:28:55Z</time>
      </trkpt>
      <trkpt lat="46.76708" lon="-1.57744">
        <ele>33</ele>
        <time>2025-08-07T19:28:59Z</time>
      </trkpt>
      <trkpt lat="46.7671" lon="-1.57737">
        <ele>33</ele>
        <time>2025-08-07T19:29:01Z</time>
      </trkpt>
      <trkpt lat="46.76712" lon="-1.57729">
        <ele>34</ele>
        <time>2025-08-07T19:29:03Z</time>
      </trkpt>
      <trkpt lat="46.76714" lon="-1.57722">
        <ele>34</ele>
        <time>2025-08-07T19:29:05Z</time>
      </trkpt>
      <trkpt lat="46.76716" lon="-1.57714">
        <ele>35</ele>
        <time>2025-08-07T19:29:07Z</time>
      </trkpt>
      <trkpt lat="46.76718" lon="-1.57707">
        <ele>35</ele>
        <time>2025-08-07T19:29:09Z</time>
      </trkpt>
      <trkpt lat="46.7672" lon="-1.57699">
        <ele>36</ele>
        <time>2025-08-07T19:29:11Z</time>
      </trkpt>
      <trkpt lat="46.7672" lon="-1.57691">
        <ele>36</ele>
        <time>2025-08-07T19:29:13Z</time>
      </trkpt>
      <trkpt lat="46.76716" lon="-1.57682">
        <ele>38</ele>
        <time>2025-08-07T19:29:17Z</time>
      </trkpt>
      <trkpt lat="46.76712" lon="-1.57679">
        <ele>38</ele>
        <time>2025-08-07T19:29:19Z</time>
      </trkpt>
      <trkpt lat="46.76708" lon="-1.57675">
        <ele>39</ele>
        <time>2025-08-07T19:29:21Z</time>
      </trkpt>
      <trkpt lat="46.76704" lon="-1.57673">
        <ele>39</ele>
        <time>2025-08-07T19:29:23Z</time>
      </trkpt>
      <trkpt lat="46.76698" lon="-1.57672">
        <ele>39</ele>
        <time>2025-08-07T19:29:25Z</time>
      </trkpt>
      <trkpt lat="46.76693" lon="-1.57672">
        <ele>40</ele>
        <time>2025-08-07T19:29:27Z</time>
      </trkpt>
      <trkpt lat="46.76688" lon="-1.57671">
        <ele>40</ele>
        <time>2025-08-07T19:29:29Z</time>
      </trkpt>
      <trkpt lat="46.76682" lon="-1.5767">
        <ele>40</ele>
        <time>2025-08-07T19:29:31Z</time>
      </trkpt>
      <trkpt lat="46.76677" lon="-1.57669">
        <ele>41</ele>
        <time>2025-08-07T19:29:33Z</time>
      </trkpt>
      <trkpt lat="46.76672" lon="-1.57668">
        <ele>41</ele>
        <time>2025-08-07T19:29:35Z</time>
      </trkpt>
      <trkpt lat="46.76666" lon="-1.57667">
        <ele>41</ele>
        <time>2025-08-07T19:29:37Z</time>
      </trkpt>
      <trkpt lat="46.76661" lon="-1.57666">
        <ele>42</ele>
        <time>2025-08-07T19:29:39Z</time>
      </trkpt>
      <trkpt lat="46.76656" lon="-1.57664">
        <ele>42</ele>
        <time>2025-08-07T19:29:41Z</time>
      </trkpt>
      <trkpt lat="46.76651" lon="-1.57663">
        <ele>42</ele>
        <time>2025-08-07T19:29:43Z</time>
      </trkpt>
      <trkpt lat="46.76645" lon="-1.57661">
        <ele>43</ele>
        <time>2025-08-07T19:29:45Z</time>
      </trkpt>
      <trkpt lat="46.7664" lon="-1.5766">
        <ele>43</ele>
        <time>2025-08-07T19:29:47Z</time>
      </trkpt>
      <trkpt lat="46.76635" lon="-1.57659">
        <ele>44</ele>
        <time>2025-08-07T19:29:49Z</time>
      </trkpt>
      <trkpt lat="46.7663" lon="-1.57657">
        <ele>44</ele>
        <time>2025-08-07T19:29:51Z</time>
      </trkpt>
      <trkpt lat="46.76624" lon="-1.57656">
        <ele>44</ele>
        <time>2025-08-07T19:29:53Z</time>
      </trkpt>
      <trkpt lat="46.76619" lon="-1.57653">
        <ele>45</ele>
        <time>2025-08-07T19:29:55Z</time>
      </trkpt>
      <trkpt lat="46.76614" lon="-1.5765">
        <ele>45</ele>
        <time>2025-08-07T19:29:57Z</time>
      </trkpt>
      <trkpt lat="46.76609" lon="-1.57646">
        <ele>45</ele>
        <time>2025-08-07T19:29:59Z</time>
      </trkpt>
      <trkpt lat="46.76605" lon="-1.57641">
        <ele>45</ele>
        <time>2025-08-07T19:30:01Z</time>
      </trkpt>
      <trkpt lat="46.766" lon="-1.57638">
        <ele>45</ele>
        <time>2025-08-07T19:30:03Z</time>
      </trkpt>
      <trkpt lat="46.76595" lon="-1.57635">
        <ele>46</ele>
        <time>2025-08-07T19:30:05Z</time>
      </trkpt>
      <trkpt lat="46.7659" lon="-1.57632">
        <ele>46</ele>
        <time>2025-08-07T19:30:07Z</time>
      </trkpt>
      <trkpt lat="46.76585" lon="-1.5763">
        <ele>46</ele>
        <time>2025-08-07T19:30:09Z</time>
      </trkpt>
      <trkpt lat="46.76581" lon="-1.57627">
        <ele>46</ele>
        <time>2025-08-07T19:30:11Z</time>
      </trkpt>
      <trkpt lat="46.76577" lon="-1.57623">
        <ele>46</ele>
        <time>2025-08-07T19:30:13Z</time>
      </trkpt>
      <trkpt lat="46.76572" lon="-1.57618">
        <ele>46</ele>
        <time>2025-08-07T19:30:15Z</time>
      </trkpt>
      <trkpt lat="46.76568" lon="-1.57614">
        <ele>46</ele>
        <time>2025-08-07T19:30:17Z</time>
      </trkpt>
      <trkpt lat="46.76563" lon="-1.57611">
        <ele>46</ele>
        <time>2025-08-07T19:30:19Z</time>
      </trkpt>
      <trkpt lat="46.76559" lon="-1.57608">
        <ele>46</ele>
        <time>2025-08-07T19:30:21Z</time>
      </trkpt>
      <trkpt lat="46.76553" lon="-1.57605">
        <ele>46</ele>
        <time>2025-08-07T19:30:23Z</time>
      </trkpt>
      <trkpt lat="46.76547" lon="-1.576">
        <ele>46</ele>
        <time>2025-08-07T19:30:25Z</time>
      </trkpt>
      <trkpt lat="46.76542" lon="-1.57597">
        <ele>47</ele>
        <time>2025-08-07T19:30:27Z</time>
      </trkpt>
      <trkpt lat="46.76534" lon="-1.57593">
        <ele>47</ele>
        <time>2025-08-07T19:30:29Z</time>
      </trkpt>
      <trkpt lat="46.76527" lon="-1.57589">
        <ele>47</ele>
        <time>2025-08-07T19:30:31Z</time>
      </trkpt>
      <trkpt lat="46.76518" lon="-1.57584">
        <ele>47</ele>
        <time>2025-08-07T19:30:33Z</time>
      </trkpt>
      <trkpt lat="46.76511" lon="-1.57579">
        <ele>47</ele>
        <time>2025-08-07T19:30:35Z</time>
      </trkpt>
      <trkpt lat="46.76504" lon="-1.57574">
        <ele>48</ele>
        <time>2025-08-07T19:30:37Z</time>
      </trkpt>
      <trkpt lat="46.76497" lon="-1.57569">
        <ele>48</ele>
        <time>2025-08-07T19:30:39Z</time>
      </trkpt>
      <trkpt lat="46.7649" lon="-1.57564">
        <ele>48</ele>
        <time>2025-08-07T19:30:41Z</time>
      </trkpt>
      <trkpt lat="46.76482" lon="-1.57558">
        <ele>48</ele>
        <time>2025-08-07T19:30:43Z</time>
      </trkpt>
      <trkpt lat="46.76474" lon="-1.57552">
        <ele>48</ele>
        <time>2025-08-07T19:30:45Z</time>
      </trkpt>
      <trkpt lat="46.76467" lon="-1.57546">
        <ele>48</ele>
        <time>2025-08-07T19:30:47Z</time>
      </trkpt>
      <trkpt lat="46.76459" lon="-1.5754">
        <ele>48</ele>
        <time>2025-08-07T19:30:49Z</time>
      </trkpt>
      <trkpt lat="46.7645" lon="-1.57533">
        <ele>49</ele>
        <time>2025-08-07T19:30:51Z</time>
      </trkpt>
      <trkpt lat="46.76442" lon="-1.57527">
        <ele>48</ele>
        <time>2025-08-07T19:30:53Z</time>
      </trkpt>
      <trkpt lat="46.76432" lon="-1.5752">
        <ele>48</ele>
        <time>2025-08-07T19:30:56Z</time>
      </trkpt>
      <trkpt lat="46.76421" lon="-1.57515">
        <ele>48</ele>
        <time>2025-08-07T19:30:58Z</time>
      </trkpt>
      <trkpt lat="46.7641" lon="-1.57511">
        <ele>49</ele>
        <time>2025-08-07T19:31:00Z</time>
      </trkpt>
      <trkpt lat="46.76399" lon="-1.57508">
        <ele>49</ele>
        <time>2025-08-07T19:31:02Z</time>
      </trkpt>
      <trkpt lat="46.76388" lon="-1.57504">
        <ele>49</ele>
        <time>2025-08-07T19:31:04Z</time>
      </trkpt>
      <trkpt lat="46.76377" lon="-1.57501">
        <ele>49</ele>
        <time>2025-08-07T19:31:06Z</time>
      </trkpt>
      <trkpt lat="46.76366" lon="-1.57498">
        <ele>49</ele>
        <time>2025-08-07T19:31:08Z</time>
      </trkpt>
      <trkpt lat="46.76356" lon="-1.57494">
        <ele>49</ele>
        <time>2025-08-07T19:31:10Z</time>
      </trkpt>
      <trkpt lat="46.76346" lon="-1.5749">
        <ele>50</ele>
        <time>2025-08-07T19:31:12Z</time>
      </trkpt>
      <trkpt lat="46.76336" lon="-1.57483">
        <ele>50</ele>
        <time>2025-08-07T19:31:14Z</time>
      </trkpt>
      <trkpt lat="46.76326" lon="-1.57477">
        <ele>50</ele>
        <time>2025-08-07T19:31:16Z</time>
      </trkpt>
      <trkpt lat="46.76316" lon="-1.57471">
        <ele>50</ele>
        <time>2025-08-07T19:31:18Z</time>
      </trkpt>
      <trkpt lat="46.76306" lon="-1.57466">
        <ele>50</ele>
        <time>2025-08-07T19:31:20Z</time>
      </trkpt>
      <trkpt lat="46.76296" lon="-1.57461">
        <ele>51</ele>
        <time>2025-08-07T19:31:22Z</time>
      </trkpt>
      <trkpt lat="46.76286" lon="-1.57456">
        <ele>51</ele>
        <time>2025-08-07T19:31:24Z</time>
      </trkpt>
      <trkpt lat="46.76276" lon="-1.5745">
        <ele>51</ele>
        <time>2025-08-07T19:31:26Z</time>
      </trkpt>
      <trkpt lat="46.76266" lon="-1.57444">
        <ele>51</ele>
        <time>2025-08-07T19:31:28Z</time>
      </trkpt>
      <trkpt lat="46.76256" lon="-1.57438">
        <ele>50</ele>
        <time>2025-08-07T19:31:30Z</time>
      </trkpt>
      <trkpt lat="46.76246" lon="-1.57431">
        <ele>50</ele>
        <time>2025-08-07T19:31:32Z</time>
      </trkpt>
      <trkpt lat="46.76235" lon="-1.57424">
        <ele>50</ele>
        <time>2025-08-07T19:31:34Z</time>
      </trkpt>
      <trkpt lat="46.76225" lon="-1.57415">
        <ele>50</ele>
        <time>2025-08-07T19:31:36Z</time>
      </trkpt>
      <trkpt lat="46.76216" lon="-1.57405">
        <ele>50</ele>
        <time>2025-08-07T19:31:38Z</time>
      </trkpt>
      <trkpt lat="46.76207" lon="-1.57394">
        <ele>50</ele>
        <time>2025-08-07T19:31:40Z</time>
      </trkpt>
      <trkpt lat="46.76199" lon="-1.57384">
        <ele>50</ele>
        <time>2025-08-07T19:31:42Z</time>
      </trkpt>
      <trkpt lat="46.76191" lon="-1.57375">
        <ele>51</ele>
        <time>2025-08-07T19:31:44Z</time>
      </trkpt>
      <trkpt lat="46.76183" lon="-1.57365">
        <ele>51</ele>
        <time>2025-08-07T19:31:46Z</time>
      </trkpt>
      <trkpt lat="46.76175" lon="-1.57357">
        <ele>52</ele>
        <time>2025-08-07T19:31:48Z</time>
      </trkpt>
      <trkpt lat="46.76167" lon="-1.57348">
        <ele>52</ele>
        <time>2025-08-07T19:31:50Z</time>
      </trkpt>
      <trkpt lat="46.76158" lon="-1.5734">
        <ele>53</ele>
        <time>2025-08-07T19:31:52Z</time>
      </trkpt>
      <trkpt lat="46.76149" lon="-1.57332">
        <ele>53</ele>
        <time>2025-08-07T19:31:54Z</time>
      </trkpt>
      <trkpt lat="46.76141" lon="-1.57324">
        <ele>53</ele>
        <time>2025-08-07T19:31:56Z</time>
      </trkpt>
      <trkpt lat="46.76132" lon="-1.57316">
        <ele>53</ele>
        <time>2025-08-07T19:31:58Z</time>
      </trkpt>
      <trkpt lat="46.76124" lon="-1.57308">
        <ele>54</ele>
        <time>2025-08-07T19:32:00Z</time>
      </trkpt>
      <trkpt lat="46.76116" lon="-1.57299">
        <ele>54</ele>
        <time>2025-08-07T19:32:02Z</time>
      </trkpt>
      <trkpt lat="46.76108" lon="-1.57291">
        <ele>55</ele>
        <time>2025-08-07T19:32:04Z</time>
      </trkpt>
      <trkpt lat="46.76099" lon="-1.57285">
        <ele>55</ele>
        <time>2025-08-07T19:32:06Z</time>
      </trkpt>
      <trkpt lat="46.7609" lon="-1.57278">
        <ele>56</ele>
        <time>2025-08-07T19:32:08Z</time>
      </trkpt>
      <trkpt lat="46.76082" lon="-1.57271">
        <ele>56</ele>
        <time>2025-08-07T19:32:10Z</time>
      </trkpt>
      <trkpt lat="46.76073" lon="-1.57265">
        <ele>56</ele>
        <time>2025-08-07T19:32:12Z</time>
      </trkpt>
      <trkpt lat="46.76064" lon="-1.57258">
        <ele>56</ele>
        <time>2025-08-07T19:32:14Z</time>
      </trkpt>
      <trkpt lat="46.76054" lon="-1.57253">
        <ele>56</ele>
        <time>2025-08-07T19:32:16Z</time>
      </trkpt>
      <trkpt lat="46.76045" lon="-1.57248">
        <ele>56</ele>
        <time>2025-08-07T19:32:18Z</time>
      </trkpt>
      <trkpt lat="46.76036" lon="-1.57244">
        <ele>56</ele>
        <time>2025-08-07T19:32:20Z</time>
      </trkpt>
      <trkpt lat="46.76025" lon="-1.5724">
        <ele>56</ele>
        <time>2025-08-07T19:32:22Z</time>
      </trkpt>
      <trkpt lat="46.76015" lon="-1.57237">
        <ele>56</ele>
        <time>2025-08-07T19:32:24Z</time>
      </trkpt>
      <trkpt lat="46.76004" lon="-1.57234">
        <ele>56</ele>
        <time>2025-08-07T19:32:26Z</time>
      </trkpt>
      <trkpt lat="46.75992" lon="-1.57231">
        <ele>56</ele>
        <time>2025-08-07T19:32:28Z</time>
      </trkpt>
      <trkpt lat="46.75981" lon="-1.57227">
        <ele>55</ele>
        <time>2025-08-07T19:32:30Z</time>
      </trkpt>
      <trkpt lat="46.75969" lon="-1.57222">
        <ele>55</ele>
        <time>2025-08-07T19:32:32Z</time>
      </trkpt>
      <trkpt lat="46.75956" lon="-1.57215">
        <ele>55</ele>
        <time>2025-08-07T19:32:34Z</time>
      </trkpt>
      <trkpt lat="46.75944" lon="-1.57207">
        <ele>54</ele>
        <time>2025-08-07T19:32:36Z</time>
      </trkpt>
      <trkpt lat="46.75932" lon="-1.57197">
        <ele>54</ele>
        <time>2025-08-07T19:32:38Z</time>
      </trkpt>
      <trkpt lat="46.75919" lon="-1.57187">
        <ele>54</ele>
        <time>2025-08-07T19:32:40Z</time>
      </trkpt>
      <trkpt lat="46.75908" lon="-1.57176">
        <ele>54</ele>
        <time>2025-08-07T19:32:42Z</time>
      </trkpt>
      <trkpt lat="46.75896" lon="-1.57166">
        <ele>54</ele>
        <time>2025-08-07T19:32:44Z</time>
      </trkpt>
      <trkpt lat="46.75885" lon="-1.57155">
        <ele>54</ele>
        <time>2025-08-07T19:32:46Z</time>
      </trkpt>
      <trkpt lat="46.75874" lon="-1.57145">
        <ele>54</ele>
        <time>2025-08-07T19:32:48Z</time>
      </trkpt>
      <trkpt lat="46.75863" lon="-1.57132">
        <ele>54</ele>
        <time>2025-08-07T19:32:50Z</time>
      </trkpt>
      <trkpt lat="46.75854" lon="-1.5712">
        <ele>55</ele>
        <time>2025-08-07T19:32:52Z</time>
      </trkpt>
      <trkpt lat="46.75849" lon="-1.57109">
        <ele>56</ele>
        <time>2025-08-07T19:32:54Z</time>
      </trkpt>
      <trkpt lat="46.75844" lon="-1.57098">
        <ele>57</ele>
        <time>2025-08-07T19:32:56Z</time>
      </trkpt>
      <trkpt lat="46.75839" lon="-1.57092">
        <ele>57</ele>
        <time>2025-08-07T19:32:58Z</time>
      </trkpt>
      <trkpt lat="46.75832" lon="-1.57094">
        <ele>57</ele>
        <time>2025-08-07T19:33:00Z</time>
      </trkpt>
      <trkpt lat="46.75826" lon="-1.57101">
        <ele>57</ele>
        <time>2025-08-07T19:33:02Z</time>
      </trkpt>
      <trkpt lat="46.75819" lon="-1.57109">
        <ele>57</ele>
        <time>2025-08-07T19:33:04Z</time>
      </trkpt>
      <trkpt lat="46.75811" lon="-1.57116">
        <ele>57</ele>
        <time>2025-08-07T19:33:06Z</time>
      </trkpt>
      <trkpt lat="46.75804" lon="-1.57123">
        <ele>57</ele>
        <time>2025-08-07T19:33:08Z</time>
      </trkpt>
      <trkpt lat="46.75798" lon="-1.57134">
        <ele>56</ele>
        <time>2025-08-07T19:33:10Z</time>
      </trkpt>
      <trkpt lat="46.75795" lon="-1.5715">
        <ele>56</ele>
        <time>2025-08-07T19:33:12Z</time>
      </trkpt>
      <trkpt lat="46.75798" lon="-1.57169">
        <ele>55</ele>
        <time>2025-08-07T19:33:14Z</time>
      </trkpt>
      <trkpt lat="46.75803" lon="-1.57191">
        <ele>53</ele>
        <time>2025-08-07T19:33:16Z</time>
      </trkpt>
      <trkpt lat="46.75811" lon="-1.57216">
        <ele>52</ele>
        <time>2025-08-07T19:33:19Z</time>
      </trkpt>
      <trkpt lat="46.75821" lon="-1.57242">
        <ele>49</ele>
        <time>2025-08-07T19:33:21Z</time>
      </trkpt>
      <trkpt lat="46.75835" lon="-1.57268">
        <ele>46</ele>
        <time>2025-08-07T19:33:23Z</time>
      </trkpt>
      <trkpt lat="46.75853" lon="-1.57285">
        <ele>43</ele>
        <time>2025-08-07T19:33:25Z</time>
      </trkpt>
      <trkpt lat="46.75871" lon="-1.57287">
        <ele>41</ele>
        <time>2025-08-07T19:33:27Z</time>
      </trkpt>
      <trkpt lat="46.75884" lon="-1.57285">
        <ele>39</ele>
        <time>2025-08-07T19:33:29Z</time>
      </trkpt>
      <trkpt lat="46.7589" lon="-1.57289">
        <ele>38</ele>
        <time>2025-08-07T19:33:31Z</time>
      </trkpt>
      <trkpt lat="46.75892" lon="-1.57297">
        <ele>37</ele>
        <time>2025-08-07T19:33:33Z</time>
      </trkpt>
      <trkpt lat="46.75888" lon="-1.57301">
        <ele>36</ele>
        <time>2025-08-07T19:33:37Z</time>
      </trkpt>
      <trkpt lat="46.75885" lon="-1.57291">
        <ele>36</ele>
        <time>2025-08-07T19:33:41Z</time>
      </trkpt>
      <trkpt lat="46.75884" lon="-1.57279">
        <ele>37</ele>
        <time>2025-08-07T19:33:45Z</time>
      </trkpt>
      <trkpt lat="46.75886" lon="-1.5727">
        <ele>38</ele>
        <time>2025-08-07T19:33:49Z</time>
      </trkpt>
      <trkpt lat="46.75885" lon="-1.57262">
        <ele>41</ele>
        <time>2025-08-07T19:34:03Z</time>
      </trkpt>
      <trkpt lat="46.75888" lon="-1.57257">
        <ele>42</ele>
        <time>2025-08-07T19:34:07Z</time>
      </trkpt>
      <trkpt lat="46.75894" lon="-1.57257">
        <ele>42</ele>
        <time>2025-08-07T19:34:11Z</time>
      </trkpt>
      <trkpt lat="46.75893" lon="-1.57264">
        <ele>42</ele>
        <time>2025-08-07T19:34:15Z</time>
      </trkpt>
      <trkpt lat="46.75892" lon="-1.57275">
        <ele>41</ele>
        <time>2025-08-07T19:34:19Z</time>
      </trkpt>
      <trkpt lat="46.75892" lon="-1.57282">
        <ele>40</ele>
        <time>2025-08-07T19:34:21Z</time>
      </trkpt>
      <trkpt lat="46.75891" lon="-1.5729">
        <ele>38</ele>
        <time>2025-08-07T19:34:23Z</time>
      </trkpt>
      <trkpt lat="46.75888" lon="-1.57302">
        <ele>37</ele>
        <time>2025-08-07T19:34:25Z</time>
      </trkpt>
      <trkpt lat="46.75883" lon="-1.57316">
        <ele>36</ele>
        <time>2025-08-07T19:34:27Z</time>
      </trkpt>
      <trkpt lat="46.75879" lon="-1.57331">
        <ele>35</ele>
        <time>2025-08-07T19:34:29Z</time>
      </trkpt>
      <trkpt lat="46.75874" lon="-1.57345">
        <ele>35</ele>
        <time>2025-08-07T19:34:31Z</time>
      </trkpt>
      <trkpt lat="46.75869" lon="-1.57353">
        <ele>35</ele>
        <time>2025-08-07T19:34:33Z</time>
      </trkpt>
      <trkpt lat="46.75864" lon="-1.57356">
        <ele>35</ele>
        <time>2025-08-07T19:34:35Z</time>
      </trkpt>
      <trkpt lat="46.7586" lon="-1.57361">
        <ele>37</ele>
        <time>2025-08-07T19:34:55Z</time>
      </trkpt>
      <trkpt lat="46.75855" lon="-1.57365">
        <ele>37</ele>
        <time>2025-08-07T19:34:59Z</time>
      </trkpt>
      <trkpt lat="46.75847" lon="-1.57364">
        <ele>39</ele>
        <time>2025-08-07T19:35:03Z</time>
      </trkpt>
      <trkpt lat="46.75839" lon="-1.57363">
        <ele>40</ele>
        <time>2025-08-07T19:35:07Z</time>
      </trkpt>
      <trkpt lat="46.75832" lon="-1.57363">
        <ele>41</ele>
        <time>2025-08-07T19:35:11Z</time>
      </trkpt>
      <trkpt lat="46.75825" lon="-1.57365">
        <ele>42</ele>
        <time>2025-08-07T19:35:15Z</time>
      </trkpt>
      <trkpt lat="46.75817" lon="-1.57363">
        <ele>43</ele>
        <time>2025-08-07T19:35:19Z</time>
      </trkpt>
      <trkpt lat="46.75809" lon="-1.57359">
        <ele>44</ele>
        <time>2025-08-07T19:35:23Z</time>
      </trkpt>
      <trkpt lat="46.75803" lon="-1.57357">
        <ele>45</ele>
        <time>2025-08-07T19:35:27Z</time>
      </trkpt>
      <trkpt lat="46.75796" lon="-1.57364">
        <ele>45</ele>
        <time>2025-08-07T19:35:33Z</time>
      </trkpt>
      <trkpt lat="46.7579" lon="-1.57368">
        <ele>47</ele>
        <time>2025-08-07T19:35:37Z</time>
      </trkpt>
      <trkpt lat="46.75783" lon="-1.57368">
        <ele>48</ele>
        <time>2025-08-07T19:35:42Z</time>
      </trkpt>
      <trkpt lat="46.75778" lon="-1.57365">
        <ele>48</ele>
        <time>2025-08-07T19:35:44Z</time>
      </trkpt>
      <trkpt lat="46.75774" lon="-1.57363">
        <ele>48</ele>
        <time>2025-08-07T19:35:46Z</time>
      </trkpt>
      <trkpt lat="46.75769" lon="-1.57361">
        <ele>48</ele>
        <time>2025-08-07T19:35:48Z</time>
      </trkpt>
      <trkpt lat="46.75764" lon="-1.5736">
        <ele>48</ele>
        <time>2025-08-07T19:35:50Z</time>
      </trkpt>
      <trkpt lat="46.75757" lon="-1.57361">
        <ele>49</ele>
        <time>2025-08-07T19:35:54Z</time>
      </trkpt>
      <trkpt lat="46.75752" lon="-1.57363">
        <ele>49</ele>
        <time>2025-08-07T19:35:58Z</time>
      </trkpt>
      <trkpt lat="46.75747" lon="-1.57367">
        <ele>49</ele>
        <time>2025-08-07T19:36:02Z</time>
      </trkpt>
      <trkpt lat="46.75742" lon="-1.57376">
        <ele>50</ele>
        <time>2025-08-07T19:36:06Z</time>
      </trkpt>
      <trkpt lat="46.75737" lon="-1.57384">
        <ele>51</ele>
        <time>2025-08-07T19:36:10Z</time>
      </trkpt>
      <trkpt lat="46.75732" lon="-1.57392">
        <ele>52</ele>
        <time>2025-08-07T19:36:14Z</time>
      </trkpt>
      <trkpt lat="46.75728" lon="-1.57399">
        <ele>52</ele>
        <time>2025-08-07T19:36:18Z</time>
      </trkpt>
      <trkpt lat="46.75722" lon="-1.57409">
        <ele>53</ele>
        <time>2025-08-07T19:36:22Z</time>
      </trkpt>
      <trkpt lat="46.75719" lon="-1.57414">
        <ele>53</ele>
        <time>2025-08-07T19:36:24Z</time>
      </trkpt>
      <trkpt lat="46.75714" lon="-1.57423">
        <ele>54</ele>
        <time>2025-08-07T19:36:28Z</time>
      </trkpt>
      <trkpt lat="46.75709" lon="-1.57431">
        <ele>54</ele>
        <time>2025-08-07T19:36:32Z</time>
      </trkpt>
      <trkpt lat="46.75706" lon="-1.57436">
        <ele>55</ele>
        <time>2025-08-07T19:36:34Z</time>
      </trkpt>
      <trkpt lat="46.757" lon="-1.57444">
        <ele>55</ele>
        <time>2025-08-07T19:36:38Z</time>
      </trkpt>
      <trkpt lat="46.75695" lon="-1.57452">
        <ele>56</ele>
        <time>2025-08-07T19:36:42Z</time>
      </trkpt>
      <trkpt lat="46.75689" lon="-1.57462">
        <ele>56</ele>
        <time>2025-08-07T19:36:46Z</time>
      </trkpt>
      <trkpt lat="46.75682" lon="-1.57468">
        <ele>57</ele>
        <time>2025-08-07T19:36:50Z</time>
      </trkpt>
      <trkpt lat="46.7568" lon="-1.5746">
        <ele>57</ele>
        <time>2025-08-07T19:36:54Z</time>
      </trkpt>
      <trkpt lat="46.75679" lon="-1.57452">
        <ele>57</ele>
        <time>2025-08-07T19:36:56Z</time>
      </trkpt>
      <trkpt lat="46.75678" lon="-1.57441">
        <ele>57</ele>
        <time>2025-08-07T19:36:58Z</time>
      </trkpt>
      <trkpt lat="46.75679" lon="-1.5743">
        <ele>56</ele>
        <time>2025-08-07T19:37:00Z</time>
      </trkpt>
      <trkpt lat="46.75681" lon="-1.57416">
        <ele>55</ele>
        <time>2025-08-07T19:37:02Z</time>
      </trkpt>
      <trkpt lat="46.75686" lon="-1.57401">
        <ele>54</ele>
        <time>2025-08-07T19:37:04Z</time>
      </trkpt>
      <trkpt lat="46.75684" lon="-1.57387">
        <ele>53</ele>
        <time>2025-08-07T19:37:06Z</time>
      </trkpt>
      <trkpt lat="46.75683" lon="-1.57374">
        <ele>52</ele>
        <time>2025-08-07T19:37:08Z</time>
      </trkpt>
      <trkpt lat="46.75689" lon="-1.57363">
        <ele>52</ele>
        <time>2025-08-07T19:37:10Z</time>
      </trkpt>
      <trkpt lat="46.75697" lon="-1.57353">
        <ele>52</ele>
        <time>2025-08-07T19:37:12Z</time>
      </trkpt>
      <trkpt lat="46.75708" lon="-1.57343">
        <ele>50</ele>
        <time>2025-08-07T19:37:14Z</time>
      </trkpt>
      <trkpt lat="46.75716" lon="-1.5733">
        <ele>49</ele>
        <time>2025-08-07T19:37:16Z</time>
      </trkpt>
      <trkpt lat="46.7572" lon="-1.57315">
        <ele>48</ele>
        <time>2025-08-07T19:37:18Z</time>
      </trkpt>
      <trkpt lat="46.75713" lon="-1.57304">
        <ele>47</ele>
        <time>2025-08-07T19:37:20Z</time>
      </trkpt>
      <trkpt lat="46.75705" lon="-1.57296">
        <ele>46</ele>
        <time>2025-08-07T19:37:22Z</time>
      </trkpt>
      <trkpt lat="46.757" lon="-1.57285">
        <ele>45</ele>
        <time>2025-08-07T19:37:24Z</time>
      </trkpt>
      <trkpt lat="46.75694" lon="-1.57273">
        <ele>44</ele>
        <time>2025-08-07T19:37:26Z</time>
      </trkpt>
      <trkpt lat="46.75687" lon="-1.57261">
        <ele>42</ele>
        <time>2025-08-07T19:37:28Z</time>
      </trkpt>
      <trkpt lat="46.75679" lon="-1.57258">
        <ele>41</ele>
        <time>2025-08-07T19:37:30Z</time>
      </trkpt>
      <trkpt lat="46.75673" lon="-1.57261">
        <ele>41</ele>
        <time>2025-08-07T19:37:32Z</time>
      </trkpt>
      <trkpt lat="46.75669" lon="-1.57265">
        <ele>41</ele>
        <time>2025-08-07T19:37:34Z</time>
      </trkpt>
      <trkpt lat="46.75664" lon="-1.57268">
        <ele>41</ele>
        <time>2025-08-07T19:37:36Z</time>
      </trkpt>
      <trkpt lat="46.75659" lon="-1.5727">
        <ele>42</ele>
        <time>2025-08-07T19:37:38Z</time>
      </trkpt>
      <trkpt lat="46.75655" lon="-1.57273">
        <ele>42</ele>
        <time>2025-08-07T19:37:40Z</time>
      </trkpt>
      <trkpt lat="46.7565" lon="-1.57277">
        <ele>42</ele>
        <time>2025-08-07T19:37:42Z</time>
      </trkpt>
      <trkpt lat="46.75645" lon="-1.5728">
        <ele>42</ele>
        <time>2025-08-07T19:37:44Z</time>
      </trkpt>
      <trkpt lat="46.7564" lon="-1.5729">
        <ele>42</ele>
        <time>2025-08-07T19:37:48Z</time>
      </trkpt>
      <trkpt lat="46.75639" lon="-1.57297">
        <ele>43</ele>
        <time>2025-08-07T19:37:50Z</time>
      </trkpt>
      <trkpt lat="46.75639" lon="-1.57304">
        <ele>43</ele>
        <time>2025-08-07T19:37:52Z</time>
      </trkpt>
      <trkpt lat="46.75636" lon="-1.57317">
        <ele>44</ele>
        <time>2025-08-07T19:37:56Z</time>
      </trkpt>
      <trkpt lat="46.75633" lon="-1.57321">
        <ele>44</ele>
        <time>2025-08-07T19:37:58Z</time>
      </trkpt>
      <trkpt lat="46.75628" lon="-1.57324">
        <ele>44</ele>
        <time>2025-08-07T19:38:00Z</time>
      </trkpt>
      <trkpt lat="46.75623" lon="-1.57325">
        <ele>44</ele>
        <time>2025-08-07T19:38:02Z</time>
      </trkpt>
      <trkpt lat="46.75614" lon="-1.57325">
        <ele>44</ele>
        <time>2025-08-07T19:38:06Z</time>
      </trkpt>
      <trkpt lat="46.75606" lon="-1.57326">
        <ele>44</ele>
        <time>2025-08-07T19:38:11Z</time>
      </trkpt>
      <trkpt lat="46.75598" lon="-1.57328">
        <ele>44</ele>
        <time>2025-08-07T19:38:15Z</time>
      </trkpt>
      <trkpt lat="46.75593" lon="-1.57329">
        <ele>44</ele>
        <time>2025-08-07T19:38:17Z</time>
      </trkpt>
      <trkpt lat="46.75588" lon="-1.5733">
        <ele>44</ele>
        <time>2025-08-07T19:38:19Z</time>
      </trkpt>
      <trkpt lat="46.75584" lon="-1.57331">
        <ele>44</ele>
        <time>2025-08-07T19:38:21Z</time>
      </trkpt>
      <trkpt lat="46.75575" lon="-1.57337">
        <ele>44</ele>
        <time>2025-08-07T19:38:25Z</time>
      </trkpt>
      <trkpt lat="46.7557" lon="-1.57338">
        <ele>45</ele>
        <time>2025-08-07T19:38:27Z</time>
      </trkpt>
      <trkpt lat="46.75565" lon="-1.57339">
        <ele>45</ele>
        <time>2025-08-07T19:38:29Z</time>
      </trkpt>
      <trkpt lat="46.75561" lon="-1.57341">
        <ele>45</ele>
        <time>2025-08-07T19:38:31Z</time>
      </trkpt>
      <trkpt lat="46.75557" lon="-1.57352">
        <ele>46</ele>
        <time>2025-08-07T19:38:35Z</time>
      </trkpt>
      <trkpt lat="46.75555" lon="-1.5736">
        <ele>47</ele>
        <time>2025-08-07T19:38:39Z</time>
      </trkpt>
      <trkpt lat="46.75555" lon="-1.57368">
        <ele>48</ele>
        <time>2025-08-07T19:38:43Z</time>
      </trkpt>
      <trkpt lat="46.7556" lon="-1.57375">
        <ele>50</ele>
        <time>2025-08-07T19:38:47Z</time>
      </trkpt>
      <trkpt lat="46.75563" lon="-1.57385">
        <ele>51</ele>
        <time>2025-08-07T19:38:51Z</time>
      </trkpt>
      <trkpt lat="46.75564" lon="-1.57393">
        <ele>52</ele>
        <time>2025-08-07T19:38:55Z</time>
      </trkpt>
      <trkpt lat="46.7557" lon="-1.57398">
        <ele>53</ele>
        <time>2025-08-07T19:38:59Z</time>
      </trkpt>
      <trkpt lat="46.75575" lon="-1.57406">
        <ele>53</ele>
        <time>2025-08-07T19:39:03Z</time>
      </trkpt>
      <trkpt lat="46.75579" lon="-1.57413">
        <ele>54</ele>
        <time>2025-08-07T19:39:07Z</time>
      </trkpt>
      <trkpt lat="46.75585" lon="-1.57418">
        <ele>54</ele>
        <time>2025-08-07T19:39:11Z</time>
      </trkpt>
      <trkpt lat="46.75592" lon="-1.5742">
        <ele>54</ele>
        <time>2025-08-07T19:39:15Z</time>
      </trkpt>
      <trkpt lat="46.75597" lon="-1.57421">
        <ele>54</ele>
        <time>2025-08-07T19:39:19Z</time>
      </trkpt>
      <trkpt lat="46.75602" lon="-1.57426">
        <ele>54</ele>
        <time>2025-08-07T19:39:25Z</time>
      </trkpt>
      <trkpt lat="46.75607" lon="-1.57433">
        <ele>54</ele>
        <time>2025-08-07T19:39:29Z</time>
      </trkpt>
      <trkpt lat="46.75613" lon="-1.57429">
        <ele>54</ele>
        <time>2025-08-07T19:39:33Z</time>
      </trkpt>
      <trkpt lat="46.7562" lon="-1.57422">
        <ele>54</ele>
        <time>2025-08-07T19:39:37Z</time>
      </trkpt>
      <trkpt lat="46.75624" lon="-1.57417">
        <ele>53</ele>
        <time>2025-08-07T19:39:39Z</time>
      </trkpt>
      <trkpt lat="46.7563" lon="-1.57408">
        <ele>52</ele>
        <time>2025-08-07T19:39:43Z</time>
      </trkpt>
      <trkpt lat="46.75633" lon="-1.57402">
        <ele>52</ele>
        <time>2025-08-07T19:39:45Z</time>
      </trkpt>
      <trkpt lat="46.75634" lon="-1.57392">
        <ele>51</ele>
        <time>2025-08-07T19:39:49Z</time>
      </trkpt>
      <trkpt lat="46.75632" lon="-1.57382">
        <ele>50</ele>
        <time>2025-08-07T19:39:53Z</time>
      </trkpt>
      <trkpt lat="46.75629" lon="-1.57374">
        <ele>49</ele>
        <time>2025-08-07T19:39:55Z</time>
      </trkpt>
      <trkpt lat="46.75628" lon="-1.57364">
        <ele>48</ele>
        <time>2025-08-07T19:39:57Z</time>
      </trkpt>
      <trkpt lat="46.75627" lon="-1.57356">
        <ele>48</ele>
        <time>2025-08-07T19:39:59Z</time>
      </trkpt>
      <trkpt lat="46.75629" lon="-1.57349">
        <ele>47</ele>
        <time>2025-08-07T19:40:01Z</time>
      </trkpt>
      <trkpt lat="46.75633" lon="-1.57343">
        <ele>46</ele>
        <time>2025-08-07T19:40:03Z</time>
      </trkpt>
      <trkpt lat="46.75637" lon="-1.57337">
        <ele>46</ele>
        <time>2025-08-07T19:40:05Z</time>
      </trkpt>
      <trkpt lat="46.75645" lon="-1.57333">
        <ele>46</ele>
        <time>2025-08-07T19:40:09Z</time>
      </trkpt>
      <trkpt lat="46.75654" lon="-1.57334">
        <ele>47</ele>
        <time>2025-08-07T19:40:13Z</time>
      </trkpt>
      <trkpt lat="46.7566" lon="-1.57334">
        <ele>47</ele>
        <time>2025-08-07T19:40:17Z</time>
      </trkpt>
      <trkpt lat="46.75668" lon="-1.57334">
        <ele>48</ele>
        <time>2025-08-07T19:40:21Z</time>
      </trkpt>
      <trkpt lat="46.75674" lon="-1.57331">
        <ele>48</ele>
        <time>2025-08-07T19:40:25Z</time>
      </trkpt>
      <trkpt lat="46.7568" lon="-1.57329">
        <ele>48</ele>
        <time>2025-08-07T19:40:29Z</time>
      </trkpt>
      <trkpt lat="46.75685" lon="-1.57337">
        <ele>49</ele>
        <time>2025-08-07T19:40:33Z</time>
      </trkpt>
      <trkpt lat="46.75689" lon="-1.57344">
        <ele>49</ele>
        <time>2025-08-07T19:40:37Z</time>
      </trkpt>
      <trkpt lat="46.75693" lon="-1.5735">
        <ele>50</ele>
        <time>2025-08-07T19:40:41Z</time>
      </trkpt>
      <trkpt lat="46.75698" lon="-1.57354">
        <ele>50</ele>
        <time>2025-08-07T19:40:45Z</time>
      </trkpt>
      <trkpt lat="46.75702" lon="-1.57358">
        <ele>51</ele>
        <time>2025-08-07T19:40:49Z</time>
      </trkpt>
      <trkpt lat="46.75699" lon="-1.57366">
        <ele>51</ele>
        <time>2025-08-07T19:40:54Z</time>
      </trkpt>
      <trkpt lat="46.75697" lon="-1.57373">
        <ele>52</ele>
        <time>2025-08-07T19:40:58Z</time>
      </trkpt>
      <trkpt lat="46.75697" lon="-1.57381">
        <ele>52</ele>
        <time>2025-08-07T19:41:02Z</time>
      </trkpt>
      <trkpt lat="46.75696" lon="-1.57388">
        <ele>53</ele>
        <time>2025-08-07T19:41:06Z</time>
      </trkpt>
      <trkpt lat="46.75692" lon="-1.57398">
        <ele>54</ele>
        <time>2025-08-07T19:41:10Z</time>
      </trkpt>
      <trkpt lat="46.75689" lon="-1.57408">
        <ele>54</ele>
        <time>2025-08-07T19:41:14Z</time>
      </trkpt>
      <trkpt lat="46.75694" lon="-1.57417">
        <ele>55</ele>
        <time>2025-08-07T19:41:18Z</time>
      </trkpt>
      <trkpt lat="46.75699" lon="-1.5742">
        <ele>55</ele>
        <time>2025-08-07T19:41:22Z</time>
      </trkpt>
      <trkpt lat="46.75706" lon="-1.57412">
        <ele>55</ele>
        <time>2025-08-07T19:41:26Z</time>
      </trkpt>
      <trkpt lat="46.75713" lon="-1.57408">
        <ele>54</ele>
        <time>2025-08-07T19:41:30Z</time>
      </trkpt>
      <trkpt lat="46.75716" lon="-1.57402">
        <ele>54</ele>
        <time>2025-08-07T19:41:32Z</time>
      </trkpt>
      <trkpt lat="46.75719" lon="-1.57394">
        <ele>54</ele>
        <time>2025-08-07T19:41:34Z</time>
      </trkpt>
      <trkpt lat="46.75721" lon="-1.57386">
        <ele>53</ele>
        <time>2025-08-07T19:41:36Z</time>
      </trkpt>
      <trkpt lat="46.75724" lon="-1.57379">
        <ele>53</ele>
        <time>2025-08-07T19:41:38Z</time>
      </trkpt>
      <trkpt lat="46.7572" lon="-1.57367">
        <ele>52</ele>
        <time>2025-08-07T19:41:42Z</time>
      </trkpt>
      <trkpt lat="46.75717" lon="-1.57361">
        <ele>51</ele>
        <time>2025-08-07T19:41:44Z</time>
      </trkpt>
      <trkpt lat="46.75711" lon="-1.57354">
        <ele>51</ele>
        <time>2025-08-07T19:41:48Z</time>
      </trkpt>
      <trkpt lat="46.75707" lon="-1.57348">
        <ele>51</ele>
        <time>2025-08-07T19:41:52Z</time>
      </trkpt>
      <trkpt lat="46.75702" lon="-1.5734">
        <ele>50</ele>
        <time>2025-08-07T19:41:56Z</time>
      </trkpt>
      <trkpt lat="46.75694" lon="-1.57335">
        <ele>50</ele>
        <time>2025-08-07T19:42:00Z</time>
      </trkpt>
      <trkpt lat="46.75688" lon="-1.57329">
        <ele>49</ele>
        <time>2025-08-07T19:42:04Z</time>
      </trkpt>
      <trkpt lat="46.7568" lon="-1.57327">
        <ele>49</ele>
        <time>2025-08-07T19:42:08Z</time>
      </trkpt>
      <trkpt lat="46.75679" lon="-1.57334">
        <ele>49</ele>
        <time>2025-08-07T19:42:12Z</time>
      </trkpt>
      <trkpt lat="46.75679" lon="-1.57344">
        <ele>50</ele>
        <time>2025-08-07T19:42:16Z</time>
      </trkpt>
      <trkpt lat="46.75676" lon="-1.57353">
        <ele>50</ele>
        <time>2025-08-07T19:42:20Z</time>
      </trkpt>
      <trkpt lat="46.75672" lon="-1.57363">
        <ele>51</ele>
        <time>2025-08-07T19:42:24Z</time>
      </trkpt>
      <trkpt lat="46.75671" lon="-1.57373">
        <ele>51</ele>
        <time>2025-08-07T19:42:28Z</time>
      </trkpt>
      <trkpt lat="46.75676" lon="-1.57381">
        <ele>52</ele>
        <time>2025-08-07T19:42:32Z</time>
      </trkpt>
      <trkpt lat="46.75676" lon="-1.57392">
        <ele>53</ele>
        <time>2025-08-07T19:42:36Z</time>
      </trkpt>
      <trkpt lat="46.75677" lon="-1.57402">
        <ele>54</ele>
        <time>2025-08-07T19:42:40Z</time>
      </trkpt>
      <trkpt lat="46.75678" lon="-1.57414">
        <ele>54</ele>
        <time>2025-08-07T19:42:44Z</time>
      </trkpt>
      <trkpt lat="46.75679" lon="-1.57421">
        <ele>55</ele>
        <time>2025-08-07T19:42:46Z</time>
      </trkpt>
      <trkpt lat="46.75683" lon="-1.5743">
        <ele>55</ele>
        <time>2025-08-07T19:42:50Z</time>
      </trkpt>
      <trkpt lat="46.75683" lon="-1.5744">
        <ele>56</ele>
        <time>2025-08-07T19:42:54Z</time>
      </trkpt>
      <trkpt lat="46.75682" lon="-1.57449">
        <ele>56</ele>
        <time>2025-08-07T19:42:58Z</time>
      </trkpt>
      <trkpt lat="46.75686" lon="-1.57458">
        <ele>56</ele>
        <time>2025-08-07T19:43:02Z</time>
      </trkpt>
      <trkpt lat="46.75683" lon="-1.57466">
        <ele>57</ele>
        <time>2025-08-07T19:43:07Z</time>
      </trkpt>
      <trkpt lat="46.75677" lon="-1.57475">
        <ele>57</ele>
        <time>2025-08-07T19:43:11Z</time>
      </trkpt>
      <trkpt lat="46.75674" lon="-1.57481">
        <ele>57</ele>
        <time>2025-08-07T19:43:13Z</time>
      </trkpt>
      <trkpt lat="46.75671" lon="-1.57486">
        <ele>57</ele>
        <time>2025-08-07T19:43:15Z</time>
      </trkpt>
      <trkpt lat="46.75668" lon="-1.57491">
        <ele>57</ele>
        <time>2025-08-07T19:43:17Z</time>
      </trkpt>
      <trkpt lat="46.75664" lon="-1.57495">
        <ele>58</ele>
        <time>2025-08-07T19:43:19Z</time>
      </trkpt>
      <trkpt lat="46.75659" lon="-1.57499">
        <ele>58</ele>
        <time>2025-08-07T19:43:21Z</time>
      </trkpt>
      <trkpt lat="46.75654" lon="-1.57504">
        <ele>58</ele>
        <time>2025-08-07T19:43:23Z</time>
      </trkpt>
      <trkpt lat="46.7565" lon="-1.57509">
        <ele>58</ele>
        <time>2025-08-07T19:43:25Z</time>
      </trkpt>
      <trkpt lat="46.75645" lon="-1.57516">
        <ele>58</ele>
        <time>2025-08-07T19:43:27Z</time>
      </trkpt>
      <trkpt lat="46.75641" lon="-1.57522">
        <ele>58</ele>
        <time>2025-08-07T19:43:29Z</time>
      </trkpt>
      <trkpt lat="46.75636" lon="-1.57528">
        <ele>58</ele>
        <time>2025-08-07T19:43:31Z</time>
      </trkpt>
      <trkpt lat="46.75631" lon="-1.57534">
        <ele>59</ele>
        <time>2025-08-07T19:43:33Z</time>
      </trkpt>
      <trkpt lat="46.75626" lon="-1.57541">
        <ele>59</ele>
        <time>2025-08-07T19:43:35Z</time>
      </trkpt>
      <trkpt lat="46.7562" lon="-1.57547">
        <ele>59</ele>
        <time>2025-08-07T19:43:37Z</time>
      </trkpt>
      <trkpt lat="46.75615" lon="-1.57553">
        <ele>59</ele>
        <time>2025-08-07T19:43:39Z</time>
      </trkpt>
      <trkpt lat="46.7561" lon="-1.5756">
        <ele>59</ele>
        <time>2025-08-07T19:43:41Z</time>
      </trkpt>
      <trkpt lat="46.75606" lon="-1.57569">
        <ele>59</ele>
        <time>2025-08-07T19:43:43Z</time>
      </trkpt>
      <trkpt lat="46.75604" lon="-1.57579">
        <ele>59</ele>
        <time>2025-08-07T19:43:45Z</time>
      </trkpt>
      <trkpt lat="46.75602" lon="-1.57588">
        <ele>59</ele>
        <time>2025-08-07T19:43:47Z</time>
      </trkpt>
      <trkpt lat="46.75598" lon="-1.57595">
        <ele>59</ele>
        <time>2025-08-07T19:43:49Z</time>
      </trkpt>
      <trkpt lat="46.75592" lon="-1.576">
        <ele>59</ele>
        <time>2025-08-07T19:43:51Z</time>
      </trkpt>
      <trkpt lat="46.75587" lon="-1.57606">
        <ele>60</ele>
        <time>2025-08-07T19:43:53Z</time>
      </trkpt>
      <trkpt lat="46.75581" lon="-1.57611">
        <ele>60</ele>
        <time>2025-08-07T19:43:55Z</time>
      </trkpt>
      <trkpt lat="46.75575" lon="-1.57618">
        <ele>60</ele>
        <time>2025-08-07T19:43:57Z</time>
      </trkpt>
      <trkpt lat="46.75569" lon="-1.57626">
        <ele>60</ele>
        <time>2025-08-07T19:43:59Z</time>
      </trkpt>
      <trkpt lat="46.75563" lon="-1.57634">
        <ele>60</ele>
        <time>2025-08-07T19:44:01Z</time>
      </trkpt>
      <trkpt lat="46.75557" lon="-1.57643">
        <ele>60</ele>
        <time>2025-08-07T19:44:03Z</time>
      </trkpt>
      <trkpt lat="46.75553" lon="-1.57653">
        <ele>60</ele>
        <time>2025-08-07T19:44:05Z</time>
      </trkpt>
      <trkpt lat="46.75555" lon="-1.57666">
        <ele>60</ele>
        <time>2025-08-07T19:44:07Z</time>
      </trkpt>
      <trkpt lat="46.75561" lon="-1.57679">
        <ele>60</ele>
        <time>2025-08-07T19:44:09Z</time>
      </trkpt>
      <trkpt lat="46.75567" lon="-1.57692">
        <ele>60</ele>
        <time>2025-08-07T19:44:11Z</time>
      </trkpt>
      <trkpt lat="46.75573" lon="-1.57705">
        <ele>60</ele>
        <time>2025-08-07T19:44:13Z</time>
      </trkpt>
      <trkpt lat="46.75579" lon="-1.57719">
        <ele>60</ele>
        <time>2025-08-07T19:44:15Z</time>
      </trkpt>
      <trkpt lat="46.75585" lon="-1.57733">
        <ele>59</ele>
        <time>2025-08-07T19:44:17Z</time>
      </trkpt>
      <trkpt lat="46.75591" lon="-1.57748">
        <ele>59</ele>
        <time>2025-08-07T19:44:19Z</time>
      </trkpt>
      <trkpt lat="46.75596" lon="-1.57762">
        <ele>59</ele>
        <time>2025-08-07T19:44:21Z</time>
      </trkpt>
      <trkpt lat="46.75601" lon="-1.57775">
        <ele>59</ele>
        <time>2025-08-07T19:44:23Z</time>
      </trkpt>
      <trkpt lat="46.75607" lon="-1.57788">
        <ele>59</ele>
        <time>2025-08-07T19:44:25Z</time>
      </trkpt>
      <trkpt lat="46.75612" lon="-1.57801">
        <ele>59</ele>
        <time>2025-08-07T19:44:27Z</time>
      </trkpt>
      <trkpt lat="46.75617" lon="-1.57813">
        <ele>59</ele>
        <time>2025-08-07T19:44:29Z</time>
      </trkpt>
      <trkpt lat="46.7562" lon="-1.57826">
        <ele>59</ele>
        <time>2025-08-07T19:44:31Z</time>
      </trkpt>
      <trkpt lat="46.75614" lon="-1.57837">
        <ele>58</ele>
        <time>2025-08-07T19:44:33Z</time>
      </trkpt>
      <trkpt lat="46.75604" lon="-1.57844">
        <ele>58</ele>
        <time>2025-08-07T19:44:35Z</time>
      </trkpt>
      <trkpt lat="46.75594" lon="-1.57849">
        <ele>58</ele>
        <time>2025-08-07T19:44:37Z</time>
      </trkpt>
      <trkpt lat="46.75583" lon="-1.57854">
        <ele>58</ele>
        <time>2025-08-07T19:44:39Z</time>
      </trkpt>
      <trkpt lat="46.75574" lon="-1.5786">
        <ele>59</ele>
        <time>2025-08-07T19:44:41Z</time>
      </trkpt>
      <trkpt lat="46.75565" lon="-1.57866">
        <ele>59</ele>
        <time>2025-08-07T19:44:43Z</time>
      </trkpt>
      <trkpt lat="46.75557" lon="-1.57872">
        <ele>60</ele>
        <time>2025-08-07T19:44:45Z</time>
      </trkpt>
      <trkpt lat="46.75548" lon="-1.57878">
        <ele>60</ele>
        <time>2025-08-07T19:44:47Z</time>
      </trkpt>
      <trkpt lat="46.7554" lon="-1.57883">
        <ele>59</ele>
        <time>2025-08-07T19:44:49Z</time>
      </trkpt>
      <trkpt lat="46.75533" lon="-1.57887">
        <ele>60</ele>
        <time>2025-08-07T19:44:51Z</time>
      </trkpt>
      <trkpt lat="46.75525" lon="-1.57891">
        <ele>60</ele>
        <time>2025-08-07T19:44:53Z</time>
      </trkpt>
      <trkpt lat="46.75518" lon="-1.5789">
        <ele>60</ele>
        <time>2025-08-07T19:44:55Z</time>
      </trkpt>
      <trkpt lat="46.7551" lon="-1.57885">
        <ele>61</ele>
        <time>2025-08-07T19:44:57Z</time>
      </trkpt>
      <trkpt lat="46.75504" lon="-1.57875">
        <ele>61</ele>
        <time>2025-08-07T19:44:59Z</time>
      </trkpt>
      <trkpt lat="46.75497" lon="-1.57866">
        <ele>61</ele>
        <time>2025-08-07T19:45:01Z</time>
      </trkpt>
      <trkpt lat="46.75489" lon="-1.57857">
        <ele>61</ele>
        <time>2025-08-07T19:45:03Z</time>
      </trkpt>
      <trkpt lat="46.75479" lon="-1.57847">
        <ele>61</ele>
        <time>2025-08-07T19:45:05Z</time>
      </trkpt>
      <trkpt lat="46.75468" lon="-1.57838">
        <ele>61</ele>
        <time>2025-08-07T19:45:07Z</time>
      </trkpt>
      <trkpt lat="46.75456" lon="-1.5783">
        <ele>61</ele>
        <time>2025-08-07T19:45:09Z</time>
      </trkpt>
      <trkpt lat="46.75444" lon="-1.57825">
        <ele>61</ele>
        <time>2025-08-07T19:45:11Z</time>
      </trkpt>
      <trkpt lat="46.75433" lon="-1.57821">
        <ele>61</ele>
        <time>2025-08-07T19:45:13Z</time>
      </trkpt>
      <trkpt lat="46.75421" lon="-1.57818">
        <ele>60</ele>
        <time>2025-08-07T19:45:15Z</time>
      </trkpt>
      <trkpt lat="46.75409" lon="-1.57815">
        <ele>60</ele>
        <time>2025-08-07T19:45:17Z</time>
      </trkpt>
      <trkpt lat="46.75397" lon="-1.57813">
        <ele>60</ele>
        <time>2025-08-07T19:45:19Z</time>
      </trkpt>
      <trkpt lat="46.75384" lon="-1.5781">
        <ele>60</ele>
        <time>2025-08-07T19:45:21Z</time>
      </trkpt>
      <trkpt lat="46.75371" lon="-1.57807">
        <ele>60</ele>
        <time>2025-08-07T19:45:23Z</time>
      </trkpt>
      <trkpt lat="46.75357" lon="-1.57803">
        <ele>59</ele>
        <time>2025-08-07T19:45:25Z</time>
      </trkpt>
      <trkpt lat="46.75343" lon="-1.578">
        <ele>59</ele>
        <time>2025-08-07T19:45:28Z</time>
      </trkpt>
      <trkpt lat="46.75327" lon="-1.57796">
        <ele>58</ele>
        <time>2025-08-07T19:45:30Z</time>
      </trkpt>
      <trkpt lat="46.75312" lon="-1.57793">
        <ele>58</ele>
        <time>2025-08-07T19:45:32Z</time>
      </trkpt>
      <trkpt lat="46.75296" lon="-1.57789">
        <ele>57</ele>
        <time>2025-08-07T19:45:34Z</time>
      </trkpt>
      <trkpt lat="46.7528" lon="-1.57786">
        <ele>57</ele>
        <time>2025-08-07T19:45:36Z</time>
      </trkpt>
      <trkpt lat="46.75266" lon="-1.57782">
        <ele>57</ele>
        <time>2025-08-07T19:45:38Z</time>
      </trkpt>
      <trkpt lat="46.75253" lon="-1.57779">
        <ele>57</ele>
        <time>2025-08-07T19:45:40Z</time>
      </trkpt>
      <trkpt lat="46.75241" lon="-1.57776">
        <ele>57</ele>
        <time>2025-08-07T19:45:42Z</time>
      </trkpt>
      <trkpt lat="46.75229" lon="-1.57773">
        <ele>57</ele>
        <time>2025-08-07T19:45:44Z</time>
      </trkpt>
      <trkpt lat="46.75217" lon="-1.5777">
        <ele>57</ele>
        <time>2025-08-07T19:45:46Z</time>
      </trkpt>
      <trkpt lat="46.75205" lon="-1.57767">
        <ele>58</ele>
        <time>2025-08-07T19:45:48Z</time>
      </trkpt>
      <trkpt lat="46.75194" lon="-1.57764">
        <ele>58</ele>
        <time>2025-08-07T19:45:50Z</time>
      </trkpt>
      <trkpt lat="46.75182" lon="-1.57761">
        <ele>58</ele>
        <time>2025-08-07T19:45:52Z</time>
      </trkpt>
      <trkpt lat="46.75171" lon="-1.57759">
        <ele>58</ele>
        <time>2025-08-07T19:45:54Z</time>
      </trkpt>
      <trkpt lat="46.75161" lon="-1.57757">
        <ele>59</ele>
        <time>2025-08-07T19:45:56Z</time>
      </trkpt>
      <trkpt lat="46.75152" lon="-1.57755">
        <ele>59</ele>
        <time>2025-08-07T19:45:58Z</time>
      </trkpt>
      <trkpt lat="46.75142" lon="-1.57752">
        <ele>59</ele>
        <time>2025-08-07T19:46:00Z</time>
      </trkpt>
      <trkpt lat="46.75132" lon="-1.57749">
        <ele>59</ele>
        <time>2025-08-07T19:46:02Z</time>
      </trkpt>
      <trkpt lat="46.75123" lon="-1.57747">
        <ele>59</ele>
        <time>2025-08-07T19:46:04Z</time>
      </trkpt>
      <trkpt lat="46.75112" lon="-1.57745">
        <ele>59</ele>
        <time>2025-08-07T19:46:06Z</time>
      </trkpt>
      <trkpt lat="46.75102" lon="-1.57743">
        <ele>60</ele>
        <time>2025-08-07T19:46:08Z</time>
      </trkpt>
      <trkpt lat="46.75092" lon="-1.5774">
        <ele>60</ele>
        <time>2025-08-07T19:46:10Z</time>
      </trkpt>
      <trkpt lat="46.75083" lon="-1.57738">
        <ele>60</ele>
        <time>2025-08-07T19:46:12Z</time>
      </trkpt>
      <trkpt lat="46.75075" lon="-1.57737">
        <ele>60</ele>
        <time>2025-08-07T19:46:14Z</time>
      </trkpt>
      <trkpt lat="46.75069" lon="-1.57742">
        <ele>60</ele>
        <time>2025-08-07T19:46:16Z</time>
      </trkpt>
      <trkpt lat="46.75067" lon="-1.57755">
        <ele>60</ele>
        <time>2025-08-07T19:46:18Z</time>
      </trkpt>
      <trkpt lat="46.75067" lon="-1.5777">
        <ele>60</ele>
        <time>2025-08-07T19:46:20Z</time>
      </trkpt>
      <trkpt lat="46.75068" lon="-1.57787">
        <ele>60</ele>
        <time>2025-08-07T19:46:22Z</time>
      </trkpt>
      <trkpt lat="46.75071" lon="-1.57802">
        <ele>60</ele>
        <time>2025-08-07T19:46:24Z</time>
      </trkpt>
      <trkpt lat="46.75073" lon="-1.57817">
        <ele>60</ele>
        <time>2025-08-07T19:46:26Z</time>
      </trkpt>
      <trkpt lat="46.75075" lon="-1.57831">
        <ele>60</ele>
        <time>2025-08-07T19:46:28Z</time>
      </trkpt>
      <trkpt lat="46.75077" lon="-1.57845">
        <ele>60</ele>
        <time>2025-08-07T19:46:30Z</time>
      </trkpt>
      <trkpt lat="46.75079" lon="-1.57859">
        <ele>60</ele>
        <time>2025-08-07T19:46:32Z</time>
      </trkpt>
      <trkpt lat="46.75079" lon="-1.57872">
        <ele>61</ele>
        <time>2025-08-07T19:46:34Z</time>
      </trkpt>
      <trkpt lat="46.75077" lon="-1.57884">
        <ele>61</ele>
        <time>2025-08-07T19:46:36Z</time>
      </trkpt>
      <trkpt lat="46.75073" lon="-1.57894">
        <ele>61</ele>
        <time>2025-08-07T19:46:38Z</time>
      </trkpt>
      <trkpt lat="46.75067" lon="-1.57901">
        <ele>62</ele>
        <time>2025-08-07T19:46:40Z</time>
      </trkpt>
      <trkpt lat="46.75063" lon="-1.57909">
        <ele>62</ele>
        <time>2025-08-07T19:46:42Z</time>
      </trkpt>
      <trkpt lat="46.7506" lon="-1.5792">
        <ele>62</ele>
        <time>2025-08-07T19:46:44Z</time>
      </trkpt>
      <trkpt lat="46.75058" lon="-1.57931">
        <ele>62</ele>
        <time>2025-08-07T19:46:46Z</time>
      </trkpt>
      <trkpt lat="46.75054" lon="-1.57943">
        <ele>63</ele>
        <time>2025-08-07T19:46:48Z</time>
      </trkpt>
      <trkpt lat="46.7505" lon="-1.57955">
        <ele>63</ele>
        <time>2025-08-07T19:46:50Z</time>
      </trkpt>
      <trkpt lat="46.75046" lon="-1.57968">
        <ele>63</ele>
        <time>2025-08-07T19:46:52Z</time>
      </trkpt>
      <trkpt lat="46.75042" lon="-1.5798">
        <ele>63</ele>
        <time>2025-08-07T19:46:54Z</time>
      </trkpt>
      <trkpt lat="46.75037" lon="-1.57991">
        <ele>63</ele>
        <time>2025-08-07T19:46:56Z</time>
      </trkpt>
      <trkpt lat="46.75029" lon="-1.57999">
        <ele>63</ele>
        <time>2025-08-07T19:46:58Z</time>
      </trkpt>
      <trkpt lat="46.75021" lon="-1.58004">
        <ele>63</ele>
        <time>2025-08-07T19:47:00Z</time>
      </trkpt>
      <trkpt lat="46.75012" lon="-1.58008">
        <ele>63</ele>
        <time>2025-08-07T19:47:02Z</time>
      </trkpt>
      <trkpt lat="46.75003" lon="-1.58012">
        <ele>63</ele>
        <time>2025-08-07T19:47:04Z</time>
      </trkpt>
      <trkpt lat="46.74994" lon="-1.58015">
        <ele>63</ele>
        <time>2025-08-07T19:47:06Z</time>
      </trkpt>
      <trkpt lat="46.74985" lon="-1.58019">
        <ele>63</ele>
        <time>2025-08-07T19:47:08Z</time>
      </trkpt>
      <trkpt lat="46.74976" lon="-1.58023">
        <ele>64</ele>
        <time>2025-08-07T19:47:10Z</time>
      </trkpt>
      <trkpt lat="46.74968" lon="-1.58027">
        <ele>64</ele>
        <time>2025-08-07T19:47:12Z</time>
      </trkpt>
      <trkpt lat="46.7496" lon="-1.58032">
        <ele>64</ele>
        <time>2025-08-07T19:47:14Z</time>
      </trkpt>
      <trkpt lat="46.74952" lon="-1.58037">
        <ele>64</ele>
        <time>2025-08-07T19:47:16Z</time>
      </trkpt>
      <trkpt lat="46.74944" lon="-1.58042">
        <ele>64</ele>
        <time>2025-08-07T19:47:18Z</time>
      </trkpt>
      <trkpt lat="46.74936" lon="-1.58048">
        <ele>65</ele>
        <time>2025-08-07T19:47:20Z</time>
      </trkpt>
      <trkpt lat="46.74928" lon="-1.58053">
        <ele>65</ele>
        <time>2025-08-07T19:47:22Z</time>
      </trkpt>
      <trkpt lat="46.7492" lon="-1.5806">
        <ele>65</ele>
        <time>2025-08-07T19:47:24Z</time>
      </trkpt>
      <trkpt lat="46.74912" lon="-1.58065">
        <ele>65</ele>
        <time>2025-08-07T19:47:26Z</time>
      </trkpt>
      <trkpt lat="46.74905" lon="-1.5807">
        <ele>66</ele>
        <time>2025-08-07T19:47:28Z</time>
      </trkpt>
      <trkpt lat="46.74897" lon="-1.58081">
        <ele>66</ele>
        <time>2025-08-07T19:47:30Z</time>
      </trkpt>
      <trkpt lat="46.74899" lon="-1.58093">
        <ele>66</ele>
        <time>2025-08-07T19:47:32Z</time>
      </trkpt>
      <trkpt lat="46.74905" lon="-1.58105">
        <ele>66</ele>
        <time>2025-08-07T19:47:34Z</time>
      </trkpt>
      <trkpt lat="46.74911" lon="-1.58115">
        <ele>66</ele>
        <time>2025-08-07T19:47:36Z</time>
      </trkpt>
      <trkpt lat="46.74917" lon="-1.58125">
        <ele>66</ele>
        <time>2025-08-07T19:47:38Z</time>
      </trkpt>
      <trkpt lat="46.74922" lon="-1.58135">
        <ele>66</ele>
        <time>2025-08-07T19:47:40Z</time>
      </trkpt>
      <trkpt lat="46.74926" lon="-1.58145">
        <ele>66</ele>
        <time>2025-08-07T19:47:42Z</time>
      </trkpt>
      <trkpt lat="46.74928" lon="-1.58154">
        <ele>66</ele>
        <time>2025-08-07T19:47:44Z</time>
      </trkpt>
      <trkpt lat="46.74925" lon="-1.58163">
        <ele>66</ele>
        <time>2025-08-07T19:47:46Z</time>
      </trkpt>
      <trkpt lat="46.74917" lon="-1.5817">
        <ele>66</ele>
        <time>2025-08-07T19:47:48Z</time>
      </trkpt>
      <trkpt lat="46.74909" lon="-1.58178">
        <ele>66</ele>
        <time>2025-08-07T19:47:50Z</time>
      </trkpt>
      <trkpt lat="46.749" lon="-1.58184">
        <ele>66</ele>
        <time>2025-08-07T19:47:53Z</time>
      </trkpt>
      <trkpt lat="46.74892" lon="-1.5819">
        <ele>66</ele>
        <time>2025-08-07T19:47:55Z</time>
      </trkpt>
      <trkpt lat="46.74886" lon="-1.58197">
        <ele>66</ele>
        <time>2025-08-07T19:47:57Z</time>
      </trkpt>
      <trkpt lat="46.74878" lon="-1.58204">
        <ele>67</ele>
        <time>2025-08-07T19:47:59Z</time>
      </trkpt>
      <trkpt lat="46.74871" lon="-1.58211">
        <ele>67</ele>
        <time>2025-08-07T19:48:01Z</time>
      </trkpt>
      <trkpt lat="46.74863" lon="-1.58218">
        <ele>67</ele>
        <time>2025-08-07T19:48:03Z</time>
      </trkpt>
      <trkpt lat="46.74854" lon="-1.58226">
        <ele>67</ele>
        <time>2025-08-07T19:48:05Z</time>
      </trkpt>
      <trkpt lat="46.74845" lon="-1.58234">
        <ele>67</ele>
        <time>2025-08-07T19:48:07Z</time>
      </trkpt>
      <trkpt lat="46.74836" lon="-1.58242">
        <ele>67</ele>
        <time>2025-08-07T19:48:09Z</time>
      </trkpt>
      <trkpt lat="46.74828" lon="-1.5825">
        <ele>67</ele>
        <time>2025-08-07T19:48:11Z</time>
      </trkpt>
      <trkpt lat="46.7482" lon="-1.58257">
        <ele>67</ele>
        <time>2025-08-07T19:48:13Z</time>
      </trkpt>
      <trkpt lat="46.74812" lon="-1.58265">
        <ele>67</ele>
        <time>2025-08-07T19:48:15Z</time>
      </trkpt>
      <trkpt lat="46.74803" lon="-1.58274">
        <ele>67</ele>
        <time>2025-08-07T19:48:17Z</time>
      </trkpt>
      <trkpt lat="46.74794" lon="-1.58283">
        <ele>67</ele>
        <time>2025-08-07T19:48:19Z</time>
      </trkpt>
      <trkpt lat="46.74786" lon="-1.5829">
        <ele>67</ele>
        <time>2025-08-07T19:48:21Z</time>
      </trkpt>
      <trkpt lat="46.74777" lon="-1.58297">
        <ele>67</ele>
        <time>2025-08-07T19:48:23Z</time>
      </trkpt>
      <trkpt lat="46.74769" lon="-1.58305">
        <ele>67</ele>
        <time>2025-08-07T19:48:25Z</time>
      </trkpt>
      <trkpt lat="46.74759" lon="-1.58312">
        <ele>67</ele>
        <time>2025-08-07T19:48:27Z</time>
      </trkpt>
      <trkpt lat="46.7475" lon="-1.58321">
        <ele>67</ele>
        <time>2025-08-07T19:48:29Z</time>
      </trkpt>
      <trkpt lat="46.74741" lon="-1.5833">
        <ele>67</ele>
        <time>2025-08-07T19:48:31Z</time>
      </trkpt>
      <trkpt lat="46.74731" lon="-1.58339">
        <ele>67</ele>
        <time>2025-08-07T19:48:33Z</time>
      </trkpt>
      <trkpt lat="46.74722" lon="-1.58347">
        <ele>68</ele>
        <time>2025-08-07T19:48:35Z</time>
      </trkpt>
      <trkpt lat="46.74714" lon="-1.58355">
        <ele>68</ele>
        <time>2025-08-07T19:48:37Z</time>
      </trkpt>
      <trkpt lat="46.74706" lon="-1.58366">
        <ele>68</ele>
        <time>2025-08-07T19:48:39Z</time>
      </trkpt>
      <trkpt lat="46.74698" lon="-1.58377">
        <ele>68</ele>
        <time>2025-08-07T19:48:41Z</time>
      </trkpt>
      <trkpt lat="46.7469" lon="-1.58388">
        <ele>68</ele>
        <time>2025-08-07T19:48:43Z</time>
      </trkpt>
      <trkpt lat="46.74683" lon="-1.58398">
        <ele>68</ele>
        <time>2025-08-07T19:48:45Z</time>
      </trkpt>
      <trkpt lat="46.74675" lon="-1.58408">
        <ele>68</ele>
        <time>2025-08-07T19:48:47Z</time>
      </trkpt>
      <trkpt lat="46.74667" lon="-1.58419">
        <ele>68</ele>
        <time>2025-08-07T19:48:49Z</time>
      </trkpt>
      <trkpt lat="46.74659" lon="-1.5843">
        <ele>68</ele>
        <time>2025-08-07T19:48:51Z</time>
      </trkpt>
      <trkpt lat="46.74654" lon="-1.58443">
        <ele>68</ele>
        <time>2025-08-07T19:48:53Z</time>
      </trkpt>
      <trkpt lat="46.74654" lon="-1.5846">
        <ele>68</ele>
        <time>2025-08-07T19:48:55Z</time>
      </trkpt>
      <trkpt lat="46.74658" lon="-1.58477">
        <ele>68</ele>
        <time>2025-08-07T19:48:57Z</time>
      </trkpt>
      <trkpt lat="46.74662" lon="-1.58494">
        <ele>68</ele>
        <time>2025-08-07T19:48:59Z</time>
      </trkpt>
      <trkpt lat="46.74666" lon="-1.58511">
        <ele>67</ele>
        <time>2025-08-07T19:49:01Z</time>
      </trkpt>
      <trkpt lat="46.7467" lon="-1.58527">
        <ele>67</ele>
        <time>2025-08-07T19:49:03Z</time>
      </trkpt>
      <trkpt lat="46.74673" lon="-1.58543">
        <ele>67</ele>
        <time>2025-08-07T19:49:05Z</time>
      </trkpt>
      <trkpt lat="46.74676" lon="-1.5856">
        <ele>67</ele>
        <time>2025-08-07T19:49:07Z</time>
      </trkpt>
      <trkpt lat="46.74678" lon="-1.58577">
        <ele>66</ele>
        <time>2025-08-07T19:49:09Z</time>
      </trkpt>
      <trkpt lat="46.74679" lon="-1.58594">
        <ele>66</ele>
        <time>2025-08-07T19:49:11Z</time>
      </trkpt>
      <trkpt lat="46.7468" lon="-1.58611">
        <ele>66</ele>
        <time>2025-08-07T19:49:13Z</time>
      </trkpt>
      <trkpt lat="46.74683" lon="-1.58628">
        <ele>66</ele>
        <time>2025-08-07T19:49:15Z</time>
      </trkpt>
      <trkpt lat="46.74685" lon="-1.58644">
        <ele>66</ele>
        <time>2025-08-07T19:49:17Z</time>
      </trkpt>
      <trkpt lat="46.74688" lon="-1.5866">
        <ele>66</ele>
        <time>2025-08-07T19:49:19Z</time>
      </trkpt>
      <trkpt lat="46.74689" lon="-1.58676">
        <ele>66</ele>
        <time>2025-08-07T19:49:21Z</time>
      </trkpt>
      <trkpt lat="46.7469" lon="-1.5869">
        <ele>66</ele>
        <time>2025-08-07T19:49:23Z</time>
      </trkpt>
      <trkpt lat="46.74691" lon="-1.58704">
        <ele>66</ele>
        <time>2025-08-07T19:49:25Z</time>
      </trkpt>
      <trkpt lat="46.74693" lon="-1.58717">
        <ele>66</ele>
        <time>2025-08-07T19:49:27Z</time>
      </trkpt>
      <trkpt lat="46.74694" lon="-1.58731">
        <ele>67</ele>
        <time>2025-08-07T19:49:29Z</time>
      </trkpt>
      <trkpt lat="46.74696" lon="-1.58745">
        <ele>67</ele>
        <time>2025-08-07T19:49:31Z</time>
      </trkpt>
      <trkpt lat="46.74697" lon="-1.58759">
        <ele>67</ele>
        <time>2025-08-07T19:49:33Z</time>
      </trkpt>
      <trkpt lat="46.74698" lon="-1.58772">
        <ele>68</ele>
        <time>2025-08-07T19:49:35Z</time>
      </trkpt>
      <trkpt lat="46.747" lon="-1.58786">
        <ele>68</ele>
        <time>2025-08-07T19:49:37Z</time>
      </trkpt>
      <trkpt lat="46.74702" lon="-1.58799">
        <ele>68</ele>
        <time>2025-08-07T19:49:39Z</time>
      </trkpt>
      <trkpt lat="46.74703" lon="-1.58813">
        <ele>68</ele>
        <time>2025-08-07T19:49:41Z</time>
      </trkpt>
      <trkpt lat="46.74705" lon="-1.58828">
        <ele>68</ele>
        <time>2025-08-07T19:49:43Z</time>
      </trkpt>
      <trkpt lat="46.74707" lon="-1.58846">
        <ele>68</ele>
        <time>2025-08-07T19:49:45Z</time>
      </trkpt>
      <trkpt lat="46.74708" lon="-1.5886">
        <ele>68</ele>
        <time>2025-08-07T19:49:47Z</time>
      </trkpt>
      <trkpt lat="46.74708" lon="-1.58872">
        <ele>68</ele>
        <time>2025-08-07T19:49:49Z</time>
      </trkpt>
      <trkpt lat="46.74708" lon="-1.58884">
        <ele>68</ele>
        <time>2025-08-07T19:49:51Z</time>
      </trkpt>
      <trkpt lat="46.74708" lon="-1.58895">
        <ele>68</ele>
        <time>2025-08-07T19:49:53Z</time>
      </trkpt>
      <trkpt lat="46.74706" lon="-1.58909">
        <ele>68</ele>
        <time>2025-08-07T19:49:55Z</time>
      </trkpt>
      <trkpt lat="46.74705" lon="-1.58923">
        <ele>67</ele>
        <time>2025-08-07T19:49:57Z</time>
      </trkpt>
      <trkpt lat="46.74704" lon="-1.58939">
        <ele>67</ele>
        <time>2025-08-07T19:49:59Z</time>
      </trkpt>
      <trkpt lat="46.74702" lon="-1.58955">
        <ele>67</ele>
        <time>2025-08-07T19:50:01Z</time>
      </trkpt>
      <trkpt lat="46.74702" lon="-1.5897">
        <ele>67</ele>
        <time>2025-08-07T19:50:03Z</time>
      </trkpt>
      <trkpt lat="46.74702" lon="-1.58985">
        <ele>66</ele>
        <time>2025-08-07T19:50:05Z</time>
      </trkpt>
      <trkpt lat="46.74699" lon="-1.59001">
        <ele>67</ele>
        <time>2025-08-07T19:50:08Z</time>
      </trkpt>
      <trkpt lat="46.74696" lon="-1.59016">
        <ele>67</ele>
        <time>2025-08-07T19:50:10Z</time>
      </trkpt>
      <trkpt lat="46.74691" lon="-1.59032">
        <ele>67</ele>
        <time>2025-08-07T19:50:12Z</time>
      </trkpt>
      <trkpt lat="46.74685" lon="-1.59046">
        <ele>67</ele>
        <time>2025-08-07T19:50:14Z</time>
      </trkpt>
      <trkpt lat="46.74677" lon="-1.59058">
        <ele>67</ele>
        <time>2025-08-07T19:50:16Z</time>
      </trkpt>
      <trkpt lat="46.74669" lon="-1.59068">
        <ele>67</ele>
        <time>2025-08-07T19:50:18Z</time>
      </trkpt>
      <trkpt lat="46.74661" lon="-1.59075">
        <ele>67</ele>
        <time>2025-08-07T19:50:20Z</time>
      </trkpt>
      <trkpt lat="46.74653" lon="-1.59077">
        <ele>68</ele>
        <time>2025-08-07T19:50:22Z</time>
      </trkpt>
      <trkpt lat="46.74647" lon="-1.59069">
        <ele>68</ele>
        <time>2025-08-07T19:50:24Z</time>
      </trkpt>
      <trkpt lat="46.74643" lon="-1.59056">
        <ele>68</ele>
        <time>2025-08-07T19:50:26Z</time>
      </trkpt>
      <trkpt lat="46.7464" lon="-1.5904">
        <ele>68</ele>
        <time>2025-08-07T19:50:28Z</time>
      </trkpt>
      <trkpt lat="46.74635" lon="-1.59026">
        <ele>68</ele>
        <time>2025-08-07T19:50:30Z</time>
      </trkpt>
      <trkpt lat="46.74631" lon="-1.59012">
        <ele>68</ele>
        <time>2025-08-07T19:50:32Z</time>
      </trkpt>
      <trkpt lat="46.74625" lon="-1.59">
        <ele>68</ele>
        <time>2025-08-07T19:50:34Z</time>
      </trkpt>
      <trkpt lat="46.74619" lon="-1.58988">
        <ele>69</ele>
        <time>2025-08-07T19:50:36Z</time>
      </trkpt>
      <trkpt lat="46.74612" lon="-1.58976">
        <ele>69</ele>
        <time>2025-08-07T19:50:38Z</time>
      </trkpt>
      <trkpt lat="46.74606" lon="-1.58964">
        <ele>69</ele>
        <time>2025-08-07T19:50:40Z</time>
      </trkpt>
      <trkpt lat="46.74602" lon="-1.58954">
        <ele>69</ele>
        <time>2025-08-07T19:50:42Z</time>
      </trkpt>
      <trkpt lat="46.74596" lon="-1.5895">
        <ele>69</ele>
        <time>2025-08-07T19:50:44Z</time>
      </trkpt>
      <trkpt lat="46.74592" lon="-1.58958">
        <ele>69</ele>
        <time>2025-08-07T19:50:46Z</time>
      </trkpt>
      <trkpt lat="46.74588" lon="-1.5897">
        <ele>69</ele>
        <time>2025-08-07T19:50:48Z</time>
      </trkpt>
      <trkpt lat="46.74583" lon="-1.58983">
        <ele>68</ele>
        <time>2025-08-07T19:50:50Z</time>
      </trkpt>
      <trkpt lat="46.74579" lon="-1.58995">
        <ele>68</ele>
        <time>2025-08-07T19:50:52Z</time>
      </trkpt>
      <trkpt lat="46.74573" lon="-1.59006">
        <ele>68</ele>
        <time>2025-08-07T19:50:54Z</time>
      </trkpt>
      <trkpt lat="46.74567" lon="-1.59016">
        <ele>68</ele>
        <time>2025-08-07T19:50:56Z</time>
      </trkpt>
      <trkpt lat="46.74562" lon="-1.59028">
        <ele>68</ele>
        <time>2025-08-07T19:50:58Z</time>
      </trkpt>
      <trkpt lat="46.74557" lon="-1.5904">
        <ele>68</ele>
        <time>2025-08-07T19:51:00Z</time>
      </trkpt>
      <trkpt lat="46.74551" lon="-1.59051">
        <ele>68</ele>
        <time>2025-08-07T19:51:02Z</time>
      </trkpt>
      <trkpt lat="46.74546" lon="-1.59061">
        <ele>69</ele>
        <time>2025-08-07T19:51:04Z</time>
      </trkpt>
      <trkpt lat="46.7454" lon="-1.59072">
        <ele>69</ele>
        <time>2025-08-07T19:51:06Z</time>
      </trkpt>
      <trkpt lat="46.74535" lon="-1.59082">
        <ele>69</ele>
        <time>2025-08-07T19:51:08Z</time>
      </trkpt>
      <trkpt lat="46.7453" lon="-1.59093">
        <ele>69</ele>
        <time>2025-08-07T19:51:10Z</time>
      </trkpt>
      <trkpt lat="46.74525" lon="-1.59103">
        <ele>69</ele>
        <time>2025-08-07T19:51:12Z</time>
      </trkpt>
      <trkpt lat="46.74519" lon="-1.59115">
        <ele>69</ele>
        <time>2025-08-07T19:51:14Z</time>
      </trkpt>
      <trkpt lat="46.74514" lon="-1.59126">
        <ele>69</ele>
        <time>2025-08-07T19:51:16Z</time>
      </trkpt>
      <trkpt lat="46.74508" lon="-1.59138">
        <ele>69</ele>
        <time>2025-08-07T19:51:18Z</time>
      </trkpt>
      <trkpt lat="46.74503" lon="-1.59149">
        <ele>69</ele>
        <time>2025-08-07T19:51:20Z</time>
      </trkpt>
      <trkpt lat="46.74497" lon="-1.59158">
        <ele>69</ele>
        <time>2025-08-07T19:51:22Z</time>
      </trkpt>
      <trkpt lat="46.74491" lon="-1.59162">
        <ele>69</ele>
        <time>2025-08-07T19:51:24Z</time>
      </trkpt>
      <trkpt lat="46.74485" lon="-1.59154">
        <ele>69</ele>
        <time>2025-08-07T19:51:26Z</time>
      </trkpt>
      <trkpt lat="46.7448" lon="-1.5914">
        <ele>69</ele>
        <time>2025-08-07T19:51:28Z</time>
      </trkpt>
      <trkpt lat="46.74475" lon="-1.59126">
        <ele>70</ele>
        <time>2025-08-07T19:51:30Z</time>
      </trkpt>
      <trkpt lat="46.74471" lon="-1.59114">
        <ele>70</ele>
        <time>2025-08-07T19:51:32Z</time>
      </trkpt>
      <trkpt lat="46.74466" lon="-1.59104">
        <ele>70</ele>
        <time>2025-08-07T19:51:34Z</time>
      </trkpt>
      <trkpt lat="46.74462" lon="-1.59095">
        <ele>70</ele>
        <time>2025-08-07T19:51:36Z</time>
      </trkpt>
      <trkpt lat="46.74461" lon="-1.59084">
        <ele>69</ele>
        <time>2025-08-07T19:51:38Z</time>
      </trkpt>
      <trkpt lat="46.7446" lon="-1.59072">
        <ele>69</ele>
        <time>2025-08-07T19:51:40Z</time>
      </trkpt>
      <trkpt lat="46.74456" lon="-1.59061">
        <ele>69</ele>
        <time>2025-08-07T19:51:42Z</time>
      </trkpt>
      <trkpt lat="46.74451" lon="-1.59052">
        <ele>69</ele>
        <time>2025-08-07T19:51:44Z</time>
      </trkpt>
      <trkpt lat="46.74445" lon="-1.59053">
        <ele>69</ele>
        <time>2025-08-07T19:51:46Z</time>
      </trkpt>
      <trkpt lat="46.7444" lon="-1.59063">
        <ele>69</ele>
        <time>2025-08-07T19:51:48Z</time>
      </trkpt>
      <trkpt lat="46.74438" lon="-1.59076">
        <ele>69</ele>
        <time>2025-08-07T19:51:50Z</time>
      </trkpt>
      <trkpt lat="46.74435" lon="-1.5909">
        <ele>69</ele>
        <time>2025-08-07T19:51:52Z</time>
      </trkpt>
      <trkpt lat="46.74432" lon="-1.59103">
        <ele>69</ele>
        <time>2025-08-07T19:51:54Z</time>
      </trkpt>
      <trkpt lat="46.74429" lon="-1.59115">
        <ele>69</ele>
        <time>2025-08-07T19:51:56Z</time>
      </trkpt>
      <trkpt lat="46.74424" lon="-1.59129">
        <ele>69</ele>
        <time>2025-08-07T19:51:58Z</time>
      </trkpt>
      <trkpt lat="46.7442" lon="-1.59144">
        <ele>69</ele>
        <time>2025-08-07T19:52:00Z</time>
      </trkpt>
      <trkpt lat="46.74416" lon="-1.59157">
        <ele>69</ele>
        <time>2025-08-07T19:52:02Z</time>
      </trkpt>
      <trkpt lat="46.74413" lon="-1.59169">
        <ele>69</ele>
        <time>2025-08-07T19:52:04Z</time>
      </trkpt>
      <trkpt lat="46.7441" lon="-1.59181">
        <ele>69</ele>
        <time>2025-08-07T19:52:06Z</time>
      </trkpt>
      <trkpt lat="46.74406" lon="-1.59193">
        <ele>69</ele>
        <time>2025-08-07T19:52:08Z</time>
      </trkpt>
      <trkpt lat="46.74403" lon="-1.59206">
        <ele>69</ele>
        <time>2025-08-07T19:52:10Z</time>
      </trkpt>
      <trkpt lat="46.744" lon="-1.59219">
        <ele>69</ele>
        <time>2025-08-07T19:52:12Z</time>
      </trkpt>
      <trkpt lat="46.74397" lon="-1.59232">
        <ele>69</ele>
        <time>2025-08-07T19:52:14Z</time>
      </trkpt>
      <trkpt lat="46.74394" lon="-1.59245">
        <ele>69</ele>
        <time>2025-08-07T19:52:16Z</time>
      </trkpt>
      <trkpt lat="46.74392" lon="-1.59258">
        <ele>69</ele>
        <time>2025-08-07T19:52:18Z</time>
      </trkpt>
      <trkpt lat="46.74389" lon="-1.5927">
        <ele>69</ele>
        <time>2025-08-07T19:52:20Z</time>
      </trkpt>
      <trkpt lat="46.74387" lon="-1.59283">
        <ele>69</ele>
        <time>2025-08-07T19:52:22Z</time>
      </trkpt>
      <trkpt lat="46.74384" lon="-1.59295">
        <ele>69</ele>
        <time>2025-08-07T19:52:24Z</time>
      </trkpt>
      <trkpt lat="46.74382" lon="-1.59306">
        <ele>69</ele>
        <time>2025-08-07T19:52:27Z</time>
      </trkpt>
      <trkpt lat="46.7438" lon="-1.59316">
        <ele>69</ele>
        <time>2025-08-07T19:52:29Z</time>
      </trkpt>
      <trkpt lat="46.74376" lon="-1.59325">
        <ele>69</ele>
        <time>2025-08-07T19:52:31Z</time>
      </trkpt>
      <trkpt lat="46.74371" lon="-1.59332">
        <ele>69</ele>
        <time>2025-08-07T19:52:33Z</time>
      </trkpt>
      <trkpt lat="46.74364" lon="-1.59335">
        <ele>69</ele>
        <time>2025-08-07T19:52:35Z</time>
      </trkpt>
      <trkpt lat="46.74356" lon="-1.59333">
        <ele>69</ele>
        <time>2025-08-07T19:52:37Z</time>
      </trkpt>
      <trkpt lat="46.74347" lon="-1.59328">
        <ele>70</ele>
        <time>2025-08-07T19:52:39Z</time>
      </trkpt>
      <trkpt lat="46.74337" lon="-1.59324">
        <ele>69</ele>
        <time>2025-08-07T19:52:41Z</time>
      </trkpt>
      <trkpt lat="46.74328" lon="-1.59322">
        <ele>69</ele>
        <time>2025-08-07T19:52:43Z</time>
      </trkpt>
      <trkpt lat="46.74318" lon="-1.59319">
        <ele>69</ele>
        <time>2025-08-07T19:52:45Z</time>
      </trkpt>
      <trkpt lat="46.74308" lon="-1.59316">
        <ele>69</ele>
        <time>2025-08-07T19:52:47Z</time>
      </trkpt>
      <trkpt lat="46.74298" lon="-1.59314">
        <ele>69</ele>
        <time>2025-08-07T19:52:49Z</time>
      </trkpt>
      <trkpt lat="46.74288" lon="-1.59312">
        <ele>69</ele>
        <time>2025-08-07T19:52:51Z</time>
      </trkpt>
      <trkpt lat="46.74279" lon="-1.5931">
        <ele>69</ele>
        <time>2025-08-07T19:52:53Z</time>
      </trkpt>
      <trkpt lat="46.74268" lon="-1.59308">
        <ele>69</ele>
        <time>2025-08-07T19:52:55Z</time>
      </trkpt>
      <trkpt lat="46.74257" lon="-1.59307">
        <ele>69</ele>
        <time>2025-08-07T19:52:57Z</time>
      </trkpt>
      <trkpt lat="46.74246" lon="-1.59308">
        <ele>69</ele>
        <time>2025-08-07T19:52:59Z</time>
      </trkpt>
      <trkpt lat="46.74234" lon="-1.59311">
        <ele>69</ele>
        <time>2025-08-07T19:53:01Z</time>
      </trkpt>
      <trkpt lat="46.74225" lon="-1.59316">
        <ele>69</ele>
        <time>2025-08-07T19:53:03Z</time>
      </trkpt>
      <trkpt lat="46.74215" lon="-1.5932">
        <ele>69</ele>
        <time>2025-08-07T19:53:05Z</time>
      </trkpt>
      <trkpt lat="46.74205" lon="-1.59324">
        <ele>69</ele>
        <time>2025-08-07T19:53:07Z</time>
      </trkpt>
      <trkpt lat="46.74194" lon="-1.59328">
        <ele>69</ele>
        <time>2025-08-07T19:53:09Z</time>
      </trkpt>
      <trkpt lat="46.74184" lon="-1.59332">
        <ele>69</ele>
        <time>2025-08-07T19:53:11Z</time>
      </trkpt>
      <trkpt lat="46.74175" lon="-1.59335">
        <ele>69</ele>
        <time>2025-08-07T19:53:13Z</time>
      </trkpt>
      <trkpt lat="46.74165" lon="-1.59338">
        <ele>69</ele>
        <time>2025-08-07T19:53:15Z</time>
      </trkpt>
      <trkpt lat="46.74156" lon="-1.59341">
        <ele>69</ele>
        <time>2025-08-07T19:53:17Z</time>
      </trkpt>
      <trkpt lat="46.74145" lon="-1.59344">
        <ele>69</ele>
        <time>2025-08-07T19:53:19Z</time>
      </trkpt>
      <trkpt lat="46.74135" lon="-1.59348">
        <ele>69</ele>
        <time>2025-08-07T19:53:21Z</time>
      </trkpt>
      <trkpt lat="46.74127" lon="-1.59351">
        <ele>69</ele>
        <time>2025-08-07T19:53:23Z</time>
      </trkpt>
      <trkpt lat="46.74122" lon="-1.59353">
        <ele>69</ele>
        <time>2025-08-07T19:53:25Z</time>
      </trkpt>
      <trkpt lat="46.74115" lon="-1.59355">
        <ele>69</ele>
        <time>2025-08-07T19:53:29Z</time>
      </trkpt>
      <trkpt lat="46.7411" lon="-1.59358">
        <ele>69</ele>
        <time>2025-08-07T19:53:31Z</time>
      </trkpt>
      <trkpt lat="46.74102" lon="-1.59361">
        <ele>69</ele>
        <time>2025-08-07T19:53:33Z</time>
      </trkpt>
      <trkpt lat="46.74093" lon="-1.59365">
        <ele>69</ele>
        <time>2025-08-07T19:53:35Z</time>
      </trkpt>
      <trkpt lat="46.74083" lon="-1.59369">
        <ele>69</ele>
        <time>2025-08-07T19:53:37Z</time>
      </trkpt>
      <trkpt lat="46.74074" lon="-1.59371">
        <ele>69</ele>
        <time>2025-08-07T19:53:39Z</time>
      </trkpt>
      <trkpt lat="46.74067" lon="-1.59367">
        <ele>69</ele>
        <time>2025-08-07T19:53:41Z</time>
      </trkpt>
      <trkpt lat="46.74067" lon="-1.59355">
        <ele>69</ele>
        <time>2025-08-07T19:53:43Z</time>
      </trkpt>
      <trkpt lat="46.7407" lon="-1.59341">
        <ele>69</ele>
        <time>2025-08-07T19:53:45Z</time>
      </trkpt>
      <trkpt lat="46.74074" lon="-1.59327">
        <ele>69</ele>
        <time>2025-08-07T19:53:47Z</time>
      </trkpt>
      <trkpt lat="46.74077" lon="-1.59311">
        <ele>69</ele>
        <time>2025-08-07T19:53:49Z</time>
      </trkpt>
      <trkpt lat="46.74078" lon="-1.59296">
        <ele>69</ele>
        <time>2025-08-07T19:53:51Z</time>
      </trkpt>
      <trkpt lat="46.7408" lon="-1.5928">
        <ele>69</ele>
        <time>2025-08-07T19:53:53Z</time>
      </trkpt>
      <trkpt lat="46.74082" lon="-1.59264">
        <ele>69</ele>
        <time>2025-08-07T19:53:55Z</time>
      </trkpt>
      <trkpt lat="46.74085" lon="-1.59249">
        <ele>69</ele>
        <time>2025-08-07T19:53:57Z</time>
      </trkpt>
      <trkpt lat="46.74087" lon="-1.59234">
        <ele>69</ele>
        <time>2025-08-07T19:53:59Z</time>
      </trkpt>
      <trkpt lat="46.74089" lon="-1.59221">
        <ele>69</ele>
        <time>2025-08-07T19:54:01Z</time>
      </trkpt>
      <trkpt lat="46.7409" lon="-1.59208">
        <ele>69</ele>
        <time>2025-08-07T19:54:03Z</time>
      </trkpt>
      <trkpt lat="46.7409" lon="-1.59195">
        <ele>69</ele>
        <time>2025-08-07T19:54:05Z</time>
      </trkpt>
      <trkpt lat="46.74086" lon="-1.59184">
        <ele>69</ele>
        <time>2025-08-07T19:54:07Z</time>
      </trkpt>
      <trkpt lat="46.74078" lon="-1.59177">
        <ele>69</ele>
        <time>2025-08-07T19:54:09Z</time>
      </trkpt>
      <trkpt lat="46.74067" lon="-1.59174">
        <ele>69</ele>
        <time>2025-08-07T19:54:11Z</time>
      </trkpt>
      <trkpt lat="46.74056" lon="-1.59173">
        <ele>69</ele>
        <time>2025-08-07T19:54:13Z</time>
      </trkpt>
      <trkpt lat="46.74045" lon="-1.59172">
        <ele>69</ele>
        <time>2025-08-07T19:54:15Z</time>
      </trkpt>
      <trkpt lat="46.74038" lon="-1.59166">
        <ele>69</ele>
        <time>2025-08-07T19:54:17Z</time>
      </trkpt>
      <trkpt lat="46.74035" lon="-1.59154">
        <ele>69</ele>
        <time>2025-08-07T19:54:19Z</time>
      </trkpt>
      <trkpt lat="46.74037" lon="-1.59139">
        <ele>69</ele>
        <time>2025-08-07T19:54:21Z</time>
      </trkpt>
      <trkpt lat="46.74039" lon="-1.59124">
        <ele>69</ele>
        <time>2025-08-07T19:54:23Z</time>
      </trkpt>
      <trkpt lat="46.7404" lon="-1.59109">
        <ele>69</ele>
        <time>2025-08-07T19:54:25Z</time>
      </trkpt>
      <trkpt lat="46.74039" lon="-1.59094">
        <ele>69</ele>
        <time>2025-08-07T19:54:27Z</time>
      </trkpt>
      <trkpt lat="46.74037" lon="-1.59083">
        <ele>69</ele>
        <time>2025-08-07T19:54:29Z</time>
      </trkpt>
      <trkpt lat="46.74032" lon="-1.59083">
        <ele>69</ele>
        <time>2025-08-07T19:54:33Z</time>
      </trkpt>
      <trkpt lat="46.74027" lon="-1.59085">
        <ele>69</ele>
        <time>2025-08-07T19:54:35Z</time>
      </trkpt>
      <trkpt lat="46.74021" lon="-1.59085">
        <ele>69</ele>
        <time>2025-08-07T19:54:37Z</time>
      </trkpt>
      <trkpt lat="46.74014" lon="-1.59083">
        <ele>69</ele>
        <time>2025-08-07T19:54:39Z</time>
      </trkpt>
      <trkpt lat="46.74009" lon="-1.59086">
        <ele>69</ele>
        <time>2025-08-07T19:54:41Z</time>
      </trkpt>
      <trkpt lat="46.74004" lon="-1.59091">
        <ele>69</ele>
        <time>2025-08-07T19:54:43Z</time>
      </trkpt>
      <trkpt lat="46.73996" lon="-1.59093">
        <ele>69</ele>
        <time>2025-08-07T19:54:45Z</time>
      </trkpt>
      <trkpt lat="46.73989" lon="-1.59091">
        <ele>68</ele>
        <time>2025-08-07T19:54:47Z</time>
      </trkpt>
      <trkpt lat="46.73979" lon="-1.5909">
        <ele>68</ele>
        <time>2025-08-07T19:54:49Z</time>
      </trkpt>
      <trkpt lat="46.73968" lon="-1.59091">
        <ele>68</ele>
        <time>2025-08-07T19:54:51Z</time>
      </trkpt>
      <trkpt lat="46.73956" lon="-1.59092">
        <ele>67</ele>
        <time>2025-08-07T19:54:53Z</time>
      </trkpt>
      <trkpt lat="46.73945" lon="-1.59093">
        <ele>67</ele>
        <time>2025-08-07T19:54:55Z</time>
      </trkpt>
      <trkpt lat="46.73935" lon="-1.59093">
        <ele>67</ele>
        <time>2025-08-07T19:54:57Z</time>
      </trkpt>
      <trkpt lat="46.73926" lon="-1.59091">
        <ele>66</ele>
        <time>2025-08-07T19:54:59Z</time>
      </trkpt>
      <trkpt lat="46.73915" lon="-1.59094">
        <ele>66</ele>
        <time>2025-08-07T19:55:02Z</time>
      </trkpt>
      <trkpt lat="46.73904" lon="-1.59099">
        <ele>66</ele>
        <time>2025-08-07T19:55:04Z</time>
      </trkpt>
      <trkpt lat="46.73893" lon="-1.59105">
        <ele>66</ele>
        <time>2025-08-07T19:55:06Z</time>
      </trkpt>
      <trkpt lat="46.73881" lon="-1.59111">
        <ele>66</ele>
        <time>2025-08-07T19:55:08Z</time>
      </trkpt>
      <trkpt lat="46.7387" lon="-1.59117">
        <ele>66</ele>
        <time>2025-08-07T19:55:10Z</time>
      </trkpt>
      <trkpt lat="46.73859" lon="-1.59121">
        <ele>66</ele>
        <time>2025-08-07T19:55:12Z</time>
      </trkpt>
      <trkpt lat="46.73848" lon="-1.59126">
        <ele>66</ele>
        <time>2025-08-07T19:55:14Z</time>
      </trkpt>
      <trkpt lat="46.73837" lon="-1.5913">
        <ele>66</ele>
        <time>2025-08-07T19:55:16Z</time>
      </trkpt>
      <trkpt lat="46.73825" lon="-1.59135">
        <ele>66</ele>
        <time>2025-08-07T19:55:18Z</time>
      </trkpt>
      <trkpt lat="46.73813" lon="-1.5914">
        <ele>66</ele>
        <time>2025-08-07T19:55:20Z</time>
      </trkpt>
      <trkpt lat="46.73801" lon="-1.59145">
        <ele>66</ele>
        <time>2025-08-07T19:55:22Z</time>
      </trkpt>
      <trkpt lat="46.73789" lon="-1.59149">
        <ele>66</ele>
        <time>2025-08-07T19:55:24Z</time>
      </trkpt>
      <trkpt lat="46.73778" lon="-1.59154">
        <ele>65</ele>
        <time>2025-08-07T19:55:26Z</time>
      </trkpt>
      <trkpt lat="46.73767" lon="-1.59155">
        <ele>65</ele>
        <time>2025-08-07T19:55:28Z</time>
      </trkpt>
      <trkpt lat="46.73756" lon="-1.59154">
        <ele>65</ele>
        <time>2025-08-07T19:55:30Z</time>
      </trkpt>
      <trkpt lat="46.73744" lon="-1.59154">
        <ele>65</ele>
        <time>2025-08-07T19:55:32Z</time>
      </trkpt>
      <trkpt lat="46.73734" lon="-1.59155">
        <ele>65</ele>
        <time>2025-08-07T19:55:34Z</time>
      </trkpt>
      <trkpt lat="46.73724" lon="-1.59153">
        <ele>65</ele>
        <time>2025-08-07T19:55:36Z</time>
      </trkpt>
      <trkpt lat="46.73713" lon="-1.59153">
        <ele>65</ele>
        <time>2025-08-07T19:55:38Z</time>
      </trkpt>
      <trkpt lat="46.73703" lon="-1.5916">
        <ele>65</ele>
        <time>2025-08-07T19:55:40Z</time>
      </trkpt>
      <trkpt lat="46.73695" lon="-1.5917">
        <ele>65</ele>
        <time>2025-08-07T19:55:42Z</time>
      </trkpt>
      <trkpt lat="46.73687" lon="-1.59181">
        <ele>64</ele>
        <time>2025-08-07T19:55:44Z</time>
      </trkpt>
      <trkpt lat="46.73679" lon="-1.59194">
        <ele>64</ele>
        <time>2025-08-07T19:55:46Z</time>
      </trkpt>
      <trkpt lat="46.73671" lon="-1.59207">
        <ele>63</ele>
        <time>2025-08-07T19:55:48Z</time>
      </trkpt>
      <trkpt lat="46.7366" lon="-1.59214">
        <ele>63</ele>
        <time>2025-08-07T19:55:50Z</time>
      </trkpt>
      <trkpt lat="46.73649" lon="-1.59215">
        <ele>63</ele>
        <time>2025-08-07T19:55:52Z</time>
      </trkpt>
      <trkpt lat="46.73636" lon="-1.59216">
        <ele>63</ele>
        <time>2025-08-07T19:55:54Z</time>
      </trkpt>
      <trkpt lat="46.73624" lon="-1.59217">
        <ele>63</ele>
        <time>2025-08-07T19:55:56Z</time>
      </trkpt>
      <trkpt lat="46.73612" lon="-1.59219">
        <ele>63</ele>
        <time>2025-08-07T19:55:58Z</time>
      </trkpt>
      <trkpt lat="46.73599" lon="-1.59222">
        <ele>63</ele>
        <time>2025-08-07T19:56:00Z</time>
      </trkpt>
      <trkpt lat="46.73586" lon="-1.59225">
        <ele>62</ele>
        <time>2025-08-07T19:56:02Z</time>
      </trkpt>
      <trkpt lat="46.73573" lon="-1.59229">
        <ele>62</ele>
        <time>2025-08-07T19:56:04Z</time>
      </trkpt>
      <trkpt lat="46.73561" lon="-1.59232">
        <ele>62</ele>
        <time>2025-08-07T19:56:06Z</time>
      </trkpt>
      <trkpt lat="46.73549" lon="-1.59235">
        <ele>62</ele>
        <time>2025-08-07T19:56:08Z</time>
      </trkpt>
      <trkpt lat="46.73538" lon="-1.59237">
        <ele>62</ele>
        <time>2025-08-07T19:56:10Z</time>
      </trkpt>
      <trkpt lat="46.73532" lon="-1.59243">
        <ele>62</ele>
        <time>2025-08-07T19:56:12Z</time>
      </trkpt>
      <trkpt lat="46.73533" lon="-1.59253">
        <ele>62</ele>
        <time>2025-08-07T19:56:14Z</time>
      </trkpt>
      <trkpt lat="46.73538" lon="-1.59264">
        <ele>62</ele>
        <time>2025-08-07T19:56:16Z</time>
      </trkpt>
      <trkpt lat="46.73546" lon="-1.59275">
        <ele>62</ele>
        <time>2025-08-07T19:56:18Z</time>
      </trkpt>
      <trkpt lat="46.73551" lon="-1.59285">
        <ele>63</ele>
        <time>2025-08-07T19:56:20Z</time>
      </trkpt>
      <trkpt lat="46.73555" lon="-1.59296">
        <ele>63</ele>
        <time>2025-08-07T19:56:22Z</time>
      </trkpt>
      <trkpt lat="46.73555" lon="-1.59306">
        <ele>63</ele>
        <time>2025-08-07T19:56:24Z</time>
      </trkpt>
      <trkpt lat="46.73554" lon="-1.59313">
        <ele>63</ele>
        <time>2025-08-07T19:56:26Z</time>
      </trkpt>
      <trkpt lat="46.73547" lon="-1.59317">
        <ele>63</ele>
        <time>2025-08-07T19:56:36Z</time>
      </trkpt>
      <trkpt lat="46.73538" lon="-1.59322">
        <ele>63</ele>
        <time>2025-08-07T19:56:38Z</time>
      </trkpt>
      <trkpt lat="46.73528" lon="-1.59327">
        <ele>63</ele>
        <time>2025-08-07T19:56:40Z</time>
      </trkpt>
      <trkpt lat="46.73518" lon="-1.59331">
        <ele>62</ele>
        <time>2025-08-07T19:56:42Z</time>
      </trkpt>
      <trkpt lat="46.73508" lon="-1.59336">
        <ele>62</ele>
        <time>2025-08-07T19:56:44Z</time>
      </trkpt>
      <trkpt lat="46.73498" lon="-1.59342">
        <ele>62</ele>
        <time>2025-08-07T19:56:46Z</time>
      </trkpt>
      <trkpt lat="46.73489" lon="-1.59349">
        <ele>62</ele>
        <time>2025-08-07T19:56:48Z</time>
      </trkpt>
      <trkpt lat="46.73482" lon="-1.59356">
        <ele>62</ele>
        <time>2025-08-07T19:56:50Z</time>
      </trkpt>
      <trkpt lat="46.73478" lon="-1.59362">
        <ele>62</ele>
        <time>2025-08-07T19:56:52Z</time>
      </trkpt>
      <trkpt lat="46.73478" lon="-1.59371">
        <ele>62</ele>
        <time>2025-08-07T19:56:54Z</time>
      </trkpt>
      <trkpt lat="46.73483" lon="-1.59381">
        <ele>62</ele>
        <time>2025-08-07T19:56:56Z</time>
      </trkpt>
      <trkpt lat="46.73488" lon="-1.59396">
        <ele>62</ele>
        <time>2025-08-07T19:56:58Z</time>
      </trkpt>
      <trkpt lat="46.73489" lon="-1.59407">
        <ele>62</ele>
        <time>2025-08-07T19:57:00Z</time>
      </trkpt>
      <trkpt lat="46.73489" lon="-1.59417">
        <ele>62</ele>
        <time>2025-08-07T19:57:02Z</time>
      </trkpt>
      <trkpt lat="46.73492" lon="-1.59427">
        <ele>62</ele>
        <time>2025-08-07T19:57:04Z</time>
      </trkpt>
      <trkpt lat="46.73496" lon="-1.59438">
        <ele>62</ele>
        <time>2025-08-07T19:57:06Z</time>
      </trkpt>
      <trkpt lat="46.73499" lon="-1.59447">
        <ele>63</ele>
        <time>2025-08-07T19:57:08Z</time>
      </trkpt>
      <trkpt lat="46.73499" lon="-1.59455">
        <ele>63</ele>
        <time>2025-08-07T19:57:10Z</time>
      </trkpt>
      <trkpt lat="46.73492" lon="-1.59462">
        <ele>63</ele>
        <time>2025-08-07T19:57:12Z</time>
      </trkpt>
      <trkpt lat="46.73486" lon="-1.59471">
        <ele>62</ele>
        <time>2025-08-07T19:57:14Z</time>
      </trkpt>
      <trkpt lat="46.73483" lon="-1.59485">
        <ele>62</ele>
        <time>2025-08-07T19:57:16Z</time>
      </trkpt>
      <trkpt lat="46.73481" lon="-1.59501">
        <ele>61</ele>
        <time>2025-08-07T19:57:18Z</time>
      </trkpt>
      <trkpt lat="46.73478" lon="-1.59518">
        <ele>61</ele>
        <time>2025-08-07T19:57:20Z</time>
      </trkpt>
      <trkpt lat="46.73473" lon="-1.59534">
        <ele>61</ele>
        <time>2025-08-07T19:57:22Z</time>
      </trkpt>
      <trkpt lat="46.73468" lon="-1.59551">
        <ele>61</ele>
        <time>2025-08-07T19:57:24Z</time>
      </trkpt>
      <trkpt lat="46.73462" lon="-1.59566">
        <ele>60</ele>
        <time>2025-08-07T19:57:26Z</time>
      </trkpt>
      <trkpt lat="46.73452" lon="-1.59575">
        <ele>60</ele>
        <time>2025-08-07T19:57:28Z</time>
      </trkpt>
      <trkpt lat="46.73441" lon="-1.59582">
        <ele>60</ele>
        <time>2025-08-07T19:57:30Z</time>
      </trkpt>
      <trkpt lat="46.73436" lon="-1.59595">
        <ele>59</ele>
        <time>2025-08-07T19:57:33Z</time>
      </trkpt>
      <trkpt lat="46.73434" lon="-1.5961">
        <ele>59</ele>
        <time>2025-08-07T19:57:35Z</time>
      </trkpt>
      <trkpt lat="46.73433" lon="-1.59624">
        <ele>59</ele>
        <time>2025-08-07T19:57:37Z</time>
      </trkpt>
      <trkpt lat="46.73431" lon="-1.59639">
        <ele>59</ele>
        <time>2025-08-07T19:57:39Z</time>
      </trkpt>
      <trkpt lat="46.73429" lon="-1.59652">
        <ele>59</ele>
        <time>2025-08-07T19:57:41Z</time>
      </trkpt>
      <trkpt lat="46.73426" lon="-1.59664">
        <ele>59</ele>
        <time>2025-08-07T19:57:43Z</time>
      </trkpt>
      <trkpt lat="46.73424" lon="-1.59675">
        <ele>59</ele>
        <time>2025-08-07T19:57:45Z</time>
      </trkpt>
      <trkpt lat="46.73421" lon="-1.59685">
        <ele>59</ele>
        <time>2025-08-07T19:57:47Z</time>
      </trkpt>
      <trkpt lat="46.73418" lon="-1.59695">
        <ele>59</ele>
        <time>2025-08-07T19:57:49Z</time>
      </trkpt>
      <trkpt lat="46.73415" lon="-1.59707">
        <ele>59</ele>
        <time>2025-08-07T19:57:51Z</time>
      </trkpt>
      <trkpt lat="46.73412" lon="-1.59717">
        <ele>59</ele>
        <time>2025-08-07T19:57:53Z</time>
      </trkpt>
      <trkpt lat="46.73408" lon="-1.59727">
        <ele>59</ele>
        <time>2025-08-07T19:57:55Z</time>
      </trkpt>
      <trkpt lat="46.73406" lon="-1.59736">
        <ele>59</ele>
        <time>2025-08-07T19:57:57Z</time>
      </trkpt>
      <trkpt lat="46.73404" lon="-1.59743">
        <ele>59</ele>
        <time>2025-08-07T19:57:59Z</time>
      </trkpt>
      <trkpt lat="46.73402" lon="-1.59751">
        <ele>59</ele>
        <time>2025-08-07T19:58:01Z</time>
      </trkpt>
      <trkpt lat="46.73401" lon="-1.59757">
        <ele>59</ele>
        <time>2025-08-07T19:58:03Z</time>
      </trkpt>
      <trkpt lat="46.73399" lon="-1.59768">
        <ele>59</ele>
        <time>2025-08-07T19:58:07Z</time>
      </trkpt>
      <trkpt lat="46.73397" lon="-1.59774">
        <ele>60</ele>
        <time>2025-08-07T19:58:13Z</time>
      </trkpt>
      <trkpt lat="46.73394" lon="-1.59779">
        <ele>60</ele>
        <time>2025-08-07T19:58:23Z</time>
      </trkpt>
      <trkpt lat="46.73389" lon="-1.59782">
        <ele>59</ele>
        <time>2025-08-07T19:58:31Z</time>
      </trkpt>
      <trkpt lat="46.73383" lon="-1.5978">
        <ele>59</ele>
        <time>2025-08-07T19:58:33Z</time>
      </trkpt>
      <trkpt lat="46.73376" lon="-1.59778">
        <ele>59</ele>
        <time>2025-08-07T19:58:35Z</time>
      </trkpt>
      <trkpt lat="46.73368" lon="-1.59776">
        <ele>59</ele>
        <time>2025-08-07T19:58:37Z</time>
      </trkpt>
      <trkpt lat="46.73359" lon="-1.59776">
        <ele>59</ele>
        <time>2025-08-07T19:58:39Z</time>
      </trkpt>
      <trkpt lat="46.73353" lon="-1.5978">
        <ele>59</ele>
        <time>2025-08-07T19:58:41Z</time>
      </trkpt>
      <trkpt lat="46.73349" lon="-1.59785">
        <ele>59</ele>
        <time>2025-08-07T19:58:43Z</time>
      </trkpt>
      <trkpt lat="46.73346" lon="-1.59792">
        <ele>59</ele>
        <time>2025-08-07T19:58:45Z</time>
      </trkpt>
      <trkpt lat="46.73343" lon="-1.59799">
        <ele>59</ele>
        <time>2025-08-07T19:58:47Z</time>
      </trkpt>
      <trkpt lat="46.7334" lon="-1.59806">
        <ele>59</ele>
        <time>2025-08-07T19:58:49Z</time>
      </trkpt>
      <trkpt lat="46.73338" lon="-1.59813">
        <ele>59</ele>
        <time>2025-08-07T19:58:51Z</time>
      </trkpt>
      <trkpt lat="46.73335" lon="-1.5982">
        <ele>59</ele>
        <time>2025-08-07T19:58:53Z</time>
      </trkpt>
      <trkpt lat="46.73332" lon="-1.59826">
        <ele>59</ele>
        <time>2025-08-07T19:58:55Z</time>
      </trkpt>
      <trkpt lat="46.73327" lon="-1.59831">
        <ele>59</ele>
        <time>2025-08-07T19:58:57Z</time>
      </trkpt>
      <trkpt lat="46.73322" lon="-1.59836">
        <ele>59</ele>
        <time>2025-08-07T19:58:59Z</time>
      </trkpt>
      <trkpt lat="46.73316" lon="-1.59842">
        <ele>58</ele>
        <time>2025-08-07T19:59:01Z</time>
      </trkpt>
      <trkpt lat="46.73309" lon="-1.59852">
        <ele>58</ele>
        <time>2025-08-07T19:59:03Z</time>
      </trkpt>
      <trkpt lat="46.73303" lon="-1.59865">
        <ele>58</ele>
        <time>2025-08-07T19:59:05Z</time>
      </trkpt>
      <trkpt lat="46.73296" lon="-1.59882">
        <ele>58</ele>
        <time>2025-08-07T19:59:07Z</time>
      </trkpt>
      <trkpt lat="46.7329" lon="-1.599">
        <ele>58</ele>
        <time>2025-08-07T19:59:09Z</time>
      </trkpt>
      <trkpt lat="46.73285" lon="-1.59918">
        <ele>57</ele>
        <time>2025-08-07T19:59:11Z</time>
      </trkpt>
      <trkpt lat="46.7328" lon="-1.59935">
        <ele>58</ele>
        <time>2025-08-07T19:59:13Z</time>
      </trkpt>
      <trkpt lat="46.73275" lon="-1.59948">
        <ele>58</ele>
        <time>2025-08-07T19:59:15Z</time>
      </trkpt>
      <trkpt lat="46.73269" lon="-1.59954">
        <ele>58</ele>
        <time>2025-08-07T19:59:17Z</time>
      </trkpt>
      <trkpt lat="46.73262" lon="-1.59949">
        <ele>58</ele>
        <time>2025-08-07T19:59:19Z</time>
      </trkpt>
      <trkpt lat="46.73254" lon="-1.59939">
        <ele>59</ele>
        <time>2025-08-07T19:59:21Z</time>
      </trkpt>
      <trkpt lat="46.73246" lon="-1.59928">
        <ele>59</ele>
        <time>2025-08-07T19:59:23Z</time>
      </trkpt>
      <trkpt lat="46.73238" lon="-1.59919">
        <ele>59</ele>
        <time>2025-08-07T19:59:25Z</time>
      </trkpt>
      <trkpt lat="46.7323" lon="-1.59911">
        <ele>59</ele>
        <time>2025-08-07T19:59:27Z</time>
      </trkpt>
      <trkpt lat="46.73222" lon="-1.59903">
        <ele>59</ele>
        <time>2025-08-07T19:59:29Z</time>
      </trkpt>
      <trkpt lat="46.73214" lon="-1.59903">
        <ele>60</ele>
        <time>2025-08-07T19:59:31Z</time>
      </trkpt>
      <trkpt lat="46.73208" lon="-1.59911">
        <ele>60</ele>
        <time>2025-08-07T19:59:33Z</time>
      </trkpt>
      <trkpt lat="46.73207" lon="-1.59927">
        <ele>60</ele>
        <time>2025-08-07T19:59:35Z</time>
      </trkpt>
      <trkpt lat="46.73209" lon="-1.59938">
        <ele>61</ele>
        <time>2025-08-07T19:59:37Z</time>
      </trkpt>
      <trkpt lat="46.73217" lon="-1.59954">
        <ele>60</ele>
        <time>2025-08-07T19:59:39Z</time>
      </trkpt>
      <trkpt lat="46.7322" lon="-1.59968">
        <ele>61</ele>
        <time>2025-08-07T19:59:41Z</time>
      </trkpt>
      <trkpt lat="46.73219" lon="-1.5998">
        <ele>61</ele>
        <time>2025-08-07T19:59:43Z</time>
      </trkpt>
      <trkpt lat="46.73219" lon="-1.5999">
        <ele>62</ele>
        <time>2025-08-07T19:59:45Z</time>
      </trkpt>
      <trkpt lat="46.73219" lon="-1.6">
        <ele>62</ele>
        <time>2025-08-07T19:59:47Z</time>
      </trkpt>
      <trkpt lat="46.7322" lon="-1.60013">
        <ele>62</ele>
        <time>2025-08-07T19:59:49Z</time>
      </trkpt>
      <trkpt lat="46.73222" lon="-1.60027">
        <ele>62</ele>
        <time>2025-08-07T19:59:51Z</time>
      </trkpt>
      <trkpt lat="46.73223" lon="-1.60043">
        <ele>62</ele>
        <time>2025-08-07T19:59:53Z</time>
      </trkpt>
      <trkpt lat="46.73224" lon="-1.60059">
        <ele>62</ele>
        <time>2025-08-07T19:59:55Z</time>
      </trkpt>
      <trkpt lat="46.73225" lon="-1.60073">
        <ele>61</ele>
        <time>2025-08-07T19:59:57Z</time>
      </trkpt>
      <trkpt lat="46.73225" lon="-1.60087">
        <ele>61</ele>
        <time>2025-08-07T19:59:59Z</time>
      </trkpt>
      <trkpt lat="46.73226" lon="-1.60102">
        <ele>61</ele>
        <time>2025-08-07T20:00:01Z</time>
      </trkpt>
      <trkpt lat="46.73227" lon="-1.60117">
        <ele>61</ele>
        <time>2025-08-07T20:00:03Z</time>
      </trkpt>
      <trkpt lat="46.73229" lon="-1.60134">
        <ele>60</ele>
        <time>2025-08-07T20:00:06Z</time>
      </trkpt>
      <trkpt lat="46.7323" lon="-1.60153">
        <ele>60</ele>
        <time>2025-08-07T20:00:08Z</time>
      </trkpt>
      <trkpt lat="46.73231" lon="-1.60172">
        <ele>60</ele>
        <time>2025-08-07T20:00:10Z</time>
      </trkpt>
      <trkpt lat="46.73232" lon="-1.6019">
        <ele>60</ele>
        <time>2025-08-07T20:00:12Z</time>
      </trkpt>
      <trkpt lat="46.73232" lon="-1.60207">
        <ele>60</ele>
        <time>2025-08-07T20:00:14Z</time>
      </trkpt>
      <trkpt lat="46.73233" lon="-1.60224">
        <ele>59</ele>
        <time>2025-08-07T20:00:16Z</time>
      </trkpt>
      <trkpt lat="46.73234" lon="-1.6024">
        <ele>59</ele>
        <time>2025-08-07T20:00:18Z</time>
      </trkpt>
      <trkpt lat="46.73234" lon="-1.60257">
        <ele>59</ele>
        <time>2025-08-07T20:00:20Z</time>
      </trkpt>
      <trkpt lat="46.73234" lon="-1.60273">
        <ele>59</ele>
        <time>2025-08-07T20:00:22Z</time>
      </trkpt>
      <trkpt lat="46.73234" lon="-1.6029">
        <ele>59</ele>
        <time>2025-08-07T20:00:24Z</time>
      </trkpt>
      <trkpt lat="46.73233" lon="-1.60308">
        <ele>58</ele>
        <time>2025-08-07T20:00:26Z</time>
      </trkpt>
      <trkpt lat="46.73232" lon="-1.60327">
        <ele>58</ele>
        <time>2025-08-07T20:00:28Z</time>
      </trkpt>
      <trkpt lat="46.73232" lon="-1.60347">
        <ele>58</ele>
        <time>2025-08-07T20:00:30Z</time>
      </trkpt>
      <trkpt lat="46.73233" lon="-1.60368">
        <ele>58</ele>
        <time>2025-08-07T20:00:32Z</time>
      </trkpt>
      <trkpt lat="46.73234" lon="-1.6039">
        <ele>58</ele>
        <time>2025-08-07T20:00:34Z</time>
      </trkpt>
      <trkpt lat="46.73236" lon="-1.60411">
        <ele>58</ele>
        <time>2025-08-07T20:00:36Z</time>
      </trkpt>
      <trkpt lat="46.73237" lon="-1.60432">
        <ele>57</ele>
        <time>2025-08-07T20:00:38Z</time>
      </trkpt>
      <trkpt lat="46.73238" lon="-1.60452">
        <ele>57</ele>
        <time>2025-08-07T20:00:40Z</time>
      </trkpt>
      <trkpt lat="46.73238" lon="-1.6047">
        <ele>57</ele>
        <time>2025-08-07T20:00:42Z</time>
      </trkpt>
      <trkpt lat="46.73238" lon="-1.60488">
        <ele>57</ele>
        <time>2025-08-07T20:00:44Z</time>
      </trkpt>
      <trkpt lat="46.73237" lon="-1.60507">
        <ele>56</ele>
        <time>2025-08-07T20:00:46Z</time>
      </trkpt>
      <trkpt lat="46.73237" lon="-1.60525">
        <ele>55</ele>
        <time>2025-08-07T20:00:48Z</time>
      </trkpt>
      <trkpt lat="46.73238" lon="-1.60546">
        <ele>55</ele>
        <time>2025-08-07T20:00:50Z</time>
      </trkpt>
      <trkpt lat="46.73239" lon="-1.60565">
        <ele>55</ele>
        <time>2025-08-07T20:00:52Z</time>
      </trkpt>
      <trkpt lat="46.7324" lon="-1.60577">
        <ele>55</ele>
        <time>2025-08-07T20:00:54Z</time>
      </trkpt>
      <trkpt lat="46.73231" lon="-1.60584">
        <ele>55</ele>
        <time>2025-08-07T20:00:58Z</time>
      </trkpt>
      <trkpt lat="46.7322" lon="-1.60583">
        <ele>55</ele>
        <time>2025-08-07T20:01:00Z</time>
      </trkpt>
      <trkpt lat="46.73209" lon="-1.60582">
        <ele>55</ele>
        <time>2025-08-07T20:01:02Z</time>
      </trkpt>
      <trkpt lat="46.73197" lon="-1.60582">
        <ele>55</ele>
        <time>2025-08-07T20:01:04Z</time>
      </trkpt>
      <trkpt lat="46.73185" lon="-1.60582">
        <ele>54</ele>
        <time>2025-08-07T20:01:06Z</time>
      </trkpt>
      <trkpt lat="46.73174" lon="-1.60583">
        <ele>54</ele>
        <time>2025-08-07T20:01:08Z</time>
      </trkpt>
      <trkpt lat="46.73162" lon="-1.60583">
        <ele>54</ele>
        <time>2025-08-07T20:01:10Z</time>
      </trkpt>
      <trkpt lat="46.73151" lon="-1.60583">
        <ele>54</ele>
        <time>2025-08-07T20:01:12Z</time>
      </trkpt>
      <trkpt lat="46.7314" lon="-1.60584">
        <ele>54</ele>
        <time>2025-08-07T20:01:14Z</time>
      </trkpt>
      <trkpt lat="46.7313" lon="-1.60584">
        <ele>54</ele>
        <time>2025-08-07T20:01:16Z</time>
      </trkpt>
      <trkpt lat="46.73124" lon="-1.60577">
        <ele>54</ele>
        <time>2025-08-07T20:01:18Z</time>
      </trkpt>
      <trkpt lat="46.73118" lon="-1.60566">
        <ele>55</ele>
        <time>2025-08-07T20:01:20Z</time>
      </trkpt>
      <trkpt lat="46.7311" lon="-1.60558">
        <ele>55</ele>
        <time>2025-08-07T20:01:22Z</time>
      </trkpt>
      <trkpt lat="46.73101" lon="-1.60552">
        <ele>55</ele>
        <time>2025-08-07T20:01:24Z</time>
      </trkpt>
      <trkpt lat="46.73091" lon="-1.60546">
        <ele>55</ele>
        <time>2025-08-07T20:01:26Z</time>
      </trkpt>
      <trkpt lat="46.73081" lon="-1.60543">
        <ele>55</ele>
        <time>2025-08-07T20:01:28Z</time>
      </trkpt>
      <trkpt lat="46.73071" lon="-1.6054">
        <ele>56</ele>
        <time>2025-08-07T20:01:30Z</time>
      </trkpt>
      <trkpt lat="46.73059" lon="-1.60538">
        <ele>56</ele>
        <time>2025-08-07T20:01:32Z</time>
      </trkpt>
      <trkpt lat="46.73047" lon="-1.60536">
        <ele>56</ele>
        <time>2025-08-07T20:01:34Z</time>
      </trkpt>
      <trkpt lat="46.73035" lon="-1.60534">
        <ele>56</ele>
        <time>2025-08-07T20:01:36Z</time>
      </trkpt>
      <trkpt lat="46.73024" lon="-1.60529">
        <ele>55</ele>
        <time>2025-08-07T20:01:38Z</time>
      </trkpt>
      <trkpt lat="46.73013" lon="-1.60521">
        <ele>55</ele>
        <time>2025-08-07T20:01:40Z</time>
      </trkpt>
      <trkpt lat="46.73002" lon="-1.60512">
        <ele>55</ele>
        <time>2025-08-07T20:01:42Z</time>
      </trkpt>
      <trkpt lat="46.72991" lon="-1.60503">
        <ele>56</ele>
        <time>2025-08-07T20:01:44Z</time>
      </trkpt>
      <trkpt lat="46.72981" lon="-1.60494">
        <ele>56</ele>
        <time>2025-08-07T20:01:46Z</time>
      </trkpt>
      <trkpt lat="46.72971" lon="-1.60486">
        <ele>56</ele>
        <time>2025-08-07T20:01:48Z</time>
      </trkpt>
      <trkpt lat="46.7296" lon="-1.60477">
        <ele>56</ele>
        <time>2025-08-07T20:01:50Z</time>
      </trkpt>
      <trkpt lat="46.7295" lon="-1.60469">
        <ele>56</ele>
        <time>2025-08-07T20:01:52Z</time>
      </trkpt>
      <trkpt lat="46.7294" lon="-1.60463">
        <ele>56</ele>
        <time>2025-08-07T20:01:54Z</time>
      </trkpt>
      <trkpt lat="46.72929" lon="-1.60457">
        <ele>56</ele>
        <time>2025-08-07T20:01:56Z</time>
      </trkpt>
      <trkpt lat="46.72917" lon="-1.60451">
        <ele>56</ele>
        <time>2025-08-07T20:01:58Z</time>
      </trkpt>
      <trkpt lat="46.72905" lon="-1.60445">
        <ele>56</ele>
        <time>2025-08-07T20:02:00Z</time>
      </trkpt>
      <trkpt lat="46.72894" lon="-1.60437">
        <ele>55</ele>
        <time>2025-08-07T20:02:02Z</time>
      </trkpt>
      <trkpt lat="46.72883" lon="-1.60426">
        <ele>55</ele>
        <time>2025-08-07T20:02:04Z</time>
      </trkpt>
      <trkpt lat="46.72873" lon="-1.60413">
        <ele>55</ele>
        <time>2025-08-07T20:02:06Z</time>
      </trkpt>
      <trkpt lat="46.72858" lon="-1.60394">
        <ele>55</ele>
        <time>2025-08-07T20:02:08Z</time>
      </trkpt>
      <trkpt lat="46.72845" lon="-1.6038">
        <ele>54</ele>
        <time>2025-08-07T20:02:10Z</time>
      </trkpt>
      <trkpt lat="46.72832" lon="-1.60368">
        <ele>54</ele>
        <time>2025-08-07T20:02:12Z</time>
      </trkpt>
      <trkpt lat="46.72821" lon="-1.60355">
        <ele>54</ele>
        <time>2025-08-07T20:02:14Z</time>
      </trkpt>
      <trkpt lat="46.72811" lon="-1.60341">
        <ele>54</ele>
        <time>2025-08-07T20:02:16Z</time>
      </trkpt>
      <trkpt lat="46.72804" lon="-1.60326">
        <ele>54</ele>
        <time>2025-08-07T20:02:18Z</time>
      </trkpt>
      <trkpt lat="46.72798" lon="-1.60312">
        <ele>55</ele>
        <time>2025-08-07T20:02:20Z</time>
      </trkpt>
      <trkpt lat="46.72792" lon="-1.60299">
        <ele>55</ele>
        <time>2025-08-07T20:02:22Z</time>
      </trkpt>
      <trkpt lat="46.72784" lon="-1.60287">
        <ele>55</ele>
        <time>2025-08-07T20:02:24Z</time>
      </trkpt>
      <trkpt lat="46.72775" lon="-1.60275">
        <ele>55</ele>
        <time>2025-08-07T20:02:26Z</time>
      </trkpt>
      <trkpt lat="46.72766" lon="-1.60261">
        <ele>55</ele>
        <time>2025-08-07T20:02:28Z</time>
      </trkpt>
      <trkpt lat="46.72757" lon="-1.60247">
        <ele>55</ele>
        <time>2025-08-07T20:02:30Z</time>
      </trkpt>
      <trkpt lat="46.72748" lon="-1.60233">
        <ele>55</ele>
        <time>2025-08-07T20:02:32Z</time>
      </trkpt>
      <trkpt lat="46.72738" lon="-1.60221">
        <ele>54</ele>
        <time>2025-08-07T20:02:34Z</time>
      </trkpt>
      <trkpt lat="46.72729" lon="-1.6021">
        <ele>54</ele>
        <time>2025-08-07T20:02:36Z</time>
      </trkpt>
      <trkpt lat="46.72719" lon="-1.602">
        <ele>54</ele>
        <time>2025-08-07T20:02:38Z</time>
      </trkpt>
      <trkpt lat="46.72708" lon="-1.60194">
        <ele>55</ele>
        <time>2025-08-07T20:02:41Z</time>
      </trkpt>
      <trkpt lat="46.72697" lon="-1.60192">
        <ele>55</ele>
        <time>2025-08-07T20:02:43Z</time>
      </trkpt>
      <trkpt lat="46.72688" lon="-1.60194">
        <ele>55</ele>
        <time>2025-08-07T20:02:45Z</time>
      </trkpt>
      <trkpt lat="46.72678" lon="-1.60191">
        <ele>55</ele>
        <time>2025-08-07T20:02:47Z</time>
      </trkpt>
      <trkpt lat="46.7267" lon="-1.60183">
        <ele>55</ele>
        <time>2025-08-07T20:02:49Z</time>
      </trkpt>
      <trkpt lat="46.72662" lon="-1.60173">
        <ele>55</ele>
        <time>2025-08-07T20:02:51Z</time>
      </trkpt>
      <trkpt lat="46.72654" lon="-1.60164">
        <ele>55</ele>
        <time>2025-08-07T20:02:53Z</time>
      </trkpt>
      <trkpt lat="46.72645" lon="-1.60154">
        <ele>55</ele>
        <time>2025-08-07T20:02:55Z</time>
      </trkpt>
      <trkpt lat="46.72635" lon="-1.60146">
        <ele>55</ele>
        <time>2025-08-07T20:02:57Z</time>
      </trkpt>
      <trkpt lat="46.72625" lon="-1.60137">
        <ele>55</ele>
        <time>2025-08-07T20:02:59Z</time>
      </trkpt>
      <trkpt lat="46.72615" lon="-1.60129">
        <ele>55</ele>
        <time>2025-08-07T20:03:01Z</time>
      </trkpt>
      <trkpt lat="46.72606" lon="-1.60121">
        <ele>55</ele>
        <time>2025-08-07T20:03:03Z</time>
      </trkpt>
      <trkpt lat="46.72596" lon="-1.60113">
        <ele>55</ele>
        <time>2025-08-07T20:03:05Z</time>
      </trkpt>
      <trkpt lat="46.72588" lon="-1.60104">
        <ele>55</ele>
        <time>2025-08-07T20:03:07Z</time>
      </trkpt>
      <trkpt lat="46.72579" lon="-1.60098">
        <ele>55</ele>
        <time>2025-08-07T20:03:09Z</time>
      </trkpt>
      <trkpt lat="46.7257" lon="-1.60099">
        <ele>56</ele>
        <time>2025-08-07T20:03:11Z</time>
      </trkpt>
      <trkpt lat="46.72566" lon="-1.6011">
        <ele>56</ele>
        <time>2025-08-07T20:03:13Z</time>
      </trkpt>
      <trkpt lat="46.72565" lon="-1.60125">
        <ele>56</ele>
        <time>2025-08-07T20:03:15Z</time>
      </trkpt>
      <trkpt lat="46.72564" lon="-1.60141">
        <ele>56</ele>
        <time>2025-08-07T20:03:17Z</time>
      </trkpt>
      <trkpt lat="46.72564" lon="-1.60155">
        <ele>56</ele>
        <time>2025-08-07T20:03:19Z</time>
      </trkpt>
      <trkpt lat="46.72562" lon="-1.60168">
        <ele>57</ele>
        <time>2025-08-07T20:03:21Z</time>
      </trkpt>
      <trkpt lat="46.7256" lon="-1.60182">
        <ele>57</ele>
        <time>2025-08-07T20:03:23Z</time>
      </trkpt>
      <trkpt lat="46.72558" lon="-1.60195">
        <ele>57</ele>
        <time>2025-08-07T20:03:25Z</time>
      </trkpt>
      <trkpt lat="46.72556" lon="-1.60208">
        <ele>57</ele>
        <time>2025-08-07T20:03:27Z</time>
      </trkpt>
      <trkpt lat="46.72553" lon="-1.60221">
        <ele>57</ele>
        <time>2025-08-07T20:03:29Z</time>
      </trkpt>
      <trkpt lat="46.72551" lon="-1.60233">
        <ele>58</ele>
        <time>2025-08-07T20:03:31Z</time>
      </trkpt>
      <trkpt lat="46.72547" lon="-1.60245">
        <ele>58</ele>
        <time>2025-08-07T20:03:33Z</time>
      </trkpt>
      <trkpt lat="46.72543" lon="-1.60257">
        <ele>58</ele>
        <time>2025-08-07T20:03:35Z</time>
      </trkpt>
      <trkpt lat="46.72538" lon="-1.60266">
        <ele>58</ele>
        <time>2025-08-07T20:03:37Z</time>
      </trkpt>
      <trkpt lat="46.72531" lon="-1.60266">
        <ele>59</ele>
        <time>2025-08-07T20:03:39Z</time>
      </trkpt>
      <trkpt lat="46.72528" lon="-1.60257">
        <ele>59</ele>
        <time>2025-08-07T20:03:41Z</time>
      </trkpt>
      <trkpt lat="46.72526" lon="-1.60244">
        <ele>59</ele>
        <time>2025-08-07T20:03:43Z</time>
      </trkpt>
      <trkpt lat="46.72524" lon="-1.60231">
        <ele>60</ele>
        <time>2025-08-07T20:03:45Z</time>
      </trkpt>
      <trkpt lat="46.7252" lon="-1.60219">
        <ele>60</ele>
        <time>2025-08-07T20:03:47Z</time>
      </trkpt>
      <trkpt lat="46.72515" lon="-1.60208">
        <ele>60</ele>
        <time>2025-08-07T20:03:49Z</time>
      </trkpt>
      <trkpt lat="46.72509" lon="-1.60198">
        <ele>60</ele>
        <time>2025-08-07T20:03:51Z</time>
      </trkpt>
      <trkpt lat="46.72504" lon="-1.60188">
        <ele>60</ele>
        <time>2025-08-07T20:03:53Z</time>
      </trkpt>
      <trkpt lat="46.72498" lon="-1.60178">
        <ele>60</ele>
        <time>2025-08-07T20:03:55Z</time>
      </trkpt>
      <trkpt lat="46.72492" lon="-1.60169">
        <ele>60</ele>
        <time>2025-08-07T20:03:57Z</time>
      </trkpt>
      <trkpt lat="46.72485" lon="-1.60159">
        <ele>60</ele>
        <time>2025-08-07T20:03:59Z</time>
      </trkpt>
      <trkpt lat="46.72478" lon="-1.60149">
        <ele>60</ele>
        <time>2025-08-07T20:04:01Z</time>
      </trkpt>
      <trkpt lat="46.72471" lon="-1.6014">
        <ele>61</ele>
        <time>2025-08-07T20:04:03Z</time>
      </trkpt>
      <trkpt lat="46.72464" lon="-1.6013">
        <ele>61</ele>
        <time>2025-08-07T20:04:05Z</time>
      </trkpt>
      <trkpt lat="46.72458" lon="-1.6012">
        <ele>61</ele>
        <time>2025-08-07T20:04:07Z</time>
      </trkpt>
      <trkpt lat="46.72451" lon="-1.60109">
        <ele>61</ele>
        <time>2025-08-07T20:04:09Z</time>
      </trkpt>
      <trkpt lat="46.72443" lon="-1.60098">
        <ele>61</ele>
        <time>2025-08-07T20:04:11Z</time>
      </trkpt>
      <trkpt lat="46.72437" lon="-1.60086">
        <ele>61</ele>
        <time>2025-08-07T20:04:13Z</time>
      </trkpt>
      <trkpt lat="46.7243" lon="-1.60073">
        <ele>61</ele>
        <time>2025-08-07T20:04:15Z</time>
      </trkpt>
      <trkpt lat="46.72423" lon="-1.60061">
        <ele>61</ele>
        <time>2025-08-07T20:04:17Z</time>
      </trkpt>
      <trkpt lat="46.72415" lon="-1.60049">
        <ele>61</ele>
        <time>2025-08-07T20:04:19Z</time>
      </trkpt>
      <trkpt lat="46.72406" lon="-1.6004">
        <ele>61</ele>
        <time>2025-08-07T20:04:21Z</time>
      </trkpt>
      <trkpt lat="46.72397" lon="-1.60031">
        <ele>61</ele>
        <time>2025-08-07T20:04:23Z</time>
      </trkpt>
      <trkpt lat="46.72387" lon="-1.60023">
        <ele>61</ele>
        <time>2025-08-07T20:04:25Z</time>
      </trkpt>
      <trkpt lat="46.72376" lon="-1.60013">
        <ele>61</ele>
        <time>2025-08-07T20:04:27Z</time>
      </trkpt>
      <trkpt lat="46.72366" lon="-1.60002">
        <ele>60</ele>
        <time>2025-08-07T20:04:29Z</time>
      </trkpt>
      <trkpt lat="46.72356" lon="-1.59992">
        <ele>60</ele>
        <time>2025-08-07T20:04:31Z</time>
      </trkpt>
      <trkpt lat="46.72346" lon="-1.5998">
        <ele>60</ele>
        <time>2025-08-07T20:04:33Z</time>
      </trkpt>
      <trkpt lat="46.72335" lon="-1.59969">
        <ele>60</ele>
        <time>2025-08-07T20:04:35Z</time>
      </trkpt>
      <trkpt lat="46.72324" lon="-1.59956">
        <ele>59</ele>
        <time>2025-08-07T20:04:37Z</time>
      </trkpt>
      <trkpt lat="46.7231" lon="-1.59941">
        <ele>59</ele>
        <time>2025-08-07T20:04:39Z</time>
      </trkpt>
      <trkpt lat="46.72296" lon="-1.59924">
        <ele>58</ele>
        <time>2025-08-07T20:04:41Z</time>
      </trkpt>
      <trkpt lat="46.72282" lon="-1.59911">
        <ele>58</ele>
        <time>2025-08-07T20:04:43Z</time>
      </trkpt>
      <trkpt lat="46.7227" lon="-1.599">
        <ele>57</ele>
        <time>2025-08-07T20:04:45Z</time>
      </trkpt>
      <trkpt lat="46.72258" lon="-1.59891">
        <ele>57</ele>
        <time>2025-08-07T20:04:47Z</time>
      </trkpt>
      <trkpt lat="46.72246" lon="-1.59883">
        <ele>57</ele>
        <time>2025-08-07T20:04:49Z</time>
      </trkpt>
      <trkpt lat="46.72235" lon="-1.59875">
        <ele>57</ele>
        <time>2025-08-07T20:04:51Z</time>
      </trkpt>
      <trkpt lat="46.72224" lon="-1.59867">
        <ele>57</ele>
        <time>2025-08-07T20:04:53Z</time>
      </trkpt>
      <trkpt lat="46.72212" lon="-1.59862">
        <ele>56</ele>
        <time>2025-08-07T20:04:55Z</time>
      </trkpt>
      <trkpt lat="46.72199" lon="-1.59864">
        <ele>56</ele>
        <time>2025-08-07T20:04:57Z</time>
      </trkpt>
      <trkpt lat="46.72184" lon="-1.59868">
        <ele>56</ele>
        <time>2025-08-07T20:04:59Z</time>
      </trkpt>
      <trkpt lat="46.7217" lon="-1.59874">
        <ele>55</ele>
        <time>2025-08-07T20:05:01Z</time>
      </trkpt>
      <trkpt lat="46.72156" lon="-1.5988">
        <ele>55</ele>
        <time>2025-08-07T20:05:03Z</time>
      </trkpt>
      <trkpt lat="46.72143" lon="-1.59886">
        <ele>55</ele>
        <time>2025-08-07T20:05:05Z</time>
      </trkpt>
      <trkpt lat="46.72129" lon="-1.5989">
        <ele>55</ele>
        <time>2025-08-07T20:05:08Z</time>
      </trkpt>
      <trkpt lat="46.72116" lon="-1.59895">
        <ele>55</ele>
        <time>2025-08-07T20:05:10Z</time>
      </trkpt>
      <trkpt lat="46.72104" lon="-1.59901">
        <ele>55</ele>
        <time>2025-08-07T20:05:12Z</time>
      </trkpt>
      <trkpt lat="46.72092" lon="-1.59907">
        <ele>55</ele>
        <time>2025-08-07T20:05:14Z</time>
      </trkpt>
      <trkpt lat="46.72081" lon="-1.59912">
        <ele>55</ele>
        <time>2025-08-07T20:05:16Z</time>
      </trkpt>
      <trkpt lat="46.7207" lon="-1.59914">
        <ele>54</ele>
        <time>2025-08-07T20:05:18Z</time>
      </trkpt>
      <trkpt lat="46.7206" lon="-1.59908">
        <ele>54</ele>
        <time>2025-08-07T20:05:20Z</time>
      </trkpt>
      <trkpt lat="46.72051" lon="-1.59899">
        <ele>54</ele>
        <time>2025-08-07T20:05:22Z</time>
      </trkpt>
      <trkpt lat="46.72042" lon="-1.5989">
        <ele>54</ele>
        <time>2025-08-07T20:05:24Z</time>
      </trkpt>
      <trkpt lat="46.72033" lon="-1.59883">
        <ele>54</ele>
        <time>2025-08-07T20:05:26Z</time>
      </trkpt>
      <trkpt lat="46.72023" lon="-1.59878">
        <ele>54</ele>
        <time>2025-08-07T20:05:28Z</time>
      </trkpt>
      <trkpt lat="46.72013" lon="-1.59872">
        <ele>54</ele>
        <time>2025-08-07T20:05:30Z</time>
      </trkpt>
      <trkpt lat="46.72002" lon="-1.59867">
        <ele>54</ele>
        <time>2025-08-07T20:05:32Z</time>
      </trkpt>
      <trkpt lat="46.71993" lon="-1.59862">
        <ele>54</ele>
        <time>2025-08-07T20:05:34Z</time>
      </trkpt>
      <trkpt lat="46.71983" lon="-1.59856">
        <ele>55</ele>
        <time>2025-08-07T20:05:36Z</time>
      </trkpt>
      <trkpt lat="46.71973" lon="-1.5985">
        <ele>55</ele>
        <time>2025-08-07T20:05:38Z</time>
      </trkpt>
      <trkpt lat="46.71963" lon="-1.59845">
        <ele>55</ele>
        <time>2025-08-07T20:05:40Z</time>
      </trkpt>
      <trkpt lat="46.71954" lon="-1.5984">
        <ele>55</ele>
        <time>2025-08-07T20:05:42Z</time>
      </trkpt>
      <trkpt lat="46.71944" lon="-1.59835">
        <ele>56</ele>
        <time>2025-08-07T20:05:44Z</time>
      </trkpt>
      <trkpt lat="46.71934" lon="-1.5983">
        <ele>56</ele>
        <time>2025-08-07T20:05:46Z</time>
      </trkpt>
      <trkpt lat="46.71925" lon="-1.59824">
        <ele>56</ele>
        <time>2025-08-07T20:05:48Z</time>
      </trkpt>
      <trkpt lat="46.71916" lon="-1.59817">
        <ele>57</ele>
        <time>2025-08-07T20:05:50Z</time>
      </trkpt>
      <trkpt lat="46.71907" lon="-1.59808">
        <ele>57</ele>
        <time>2025-08-07T20:05:52Z</time>
      </trkpt>
      <trkpt lat="46.719" lon="-1.59797">
        <ele>57</ele>
        <time>2025-08-07T20:05:54Z</time>
      </trkpt>
      <trkpt lat="46.71891" lon="-1.59786">
        <ele>57</ele>
        <time>2025-08-07T20:05:56Z</time>
      </trkpt>
      <trkpt lat="46.71883" lon="-1.59775">
        <ele>57</ele>
        <time>2025-08-07T20:05:58Z</time>
      </trkpt>
      <trkpt lat="46.71874" lon="-1.59764">
        <ele>57</ele>
        <time>2025-08-07T20:06:00Z</time>
      </trkpt>
      <trkpt lat="46.71866" lon="-1.59753">
        <ele>57</ele>
        <time>2025-08-07T20:06:02Z</time>
      </trkpt>
      <trkpt lat="46.71856" lon="-1.59743">
        <ele>57</ele>
        <time>2025-08-07T20:06:04Z</time>
      </trkpt>
      <trkpt lat="46.71847" lon="-1.59734">
        <ele>57</ele>
        <time>2025-08-07T20:06:06Z</time>
      </trkpt>
      <trkpt lat="46.71838" lon="-1.59725">
        <ele>57</ele>
        <time>2025-08-07T20:06:08Z</time>
      </trkpt>
      <trkpt lat="46.71829" lon="-1.59714">
        <ele>57</ele>
        <time>2025-08-07T20:06:10Z</time>
      </trkpt>
      <trkpt lat="46.7182" lon="-1.59703">
        <ele>57</ele>
        <time>2025-08-07T20:06:12Z</time>
      </trkpt>
      <trkpt lat="46.71812" lon="-1.59692">
        <ele>56</ele>
        <time>2025-08-07T20:06:14Z</time>
      </trkpt>
      <trkpt lat="46.71805" lon="-1.59679">
        <ele>56</ele>
        <time>2025-08-07T20:06:16Z</time>
      </trkpt>
      <trkpt lat="46.71796" lon="-1.59666">
        <ele>56</ele>
        <time>2025-08-07T20:06:18Z</time>
      </trkpt>
      <trkpt lat="46.71788" lon="-1.59653">
        <ele>55</ele>
        <time>2025-08-07T20:06:20Z</time>
      </trkpt>
      <trkpt lat="46.7178" lon="-1.5964">
        <ele>55</ele>
        <time>2025-08-07T20:06:22Z</time>
      </trkpt>
      <trkpt lat="46.71772" lon="-1.59627">
        <ele>55</ele>
        <time>2025-08-07T20:06:24Z</time>
      </trkpt>
      <trkpt lat="46.71763" lon="-1.59616">
        <ele>55</ele>
        <time>2025-08-07T20:06:26Z</time>
      </trkpt>
      <trkpt lat="46.71755" lon="-1.59605">
        <ele>55</ele>
        <time>2025-08-07T20:06:28Z</time>
      </trkpt>
      <trkpt lat="46.71746" lon="-1.59594">
        <ele>54</ele>
        <time>2025-08-07T20:06:30Z</time>
      </trkpt>
      <trkpt lat="46.71739" lon="-1.59583">
        <ele>54</ele>
        <time>2025-08-07T20:06:32Z</time>
      </trkpt>
      <trkpt lat="46.71731" lon="-1.59573">
        <ele>54</ele>
        <time>2025-08-07T20:06:34Z</time>
      </trkpt>
      <trkpt lat="46.71724" lon="-1.59562">
        <ele>54</ele>
        <time>2025-08-07T20:06:36Z</time>
      </trkpt>
      <trkpt lat="46.71717" lon="-1.59552">
        <ele>54</ele>
        <time>2025-08-07T20:06:38Z</time>
      </trkpt>
      <trkpt lat="46.71709" lon="-1.59545">
        <ele>54</ele>
        <time>2025-08-07T20:06:40Z</time>
      </trkpt>
      <trkpt lat="46.71701" lon="-1.59548">
        <ele>54</ele>
        <time>2025-08-07T20:06:42Z</time>
      </trkpt>
      <trkpt lat="46.71695" lon="-1.59559">
        <ele>54</ele>
        <time>2025-08-07T20:06:44Z</time>
      </trkpt>
      <trkpt lat="46.71688" lon="-1.59567">
        <ele>54</ele>
        <time>2025-08-07T20:06:46Z</time>
      </trkpt>
      <trkpt lat="46.71679" lon="-1.59565">
        <ele>54</ele>
        <time>2025-08-07T20:06:48Z</time>
      </trkpt>
      <trkpt lat="46.71669" lon="-1.59557">
        <ele>53</ele>
        <time>2025-08-07T20:06:50Z</time>
      </trkpt>
      <trkpt lat="46.71658" lon="-1.59549">
        <ele>53</ele>
        <time>2025-08-07T20:06:52Z</time>
      </trkpt>
      <trkpt lat="46.71648" lon="-1.59542">
        <ele>52</ele>
        <time>2025-08-07T20:06:54Z</time>
      </trkpt>
      <trkpt lat="46.71641" lon="-1.59534">
        <ele>52</ele>
        <time>2025-08-07T20:06:56Z</time>
      </trkpt>
      <trkpt lat="46.71636" lon="-1.59524">
        <ele>51</ele>
        <time>2025-08-07T20:06:58Z</time>
      </trkpt>
      <trkpt lat="46.7163" lon="-1.59516">
        <ele>50</ele>
        <time>2025-08-07T20:07:00Z</time>
      </trkpt>
      <trkpt lat="46.71618" lon="-1.59511">
        <ele>48</ele>
        <time>2025-08-07T20:07:02Z</time>
      </trkpt>
      <trkpt lat="46.71601" lon="-1.59504">
        <ele>46</ele>
        <time>2025-08-07T20:07:04Z</time>
      </trkpt>
      <trkpt lat="46.71589" lon="-1.59499">
        <ele>45</ele>
        <time>2025-08-07T20:07:06Z</time>
      </trkpt>
      <trkpt lat="46.71581" lon="-1.59495">
        <ele>44</ele>
        <time>2025-08-07T20:07:08Z</time>
      </trkpt>
      <trkpt lat="46.71582" lon="-1.59484">
        <ele>43</ele>
        <time>2025-08-07T20:07:12Z</time>
      </trkpt>
      <trkpt lat="46.71587" lon="-1.59477">
        <ele>43</ele>
        <time>2025-08-07T20:07:14Z</time>
      </trkpt>
      <trkpt lat="46.71592" lon="-1.5947">
        <ele>43</ele>
        <time>2025-08-07T20:07:16Z</time>
      </trkpt>
      <trkpt lat="46.71595" lon="-1.59462">
        <ele>42</ele>
        <time>2025-08-07T20:07:18Z</time>
      </trkpt>
      <trkpt lat="46.71596" lon="-1.59453">
        <ele>42</ele>
        <time>2025-08-07T20:07:20Z</time>
      </trkpt>
      <trkpt lat="46.71592" lon="-1.59446">
        <ele>43</ele>
        <time>2025-08-07T20:07:22Z</time>
      </trkpt>
      <trkpt lat="46.71586" lon="-1.5944">
        <ele>43</ele>
        <time>2025-08-07T20:07:24Z</time>
      </trkpt>
      <trkpt lat="46.71581" lon="-1.59434">
        <ele>43</ele>
        <time>2025-08-07T20:07:26Z</time>
      </trkpt>
      <trkpt lat="46.71576" lon="-1.59428">
        <ele>44</ele>
        <time>2025-08-07T20:07:28Z</time>
      </trkpt>
      <trkpt lat="46.71572" lon="-1.59422">
        <ele>44</ele>
        <time>2025-08-07T20:07:30Z</time>
      </trkpt>
      <trkpt lat="46.71567" lon="-1.59417">
        <ele>44</ele>
        <time>2025-08-07T20:07:32Z</time>
      </trkpt>
      <trkpt lat="46.71562" lon="-1.59413">
        <ele>45</ele>
        <time>2025-08-07T20:07:34Z</time>
      </trkpt>
      <trkpt lat="46.71557" lon="-1.59407">
        <ele>45</ele>
        <time>2025-08-07T20:07:36Z</time>
      </trkpt>
      <trkpt lat="46.71553" lon="-1.59402">
        <ele>46</ele>
        <time>2025-08-07T20:07:38Z</time>
      </trkpt>
      <trkpt lat="46.71548" lon="-1.59397">
        <ele>46</ele>
        <time>2025-08-07T20:07:40Z</time>
      </trkpt>
      <trkpt lat="46.71543" lon="-1.59392">
        <ele>47</ele>
        <time>2025-08-07T20:07:43Z</time>
      </trkpt>
      <trkpt lat="46.71539" lon="-1.59386">
        <ele>47</ele>
        <time>2025-08-07T20:07:45Z</time>
      </trkpt>
      <trkpt lat="46.71534" lon="-1.59381">
        <ele>48</ele>
        <time>2025-08-07T20:07:47Z</time>
      </trkpt>
      <trkpt lat="46.71529" lon="-1.59376">
        <ele>48</ele>
        <time>2025-08-07T20:07:49Z</time>
      </trkpt>
      <trkpt lat="46.71525" lon="-1.5937">
        <ele>49</ele>
        <time>2025-08-07T20:07:51Z</time>
      </trkpt>
      <trkpt lat="46.71521" lon="-1.59365">
        <ele>49</ele>
        <time>2025-08-07T20:07:53Z</time>
      </trkpt>
      <trkpt lat="46.71517" lon="-1.59359">
        <ele>50</ele>
        <time>2025-08-07T20:07:55Z</time>
      </trkpt>
      <trkpt lat="46.71513" lon="-1.59354">
        <ele>50</ele>
        <time>2025-08-07T20:07:57Z</time>
      </trkpt>
      <trkpt lat="46.71509" lon="-1.59348">
        <ele>50</ele>
        <time>2025-08-07T20:07:59Z</time>
      </trkpt>
      <trkpt lat="46.71504" lon="-1.59343">
        <ele>51</ele>
        <time>2025-08-07T20:08:01Z</time>
      </trkpt>
      <trkpt lat="46.715" lon="-1.59338">
        <ele>51</ele>
        <time>2025-08-07T20:08:03Z</time>
      </trkpt>
      <trkpt lat="46.71495" lon="-1.59334">
        <ele>52</ele>
        <time>2025-08-07T20:08:05Z</time>
      </trkpt>
      <trkpt lat="46.71491" lon="-1.59329">
        <ele>52</ele>
        <time>2025-08-07T20:08:07Z</time>
      </trkpt>
      <trkpt lat="46.71486" lon="-1.59323">
        <ele>52</ele>
        <time>2025-08-07T20:08:09Z</time>
      </trkpt>
      <trkpt lat="46.71482" lon="-1.59318">
        <ele>52</ele>
        <time>2025-08-07T20:08:11Z</time>
      </trkpt>
      <trkpt lat="46.71478" lon="-1.59313">
        <ele>53</ele>
        <time>2025-08-07T20:08:13Z</time>
      </trkpt>
      <trkpt lat="46.71473" lon="-1.59308">
        <ele>53</ele>
        <time>2025-08-07T20:08:15Z</time>
      </trkpt>
      <trkpt lat="46.71469" lon="-1.59303">
        <ele>53</ele>
        <time>2025-08-07T20:08:17Z</time>
      </trkpt>
      <trkpt lat="46.71465" lon="-1.59298">
        <ele>54</ele>
        <time>2025-08-07T20:08:19Z</time>
      </trkpt>
      <trkpt lat="46.7146" lon="-1.59293">
        <ele>54</ele>
        <time>2025-08-07T20:08:21Z</time>
      </trkpt>
      <trkpt lat="46.71455" lon="-1.59289">
        <ele>54</ele>
        <time>2025-08-07T20:08:23Z</time>
      </trkpt>
      <trkpt lat="46.7145" lon="-1.59285">
        <ele>55</ele>
        <time>2025-08-07T20:08:25Z</time>
      </trkpt>
      <trkpt lat="46.71446" lon="-1.59281">
        <ele>55</ele>
        <time>2025-08-07T20:08:27Z</time>
      </trkpt>
      <trkpt lat="46.71442" lon="-1.59277">
        <ele>55</ele>
        <time>2025-08-07T20:08:29Z</time>
      </trkpt>
      <trkpt lat="46.71438" lon="-1.59273">
        <ele>56</ele>
        <time>2025-08-07T20:08:31Z</time>
      </trkpt>
      <trkpt lat="46.71433" lon="-1.59268">
        <ele>56</ele>
        <time>2025-08-07T20:08:33Z</time>
      </trkpt>
      <trkpt lat="46.71429" lon="-1.59263">
        <ele>56</ele>
        <time>2025-08-07T20:08:35Z</time>
      </trkpt>
      <trkpt lat="46.71424" lon="-1.59258">
        <ele>57</ele>
        <time>2025-08-07T20:08:37Z</time>
      </trkpt>
      <trkpt lat="46.71419" lon="-1.59253">
        <ele>57</ele>
        <time>2025-08-07T20:08:39Z</time>
      </trkpt>
      <trkpt lat="46.71415" lon="-1.59247">
        <ele>57</ele>
        <time>2025-08-07T20:08:41Z</time>
      </trkpt>
      <trkpt lat="46.7141" lon="-1.59241">
        <ele>57</ele>
        <time>2025-08-07T20:08:43Z</time>
      </trkpt>
      <trkpt lat="46.71407" lon="-1.59235">
        <ele>58</ele>
        <time>2025-08-07T20:08:45Z</time>
      </trkpt>
      <trkpt lat="46.71402" lon="-1.5923">
        <ele>58</ele>
        <time>2025-08-07T20:08:47Z</time>
      </trkpt>
      <trkpt lat="46.71399" lon="-1.59225">
        <ele>58</ele>
        <time>2025-08-07T20:08:49Z</time>
      </trkpt>
      <trkpt lat="46.71395" lon="-1.59219">
        <ele>59</ele>
        <time>2025-08-07T20:08:51Z</time>
      </trkpt>
      <trkpt lat="46.71391" lon="-1.59213">
        <ele>59</ele>
        <time>2025-08-07T20:08:53Z</time>
      </trkpt>
      <trkpt lat="46.71386" lon="-1.59207">
        <ele>59</ele>
        <time>2025-08-07T20:08:55Z</time>
      </trkpt>
      <trkpt lat="46.71382" lon="-1.592">
        <ele>59</ele>
        <time>2025-08-07T20:08:57Z</time>
      </trkpt>
      <trkpt lat="46.71378" lon="-1.59192">
        <ele>59</ele>
        <time>2025-08-07T20:08:59Z</time>
      </trkpt>
      <trkpt lat="46.71374" lon="-1.59184">
        <ele>59</ele>
        <time>2025-08-07T20:09:01Z</time>
      </trkpt>
      <trkpt lat="46.7137" lon="-1.59177">
        <ele>59</ele>
        <time>2025-08-07T20:09:03Z</time>
      </trkpt>
      <trkpt lat="46.71365" lon="-1.59169">
        <ele>59</ele>
        <time>2025-08-07T20:09:05Z</time>
      </trkpt>
      <trkpt lat="46.7136" lon="-1.59159">
        <ele>59</ele>
        <time>2025-08-07T20:09:07Z</time>
      </trkpt>
      <trkpt lat="46.71355" lon="-1.5915">
        <ele>60</ele>
        <time>2025-08-07T20:09:09Z</time>
      </trkpt>
      <trkpt lat="46.71349" lon="-1.59145">
        <ele>60</ele>
        <time>2025-08-07T20:09:11Z</time>
      </trkpt>
      <trkpt lat="46.71342" lon="-1.59146">
        <ele>60</ele>
        <time>2025-08-07T20:09:13Z</time>
      </trkpt>
      <trkpt lat="46.71334" lon="-1.59153">
        <ele>59</ele>
        <time>2025-08-07T20:09:15Z</time>
      </trkpt>
      <trkpt lat="46.71326" lon="-1.59162">
        <ele>59</ele>
        <time>2025-08-07T20:09:17Z</time>
      </trkpt>
      <trkpt lat="46.71319" lon="-1.59171">
        <ele>59</ele>
        <time>2025-08-07T20:09:19Z</time>
      </trkpt>
      <trkpt lat="46.71312" lon="-1.5918">
        <ele>59</ele>
        <time>2025-08-07T20:09:21Z</time>
      </trkpt>
      <trkpt lat="46.71307" lon="-1.59189">
        <ele>59</ele>
        <time>2025-08-07T20:09:23Z</time>
      </trkpt>
      <trkpt lat="46.71301" lon="-1.59199">
        <ele>59</ele>
        <time>2025-08-07T20:09:25Z</time>
      </trkpt>
      <trkpt lat="46.71294" lon="-1.59208">
        <ele>59</ele>
        <time>2025-08-07T20:09:27Z</time>
      </trkpt>
      <trkpt lat="46.71288" lon="-1.59217">
        <ele>59</ele>
        <time>2025-08-07T20:09:29Z</time>
      </trkpt>
      <trkpt lat="46.71281" lon="-1.59225">
        <ele>59</ele>
        <time>2025-08-07T20:09:31Z</time>
      </trkpt>
      <trkpt lat="46.71275" lon="-1.59233">
        <ele>59</ele>
        <time>2025-08-07T20:09:33Z</time>
      </trkpt>
      <trkpt lat="46.71269" lon="-1.59241">
        <ele>59</ele>
        <time>2025-08-07T20:09:35Z</time>
      </trkpt>
      <trkpt lat="46.71262" lon="-1.59248">
        <ele>59</ele>
        <time>2025-08-07T20:09:37Z</time>
      </trkpt>
      <trkpt lat="46.71256" lon="-1.59255">
        <ele>59</ele>
        <time>2025-08-07T20:09:39Z</time>
      </trkpt>
      <trkpt lat="46.71251" lon="-1.59265">
        <ele>58</ele>
        <time>2025-08-07T20:09:41Z</time>
      </trkpt>
      <trkpt lat="46.71255" lon="-1.59282">
        <ele>58</ele>
        <time>2025-08-07T20:09:43Z</time>
      </trkpt>
      <trkpt lat="46.71261" lon="-1.59298">
        <ele>58</ele>
        <time>2025-08-07T20:09:45Z</time>
      </trkpt>
      <trkpt lat="46.71268" lon="-1.59313">
        <ele>57</ele>
        <time>2025-08-07T20:09:47Z</time>
      </trkpt>
      <trkpt lat="46.71273" lon="-1.5933">
        <ele>56</ele>
        <time>2025-08-07T20:09:49Z</time>
      </trkpt>
      <trkpt lat="46.71277" lon="-1.59347">
        <ele>55</ele>
        <time>2025-08-07T20:09:51Z</time>
      </trkpt>
      <trkpt lat="46.71278" lon="-1.59367">
        <ele>55</ele>
        <time>2025-08-07T20:09:53Z</time>
      </trkpt>
      <trkpt lat="46.71275" lon="-1.59387">
        <ele>54</ele>
        <time>2025-08-07T20:09:55Z</time>
      </trkpt>
      <trkpt lat="46.71271" lon="-1.59408">
        <ele>53</ele>
        <time>2025-08-07T20:09:57Z</time>
      </trkpt>
      <trkpt lat="46.71267" lon="-1.59428">
        <ele>52</ele>
        <time>2025-08-07T20:09:59Z</time>
      </trkpt>
      <trkpt lat="46.71264" lon="-1.59448">
        <ele>52</ele>
        <time>2025-08-07T20:10:01Z</time>
      </trkpt>
      <trkpt lat="46.71263" lon="-1.59469">
        <ele>51</ele>
        <time>2025-08-07T20:10:03Z</time>
      </trkpt>
      <trkpt lat="46.71265" lon="-1.59489">
        <ele>51</ele>
        <time>2025-08-07T20:10:05Z</time>
      </trkpt>
      <trkpt lat="46.71269" lon="-1.59509">
        <ele>51</ele>
        <time>2025-08-07T20:10:07Z</time>
      </trkpt>
      <trkpt lat="46.71273" lon="-1.59527">
        <ele>51</ele>
        <time>2025-08-07T20:10:09Z</time>
      </trkpt>
      <trkpt lat="46.71277" lon="-1.59543">
        <ele>52</ele>
        <time>2025-08-07T20:10:11Z</time>
      </trkpt>
      <trkpt lat="46.71281" lon="-1.59558">
        <ele>52</ele>
        <time>2025-08-07T20:10:13Z</time>
      </trkpt>
      <trkpt lat="46.71285" lon="-1.59573">
        <ele>52</ele>
        <time>2025-08-07T20:10:16Z</time>
      </trkpt>
      <trkpt lat="46.71288" lon="-1.59588">
        <ele>52</ele>
        <time>2025-08-07T20:10:18Z</time>
      </trkpt>
      <trkpt lat="46.71291" lon="-1.59605">
        <ele>52</ele>
        <time>2025-08-07T20:10:20Z</time>
      </trkpt>
      <trkpt lat="46.71293" lon="-1.59622">
        <ele>52</ele>
        <time>2025-08-07T20:10:22Z</time>
      </trkpt>
      <trkpt lat="46.71294" lon="-1.5964">
        <ele>52</ele>
        <time>2025-08-07T20:10:24Z</time>
      </trkpt>
      <trkpt lat="46.71295" lon="-1.59656">
        <ele>52</ele>
        <time>2025-08-07T20:10:26Z</time>
      </trkpt>
      <trkpt lat="46.71294" lon="-1.59672">
        <ele>52</ele>
        <time>2025-08-07T20:10:28Z</time>
      </trkpt>
      <trkpt lat="46.71293" lon="-1.59688">
        <ele>52</ele>
        <time>2025-08-07T20:10:30Z</time>
      </trkpt>
      <trkpt lat="46.71289" lon="-1.59703">
        <ele>52</ele>
        <time>2025-08-07T20:10:32Z</time>
      </trkpt>
      <trkpt lat="46.71285" lon="-1.59717">
        <ele>52</ele>
        <time>2025-08-07T20:10:34Z</time>
      </trkpt>
      <trkpt lat="46.71281" lon="-1.5973">
        <ele>52</ele>
        <time>2025-08-07T20:10:36Z</time>
      </trkpt>
      <trkpt lat="46.71277" lon="-1.59743">
        <ele>52</ele>
        <time>2025-08-07T20:10:38Z</time>
      </trkpt>
      <trkpt lat="46.71272" lon="-1.59755">
        <ele>53</ele>
        <time>2025-08-07T20:10:40Z</time>
      </trkpt>
      <trkpt lat="46.71269" lon="-1.59767">
        <ele>53</ele>
        <time>2025-08-07T20:10:42Z</time>
      </trkpt>
      <trkpt lat="46.71265" lon="-1.59778">
        <ele>53</ele>
        <time>2025-08-07T20:10:44Z</time>
      </trkpt>
      <trkpt lat="46.71261" lon="-1.5979">
        <ele>54</ele>
        <time>2025-08-07T20:10:46Z</time>
      </trkpt>
      <trkpt lat="46.71258" lon="-1.59802">
        <ele>54</ele>
        <time>2025-08-07T20:10:48Z</time>
      </trkpt>
      <trkpt lat="46.71256" lon="-1.59814">
        <ele>54</ele>
        <time>2025-08-07T20:10:50Z</time>
      </trkpt>
      <trkpt lat="46.71254" lon="-1.59826">
        <ele>55</ele>
        <time>2025-08-07T20:10:52Z</time>
      </trkpt>
      <trkpt lat="46.71254" lon="-1.59839">
        <ele>55</ele>
        <time>2025-08-07T20:10:54Z</time>
      </trkpt>
      <trkpt lat="46.71254" lon="-1.59852">
        <ele>55</ele>
        <time>2025-08-07T20:10:56Z</time>
      </trkpt>
      <trkpt lat="46.71254" lon="-1.59866">
        <ele>55</ele>
        <time>2025-08-07T20:10:58Z</time>
      </trkpt>
      <trkpt lat="46.71253" lon="-1.5988">
        <ele>55</ele>
        <time>2025-08-07T20:11:00Z</time>
      </trkpt>
      <trkpt lat="46.71252" lon="-1.59894">
        <ele>55</ele>
        <time>2025-08-07T20:11:02Z</time>
      </trkpt>
      <trkpt lat="46.7125" lon="-1.59909">
        <ele>55</ele>
        <time>2025-08-07T20:11:04Z</time>
      </trkpt>
      <trkpt lat="46.71247" lon="-1.59924">
        <ele>55</ele>
        <time>2025-08-07T20:11:06Z</time>
      </trkpt>
      <trkpt lat="46.71244" lon="-1.59939">
        <ele>55</ele>
        <time>2025-08-07T20:11:08Z</time>
      </trkpt>
      <trkpt lat="46.7124" lon="-1.59954">
        <ele>55</ele>
        <time>2025-08-07T20:11:10Z</time>
      </trkpt>
      <trkpt lat="46.71235" lon="-1.59968">
        <ele>55</ele>
        <time>2025-08-07T20:11:12Z</time>
      </trkpt>
      <trkpt lat="46.71228" lon="-1.59982">
        <ele>55</ele>
        <time>2025-08-07T20:11:14Z</time>
      </trkpt>
      <trkpt lat="46.71223" lon="-1.59995">
        <ele>55</ele>
        <time>2025-08-07T20:11:16Z</time>
      </trkpt>
      <trkpt lat="46.71217" lon="-1.60008">
        <ele>55</ele>
        <time>2025-08-07T20:11:18Z</time>
      </trkpt>
      <trkpt lat="46.71213" lon="-1.60022">
        <ele>55</ele>
        <time>2025-08-07T20:11:20Z</time>
      </trkpt>
      <trkpt lat="46.71209" lon="-1.60036">
        <ele>56</ele>
        <time>2025-08-07T20:11:22Z</time>
      </trkpt>
      <trkpt lat="46.71206" lon="-1.60049">
        <ele>56</ele>
        <time>2025-08-07T20:11:24Z</time>
      </trkpt>
      <trkpt lat="46.71203" lon="-1.60062">
        <ele>57</ele>
        <time>2025-08-07T20:11:26Z</time>
      </trkpt>
      <trkpt lat="46.71201" lon="-1.60074">
        <ele>57</ele>
        <time>2025-08-07T20:11:28Z</time>
      </trkpt>
      <trkpt lat="46.71199" lon="-1.60086">
        <ele>58</ele>
        <time>2025-08-07T20:11:30Z</time>
      </trkpt>
      <trkpt lat="46.71197" lon="-1.60098">
        <ele>58</ele>
        <time>2025-08-07T20:11:32Z</time>
      </trkpt>
      <trkpt lat="46.71194" lon="-1.6011">
        <ele>58</ele>
        <time>2025-08-07T20:11:34Z</time>
      </trkpt>
      <trkpt lat="46.71191" lon="-1.60121">
        <ele>59</ele>
        <time>2025-08-07T20:11:36Z</time>
      </trkpt>
      <trkpt lat="46.71187" lon="-1.60132">
        <ele>59</ele>
        <time>2025-08-07T20:11:38Z</time>
      </trkpt>
      <trkpt lat="46.71182" lon="-1.60144">
        <ele>59</ele>
        <time>2025-08-07T20:11:40Z</time>
      </trkpt>
      <trkpt lat="46.71178" lon="-1.60155">
        <ele>59</ele>
        <time>2025-08-07T20:11:42Z</time>
      </trkpt>
      <trkpt lat="46.71175" lon="-1.60165">
        <ele>60</ele>
        <time>2025-08-07T20:11:44Z</time>
      </trkpt>
      <trkpt lat="46.71172" lon="-1.60176">
        <ele>60</ele>
        <time>2025-08-07T20:11:46Z</time>
      </trkpt>
      <trkpt lat="46.7117" lon="-1.60187">
        <ele>60</ele>
        <time>2025-08-07T20:11:48Z</time>
      </trkpt>
      <trkpt lat="46.71168" lon="-1.60199">
        <ele>60</ele>
        <time>2025-08-07T20:11:50Z</time>
      </trkpt>
      <trkpt lat="46.71164" lon="-1.6021">
        <ele>60</ele>
        <time>2025-08-07T20:11:52Z</time>
      </trkpt>
      <trkpt lat="46.71161" lon="-1.60222">
        <ele>60</ele>
        <time>2025-08-07T20:11:54Z</time>
      </trkpt>
      <trkpt lat="46.71156" lon="-1.60231">
        <ele>60</ele>
        <time>2025-08-07T20:11:56Z</time>
      </trkpt>
      <trkpt lat="46.71149" lon="-1.60236">
        <ele>60</ele>
        <time>2025-08-07T20:11:58Z</time>
      </trkpt>
      <trkpt lat="46.7114" lon="-1.60236">
        <ele>61</ele>
        <time>2025-08-07T20:12:00Z</time>
      </trkpt>
      <trkpt lat="46.71131" lon="-1.60234">
        <ele>61</ele>
        <time>2025-08-07T20:12:02Z</time>
      </trkpt>
      <trkpt lat="46.71122" lon="-1.60233">
        <ele>61</ele>
        <time>2025-08-07T20:12:04Z</time>
      </trkpt>
      <trkpt lat="46.71113" lon="-1.60233">
        <ele>61</ele>
        <time>2025-08-07T20:12:06Z</time>
      </trkpt>
      <trkpt lat="46.71104" lon="-1.60232">
        <ele>62</ele>
        <time>2025-08-07T20:12:08Z</time>
      </trkpt>
      <trkpt lat="46.71096" lon="-1.60232">
        <ele>62</ele>
        <time>2025-08-07T20:12:10Z</time>
      </trkpt>
      <trkpt lat="46.71087" lon="-1.60232">
        <ele>62</ele>
        <time>2025-08-07T20:12:12Z</time>
      </trkpt>
      <trkpt lat="46.71075" lon="-1.60232">
        <ele>62</ele>
        <time>2025-08-07T20:12:14Z</time>
      </trkpt>
      <trkpt lat="46.71066" lon="-1.60232">
        <ele>63</ele>
        <time>2025-08-07T20:12:16Z</time>
      </trkpt>
      <trkpt lat="46.71057" lon="-1.60232">
        <ele>63</ele>
        <time>2025-08-07T20:12:18Z</time>
      </trkpt>
      <trkpt lat="46.71046" lon="-1.6023">
        <ele>63</ele>
        <time>2025-08-07T20:12:20Z</time>
      </trkpt>
      <trkpt lat="46.71035" lon="-1.60228">
        <ele>63</ele>
        <time>2025-08-07T20:12:22Z</time>
      </trkpt>
      <trkpt lat="46.71026" lon="-1.60226">
        <ele>63</ele>
        <time>2025-08-07T20:12:24Z</time>
      </trkpt>
      <trkpt lat="46.71016" lon="-1.60224">
        <ele>63</ele>
        <time>2025-08-07T20:12:26Z</time>
      </trkpt>
      <trkpt lat="46.71006" lon="-1.60221">
        <ele>63</ele>
        <time>2025-08-07T20:12:28Z</time>
      </trkpt>
      <trkpt lat="46.70996" lon="-1.60217">
        <ele>63</ele>
        <time>2025-08-07T20:12:30Z</time>
      </trkpt>
      <trkpt lat="46.70986" lon="-1.60213">
        <ele>63</ele>
        <time>2025-08-07T20:12:32Z</time>
      </trkpt>
      <trkpt lat="46.70976" lon="-1.6021">
        <ele>63</ele>
        <time>2025-08-07T20:12:34Z</time>
      </trkpt>
      <trkpt lat="46.70966" lon="-1.60208">
        <ele>63</ele>
        <time>2025-08-07T20:12:36Z</time>
      </trkpt>
      <trkpt lat="46.70955" lon="-1.60206">
        <ele>63</ele>
        <time>2025-08-07T20:12:38Z</time>
      </trkpt>
      <trkpt lat="46.70945" lon="-1.60204">
        <ele>63</ele>
        <time>2025-08-07T20:12:40Z</time>
      </trkpt>
      <trkpt lat="46.70935" lon="-1.60203">
        <ele>63</ele>
        <time>2025-08-07T20:12:42Z</time>
      </trkpt>
      <trkpt lat="46.70924" lon="-1.60202">
        <ele>63</ele>
        <time>2025-08-07T20:12:44Z</time>
      </trkpt>
      <trkpt lat="46.70914" lon="-1.60201">
        <ele>64</ele>
        <time>2025-08-07T20:12:47Z</time>
      </trkpt>
      <trkpt lat="46.70904" lon="-1.60199">
        <ele>64</ele>
        <time>2025-08-07T20:12:49Z</time>
      </trkpt>
      <trkpt lat="46.70894" lon="-1.60198">
        <ele>64</ele>
        <time>2025-08-07T20:12:51Z</time>
      </trkpt>
      <trkpt lat="46.70883" lon="-1.60196">
        <ele>64</ele>
        <time>2025-08-07T20:12:53Z</time>
      </trkpt>
      <trkpt lat="46.70873" lon="-1.60195">
        <ele>64</ele>
        <time>2025-08-07T20:12:55Z</time>
      </trkpt>
      <trkpt lat="46.70862" lon="-1.60193">
        <ele>64</ele>
        <time>2025-08-07T20:12:57Z</time>
      </trkpt>
      <trkpt lat="46.70851" lon="-1.60193">
        <ele>64</ele>
        <time>2025-08-07T20:12:59Z</time>
      </trkpt>
      <trkpt lat="46.7084" lon="-1.60195">
        <ele>64</ele>
        <time>2025-08-07T20:13:01Z</time>
      </trkpt>
      <trkpt lat="46.70829" lon="-1.60196">
        <ele>64</ele>
        <time>2025-08-07T20:13:03Z</time>
      </trkpt>
      <trkpt lat="46.70818" lon="-1.60197">
        <ele>64</ele>
        <time>2025-08-07T20:13:05Z</time>
      </trkpt>
      <trkpt lat="46.70807" lon="-1.60197">
        <ele>64</ele>
        <time>2025-08-07T20:13:07Z</time>
      </trkpt>
      <trkpt lat="46.70797" lon="-1.60197">
        <ele>65</ele>
        <time>2025-08-07T20:13:09Z</time>
      </trkpt>
      <trkpt lat="46.70786" lon="-1.60197">
        <ele>65</ele>
        <time>2025-08-07T20:13:11Z</time>
      </trkpt>
      <trkpt lat="46.70774" lon="-1.60197">
        <ele>65</ele>
        <time>2025-08-07T20:13:13Z</time>
      </trkpt>
      <trkpt lat="46.70763" lon="-1.60199">
        <ele>65</ele>
        <time>2025-08-07T20:13:15Z</time>
      </trkpt>
      <trkpt lat="46.70752" lon="-1.60201">
        <ele>65</ele>
        <time>2025-08-07T20:13:17Z</time>
      </trkpt>
      <trkpt lat="46.70741" lon="-1.60205">
        <ele>65</ele>
        <time>2025-08-07T20:13:19Z</time>
      </trkpt>
      <trkpt lat="46.70731" lon="-1.6021">
        <ele>65</ele>
        <time>2025-08-07T20:13:21Z</time>
      </trkpt>
      <trkpt lat="46.70721" lon="-1.60216">
        <ele>65</ele>
        <time>2025-08-07T20:13:23Z</time>
      </trkpt>
      <trkpt lat="46.70712" lon="-1.60221">
        <ele>65</ele>
        <time>2025-08-07T20:13:25Z</time>
      </trkpt>
      <trkpt lat="46.70704" lon="-1.60227">
        <ele>65</ele>
        <time>2025-08-07T20:13:27Z</time>
      </trkpt>
      <trkpt lat="46.70694" lon="-1.60233">
        <ele>65</ele>
        <time>2025-08-07T20:13:29Z</time>
      </trkpt>
      <trkpt lat="46.70684" lon="-1.60241">
        <ele>64</ele>
        <time>2025-08-07T20:13:31Z</time>
      </trkpt>
      <trkpt lat="46.70674" lon="-1.60248">
        <ele>64</ele>
        <time>2025-08-07T20:13:33Z</time>
      </trkpt>
      <trkpt lat="46.70663" lon="-1.60255">
        <ele>64</ele>
        <time>2025-08-07T20:13:35Z</time>
      </trkpt>
      <trkpt lat="46.70653" lon="-1.60261">
        <ele>64</ele>
        <time>2025-08-07T20:13:37Z</time>
      </trkpt>
      <trkpt lat="46.70643" lon="-1.60267">
        <ele>63</ele>
        <time>2025-08-07T20:13:39Z</time>
      </trkpt>
      <trkpt lat="46.70633" lon="-1.60273">
        <ele>63</ele>
        <time>2025-08-07T20:13:41Z</time>
      </trkpt>
      <trkpt lat="46.70624" lon="-1.6028">
        <ele>63</ele>
        <time>2025-08-07T20:13:43Z</time>
      </trkpt>
      <trkpt lat="46.70617" lon="-1.60287">
        <ele>63</ele>
        <time>2025-08-07T20:13:45Z</time>
      </trkpt>
      <trkpt lat="46.70612" lon="-1.60299">
        <ele>63</ele>
        <time>2025-08-07T20:13:47Z</time>
      </trkpt>
      <trkpt lat="46.70612" lon="-1.60312">
        <ele>63</ele>
        <time>2025-08-07T20:13:49Z</time>
      </trkpt>
      <trkpt lat="46.70614" lon="-1.60327">
        <ele>63</ele>
        <time>2025-08-07T20:13:51Z</time>
      </trkpt>
      <trkpt lat="46.70617" lon="-1.60341">
        <ele>63</ele>
        <time>2025-08-07T20:13:53Z</time>
      </trkpt>
      <trkpt lat="46.7062" lon="-1.60355">
        <ele>63</ele>
        <time>2025-08-07T20:13:55Z</time>
      </trkpt>
      <trkpt lat="46.70623" lon="-1.6037">
        <ele>63</ele>
        <time>2025-08-07T20:13:57Z</time>
      </trkpt>
      <trkpt lat="46.70625" lon="-1.60384">
        <ele>63</ele>
        <time>2025-08-07T20:13:59Z</time>
      </trkpt>
      <trkpt lat="46.70628" lon="-1.60399">
        <ele>63</ele>
        <time>2025-08-07T20:14:01Z</time>
      </trkpt>
      <trkpt lat="46.70631" lon="-1.60413">
        <ele>63</ele>
        <time>2025-08-07T20:14:03Z</time>
      </trkpt>
      <trkpt lat="46.70633" lon="-1.60428">
        <ele>63</ele>
        <time>2025-08-07T20:14:05Z</time>
      </trkpt>
      <trkpt lat="46.70636" lon="-1.60442">
        <ele>63</ele>
        <time>2025-08-07T20:14:07Z</time>
      </trkpt>
      <trkpt lat="46.70639" lon="-1.60457">
        <ele>63</ele>
        <time>2025-08-07T20:14:09Z</time>
      </trkpt>
      <trkpt lat="46.70641" lon="-1.60472">
        <ele>64</ele>
        <time>2025-08-07T20:14:11Z</time>
      </trkpt>
      <trkpt lat="46.70643" lon="-1.60488">
        <ele>64</ele>
        <time>2025-08-07T20:14:13Z</time>
      </trkpt>
      <trkpt lat="46.70643" lon="-1.60503">
        <ele>64</ele>
        <time>2025-08-07T20:14:15Z</time>
      </trkpt>
      <trkpt lat="46.70643" lon="-1.60519">
        <ele>63</ele>
        <time>2025-08-07T20:14:17Z</time>
      </trkpt>
      <trkpt lat="46.70643" lon="-1.60536">
        <ele>63</ele>
        <time>2025-08-07T20:14:19Z</time>
      </trkpt>
      <trkpt lat="46.70643" lon="-1.60552">
        <ele>63</ele>
        <time>2025-08-07T20:14:21Z</time>
      </trkpt>
      <trkpt lat="46.70643" lon="-1.60568">
        <ele>62</ele>
        <time>2025-08-07T20:14:23Z</time>
      </trkpt>
      <trkpt lat="46.70643" lon="-1.60583">
        <ele>62</ele>
        <time>2025-08-07T20:14:25Z</time>
      </trkpt>
      <trkpt lat="46.70643" lon="-1.60597">
        <ele>62</ele>
        <time>2025-08-07T20:14:27Z</time>
      </trkpt>
      <trkpt lat="46.70643" lon="-1.60611">
        <ele>62</ele>
        <time>2025-08-07T20:14:29Z</time>
      </trkpt>
      <trkpt lat="46.70643" lon="-1.60624">
        <ele>62</ele>
        <time>2025-08-07T20:14:31Z</time>
      </trkpt>
      <trkpt lat="46.70643" lon="-1.60637">
        <ele>62</ele>
        <time>2025-08-07T20:14:33Z</time>
      </trkpt>
      <trkpt lat="46.70643" lon="-1.60651">
        <ele>61</ele>
        <time>2025-08-07T20:14:35Z</time>
      </trkpt>
      <trkpt lat="46.70643" lon="-1.60673">
        <ele>61</ele>
        <time>2025-08-07T20:14:37Z</time>
      </trkpt>
      <trkpt lat="46.70643" lon="-1.60691">
        <ele>61</ele>
        <time>2025-08-07T20:14:39Z</time>
      </trkpt>
      <trkpt lat="46.70643" lon="-1.60707">
        <ele>61</ele>
        <time>2025-08-07T20:14:41Z</time>
      </trkpt>
      <trkpt lat="46.70643" lon="-1.60723">
        <ele>60</ele>
        <time>2025-08-07T20:14:43Z</time>
      </trkpt>
      <trkpt lat="46.70643" lon="-1.60739">
        <ele>60</ele>
        <time>2025-08-07T20:14:45Z</time>
      </trkpt>
      <trkpt lat="46.70643" lon="-1.60755">
        <ele>59</ele>
        <time>2025-08-07T20:14:47Z</time>
      </trkpt>
      <trkpt lat="46.70643" lon="-1.60772">
        <ele>59</ele>
        <time>2025-08-07T20:14:49Z</time>
      </trkpt>
      <trkpt lat="46.70641" lon="-1.60789">
        <ele>59</ele>
        <time>2025-08-07T20:14:51Z</time>
      </trkpt>
      <trkpt lat="46.70639" lon="-1.60807">
        <ele>58</ele>
        <time>2025-08-07T20:14:53Z</time>
      </trkpt>
      <trkpt lat="46.70638" lon="-1.60825">
        <ele>58</ele>
        <time>2025-08-07T20:14:55Z</time>
      </trkpt>
      <trkpt lat="46.70636" lon="-1.60842">
        <ele>58</ele>
        <time>2025-08-07T20:14:57Z</time>
      </trkpt>
      <trkpt lat="46.70634" lon="-1.60859">
        <ele>58</ele>
        <time>2025-08-07T20:14:59Z</time>
      </trkpt>
      <trkpt lat="46.70633" lon="-1.60875">
        <ele>57</ele>
        <time>2025-08-07T20:15:01Z</time>
      </trkpt>
      <trkpt lat="46.70631" lon="-1.60891">
        <ele>57</ele>
        <time>2025-08-07T20:15:03Z</time>
      </trkpt>
      <trkpt lat="46.7063" lon="-1.60906">
        <ele>57</ele>
        <time>2025-08-07T20:15:05Z</time>
      </trkpt>
      <trkpt lat="46.70628" lon="-1.60923">
        <ele>57</ele>
        <time>2025-08-07T20:15:07Z</time>
      </trkpt>
      <trkpt lat="46.70626" lon="-1.60939">
        <ele>57</ele>
        <time>2025-08-07T20:15:09Z</time>
      </trkpt>
      <trkpt lat="46.70625" lon="-1.60955">
        <ele>57</ele>
        <time>2025-08-07T20:15:12Z</time>
      </trkpt>
      <trkpt lat="46.70625" lon="-1.60971">
        <ele>57</ele>
        <time>2025-08-07T20:15:14Z</time>
      </trkpt>
      <trkpt lat="46.70626" lon="-1.60988">
        <ele>57</ele>
        <time>2025-08-07T20:15:16Z</time>
      </trkpt>
      <trkpt lat="46.70629" lon="-1.61004">
        <ele>57</ele>
        <time>2025-08-07T20:15:18Z</time>
      </trkpt>
      <trkpt lat="46.70631" lon="-1.61021">
        <ele>57</ele>
        <time>2025-08-07T20:15:20Z</time>
      </trkpt>
      <trkpt lat="46.70635" lon="-1.61036">
        <ele>57</ele>
        <time>2025-08-07T20:15:22Z</time>
      </trkpt>
      <trkpt lat="46.70639" lon="-1.61051">
        <ele>57</ele>
        <time>2025-08-07T20:15:24Z</time>
      </trkpt>
      <trkpt lat="46.70643" lon="-1.61064">
        <ele>57</ele>
        <time>2025-08-07T20:15:26Z</time>
      </trkpt>
      <trkpt lat="46.70647" lon="-1.61076">
        <ele>57</ele>
        <time>2025-08-07T20:15:28Z</time>
      </trkpt>
      <trkpt lat="46.7065" lon="-1.61087">
        <ele>57</ele>
        <time>2025-08-07T20:15:30Z</time>
      </trkpt>
      <trkpt lat="46.70652" lon="-1.61094">
        <ele>57</ele>
        <time>2025-08-07T20:15:32Z</time>
      </trkpt>
      <trkpt lat="46.70653" lon="-1.61107">
        <ele>57</ele>
        <time>2025-08-07T20:15:36Z</time>
      </trkpt>
      <trkpt lat="46.70654" lon="-1.61118">
        <ele>57</ele>
        <time>2025-08-07T20:15:38Z</time>
      </trkpt>
      <trkpt lat="46.70658" lon="-1.61129">
        <ele>58</ele>
        <time>2025-08-07T20:15:40Z</time>
      </trkpt>
      <trkpt lat="46.70664" lon="-1.61137">
        <ele>58</ele>
        <time>2025-08-07T20:15:42Z</time>
      </trkpt>
      <trkpt lat="46.7067" lon="-1.61144">
        <ele>58</ele>
        <time>2025-08-07T20:15:44Z</time>
      </trkpt>
      <trkpt lat="46.70676" lon="-1.61149">
        <ele>58</ele>
        <time>2025-08-07T20:15:46Z</time>
      </trkpt>
      <trkpt lat="46.70683" lon="-1.61154">
        <ele>58</ele>
        <time>2025-08-07T20:15:48Z</time>
      </trkpt>
      <trkpt lat="46.70689" lon="-1.6116">
        <ele>59</ele>
        <time>2025-08-07T20:15:50Z</time>
      </trkpt>
      <trkpt lat="46.70694" lon="-1.61166">
        <ele>59</ele>
        <time>2025-08-07T20:15:52Z</time>
      </trkpt>
      <trkpt lat="46.70699" lon="-1.61174">
        <ele>59</ele>
        <time>2025-08-07T20:15:54Z</time>
      </trkpt>
      <trkpt lat="46.70704" lon="-1.61183">
        <ele>59</ele>
        <time>2025-08-07T20:15:56Z</time>
      </trkpt>
      <trkpt lat="46.70708" lon="-1.61193">
        <ele>59</ele>
        <time>2025-08-07T20:15:58Z</time>
      </trkpt>
      <trkpt lat="46.70711" lon="-1.61205">
        <ele>59</ele>
        <time>2025-08-07T20:16:00Z</time>
      </trkpt>
      <trkpt lat="46.70714" lon="-1.6122">
        <ele>59</ele>
        <time>2025-08-07T20:16:02Z</time>
      </trkpt>
      <trkpt lat="46.70715" lon="-1.61237">
        <ele>59</ele>
        <time>2025-08-07T20:16:04Z</time>
      </trkpt>
      <trkpt lat="46.70715" lon="-1.61255">
        <ele>58</ele>
        <time>2025-08-07T20:16:06Z</time>
      </trkpt>
      <trkpt lat="46.70712" lon="-1.61273">
        <ele>58</ele>
        <time>2025-08-07T20:16:08Z</time>
      </trkpt>
      <trkpt lat="46.70709" lon="-1.6129">
        <ele>57</ele>
        <time>2025-08-07T20:16:10Z</time>
      </trkpt>
      <trkpt lat="46.70705" lon="-1.61306">
        <ele>57</ele>
        <time>2025-08-07T20:16:12Z</time>
      </trkpt>
      <trkpt lat="46.707" lon="-1.61321">
        <ele>57</ele>
        <time>2025-08-07T20:16:14Z</time>
      </trkpt>
      <trkpt lat="46.70696" lon="-1.61336">
        <ele>56</ele>
        <time>2025-08-07T20:16:16Z</time>
      </trkpt>
      <trkpt lat="46.70692" lon="-1.61352">
        <ele>56</ele>
        <time>2025-08-07T20:16:18Z</time>
      </trkpt>
      <trkpt lat="46.7069" lon="-1.6137">
        <ele>56</ele>
        <time>2025-08-07T20:16:20Z</time>
      </trkpt>
      <trkpt lat="46.70688" lon="-1.61388">
        <ele>55</ele>
        <time>2025-08-07T20:16:22Z</time>
      </trkpt>
      <trkpt lat="46.70686" lon="-1.61406">
        <ele>55</ele>
        <time>2025-08-07T20:16:24Z</time>
      </trkpt>
      <trkpt lat="46.70684" lon="-1.61424">
        <ele>54</ele>
        <time>2025-08-07T20:16:26Z</time>
      </trkpt>
      <trkpt lat="46.70682" lon="-1.61443">
        <ele>54</ele>
        <time>2025-08-07T20:16:28Z</time>
      </trkpt>
      <trkpt lat="46.70678" lon="-1.61462">
        <ele>54</ele>
        <time>2025-08-07T20:16:30Z</time>
      </trkpt>
      <trkpt lat="46.70675" lon="-1.61482">
        <ele>53</ele>
        <time>2025-08-07T20:16:32Z</time>
      </trkpt>
      <trkpt lat="46.7067" lon="-1.61502">
        <ele>52</ele>
        <time>2025-08-07T20:16:34Z</time>
      </trkpt>
      <trkpt lat="46.70666" lon="-1.61523">
        <ele>52</ele>
        <time>2025-08-07T20:16:36Z</time>
      </trkpt>
      <trkpt lat="46.70662" lon="-1.61544">
        <ele>51</ele>
        <time>2025-08-07T20:16:38Z</time>
      </trkpt>
      <trkpt lat="46.70659" lon="-1.61566">
        <ele>50</ele>
        <time>2025-08-07T20:16:40Z</time>
      </trkpt>
      <trkpt lat="46.70655" lon="-1.61589">
        <ele>49</ele>
        <time>2025-08-07T20:16:42Z</time>
      </trkpt>
      <trkpt lat="46.70652" lon="-1.61611">
        <ele>49</ele>
        <time>2025-08-07T20:16:44Z</time>
      </trkpt>
      <trkpt lat="46.70648" lon="-1.61634">
        <ele>48</ele>
        <time>2025-08-07T20:16:46Z</time>
      </trkpt>
      <trkpt lat="46.70644" lon="-1.61657">
        <ele>48</ele>
        <time>2025-08-07T20:16:48Z</time>
      </trkpt>
      <trkpt lat="46.7064" lon="-1.61679">
        <ele>47</ele>
        <time>2025-08-07T20:16:50Z</time>
      </trkpt>
      <trkpt lat="46.70635" lon="-1.617">
        <ele>47</ele>
        <time>2025-08-07T20:16:52Z</time>
      </trkpt>
      <trkpt lat="46.7063" lon="-1.6172">
        <ele>47</ele>
        <time>2025-08-07T20:16:54Z</time>
      </trkpt>
      <trkpt lat="46.70626" lon="-1.6174">
        <ele>47</ele>
        <time>2025-08-07T20:16:56Z</time>
      </trkpt>
      <trkpt lat="46.70622" lon="-1.61759">
        <ele>47</ele>
        <time>2025-08-07T20:16:58Z</time>
      </trkpt>
      <trkpt lat="46.7062" lon="-1.61778">
        <ele>48</ele>
        <time>2025-08-07T20:17:00Z</time>
      </trkpt>
      <trkpt lat="46.70619" lon="-1.61797">
        <ele>48</ele>
        <time>2025-08-07T20:17:02Z</time>
      </trkpt>
      <trkpt lat="46.7062" lon="-1.6182">
        <ele>48</ele>
        <time>2025-08-07T20:17:04Z</time>
      </trkpt>
      <trkpt lat="46.70621" lon="-1.61839">
        <ele>48</ele>
        <time>2025-08-07T20:17:06Z</time>
      </trkpt>
      <trkpt lat="46.70622" lon="-1.61858">
        <ele>49</ele>
        <time>2025-08-07T20:17:08Z</time>
      </trkpt>
      <trkpt lat="46.70622" lon="-1.61874">
        <ele>49</ele>
        <time>2025-08-07T20:17:10Z</time>
      </trkpt>
      <trkpt lat="46.70621" lon="-1.61888">
        <ele>49</ele>
        <time>2025-08-07T20:17:12Z</time>
      </trkpt>
      <trkpt lat="46.7062" lon="-1.61902">
        <ele>50</ele>
        <time>2025-08-07T20:17:14Z</time>
      </trkpt>
      <trkpt lat="46.7062" lon="-1.61916">
        <ele>50</ele>
        <time>2025-08-07T20:17:16Z</time>
      </trkpt>
      <trkpt lat="46.7062" lon="-1.6193">
        <ele>50</ele>
        <time>2025-08-07T20:17:18Z</time>
      </trkpt>
      <trkpt lat="46.7062" lon="-1.61944">
        <ele>50</ele>
        <time>2025-08-07T20:17:20Z</time>
      </trkpt>
      <trkpt lat="46.70621" lon="-1.61958">
        <ele>51</ele>
        <time>2025-08-07T20:17:22Z</time>
      </trkpt>
      <trkpt lat="46.70623" lon="-1.61972">
        <ele>51</ele>
        <time>2025-08-07T20:17:24Z</time>
      </trkpt>
      <trkpt lat="46.70625" lon="-1.61985">
        <ele>51</ele>
        <time>2025-08-07T20:17:26Z</time>
      </trkpt>
      <trkpt lat="46.70627" lon="-1.61998">
        <ele>51</ele>
        <time>2025-08-07T20:17:28Z</time>
      </trkpt>
      <trkpt lat="46.70628" lon="-1.62011">
        <ele>51</ele>
        <time>2025-08-07T20:17:30Z</time>
      </trkpt>
      <trkpt lat="46.70629" lon="-1.62023">
        <ele>51</ele>
        <time>2025-08-07T20:17:32Z</time>
      </trkpt>
      <trkpt lat="46.7063" lon="-1.62036">
        <ele>51</ele>
        <time>2025-08-07T20:17:35Z</time>
      </trkpt>
      <trkpt lat="46.7063" lon="-1.62048">
        <ele>51</ele>
        <time>2025-08-07T20:17:37Z</time>
      </trkpt>
      <trkpt lat="46.7063" lon="-1.62059">
        <ele>51</ele>
        <time>2025-08-07T20:17:39Z</time>
      </trkpt>
      <trkpt lat="46.70631" lon="-1.62071">
        <ele>51</ele>
        <time>2025-08-07T20:17:41Z</time>
      </trkpt>
      <trkpt lat="46.70631" lon="-1.62083">
        <ele>51</ele>
        <time>2025-08-07T20:17:43Z</time>
      </trkpt>
      <trkpt lat="46.70632" lon="-1.62095">
        <ele>51</ele>
        <time>2025-08-07T20:17:45Z</time>
      </trkpt>
      <trkpt lat="46.70635" lon="-1.62107">
        <ele>51</ele>
        <time>2025-08-07T20:17:47Z</time>
      </trkpt>
      <trkpt lat="46.70642" lon="-1.62117">
        <ele>51</ele>
        <time>2025-08-07T20:17:49Z</time>
      </trkpt>
      <trkpt lat="46.70651" lon="-1.62124">
        <ele>50</ele>
        <time>2025-08-07T20:17:51Z</time>
      </trkpt>
      <trkpt lat="46.7066" lon="-1.62128">
        <ele>50</ele>
        <time>2025-08-07T20:17:53Z</time>
      </trkpt>
      <trkpt lat="46.70668" lon="-1.62135">
        <ele>50</ele>
        <time>2025-08-07T20:17:55Z</time>
      </trkpt>
      <trkpt lat="46.70671" lon="-1.62148">
        <ele>49</ele>
        <time>2025-08-07T20:17:57Z</time>
      </trkpt>
      <trkpt lat="46.70673" lon="-1.62164">
        <ele>48</ele>
        <time>2025-08-07T20:17:59Z</time>
      </trkpt>
      <trkpt lat="46.70673" lon="-1.62183">
        <ele>47</ele>
        <time>2025-08-07T20:18:01Z</time>
      </trkpt>
      <trkpt lat="46.70672" lon="-1.62201">
        <ele>47</ele>
        <time>2025-08-07T20:18:03Z</time>
      </trkpt>
      <trkpt lat="46.70668" lon="-1.62218">
        <ele>47</ele>
        <time>2025-08-07T20:18:05Z</time>
      </trkpt>
      <trkpt lat="46.70661" lon="-1.62233">
        <ele>46</ele>
        <time>2025-08-07T20:18:07Z</time>
      </trkpt>
      <trkpt lat="46.7065" lon="-1.62247">
        <ele>46</ele>
        <time>2025-08-07T20:18:09Z</time>
      </trkpt>
      <trkpt lat="46.70641" lon="-1.62259">
        <ele>46</ele>
        <time>2025-08-07T20:18:11Z</time>
      </trkpt>
      <trkpt lat="46.7064" lon="-1.62272">
        <ele>45</ele>
        <time>2025-08-07T20:18:13Z</time>
      </trkpt>
      <trkpt lat="46.70646" lon="-1.62286">
        <ele>45</ele>
        <time>2025-08-07T20:18:15Z</time>
      </trkpt>
      <trkpt lat="46.70655" lon="-1.62302">
        <ele>45</ele>
        <time>2025-08-07T20:18:17Z</time>
      </trkpt>
      <trkpt lat="46.70663" lon="-1.6232">
        <ele>44</ele>
        <time>2025-08-07T20:18:19Z</time>
      </trkpt>
      <trkpt lat="46.70672" lon="-1.62336">
        <ele>44</ele>
        <time>2025-08-07T20:18:21Z</time>
      </trkpt>
      <trkpt lat="46.70682" lon="-1.6235">
        <ele>43</ele>
        <time>2025-08-07T20:18:23Z</time>
      </trkpt>
      <trkpt lat="46.70692" lon="-1.62363">
        <ele>43</ele>
        <time>2025-08-07T20:18:25Z</time>
      </trkpt>
      <trkpt lat="46.70699" lon="-1.62379">
        <ele>43</ele>
        <time>2025-08-07T20:18:27Z</time>
      </trkpt>
      <trkpt lat="46.70704" lon="-1.62397">
        <ele>43</ele>
        <time>2025-08-07T20:18:29Z</time>
      </trkpt>
      <trkpt lat="46.70708" lon="-1.62416">
        <ele>43</ele>
        <time>2025-08-07T20:18:31Z</time>
      </trkpt>
      <trkpt lat="46.70712" lon="-1.62435">
        <ele>43</ele>
        <time>2025-08-07T20:18:33Z</time>
      </trkpt>
      <trkpt lat="46.70717" lon="-1.62453">
        <ele>43</ele>
        <time>2025-08-07T20:18:35Z</time>
      </trkpt>
      <trkpt lat="46.70721" lon="-1.62472">
        <ele>42</ele>
        <time>2025-08-07T20:18:37Z</time>
      </trkpt>
      <trkpt lat="46.70726" lon="-1.6249">
        <ele>42</ele>
        <time>2025-08-07T20:18:39Z</time>
      </trkpt>
      <trkpt lat="46.7073" lon="-1.62508">
        <ele>42</ele>
        <time>2025-08-07T20:18:41Z</time>
      </trkpt>
      <trkpt lat="46.70734" lon="-1.62525">
        <ele>42</ele>
        <time>2025-08-07T20:18:43Z</time>
      </trkpt>
      <trkpt lat="46.70738" lon="-1.62543">
        <ele>42</ele>
        <time>2025-08-07T20:18:45Z</time>
      </trkpt>
      <trkpt lat="46.70741" lon="-1.62561">
        <ele>42</ele>
        <time>2025-08-07T20:18:47Z</time>
      </trkpt>
      <trkpt lat="46.70745" lon="-1.62578">
        <ele>43</ele>
        <time>2025-08-07T20:18:49Z</time>
      </trkpt>
      <trkpt lat="46.70749" lon="-1.62595">
        <ele>43</ele>
        <time>2025-08-07T20:18:51Z</time>
      </trkpt>
      <trkpt lat="46.70753" lon="-1.62612">
        <ele>43</ele>
        <time>2025-08-07T20:18:53Z</time>
      </trkpt>
      <trkpt lat="46.70757" lon="-1.62629">
        <ele>43</ele>
        <time>2025-08-07T20:18:55Z</time>
      </trkpt>
      <trkpt lat="46.70762" lon="-1.62646">
        <ele>43</ele>
        <time>2025-08-07T20:18:57Z</time>
      </trkpt>
      <trkpt lat="46.70765" lon="-1.62662">
        <ele>43</ele>
        <time>2025-08-07T20:18:59Z</time>
      </trkpt>
      <trkpt lat="46.70769" lon="-1.62678">
        <ele>43</ele>
        <time>2025-08-07T20:19:01Z</time>
      </trkpt>
      <trkpt lat="46.70773" lon="-1.62694">
        <ele>43</ele>
        <time>2025-08-07T20:19:03Z</time>
      </trkpt>
      <trkpt lat="46.70776" lon="-1.62709">
        <ele>44</ele>
        <time>2025-08-07T20:19:05Z</time>
      </trkpt>
      <trkpt lat="46.70779" lon="-1.62724">
        <ele>44</ele>
        <time>2025-08-07T20:19:07Z</time>
      </trkpt>
      <trkpt lat="46.70783" lon="-1.62738">
        <ele>44</ele>
        <time>2025-08-07T20:19:09Z</time>
      </trkpt>
      <trkpt lat="46.70786" lon="-1.62752">
        <ele>44</ele>
        <time>2025-08-07T20:19:11Z</time>
      </trkpt>
      <trkpt lat="46.70789" lon="-1.62766">
        <ele>44</ele>
        <time>2025-08-07T20:19:13Z</time>
      </trkpt>
      <trkpt lat="46.70791" lon="-1.6278">
        <ele>44</ele>
        <time>2025-08-07T20:19:15Z</time>
      </trkpt>
      <trkpt lat="46.70794" lon="-1.62794">
        <ele>44</ele>
        <time>2025-08-07T20:19:17Z</time>
      </trkpt>
      <trkpt lat="46.70797" lon="-1.62807">
        <ele>44</ele>
        <time>2025-08-07T20:19:19Z</time>
      </trkpt>
      <trkpt lat="46.708" lon="-1.62821">
        <ele>44</ele>
        <time>2025-08-07T20:19:21Z</time>
      </trkpt>
      <trkpt lat="46.70803" lon="-1.62834">
        <ele>45</ele>
        <time>2025-08-07T20:19:23Z</time>
      </trkpt>
      <trkpt lat="46.70805" lon="-1.62847">
        <ele>45</ele>
        <time>2025-08-07T20:19:25Z</time>
      </trkpt>
      <trkpt lat="46.70808" lon="-1.62861">
        <ele>45</ele>
        <time>2025-08-07T20:19:27Z</time>
      </trkpt>
      <trkpt lat="46.70812" lon="-1.62878">
        <ele>45</ele>
        <time>2025-08-07T20:19:29Z</time>
      </trkpt>
      <trkpt lat="46.70815" lon="-1.62892">
        <ele>46</ele>
        <time>2025-08-07T20:19:31Z</time>
      </trkpt>
      <trkpt lat="46.70818" lon="-1.62907">
        <ele>46</ele>
        <time>2025-08-07T20:19:33Z</time>
      </trkpt>
      <trkpt lat="46.7082" lon="-1.62918">
        <ele>46</ele>
        <time>2025-08-07T20:19:35Z</time>
      </trkpt>
      <trkpt lat="46.70818" lon="-1.62928">
        <ele>47</ele>
        <time>2025-08-07T20:19:37Z</time>
      </trkpt>
      <trkpt lat="46.70812" lon="-1.62933">
        <ele>47</ele>
        <time>2025-08-07T20:19:39Z</time>
      </trkpt>
      <trkpt lat="46.70804" lon="-1.62934">
        <ele>47</ele>
        <time>2025-08-07T20:19:41Z</time>
      </trkpt>
      <trkpt lat="46.70794" lon="-1.62934">
        <ele>47</ele>
        <time>2025-08-07T20:19:43Z</time>
      </trkpt>
      <trkpt lat="46.70786" lon="-1.62934">
        <ele>47</ele>
        <time>2025-08-07T20:19:45Z</time>
      </trkpt>
      <trkpt lat="46.70777" lon="-1.62935">
        <ele>46</ele>
        <time>2025-08-07T20:19:47Z</time>
      </trkpt>
      <trkpt lat="46.70768" lon="-1.62936">
        <ele>46</ele>
        <time>2025-08-07T20:19:49Z</time>
      </trkpt>
      <trkpt lat="46.7076" lon="-1.62938">
        <ele>46</ele>
        <time>2025-08-07T20:19:51Z</time>
      </trkpt>
      <trkpt lat="46.70751" lon="-1.62939">
        <ele>46</ele>
        <time>2025-08-07T20:19:53Z</time>
      </trkpt>
      <trkpt lat="46.70742" lon="-1.6294">
        <ele>46</ele>
        <time>2025-08-07T20:19:55Z</time>
      </trkpt>
      <trkpt lat="46.70734" lon="-1.62944">
        <ele>45</ele>
        <time>2025-08-07T20:19:57Z</time>
      </trkpt>
      <trkpt lat="46.70729" lon="-1.62953">
        <ele>45</ele>
        <time>2025-08-07T20:19:59Z</time>
      </trkpt>
      <trkpt lat="46.70728" lon="-1.62967">
        <ele>45</ele>
        <time>2025-08-07T20:20:02Z</time>
      </trkpt>
      <trkpt lat="46.70729" lon="-1.62981">
        <ele>45</ele>
        <time>2025-08-07T20:20:04Z</time>
      </trkpt>
      <trkpt lat="46.70731" lon="-1.62996">
        <ele>45</ele>
        <time>2025-08-07T20:20:06Z</time>
      </trkpt>
      <trkpt lat="46.70733" lon="-1.63009">
        <ele>45</ele>
        <time>2025-08-07T20:20:08Z</time>
      </trkpt>
      <trkpt lat="46.70734" lon="-1.63023">
        <ele>45</ele>
        <time>2025-08-07T20:20:10Z</time>
      </trkpt>
      <trkpt lat="46.70735" lon="-1.63037">
        <ele>45</ele>
        <time>2025-08-07T20:20:12Z</time>
      </trkpt>
      <trkpt lat="46.70736" lon="-1.63052">
        <ele>45</ele>
        <time>2025-08-07T20:20:14Z</time>
      </trkpt>
      <trkpt lat="46.70736" lon="-1.63065">
        <ele>45</ele>
        <time>2025-08-07T20:20:16Z</time>
      </trkpt>
      <trkpt lat="46.70736" lon="-1.63079">
        <ele>45</ele>
        <time>2025-08-07T20:20:18Z</time>
      </trkpt>
      <trkpt lat="46.70735" lon="-1.63093">
        <ele>45</ele>
        <time>2025-08-07T20:20:20Z</time>
      </trkpt>
      <trkpt lat="46.70734" lon="-1.63107">
        <ele>45</ele>
        <time>2025-08-07T20:20:22Z</time>
      </trkpt>
      <trkpt lat="46.70734" lon="-1.63122">
        <ele>45</ele>
        <time>2025-08-07T20:20:24Z</time>
      </trkpt>
      <trkpt lat="46.70733" lon="-1.63137">
        <ele>45</ele>
        <time>2025-08-07T20:20:26Z</time>
      </trkpt>
      <trkpt lat="46.70732" lon="-1.63151">
        <ele>45</ele>
        <time>2025-08-07T20:20:28Z</time>
      </trkpt>
      <trkpt lat="46.70731" lon="-1.63167">
        <ele>45</ele>
        <time>2025-08-07T20:20:30Z</time>
      </trkpt>
      <trkpt lat="46.70731" lon="-1.63182">
        <ele>44</ele>
        <time>2025-08-07T20:20:32Z</time>
      </trkpt>
      <trkpt lat="46.7073" lon="-1.63197">
        <ele>44</ele>
        <time>2025-08-07T20:20:34Z</time>
      </trkpt>
      <trkpt lat="46.7073" lon="-1.63212">
        <ele>44</ele>
        <time>2025-08-07T20:20:36Z</time>
      </trkpt>
      <trkpt lat="46.7073" lon="-1.63228">
        <ele>44</ele>
        <time>2025-08-07T20:20:38Z</time>
      </trkpt>
      <trkpt lat="46.70731" lon="-1.63245">
        <ele>44</ele>
        <time>2025-08-07T20:20:40Z</time>
      </trkpt>
      <trkpt lat="46.70733" lon="-1.63262">
        <ele>44</ele>
        <time>2025-08-07T20:20:42Z</time>
      </trkpt>
      <trkpt lat="46.70737" lon="-1.63278">
        <ele>44</ele>
        <time>2025-08-07T20:20:44Z</time>
      </trkpt>
      <trkpt lat="46.70741" lon="-1.63295">
        <ele>44</ele>
        <time>2025-08-07T20:20:46Z</time>
      </trkpt>
      <trkpt lat="46.70743" lon="-1.63311">
        <ele>44</ele>
        <time>2025-08-07T20:20:48Z</time>
      </trkpt>
      <trkpt lat="46.70746" lon="-1.63328">
        <ele>44</ele>
        <time>2025-08-07T20:20:50Z</time>
      </trkpt>
      <trkpt lat="46.70747" lon="-1.63345">
        <ele>44</ele>
        <time>2025-08-07T20:20:52Z</time>
      </trkpt>
      <trkpt lat="46.70748" lon="-1.63361">
        <ele>44</ele>
        <time>2025-08-07T20:20:54Z</time>
      </trkpt>
      <trkpt lat="46.70749" lon="-1.63378">
        <ele>44</ele>
        <time>2025-08-07T20:20:56Z</time>
      </trkpt>
      <trkpt lat="46.70753" lon="-1.63394">
        <ele>44</ele>
        <time>2025-08-07T20:20:58Z</time>
      </trkpt>
      <trkpt lat="46.70758" lon="-1.63408">
        <ele>44</ele>
        <time>2025-08-07T20:21:00Z</time>
      </trkpt>
      <trkpt lat="46.70763" lon="-1.63423">
        <ele>44</ele>
        <time>2025-08-07T20:21:02Z</time>
      </trkpt>
      <trkpt lat="46.7077" lon="-1.63437">
        <ele>44</ele>
        <time>2025-08-07T20:21:04Z</time>
      </trkpt>
      <trkpt lat="46.70776" lon="-1.6345">
        <ele>45</ele>
        <time>2025-08-07T20:21:06Z</time>
      </trkpt>
      <trkpt lat="46.70781" lon="-1.63464">
        <ele>45</ele>
        <time>2025-08-07T20:21:08Z</time>
      </trkpt>
      <trkpt lat="46.70785" lon="-1.63478">
        <ele>45</ele>
        <time>2025-08-07T20:21:10Z</time>
      </trkpt>
      <trkpt lat="46.7079" lon="-1.63492">
        <ele>45</ele>
        <time>2025-08-07T20:21:12Z</time>
      </trkpt>
      <trkpt lat="46.70794" lon="-1.63506">
        <ele>45</ele>
        <time>2025-08-07T20:21:14Z</time>
      </trkpt>
      <trkpt lat="46.70799" lon="-1.63521">
        <ele>45</ele>
        <time>2025-08-07T20:21:16Z</time>
      </trkpt>
      <trkpt lat="46.70804" lon="-1.63536">
        <ele>45</ele>
        <time>2025-08-07T20:21:18Z</time>
      </trkpt>
      <trkpt lat="46.70809" lon="-1.63551">
        <ele>45</ele>
        <time>2025-08-07T20:21:20Z</time>
      </trkpt>
      <trkpt lat="46.70814" lon="-1.63566">
        <ele>45</ele>
        <time>2025-08-07T20:21:22Z</time>
      </trkpt>
      <trkpt lat="46.70819" lon="-1.63581">
        <ele>45</ele>
        <time>2025-08-07T20:21:24Z</time>
      </trkpt>
      <trkpt lat="46.70824" lon="-1.63596">
        <ele>45</ele>
        <time>2025-08-07T20:21:26Z</time>
      </trkpt>
      <trkpt lat="46.70829" lon="-1.63611">
        <ele>45</ele>
        <time>2025-08-07T20:21:28Z</time>
      </trkpt>
      <trkpt lat="46.70833" lon="-1.63627">
        <ele>44</ele>
        <time>2025-08-07T20:21:30Z</time>
      </trkpt>
      <trkpt lat="46.70837" lon="-1.63641">
        <ele>44</ele>
        <time>2025-08-07T20:21:32Z</time>
      </trkpt>
      <trkpt lat="46.70839" lon="-1.63657">
        <ele>44</ele>
        <time>2025-08-07T20:21:34Z</time>
      </trkpt>
      <trkpt lat="46.70834" lon="-1.63669">
        <ele>43</ele>
        <time>2025-08-07T20:21:36Z</time>
      </trkpt>
      <trkpt lat="46.70822" lon="-1.63675">
        <ele>43</ele>
        <time>2025-08-07T20:21:38Z</time>
      </trkpt>
      <trkpt lat="46.70809" lon="-1.63679">
        <ele>43</ele>
        <time>2025-08-07T20:21:40Z</time>
      </trkpt>
      <trkpt lat="46.70795" lon="-1.63683">
        <ele>43</ele>
        <time>2025-08-07T20:21:42Z</time>
      </trkpt>
      <trkpt lat="46.70783" lon="-1.63687">
        <ele>42</ele>
        <time>2025-08-07T20:21:44Z</time>
      </trkpt>
      <trkpt lat="46.7077" lon="-1.63692">
        <ele>42</ele>
        <time>2025-08-07T20:21:46Z</time>
      </trkpt>
      <trkpt lat="46.70757" lon="-1.63697">
        <ele>42</ele>
        <time>2025-08-07T20:21:48Z</time>
      </trkpt>
      <trkpt lat="46.70739" lon="-1.63705">
        <ele>41</ele>
        <time>2025-08-07T20:21:50Z</time>
      </trkpt>
      <trkpt lat="46.70726" lon="-1.63716">
        <ele>41</ele>
        <time>2025-08-07T20:21:52Z</time>
      </trkpt>
      <trkpt lat="46.70715" lon="-1.6373">
        <ele>41</ele>
        <time>2025-08-07T20:21:54Z</time>
      </trkpt>
      <trkpt lat="46.70704" lon="-1.63741">
        <ele>40</ele>
        <time>2025-08-07T20:21:56Z</time>
      </trkpt>
      <trkpt lat="46.70691" lon="-1.63745">
        <ele>40</ele>
        <time>2025-08-07T20:21:58Z</time>
      </trkpt>
      <trkpt lat="46.70676" lon="-1.63745">
        <ele>39</ele>
        <time>2025-08-07T20:22:00Z</time>
      </trkpt>
      <trkpt lat="46.70661" lon="-1.63746">
        <ele>38</ele>
        <time>2025-08-07T20:22:02Z</time>
      </trkpt>
      <trkpt lat="46.70644" lon="-1.63747">
        <ele>37</ele>
        <time>2025-08-07T20:22:04Z</time>
      </trkpt>
      <trkpt lat="46.70627" lon="-1.63742">
        <ele>35</ele>
        <time>2025-08-07T20:22:06Z</time>
      </trkpt>
      <trkpt lat="46.7061" lon="-1.63728">
        <ele>34</ele>
        <time>2025-08-07T20:22:08Z</time>
      </trkpt>
      <trkpt lat="46.70597" lon="-1.63707">
        <ele>33</ele>
        <time>2025-08-07T20:22:10Z</time>
      </trkpt>
      <trkpt lat="46.70582" lon="-1.63688">
        <ele>32</ele>
        <time>2025-08-07T20:22:13Z</time>
      </trkpt>
      <trkpt lat="46.70565" lon="-1.6368">
        <ele>31</ele>
        <time>2025-08-07T20:22:15Z</time>
      </trkpt>
      <trkpt lat="46.70548" lon="-1.6368">
        <ele>32</ele>
        <time>2025-08-07T20:22:17Z</time>
      </trkpt>
      <trkpt lat="46.70533" lon="-1.63683">
        <ele>32</ele>
        <time>2025-08-07T20:22:19Z</time>
      </trkpt>
      <trkpt lat="46.70519" lon="-1.63684">
        <ele>33</ele>
        <time>2025-08-07T20:22:21Z</time>
      </trkpt>
      <trkpt lat="46.70506" lon="-1.63685">
        <ele>33</ele>
        <time>2025-08-07T20:22:23Z</time>
      </trkpt>
      <trkpt lat="46.70495" lon="-1.63685">
        <ele>34</ele>
        <time>2025-08-07T20:22:25Z</time>
      </trkpt>
      <trkpt lat="46.70483" lon="-1.63685">
        <ele>35</ele>
        <time>2025-08-07T20:22:27Z</time>
      </trkpt>
      <trkpt lat="46.70473" lon="-1.63686">
        <ele>36</ele>
        <time>2025-08-07T20:22:29Z</time>
      </trkpt>
      <trkpt lat="46.70463" lon="-1.63685">
        <ele>37</ele>
        <time>2025-08-07T20:22:31Z</time>
      </trkpt>
      <trkpt lat="46.70453" lon="-1.63686">
        <ele>37</ele>
        <time>2025-08-07T20:22:33Z</time>
      </trkpt>
      <trkpt lat="46.70442" lon="-1.63688">
        <ele>37</ele>
        <time>2025-08-07T20:22:35Z</time>
      </trkpt>
      <trkpt lat="46.70431" lon="-1.63691">
        <ele>38</ele>
        <time>2025-08-07T20:22:37Z</time>
      </trkpt>
      <trkpt lat="46.7042" lon="-1.63697">
        <ele>38</ele>
        <time>2025-08-07T20:22:39Z</time>
      </trkpt>
      <trkpt lat="46.7041" lon="-1.63703">
        <ele>38</ele>
        <time>2025-08-07T20:22:41Z</time>
      </trkpt>
      <trkpt lat="46.70399" lon="-1.63711">
        <ele>38</ele>
        <time>2025-08-07T20:22:43Z</time>
      </trkpt>
      <trkpt lat="46.70388" lon="-1.63719">
        <ele>37</ele>
        <time>2025-08-07T20:22:45Z</time>
      </trkpt>
      <trkpt lat="46.70377" lon="-1.63727">
        <ele>37</ele>
        <time>2025-08-07T20:22:47Z</time>
      </trkpt>
      <trkpt lat="46.70366" lon="-1.63734">
        <ele>37</ele>
        <time>2025-08-07T20:22:49Z</time>
      </trkpt>
      <trkpt lat="46.70354" lon="-1.63741">
        <ele>37</ele>
        <time>2025-08-07T20:22:51Z</time>
      </trkpt>
      <trkpt lat="46.70341" lon="-1.63742">
        <ele>37</ele>
        <time>2025-08-07T20:22:53Z</time>
      </trkpt>
      <trkpt lat="46.70329" lon="-1.63735">
        <ele>37</ele>
        <time>2025-08-07T20:22:55Z</time>
      </trkpt>
      <trkpt lat="46.7032" lon="-1.63721">
        <ele>37</ele>
        <time>2025-08-07T20:22:57Z</time>
      </trkpt>
      <trkpt lat="46.70313" lon="-1.63704">
        <ele>37</ele>
        <time>2025-08-07T20:22:59Z</time>
      </trkpt>
      <trkpt lat="46.70307" lon="-1.63688">
        <ele>37</ele>
        <time>2025-08-07T20:23:01Z</time>
      </trkpt>
      <trkpt lat="46.703" lon="-1.63674">
        <ele>37</ele>
        <time>2025-08-07T20:23:03Z</time>
      </trkpt>
      <trkpt lat="46.70293" lon="-1.63662">
        <ele>37</ele>
        <time>2025-08-07T20:23:05Z</time>
      </trkpt>
      <trkpt lat="46.70284" lon="-1.63652">
        <ele>37</ele>
        <time>2025-08-07T20:23:07Z</time>
      </trkpt>
      <trkpt lat="46.70275" lon="-1.63643">
        <ele>38</ele>
        <time>2025-08-07T20:23:09Z</time>
      </trkpt>
      <trkpt lat="46.70267" lon="-1.63632">
        <ele>38</ele>
        <time>2025-08-07T20:23:11Z</time>
      </trkpt>
      <trkpt lat="46.7026" lon="-1.63621">
        <ele>38</ele>
        <time>2025-08-07T20:23:13Z</time>
      </trkpt>
      <trkpt lat="46.70253" lon="-1.6361">
        <ele>38</ele>
        <time>2025-08-07T20:23:15Z</time>
      </trkpt>
      <trkpt lat="46.70247" lon="-1.63603">
        <ele>39</ele>
        <time>2025-08-07T20:23:17Z</time>
      </trkpt>
      <trkpt lat="46.70239" lon="-1.63608">
        <ele>38</ele>
        <time>2025-08-07T20:23:19Z</time>
      </trkpt>
      <trkpt lat="46.70231" lon="-1.63619">
        <ele>38</ele>
        <time>2025-08-07T20:23:21Z</time>
      </trkpt>
      <trkpt lat="46.70223" lon="-1.63631">
        <ele>37</ele>
        <time>2025-08-07T20:23:23Z</time>
      </trkpt>
      <trkpt lat="46.70213" lon="-1.63642">
        <ele>37</ele>
        <time>2025-08-07T20:23:25Z</time>
      </trkpt>
      <trkpt lat="46.70203" lon="-1.63652">
        <ele>37</ele>
        <time>2025-08-07T20:23:27Z</time>
      </trkpt>
      <trkpt lat="46.70192" lon="-1.63663">
        <ele>36</ele>
        <time>2025-08-07T20:23:29Z</time>
      </trkpt>
      <trkpt lat="46.70181" lon="-1.63675">
        <ele>36</ele>
        <time>2025-08-07T20:23:31Z</time>
      </trkpt>
      <trkpt lat="46.70169" lon="-1.63688">
        <ele>35</ele>
        <time>2025-08-07T20:23:33Z</time>
      </trkpt>
      <trkpt lat="46.70158" lon="-1.63703">
        <ele>35</ele>
        <time>2025-08-07T20:23:35Z</time>
      </trkpt>
      <trkpt lat="46.70147" lon="-1.63717">
        <ele>34</ele>
        <time>2025-08-07T20:23:37Z</time>
      </trkpt>
      <trkpt lat="46.70134" lon="-1.63731">
        <ele>34</ele>
        <time>2025-08-07T20:23:39Z</time>
      </trkpt>
      <trkpt lat="46.70121" lon="-1.63744">
        <ele>34</ele>
        <time>2025-08-07T20:23:41Z</time>
      </trkpt>
      <trkpt lat="46.70108" lon="-1.63755">
        <ele>33</ele>
        <time>2025-08-07T20:23:43Z</time>
      </trkpt>
      <trkpt lat="46.70095" lon="-1.63765">
        <ele>33</ele>
        <time>2025-08-07T20:23:45Z</time>
      </trkpt>
      <trkpt lat="46.70083" lon="-1.63773">
        <ele>33</ele>
        <time>2025-08-07T20:23:47Z</time>
      </trkpt>
      <trkpt lat="46.70071" lon="-1.63781">
        <ele>32</ele>
        <time>2025-08-07T20:23:49Z</time>
      </trkpt>
      <trkpt lat="46.70061" lon="-1.63791">
        <ele>32</ele>
        <time>2025-08-07T20:23:51Z</time>
      </trkpt>
      <trkpt lat="46.70055" lon="-1.63802">
        <ele>32</ele>
        <time>2025-08-07T20:23:53Z</time>
      </trkpt>
      <trkpt lat="46.70054" lon="-1.6382">
        <ele>32</ele>
        <time>2025-08-07T20:23:55Z</time>
      </trkpt>
      <trkpt lat="46.70056" lon="-1.63834">
        <ele>32</ele>
        <time>2025-08-07T20:23:57Z</time>
      </trkpt>
      <trkpt lat="46.7006" lon="-1.63846">
        <ele>32</ele>
        <time>2025-08-07T20:23:59Z</time>
      </trkpt>
      <trkpt lat="46.70064" lon="-1.63858">
        <ele>32</ele>
        <time>2025-08-07T20:24:01Z</time>
      </trkpt>
      <trkpt lat="46.70068" lon="-1.63871">
        <ele>32</ele>
        <time>2025-08-07T20:24:03Z</time>
      </trkpt>
      <trkpt lat="46.70072" lon="-1.63884">
        <ele>32</ele>
        <time>2025-08-07T20:24:05Z</time>
      </trkpt>
      <trkpt lat="46.70076" lon="-1.63897">
        <ele>33</ele>
        <time>2025-08-07T20:24:07Z</time>
      </trkpt>
      <trkpt lat="46.70078" lon="-1.6391">
        <ele>33</ele>
        <time>2025-08-07T20:24:09Z</time>
      </trkpt>
      <trkpt lat="46.70081" lon="-1.63923">
        <ele>33</ele>
        <time>2025-08-07T20:24:11Z</time>
      </trkpt>
      <trkpt lat="46.70083" lon="-1.63936">
        <ele>34</ele>
        <time>2025-08-07T20:24:13Z</time>
      </trkpt>
      <trkpt lat="46.70085" lon="-1.63949">
        <ele>34</ele>
        <time>2025-08-07T20:24:15Z</time>
      </trkpt>
      <trkpt lat="46.70084" lon="-1.63962">
        <ele>34</ele>
        <time>2025-08-07T20:24:17Z</time>
      </trkpt>
      <trkpt lat="46.70083" lon="-1.63974">
        <ele>34</ele>
        <time>2025-08-07T20:24:19Z</time>
      </trkpt>
      <trkpt lat="46.70083" lon="-1.63988">
        <ele>34</ele>
        <time>2025-08-07T20:24:21Z</time>
      </trkpt>
      <trkpt lat="46.70087" lon="-1.64004">
        <ele>34</ele>
        <time>2025-08-07T20:24:23Z</time>
      </trkpt>
      <trkpt lat="46.70091" lon="-1.6402">
        <ele>33</ele>
        <time>2025-08-07T20:24:25Z</time>
      </trkpt>
      <trkpt lat="46.70094" lon="-1.64036">
        <ele>32</ele>
        <time>2025-08-07T20:24:28Z</time>
      </trkpt>
      <trkpt lat="46.70092" lon="-1.6405">
        <ele>32</ele>
        <time>2025-08-07T20:24:30Z</time>
      </trkpt>
      <trkpt lat="46.70083" lon="-1.64059">
        <ele>31</ele>
        <time>2025-08-07T20:24:32Z</time>
      </trkpt>
      <trkpt lat="46.70071" lon="-1.64065">
        <ele>31</ele>
        <time>2025-08-07T20:24:34Z</time>
      </trkpt>
      <trkpt lat="46.70059" lon="-1.6407">
        <ele>31</ele>
        <time>2025-08-07T20:24:36Z</time>
      </trkpt>
      <trkpt lat="46.70047" lon="-1.64074">
        <ele>30</ele>
        <time>2025-08-07T20:24:38Z</time>
      </trkpt>
      <trkpt lat="46.70034" lon="-1.64079">
        <ele>30</ele>
        <time>2025-08-07T20:24:40Z</time>
      </trkpt>
      <trkpt lat="46.70021" lon="-1.64084">
        <ele>29</ele>
        <time>2025-08-07T20:24:42Z</time>
      </trkpt>
      <trkpt lat="46.7001" lon="-1.64086">
        <ele>29</ele>
        <time>2025-08-07T20:24:44Z</time>
      </trkpt>
      <trkpt lat="46.70002" lon="-1.64091">
        <ele>29</ele>
        <time>2025-08-07T20:24:46Z</time>
      </trkpt>
      <trkpt lat="46.7" lon="-1.64103">
        <ele>28</ele>
        <time>2025-08-07T20:24:48Z</time>
      </trkpt>
      <trkpt lat="46.69997" lon="-1.64118">
        <ele>27</ele>
        <time>2025-08-07T20:24:50Z</time>
      </trkpt>
      <trkpt lat="46.69996" lon="-1.64132">
        <ele>27</ele>
        <time>2025-08-07T20:24:52Z</time>
      </trkpt>
      <trkpt lat="46.69996" lon="-1.64139">
        <ele>26</ele>
        <time>2025-08-07T20:24:54Z</time>
      </trkpt>
      <trkpt lat="46.69991" lon="-1.6414">
        <ele>26</ele>
        <time>2025-08-07T20:25:02Z</time>
      </trkpt>
      <trkpt lat="46.69986" lon="-1.64143">
        <ele>26</ele>
        <time>2025-08-07T20:25:06Z</time>
      </trkpt>
      <trkpt lat="46.69981" lon="-1.64149">
        <ele>26</ele>
        <time>2025-08-07T20:25:12Z</time>
      </trkpt>
      <trkpt lat="46.69979" lon="-1.64156">
        <ele>26</ele>
        <time>2025-08-07T20:25:14Z</time>
      </trkpt>
      <trkpt lat="46.69974" lon="-1.64164">
        <ele>26</ele>
        <time>2025-08-07T20:25:16Z</time>
      </trkpt>
      <trkpt lat="46.69967" lon="-1.6417">
        <ele>26</ele>
        <time>2025-08-07T20:25:18Z</time>
      </trkpt>
      <trkpt lat="46.69961" lon="-1.64174">
        <ele>26</ele>
        <time>2025-08-07T20:25:20Z</time>
      </trkpt>
      <trkpt lat="46.69958" lon="-1.64185">
        <ele>26</ele>
        <time>2025-08-07T20:25:24Z</time>
      </trkpt>
      <trkpt lat="46.69959" lon="-1.64192">
        <ele>26</ele>
        <time>2025-08-07T20:25:26Z</time>
      </trkpt>
      <trkpt lat="46.69963" lon="-1.64201">
        <ele>25</ele>
        <time>2025-08-07T20:25:28Z</time>
      </trkpt>
      <trkpt lat="46.69965" lon="-1.64209">
        <ele>25</ele>
        <time>2025-08-07T20:25:30Z</time>
      </trkpt>
      <trkpt lat="46.69965" lon="-1.64216">
        <ele>25</ele>
        <time>2025-08-07T20:25:32Z</time>
      </trkpt>
      <trkpt lat="46.69961" lon="-1.64221">
        <ele>26</ele>
        <time>2025-08-07T20:25:36Z</time>
      </trkpt>
      <trkpt lat="46.69957" lon="-1.64226">
        <ele>26</ele>
        <time>2025-08-07T20:25:40Z</time>
      </trkpt>
      <trkpt lat="46.69951" lon="-1.64227">
        <ele>26</ele>
        <time>2025-08-07T20:25:46Z</time>
      </trkpt>
      <trkpt lat="46.69947" lon="-1.64225">
        <ele>26</ele>
        <time>2025-08-07T20:25:48Z</time>
      </trkpt>
      <trkpt lat="46.69941" lon="-1.64222">
        <ele>26</ele>
        <time>2025-08-07T20:25:50Z</time>
      </trkpt>
      <trkpt lat="46.69934" lon="-1.64219">
        <ele>26</ele>
        <time>2025-08-07T20:25:52Z</time>
      </trkpt>
      <trkpt lat="46.69928" lon="-1.64216">
        <ele>26</ele>
        <time>2025-08-07T20:25:54Z</time>
      </trkpt>
      <trkpt lat="46.69923" lon="-1.64213">
        <ele>26</ele>
        <time>2025-08-07T20:25:56Z</time>
      </trkpt>
      <trkpt lat="46.69919" lon="-1.6421">
        <ele>26</ele>
        <time>2025-08-07T20:25:58Z</time>
      </trkpt>
      <trkpt lat="46.69914" lon="-1.64207">
        <ele>26</ele>
        <time>2025-08-07T20:26:00Z</time>
      </trkpt>
      <trkpt lat="46.69906" lon="-1.64202">
        <ele>26</ele>
        <time>2025-08-07T20:26:04Z</time>
      </trkpt>
      <trkpt lat="46.69899" lon="-1.64199">
        <ele>26</ele>
        <time>2025-08-07T20:26:06Z</time>
      </trkpt>
      <trkpt lat="46.69892" lon="-1.64194">
        <ele>26</ele>
        <time>2025-08-07T20:26:08Z</time>
      </trkpt>
      <trkpt lat="46.69885" lon="-1.6419">
        <ele>26</ele>
        <time>2025-08-07T20:26:10Z</time>
      </trkpt>
      <trkpt lat="46.69878" lon="-1.64186">
        <ele>26</ele>
        <time>2025-08-07T20:26:12Z</time>
      </trkpt>
      <trkpt lat="46.69871" lon="-1.64181">
        <ele>26</ele>
        <time>2025-08-07T20:26:14Z</time>
      </trkpt>
      <trkpt lat="46.69865" lon="-1.64173">
        <ele>26</ele>
        <time>2025-08-07T20:26:16Z</time>
      </trkpt>
      <trkpt lat="46.6986" lon="-1.64165">
        <ele>26</ele>
        <time>2025-08-07T20:26:18Z</time>
      </trkpt>
      <trkpt lat="46.69856" lon="-1.64155">
        <ele>27</ele>
        <time>2025-08-07T20:26:20Z</time>
      </trkpt>
      <trkpt lat="46.69851" lon="-1.64145">
        <ele>27</ele>
        <time>2025-08-07T20:26:22Z</time>
      </trkpt>
      <trkpt lat="46.69846" lon="-1.64136">
        <ele>27</ele>
        <time>2025-08-07T20:26:24Z</time>
      </trkpt>
      <trkpt lat="46.69838" lon="-1.64122">
        <ele>27</ele>
        <time>2025-08-07T20:26:26Z</time>
      </trkpt>
      <trkpt lat="46.69832" lon="-1.64111">
        <ele>27</ele>
        <time>2025-08-07T20:26:28Z</time>
      </trkpt>
      <trkpt lat="46.69827" lon="-1.64101">
        <ele>28</ele>
        <time>2025-08-07T20:26:30Z</time>
      </trkpt>
      <trkpt lat="46.69821" lon="-1.64092">
        <ele>28</ele>
        <time>2025-08-07T20:26:32Z</time>
      </trkpt>
      <trkpt lat="46.69814" lon="-1.64085">
        <ele>28</ele>
        <time>2025-08-07T20:26:34Z</time>
      </trkpt>
      <trkpt lat="46.69806" lon="-1.6408">
        <ele>28</ele>
        <time>2025-08-07T20:26:36Z</time>
      </trkpt>
      <trkpt lat="46.69798" lon="-1.64074">
        <ele>28</ele>
        <time>2025-08-07T20:26:38Z</time>
      </trkpt>
      <trkpt lat="46.6979" lon="-1.64068">
        <ele>28</ele>
        <time>2025-08-07T20:26:40Z</time>
      </trkpt>
      <trkpt lat="46.69783" lon="-1.64061">
        <ele>28</ele>
        <time>2025-08-07T20:26:42Z</time>
      </trkpt>
      <trkpt lat="46.69776" lon="-1.64052">
        <ele>29</ele>
        <time>2025-08-07T20:26:44Z</time>
      </trkpt>
      <trkpt lat="46.69771" lon="-1.64041">
        <ele>29</ele>
        <time>2025-08-07T20:26:47Z</time>
      </trkpt>
      <trkpt lat="46.69767" lon="-1.6403">
        <ele>29</ele>
        <time>2025-08-07T20:26:49Z</time>
      </trkpt>
      <trkpt lat="46.69764" lon="-1.64017">
        <ele>29</ele>
        <time>2025-08-07T20:26:51Z</time>
      </trkpt>
      <trkpt lat="46.6976" lon="-1.64004">
        <ele>29</ele>
        <time>2025-08-07T20:26:53Z</time>
      </trkpt>
      <trkpt lat="46.69757" lon="-1.63991">
        <ele>30</ele>
        <time>2025-08-07T20:26:55Z</time>
      </trkpt>
      <trkpt lat="46.69754" lon="-1.63978">
        <ele>30</ele>
        <time>2025-08-07T20:26:57Z</time>
      </trkpt>
      <trkpt lat="46.6975" lon="-1.63966">
        <ele>30</ele>
        <time>2025-08-07T20:26:59Z</time>
      </trkpt>
      <trkpt lat="46.69747" lon="-1.63952">
        <ele>30</ele>
        <time>2025-08-07T20:27:01Z</time>
      </trkpt>
      <trkpt lat="46.69745" lon="-1.63939">
        <ele>30</ele>
        <time>2025-08-07T20:27:03Z</time>
      </trkpt>
      <trkpt lat="46.69742" lon="-1.63926">
        <ele>31</ele>
        <time>2025-08-07T20:27:05Z</time>
      </trkpt>
      <trkpt lat="46.6974" lon="-1.63912">
        <ele>31</ele>
        <time>2025-08-07T20:27:07Z</time>
      </trkpt>
      <trkpt lat="46.6974" lon="-1.63898">
        <ele>31</ele>
        <time>2025-08-07T20:27:09Z</time>
      </trkpt>
      <trkpt lat="46.69741" lon="-1.63883">
        <ele>31</ele>
        <time>2025-08-07T20:27:11Z</time>
      </trkpt>
      <trkpt lat="46.69741" lon="-1.63869">
        <ele>31</ele>
        <time>2025-08-07T20:27:13Z</time>
      </trkpt>
      <trkpt lat="46.69741" lon="-1.63855">
        <ele>31</ele>
        <time>2025-08-07T20:27:15Z</time>
      </trkpt>
      <trkpt lat="46.69741" lon="-1.63842">
        <ele>32</ele>
        <time>2025-08-07T20:27:17Z</time>
      </trkpt>
      <trkpt lat="46.69741" lon="-1.63828">
        <ele>32</ele>
        <time>2025-08-07T20:27:19Z</time>
      </trkpt>
      <trkpt lat="46.69742" lon="-1.63813">
        <ele>32</ele>
        <time>2025-08-07T20:27:21Z</time>
      </trkpt>
      <trkpt lat="46.69744" lon="-1.63798">
        <ele>33</ele>
        <time>2025-08-07T20:27:23Z</time>
      </trkpt>
      <trkpt lat="46.69746" lon="-1.63783">
        <ele>33</ele>
        <time>2025-08-07T20:27:25Z</time>
      </trkpt>
      <trkpt lat="46.69748" lon="-1.63768">
        <ele>33</ele>
        <time>2025-08-07T20:27:27Z</time>
      </trkpt>
      <trkpt lat="46.6975" lon="-1.63753">
        <ele>33</ele>
        <time>2025-08-07T20:27:29Z</time>
      </trkpt>
      <trkpt lat="46.69752" lon="-1.63738">
        <ele>34</ele>
        <time>2025-08-07T20:27:31Z</time>
      </trkpt>
      <trkpt lat="46.69754" lon="-1.63724">
        <ele>34</ele>
        <time>2025-08-07T20:27:33Z</time>
      </trkpt>
      <trkpt lat="46.69756" lon="-1.63709">
        <ele>34</ele>
        <time>2025-08-07T20:27:35Z</time>
      </trkpt>
      <trkpt lat="46.69758" lon="-1.63694">
        <ele>35</ele>
        <time>2025-08-07T20:27:37Z</time>
      </trkpt>
      <trkpt lat="46.69759" lon="-1.63679">
        <ele>35</ele>
        <time>2025-08-07T20:27:39Z</time>
      </trkpt>
      <trkpt lat="46.69761" lon="-1.63665">
        <ele>35</ele>
        <time>2025-08-07T20:27:41Z</time>
      </trkpt>
      <trkpt lat="46.69764" lon="-1.63651">
        <ele>35</ele>
        <time>2025-08-07T20:27:43Z</time>
      </trkpt>
      <trkpt lat="46.69766" lon="-1.63637">
        <ele>36</ele>
        <time>2025-08-07T20:27:45Z</time>
      </trkpt>
      <trkpt lat="46.69769" lon="-1.63623">
        <ele>36</ele>
        <time>2025-08-07T20:27:47Z</time>
      </trkpt>
      <trkpt lat="46.69772" lon="-1.63609">
        <ele>36</ele>
        <time>2025-08-07T20:27:49Z</time>
      </trkpt>
      <trkpt lat="46.69776" lon="-1.63595">
        <ele>36</ele>
        <time>2025-08-07T20:27:51Z</time>
      </trkpt>
      <trkpt lat="46.6978" lon="-1.63581">
        <ele>37</ele>
        <time>2025-08-07T20:27:53Z</time>
      </trkpt>
      <trkpt lat="46.69783" lon="-1.63568">
        <ele>37</ele>
        <time>2025-08-07T20:27:55Z</time>
      </trkpt>
      <trkpt lat="46.69787" lon="-1.63554">
        <ele>37</ele>
        <time>2025-08-07T20:27:57Z</time>
      </trkpt>
      <trkpt lat="46.69791" lon="-1.63541">
        <ele>38</ele>
        <time>2025-08-07T20:27:59Z</time>
      </trkpt>
      <trkpt lat="46.69795" lon="-1.63527">
        <ele>38</ele>
        <time>2025-08-07T20:28:01Z</time>
      </trkpt>
      <trkpt lat="46.69798" lon="-1.63514">
        <ele>38</ele>
        <time>2025-08-07T20:28:03Z</time>
      </trkpt>
      <trkpt lat="46.69802" lon="-1.63501">
        <ele>39</ele>
        <time>2025-08-07T20:28:05Z</time>
      </trkpt>
      <trkpt lat="46.69806" lon="-1.63488">
        <ele>39</ele>
        <time>2025-08-07T20:28:07Z</time>
      </trkpt>
      <trkpt lat="46.6981" lon="-1.63475">
        <ele>39</ele>
        <time>2025-08-07T20:28:09Z</time>
      </trkpt>
      <trkpt lat="46.69811" lon="-1.63462">
        <ele>39</ele>
        <time>2025-08-07T20:28:11Z</time>
      </trkpt>
      <trkpt lat="46.69806" lon="-1.63452">
        <ele>39</ele>
        <time>2025-08-07T20:28:13Z</time>
      </trkpt>
      <trkpt lat="46.69795" lon="-1.63449">
        <ele>39</ele>
        <time>2025-08-07T20:28:15Z</time>
      </trkpt>
      <trkpt lat="46.69784" lon="-1.63447">
        <ele>39</ele>
        <time>2025-08-07T20:28:17Z</time>
      </trkpt>
      <trkpt lat="46.69773" lon="-1.63446">
        <ele>39</ele>
        <time>2025-08-07T20:28:19Z</time>
      </trkpt>
      <trkpt lat="46.69762" lon="-1.63444">
        <ele>39</ele>
        <time>2025-08-07T20:28:21Z</time>
      </trkpt>
      <trkpt lat="46.69752" lon="-1.63442">
        <ele>39</ele>
        <time>2025-08-07T20:28:23Z</time>
      </trkpt>
      <trkpt lat="46.69742" lon="-1.6344">
        <ele>40</ele>
        <time>2025-08-07T20:28:25Z</time>
      </trkpt>
      <trkpt lat="46.69732" lon="-1.63437">
        <ele>40</ele>
        <time>2025-08-07T20:28:27Z</time>
      </trkpt>
      <trkpt lat="46.69722" lon="-1.63435">
        <ele>40</ele>
        <time>2025-08-07T20:28:29Z</time>
      </trkpt>
      <trkpt lat="46.69711" lon="-1.63433">
        <ele>40</ele>
        <time>2025-08-07T20:28:31Z</time>
      </trkpt>
      <trkpt lat="46.69701" lon="-1.6343">
        <ele>41</ele>
        <time>2025-08-07T20:28:33Z</time>
      </trkpt>
      <trkpt lat="46.69691" lon="-1.63428">
        <ele>41</ele>
        <time>2025-08-07T20:28:35Z</time>
      </trkpt>
      <trkpt lat="46.69681" lon="-1.63425">
        <ele>41</ele>
        <time>2025-08-07T20:28:37Z</time>
      </trkpt>
      <trkpt lat="46.69671" lon="-1.63423">
        <ele>41</ele>
        <time>2025-08-07T20:28:39Z</time>
      </trkpt>
      <trkpt lat="46.69656" lon="-1.63419">
        <ele>41</ele>
        <time>2025-08-07T20:28:41Z</time>
      </trkpt>
      <trkpt lat="46.69644" lon="-1.63418">
        <ele>41</ele>
        <time>2025-08-07T20:28:43Z</time>
      </trkpt>
      <trkpt lat="46.69634" lon="-1.63418">
        <ele>42</ele>
        <time>2025-08-07T20:28:45Z</time>
      </trkpt>
      <trkpt lat="46.69624" lon="-1.63424">
        <ele>42</ele>
        <time>2025-08-07T20:28:47Z</time>
      </trkpt>
      <trkpt lat="46.69617" lon="-1.63436">
        <ele>41</ele>
        <time>2025-08-07T20:28:49Z</time>
      </trkpt>
      <trkpt lat="46.69612" lon="-1.63451">
        <ele>41</ele>
        <time>2025-08-07T20:28:51Z</time>
      </trkpt>
      <trkpt lat="46.69606" lon="-1.63467">
        <ele>41</ele>
        <time>2025-08-07T20:28:53Z</time>
      </trkpt>
      <trkpt lat="46.69599" lon="-1.63479">
        <ele>41</ele>
        <time>2025-08-07T20:28:55Z</time>
      </trkpt>
      <trkpt lat="46.69588" lon="-1.63485">
        <ele>41</ele>
        <time>2025-08-07T20:28:57Z</time>
      </trkpt>
      <trkpt lat="46.69576" lon="-1.63487">
        <ele>40</ele>
        <time>2025-08-07T20:29:00Z</time>
      </trkpt>
      <trkpt lat="46.69563" lon="-1.63488">
        <ele>40</ele>
        <time>2025-08-07T20:29:02Z</time>
      </trkpt>
      <trkpt lat="46.69551" lon="-1.63493">
        <ele>39</ele>
        <time>2025-08-07T20:29:04Z</time>
      </trkpt>
      <trkpt lat="46.69542" lon="-1.63505">
        <ele>38</ele>
        <time>2025-08-07T20:29:06Z</time>
      </trkpt>
      <trkpt lat="46.69537" lon="-1.63521">
        <ele>38</ele>
        <time>2025-08-07T20:29:08Z</time>
      </trkpt>
      <trkpt lat="46.69532" lon="-1.63534">
        <ele>38</ele>
        <time>2025-08-07T20:29:10Z</time>
      </trkpt>
      <trkpt lat="46.69522" lon="-1.63541">
        <ele>37</ele>
        <time>2025-08-07T20:29:12Z</time>
      </trkpt>
      <trkpt lat="46.69509" lon="-1.63545">
        <ele>37</ele>
        <time>2025-08-07T20:29:14Z</time>
      </trkpt>
      <trkpt lat="46.69497" lon="-1.63547">
        <ele>37</ele>
        <time>2025-08-07T20:29:16Z</time>
      </trkpt>
      <trkpt lat="46.69484" lon="-1.63548">
        <ele>38</ele>
        <time>2025-08-07T20:29:18Z</time>
      </trkpt>
      <trkpt lat="46.69473" lon="-1.6355">
        <ele>38</ele>
        <time>2025-08-07T20:29:20Z</time>
      </trkpt>
      <trkpt lat="46.69462" lon="-1.63553">
        <ele>38</ele>
        <time>2025-08-07T20:29:22Z</time>
      </trkpt>
      <trkpt lat="46.69452" lon="-1.63556">
        <ele>38</ele>
        <time>2025-08-07T20:29:24Z</time>
      </trkpt>
      <trkpt lat="46.69442" lon="-1.63561">
        <ele>38</ele>
        <time>2025-08-07T20:29:26Z</time>
      </trkpt>
      <trkpt lat="46.69433" lon="-1.63569">
        <ele>38</ele>
        <time>2025-08-07T20:29:28Z</time>
      </trkpt>
      <trkpt lat="46.69424" lon="-1.63577">
        <ele>38</ele>
        <time>2025-08-07T20:29:30Z</time>
      </trkpt>
      <trkpt lat="46.69415" lon="-1.63586">
        <ele>38</ele>
        <time>2025-08-07T20:29:32Z</time>
      </trkpt>
      <trkpt lat="46.69405" lon="-1.63595">
        <ele>38</ele>
        <time>2025-08-07T20:29:34Z</time>
      </trkpt>
      <trkpt lat="46.69396" lon="-1.63605">
        <ele>38</ele>
        <time>2025-08-07T20:29:36Z</time>
      </trkpt>
      <trkpt lat="46.69386" lon="-1.63613">
        <ele>38</ele>
        <time>2025-08-07T20:29:38Z</time>
      </trkpt>
      <trkpt lat="46.69376" lon="-1.63621">
        <ele>38</ele>
        <time>2025-08-07T20:29:40Z</time>
      </trkpt>
      <trkpt lat="46.69367" lon="-1.6363">
        <ele>38</ele>
        <time>2025-08-07T20:29:42Z</time>
      </trkpt>
      <trkpt lat="46.69359" lon="-1.63637">
        <ele>38</ele>
        <time>2025-08-07T20:29:44Z</time>
      </trkpt>
      <trkpt lat="46.6935" lon="-1.63643">
        <ele>39</ele>
        <time>2025-08-07T20:29:46Z</time>
      </trkpt>
      <trkpt lat="46.69343" lon="-1.63647">
        <ele>39</ele>
        <time>2025-08-07T20:29:48Z</time>
      </trkpt>
      <trkpt lat="46.69338" lon="-1.63654">
        <ele>39</ele>
        <time>2025-08-07T20:29:52Z</time>
      </trkpt>
      <trkpt lat="46.69338" lon="-1.63665">
        <ele>39</ele>
        <time>2025-08-07T20:29:54Z</time>
      </trkpt>
      <trkpt lat="46.69339" lon="-1.63679">
        <ele>39</ele>
        <time>2025-08-07T20:29:56Z</time>
      </trkpt>
      <trkpt lat="46.69339" lon="-1.63695">
        <ele>39</ele>
        <time>2025-08-07T20:29:58Z</time>
      </trkpt>
      <trkpt lat="46.6934" lon="-1.63712">
        <ele>39</ele>
        <time>2025-08-07T20:30:00Z</time>
      </trkpt>
      <trkpt lat="46.6934" lon="-1.63729">
        <ele>39</ele>
        <time>2025-08-07T20:30:02Z</time>
      </trkpt>
      <trkpt lat="46.6934" lon="-1.63746">
        <ele>38</ele>
        <time>2025-08-07T20:30:04Z</time>
      </trkpt>
      <trkpt lat="46.6934" lon="-1.63763">
        <ele>38</ele>
        <time>2025-08-07T20:30:06Z</time>
      </trkpt>
      <trkpt lat="46.6934" lon="-1.63781">
        <ele>38</ele>
        <time>2025-08-07T20:30:08Z</time>
      </trkpt>
      <trkpt lat="46.69342" lon="-1.63799">
        <ele>38</ele>
        <time>2025-08-07T20:30:10Z</time>
      </trkpt>
      <trkpt lat="46.69344" lon="-1.63817">
        <ele>38</ele>
        <time>2025-08-07T20:30:12Z</time>
      </trkpt>
      <trkpt lat="46.69347" lon="-1.63835">
        <ele>38</ele>
        <time>2025-08-07T20:30:14Z</time>
      </trkpt>
      <trkpt lat="46.69352" lon="-1.63853">
        <ele>37</ele>
        <time>2025-08-07T20:30:16Z</time>
      </trkpt>
      <trkpt lat="46.69356" lon="-1.63871">
        <ele>37</ele>
        <time>2025-08-07T20:30:18Z</time>
      </trkpt>
      <trkpt lat="46.69359" lon="-1.6389">
        <ele>37</ele>
        <time>2025-08-07T20:30:20Z</time>
      </trkpt>
      <trkpt lat="46.69362" lon="-1.63909">
        <ele>36</ele>
        <time>2025-08-07T20:30:22Z</time>
      </trkpt>
      <trkpt lat="46.69364" lon="-1.63928">
        <ele>36</ele>
        <time>2025-08-07T20:30:24Z</time>
      </trkpt>
      <trkpt lat="46.69367" lon="-1.63948">
        <ele>36</ele>
        <time>2025-08-07T20:30:26Z</time>
      </trkpt>
      <trkpt lat="46.69369" lon="-1.63967">
        <ele>36</ele>
        <time>2025-08-07T20:30:28Z</time>
      </trkpt>
      <trkpt lat="46.69371" lon="-1.63986">
        <ele>36</ele>
        <time>2025-08-07T20:30:30Z</time>
      </trkpt>
      <trkpt lat="46.69373" lon="-1.64006">
        <ele>36</ele>
        <time>2025-08-07T20:30:32Z</time>
      </trkpt>
      <trkpt lat="46.69376" lon="-1.64025">
        <ele>36</ele>
        <time>2025-08-07T20:30:34Z</time>
      </trkpt>
      <trkpt lat="46.69379" lon="-1.64044">
        <ele>36</ele>
        <time>2025-08-07T20:30:36Z</time>
      </trkpt>
      <trkpt lat="46.69383" lon="-1.64062">
        <ele>36</ele>
        <time>2025-08-07T20:30:38Z</time>
      </trkpt>
      <trkpt lat="46.69386" lon="-1.6408">
        <ele>36</ele>
        <time>2025-08-07T20:30:40Z</time>
      </trkpt>
      <trkpt lat="46.69389" lon="-1.64099">
        <ele>36</ele>
        <time>2025-08-07T20:30:42Z</time>
      </trkpt>
      <trkpt lat="46.69393" lon="-1.64117">
        <ele>36</ele>
        <time>2025-08-07T20:30:44Z</time>
      </trkpt>
      <trkpt lat="46.69397" lon="-1.64135">
        <ele>36</ele>
        <time>2025-08-07T20:30:46Z</time>
      </trkpt>
      <trkpt lat="46.69401" lon="-1.64153">
        <ele>35</ele>
        <time>2025-08-07T20:30:48Z</time>
      </trkpt>
      <trkpt lat="46.69404" lon="-1.64172">
        <ele>36</ele>
        <time>2025-08-07T20:30:50Z</time>
      </trkpt>
      <trkpt lat="46.69408" lon="-1.6419">
        <ele>36</ele>
        <time>2025-08-07T20:30:52Z</time>
      </trkpt>
      <trkpt lat="46.69413" lon="-1.64207">
        <ele>36</ele>
        <time>2025-08-07T20:30:54Z</time>
      </trkpt>
      <trkpt lat="46.69423" lon="-1.64231">
        <ele>35</ele>
        <time>2025-08-07T20:30:56Z</time>
      </trkpt>
      <trkpt lat="46.69432" lon="-1.6425">
        <ele>35</ele>
        <time>2025-08-07T20:30:58Z</time>
      </trkpt>
      <trkpt lat="46.6944" lon="-1.64267">
        <ele>35</ele>
        <time>2025-08-07T20:31:00Z</time>
      </trkpt>
      <trkpt lat="46.69447" lon="-1.64284">
        <ele>34</ele>
        <time>2025-08-07T20:31:02Z</time>
      </trkpt>
      <trkpt lat="46.69454" lon="-1.64301">
        <ele>34</ele>
        <time>2025-08-07T20:31:04Z</time>
      </trkpt>
      <trkpt lat="46.69461" lon="-1.64318">
        <ele>34</ele>
        <time>2025-08-07T20:31:06Z</time>
      </trkpt>
      <trkpt lat="46.69468" lon="-1.64334">
        <ele>33</ele>
        <time>2025-08-07T20:31:08Z</time>
      </trkpt>
      <trkpt lat="46.69475" lon="-1.64351">
        <ele>33</ele>
        <time>2025-08-07T20:31:10Z</time>
      </trkpt>
      <trkpt lat="46.69478" lon="-1.64369">
        <ele>33</ele>
        <time>2025-08-07T20:31:12Z</time>
      </trkpt>
      <trkpt lat="46.69476" lon="-1.64388">
        <ele>33</ele>
        <time>2025-08-07T20:31:14Z</time>
      </trkpt>
      <trkpt lat="46.69471" lon="-1.64405">
        <ele>32</ele>
        <time>2025-08-07T20:31:16Z</time>
      </trkpt>
      <trkpt lat="46.69465" lon="-1.6442">
        <ele>33</ele>
        <time>2025-08-07T20:31:18Z</time>
      </trkpt>
      <trkpt lat="46.6946" lon="-1.64434">
        <ele>33</ele>
        <time>2025-08-07T20:31:20Z</time>
      </trkpt>
      <trkpt lat="46.69462" lon="-1.64444">
        <ele>33</ele>
        <time>2025-08-07T20:31:23Z</time>
      </trkpt>
      <trkpt lat="46.69471" lon="-1.64452">
        <ele>33</ele>
        <time>2025-08-07T20:31:25Z</time>
      </trkpt>
      <trkpt lat="46.69482" lon="-1.64457">
        <ele>33</ele>
        <time>2025-08-07T20:31:27Z</time>
      </trkpt>
      <trkpt lat="46.69495" lon="-1.64463">
        <ele>32</ele>
        <time>2025-08-07T20:31:29Z</time>
      </trkpt>
      <trkpt lat="46.69508" lon="-1.64471">
        <ele>32</ele>
        <time>2025-08-07T20:31:31Z</time>
      </trkpt>
      <trkpt lat="46.69521" lon="-1.64481">
        <ele>32</ele>
        <time>2025-08-07T20:31:33Z</time>
      </trkpt>
      <trkpt lat="46.69534" lon="-1.64491">
        <ele>31</ele>
        <time>2025-08-07T20:31:35Z</time>
      </trkpt>
      <trkpt lat="46.69542" lon="-1.64507">
        <ele>30</ele>
        <time>2025-08-07T20:31:37Z</time>
      </trkpt>
      <trkpt lat="46.69542" lon="-1.64527">
        <ele>29</ele>
        <time>2025-08-07T20:31:39Z</time>
      </trkpt>
      <trkpt lat="46.69538" lon="-1.64547">
        <ele>29</ele>
        <time>2025-08-07T20:31:41Z</time>
      </trkpt>
      <trkpt lat="46.69534" lon="-1.64567">
        <ele>30</ele>
        <time>2025-08-07T20:31:43Z</time>
      </trkpt>
      <trkpt lat="46.69531" lon="-1.64585">
        <ele>30</ele>
        <time>2025-08-07T20:31:45Z</time>
      </trkpt>
      <trkpt lat="46.69528" lon="-1.64602">
        <ele>31</ele>
        <time>2025-08-07T20:31:47Z</time>
      </trkpt>
      <trkpt lat="46.69526" lon="-1.6462">
        <ele>31</ele>
        <time>2025-08-07T20:31:49Z</time>
      </trkpt>
      <trkpt lat="46.69523" lon="-1.64637">
        <ele>32</ele>
        <time>2025-08-07T20:31:51Z</time>
      </trkpt>
      <trkpt lat="46.69521" lon="-1.64654">
        <ele>32</ele>
        <time>2025-08-07T20:31:53Z</time>
      </trkpt>
      <trkpt lat="46.69519" lon="-1.64671">
        <ele>32</ele>
        <time>2025-08-07T20:31:55Z</time>
      </trkpt>
      <trkpt lat="46.69516" lon="-1.64689">
        <ele>33</ele>
        <time>2025-08-07T20:31:57Z</time>
      </trkpt>
      <trkpt lat="46.69514" lon="-1.64707">
        <ele>33</ele>
        <time>2025-08-07T20:31:59Z</time>
      </trkpt>
      <trkpt lat="46.69511" lon="-1.64725">
        <ele>33</ele>
        <time>2025-08-07T20:32:01Z</time>
      </trkpt>
      <trkpt lat="46.69509" lon="-1.64743">
        <ele>33</ele>
        <time>2025-08-07T20:32:03Z</time>
      </trkpt>
      <trkpt lat="46.69505" lon="-1.6476">
        <ele>33</ele>
        <time>2025-08-07T20:32:05Z</time>
      </trkpt>
      <trkpt lat="46.69499" lon="-1.64777">
        <ele>33</ele>
        <time>2025-08-07T20:32:07Z</time>
      </trkpt>
      <trkpt lat="46.6949" lon="-1.64789">
        <ele>33</ele>
        <time>2025-08-07T20:32:09Z</time>
      </trkpt>
      <trkpt lat="46.69479" lon="-1.64796">
        <ele>33</ele>
        <time>2025-08-07T20:32:11Z</time>
      </trkpt>
      <trkpt lat="46.69466" lon="-1.64801">
        <ele>33</ele>
        <time>2025-08-07T20:32:13Z</time>
      </trkpt>
      <trkpt lat="46.69458" lon="-1.64813">
        <ele>33</ele>
        <time>2025-08-07T20:32:15Z</time>
      </trkpt>
      <trkpt lat="46.69453" lon="-1.64829">
        <ele>33</ele>
        <time>2025-08-07T20:32:17Z</time>
      </trkpt>
      <trkpt lat="46.69449" lon="-1.64847">
        <ele>33</ele>
        <time>2025-08-07T20:32:19Z</time>
      </trkpt>
      <trkpt lat="46.69445" lon="-1.64865">
        <ele>33</ele>
        <time>2025-08-07T20:32:21Z</time>
      </trkpt>
      <trkpt lat="46.6944" lon="-1.64881">
        <ele>33</ele>
        <time>2025-08-07T20:32:23Z</time>
      </trkpt>
      <trkpt lat="46.69435" lon="-1.64897">
        <ele>33</ele>
        <time>2025-08-07T20:32:25Z</time>
      </trkpt>
      <trkpt lat="46.6943" lon="-1.64913">
        <ele>33</ele>
        <time>2025-08-07T20:32:27Z</time>
      </trkpt>
      <trkpt lat="46.69424" lon="-1.64929">
        <ele>32</ele>
        <time>2025-08-07T20:32:29Z</time>
      </trkpt>
      <trkpt lat="46.69419" lon="-1.64946">
        <ele>32</ele>
        <time>2025-08-07T20:32:31Z</time>
      </trkpt>
      <trkpt lat="46.69413" lon="-1.64964">
        <ele>31</ele>
        <time>2025-08-07T20:32:33Z</time>
      </trkpt>
      <trkpt lat="46.69408" lon="-1.64982">
        <ele>30</ele>
        <time>2025-08-07T20:32:35Z</time>
      </trkpt>
      <trkpt lat="46.69402" lon="-1.65002">
        <ele>29</ele>
        <time>2025-08-07T20:32:37Z</time>
      </trkpt>
      <trkpt lat="46.69395" lon="-1.65022">
        <ele>28</ele>
        <time>2025-08-07T20:32:39Z</time>
      </trkpt>
      <trkpt lat="46.69389" lon="-1.65043">
        <ele>27</ele>
        <time>2025-08-07T20:32:41Z</time>
      </trkpt>
      <trkpt lat="46.69383" lon="-1.65064">
        <ele>26</ele>
        <time>2025-08-07T20:32:43Z</time>
      </trkpt>
      <trkpt lat="46.69376" lon="-1.65084">
        <ele>26</ele>
        <time>2025-08-07T20:32:45Z</time>
      </trkpt>
      <trkpt lat="46.69371" lon="-1.65103">
        <ele>26</ele>
        <time>2025-08-07T20:32:47Z</time>
      </trkpt>
      <trkpt lat="46.69365" lon="-1.6512">
        <ele>26</ele>
        <time>2025-08-07T20:32:49Z</time>
      </trkpt>
      <trkpt lat="46.6936" lon="-1.65136">
        <ele>27</ele>
        <time>2025-08-07T20:32:51Z</time>
      </trkpt>
      <trkpt lat="46.69355" lon="-1.65153">
        <ele>27</ele>
        <time>2025-08-07T20:32:53Z</time>
      </trkpt>
      <trkpt lat="46.6935" lon="-1.65168">
        <ele>27</ele>
        <time>2025-08-07T20:32:55Z</time>
      </trkpt>
      <trkpt lat="46.69346" lon="-1.65183">
        <ele>28</ele>
        <time>2025-08-07T20:32:57Z</time>
      </trkpt>
      <trkpt lat="46.69341" lon="-1.65197">
        <ele>29</ele>
        <time>2025-08-07T20:32:59Z</time>
      </trkpt>
      <trkpt lat="46.69337" lon="-1.6521">
        <ele>29</ele>
        <time>2025-08-07T20:33:01Z</time>
      </trkpt>
      <trkpt lat="46.69332" lon="-1.65222">
        <ele>29</ele>
        <time>2025-08-07T20:33:03Z</time>
      </trkpt>
      <trkpt lat="46.69326" lon="-1.65234">
        <ele>30</ele>
        <time>2025-08-07T20:33:05Z</time>
      </trkpt>
      <trkpt lat="46.6932" lon="-1.65246">
        <ele>30</ele>
        <time>2025-08-07T20:33:07Z</time>
      </trkpt>
      <trkpt lat="46.69314" lon="-1.65258">
        <ele>30</ele>
        <time>2025-08-07T20:33:09Z</time>
      </trkpt>
      <trkpt lat="46.69306" lon="-1.65273">
        <ele>30</ele>
        <time>2025-08-07T20:33:11Z</time>
      </trkpt>
      <trkpt lat="46.69298" lon="-1.65288">
        <ele>31</ele>
        <time>2025-08-07T20:33:13Z</time>
      </trkpt>
      <trkpt lat="46.69291" lon="-1.65301">
        <ele>31</ele>
        <time>2025-08-07T20:33:15Z</time>
      </trkpt>
      <trkpt lat="46.69285" lon="-1.65313">
        <ele>31</ele>
        <time>2025-08-07T20:33:17Z</time>
      </trkpt>
      <trkpt lat="46.6928" lon="-1.65324">
        <ele>32</ele>
        <time>2025-08-07T20:33:19Z</time>
      </trkpt>
      <trkpt lat="46.69273" lon="-1.65336">
        <ele>32</ele>
        <time>2025-08-07T20:33:21Z</time>
      </trkpt>
      <trkpt lat="46.69268" lon="-1.65347">
        <ele>32</ele>
        <time>2025-08-07T20:33:23Z</time>
      </trkpt>
      <trkpt lat="46.69262" lon="-1.65359">
        <ele>32</ele>
        <time>2025-08-07T20:33:25Z</time>
      </trkpt>
      <trkpt lat="46.69257" lon="-1.6537">
        <ele>32</ele>
        <time>2025-08-07T20:33:27Z</time>
      </trkpt>
      <trkpt lat="46.69256" lon="-1.65382">
        <ele>33</ele>
        <time>2025-08-07T20:33:29Z</time>
      </trkpt>
      <trkpt lat="46.69258" lon="-1.65398">
        <ele>33</ele>
        <time>2025-08-07T20:33:31Z</time>
      </trkpt>
      <trkpt lat="46.69259" lon="-1.65413">
        <ele>32</ele>
        <time>2025-08-07T20:33:33Z</time>
      </trkpt>
      <trkpt lat="46.69259" lon="-1.6543">
        <ele>32</ele>
        <time>2025-08-07T20:33:35Z</time>
      </trkpt>
      <trkpt lat="46.69259" lon="-1.65446">
        <ele>32</ele>
        <time>2025-08-07T20:33:37Z</time>
      </trkpt>
      <trkpt lat="46.69259" lon="-1.65463">
        <ele>32</ele>
        <time>2025-08-07T20:33:39Z</time>
      </trkpt>
      <trkpt lat="46.6926" lon="-1.65479">
        <ele>32</ele>
        <time>2025-08-07T20:33:41Z</time>
      </trkpt>
      <trkpt lat="46.6926" lon="-1.65496">
        <ele>32</ele>
        <time>2025-08-07T20:33:43Z</time>
      </trkpt>
      <trkpt lat="46.69259" lon="-1.65514">
        <ele>32</ele>
        <time>2025-08-07T20:33:46Z</time>
      </trkpt>
      <trkpt lat="46.6926" lon="-1.6553">
        <ele>32</ele>
        <time>2025-08-07T20:33:48Z</time>
      </trkpt>
      <trkpt lat="46.69262" lon="-1.65546">
        <ele>32</ele>
        <time>2025-08-07T20:33:50Z</time>
      </trkpt>
      <trkpt lat="46.69263" lon="-1.65563">
        <ele>32</ele>
        <time>2025-08-07T20:33:52Z</time>
      </trkpt>
      <trkpt lat="46.69264" lon="-1.65579">
        <ele>32</ele>
        <time>2025-08-07T20:33:54Z</time>
      </trkpt>
      <trkpt lat="46.69265" lon="-1.65596">
        <ele>32</ele>
        <time>2025-08-07T20:33:56Z</time>
      </trkpt>
      <trkpt lat="46.69265" lon="-1.65613">
        <ele>32</ele>
        <time>2025-08-07T20:33:58Z</time>
      </trkpt>
      <trkpt lat="46.69265" lon="-1.6563">
        <ele>32</ele>
        <time>2025-08-07T20:34:00Z</time>
      </trkpt>
      <trkpt lat="46.69266" lon="-1.65647">
        <ele>31</ele>
        <time>2025-08-07T20:34:02Z</time>
      </trkpt>
      <trkpt lat="46.69267" lon="-1.65664">
        <ele>31</ele>
        <time>2025-08-07T20:34:04Z</time>
      </trkpt>
      <trkpt lat="46.69268" lon="-1.6568">
        <ele>31</ele>
        <time>2025-08-07T20:34:06Z</time>
      </trkpt>
      <trkpt lat="46.69268" lon="-1.65696">
        <ele>31</ele>
        <time>2025-08-07T20:34:08Z</time>
      </trkpt>
      <trkpt lat="46.69267" lon="-1.65712">
        <ele>31</ele>
        <time>2025-08-07T20:34:10Z</time>
      </trkpt>
      <trkpt lat="46.69267" lon="-1.65726">
        <ele>31</ele>
        <time>2025-08-07T20:34:12Z</time>
      </trkpt>
      <trkpt lat="46.69268" lon="-1.6574">
        <ele>31</ele>
        <time>2025-08-07T20:34:14Z</time>
      </trkpt>
      <trkpt lat="46.6927" lon="-1.65754">
        <ele>31</ele>
        <time>2025-08-07T20:34:16Z</time>
      </trkpt>
      <trkpt lat="46.69273" lon="-1.6577">
        <ele>31</ele>
        <time>2025-08-07T20:34:18Z</time>
      </trkpt>
      <trkpt lat="46.69275" lon="-1.65786">
        <ele>31</ele>
        <time>2025-08-07T20:34:20Z</time>
      </trkpt>
      <trkpt lat="46.69275" lon="-1.65802">
        <ele>31</ele>
        <time>2025-08-07T20:34:22Z</time>
      </trkpt>
      <trkpt lat="46.69276" lon="-1.65818">
        <ele>30</ele>
        <time>2025-08-07T20:34:24Z</time>
      </trkpt>
      <trkpt lat="46.69277" lon="-1.65834">
        <ele>30</ele>
        <time>2025-08-07T20:34:26Z</time>
      </trkpt>
      <trkpt lat="46.69278" lon="-1.6585">
        <ele>30</ele>
        <time>2025-08-07T20:34:28Z</time>
      </trkpt>
      <trkpt lat="46.69279" lon="-1.65868">
        <ele>29</ele>
        <time>2025-08-07T20:34:30Z</time>
      </trkpt>
      <trkpt lat="46.6928" lon="-1.65886">
        <ele>28</ele>
        <time>2025-08-07T20:34:32Z</time>
      </trkpt>
      <trkpt lat="46.69276" lon="-1.65901">
        <ele>28</ele>
        <time>2025-08-07T20:34:34Z</time>
      </trkpt>
      <trkpt lat="46.69267" lon="-1.65911">
        <ele>27</ele>
        <time>2025-08-07T20:34:36Z</time>
      </trkpt>
      <trkpt lat="46.69258" lon="-1.65916">
        <ele>27</ele>
        <time>2025-08-07T20:34:38Z</time>
      </trkpt>
      <trkpt lat="46.69249" lon="-1.6592">
        <ele>27</ele>
        <time>2025-08-07T20:34:40Z</time>
      </trkpt>
      <trkpt lat="46.69239" lon="-1.65927">
        <ele>27</ele>
        <time>2025-08-07T20:34:42Z</time>
      </trkpt>
      <trkpt lat="46.69231" lon="-1.65933">
        <ele>27</ele>
        <time>2025-08-07T20:34:44Z</time>
      </trkpt>
      <trkpt lat="46.69223" lon="-1.6594">
        <ele>26</ele>
        <time>2025-08-07T20:34:46Z</time>
      </trkpt>
      <trkpt lat="46.69213" lon="-1.65948">
        <ele>26</ele>
        <time>2025-08-07T20:34:48Z</time>
      </trkpt>
      <trkpt lat="46.69203" lon="-1.65956">
        <ele>26</ele>
        <time>2025-08-07T20:34:50Z</time>
      </trkpt>
      <trkpt lat="46.69193" lon="-1.65962">
        <ele>26</ele>
        <time>2025-08-07T20:34:52Z</time>
      </trkpt>
      <trkpt lat="46.69183" lon="-1.65967">
        <ele>26</ele>
        <time>2025-08-07T20:34:54Z</time>
      </trkpt>
      <trkpt lat="46.69172" lon="-1.65973">
        <ele>26</ele>
        <time>2025-08-07T20:34:56Z</time>
      </trkpt>
      <trkpt lat="46.6916" lon="-1.65979">
        <ele>26</ele>
        <time>2025-08-07T20:34:58Z</time>
      </trkpt>
      <trkpt lat="46.69148" lon="-1.65985">
        <ele>26</ele>
        <time>2025-08-07T20:35:00Z</time>
      </trkpt>
      <trkpt lat="46.69138" lon="-1.65992">
        <ele>26</ele>
        <time>2025-08-07T20:35:02Z</time>
      </trkpt>
      <trkpt lat="46.69131" lon="-1.66001">
        <ele>26</ele>
        <time>2025-08-07T20:35:04Z</time>
      </trkpt>
      <trkpt lat="46.69123" lon="-1.66012">
        <ele>26</ele>
        <time>2025-08-07T20:35:06Z</time>
      </trkpt>
      <trkpt lat="46.69114" lon="-1.66023">
        <ele>26</ele>
        <time>2025-08-07T20:35:08Z</time>
      </trkpt>
      <trkpt lat="46.69104" lon="-1.66031">
        <ele>26</ele>
        <time>2025-08-07T20:35:10Z</time>
      </trkpt>
      <trkpt lat="46.69092" lon="-1.66039">
        <ele>25</ele>
        <time>2025-08-07T20:35:12Z</time>
      </trkpt>
      <trkpt lat="46.69076" lon="-1.66045">
        <ele>25</ele>
        <time>2025-08-07T20:35:14Z</time>
      </trkpt>
      <trkpt lat="46.69061" lon="-1.6605">
        <ele>25</ele>
        <time>2025-08-07T20:35:16Z</time>
      </trkpt>
      <trkpt lat="46.69049" lon="-1.66055">
        <ele>25</ele>
        <time>2025-08-07T20:35:18Z</time>
      </trkpt>
      <trkpt lat="46.69036" lon="-1.66061">
        <ele>24</ele>
        <time>2025-08-07T20:35:20Z</time>
      </trkpt>
      <trkpt lat="46.69024" lon="-1.66068">
        <ele>24</ele>
        <time>2025-08-07T20:35:22Z</time>
      </trkpt>
      <trkpt lat="46.69016" lon="-1.66078">
        <ele>23</ele>
        <time>2025-08-07T20:35:24Z</time>
      </trkpt>
      <trkpt lat="46.69015" lon="-1.66092">
        <ele>23</ele>
        <time>2025-08-07T20:35:26Z</time>
      </trkpt>
      <trkpt lat="46.69021" lon="-1.6611">
        <ele>22</ele>
        <time>2025-08-07T20:35:28Z</time>
      </trkpt>
      <trkpt lat="46.69029" lon="-1.6613">
        <ele>21</ele>
        <time>2025-08-07T20:35:30Z</time>
      </trkpt>
      <trkpt lat="46.69038" lon="-1.66149">
        <ele>20</ele>
        <time>2025-08-07T20:35:32Z</time>
      </trkpt>
      <trkpt lat="46.69045" lon="-1.66165">
        <ele>18</ele>
        <time>2025-08-07T20:35:34Z</time>
      </trkpt>
      <trkpt lat="46.69046" lon="-1.66179">
        <ele>18</ele>
        <time>2025-08-07T20:35:36Z</time>
      </trkpt>
      <trkpt lat="46.69042" lon="-1.66191">
        <ele>17</ele>
        <time>2025-08-07T20:35:38Z</time>
      </trkpt>
      <trkpt lat="46.69037" lon="-1.66203">
        <ele>17</ele>
        <time>2025-08-07T20:35:40Z</time>
      </trkpt>
      <trkpt lat="46.6903" lon="-1.66215">
        <ele>17</ele>
        <time>2025-08-07T20:35:42Z</time>
      </trkpt>
      <trkpt lat="46.69025" lon="-1.66225">
        <ele>17</ele>
        <time>2025-08-07T20:35:44Z</time>
      </trkpt>
      <trkpt lat="46.69022" lon="-1.66231">
        <ele>17</ele>
        <time>2025-08-07T20:35:48Z</time>
      </trkpt>
      <trkpt lat="46.69018" lon="-1.66237">
        <ele>18</ele>
        <time>2025-08-07T20:35:56Z</time>
      </trkpt>
      <trkpt lat="46.69014" lon="-1.66241">
        <ele>18</ele>
        <time>2025-08-07T20:36:01Z</time>
      </trkpt>
      <trkpt lat="46.69013" lon="-1.66249">
        <ele>17</ele>
        <time>2025-08-07T20:36:09Z</time>
      </trkpt>
      <trkpt lat="46.69016" lon="-1.66256">
        <ele>17</ele>
        <time>2025-08-07T20:36:11Z</time>
      </trkpt>
      <trkpt lat="46.69017" lon="-1.66267">
        <ele>17</ele>
        <time>2025-08-07T20:36:13Z</time>
      </trkpt>
      <trkpt lat="46.69016" lon="-1.66279">
        <ele>17</ele>
        <time>2025-08-07T20:36:15Z</time>
      </trkpt>
      <trkpt lat="46.69013" lon="-1.6629">
        <ele>17</ele>
        <time>2025-08-07T20:36:17Z</time>
      </trkpt>
      <trkpt lat="46.69008" lon="-1.66292">
        <ele>17</ele>
        <time>2025-08-07T20:36:19Z</time>
      </trkpt>
      <trkpt lat="46.69002" lon="-1.66286">
        <ele>17</ele>
        <time>2025-08-07T20:36:21Z</time>
      </trkpt>
      <trkpt lat="46.68996" lon="-1.66275">
        <ele>17</ele>
        <time>2025-08-07T20:36:23Z</time>
      </trkpt>
      <trkpt lat="46.6899" lon="-1.66266">
        <ele>17</ele>
        <time>2025-08-07T20:36:25Z</time>
      </trkpt>
      <trkpt lat="46.68984" lon="-1.66256">
        <ele>18</ele>
        <time>2025-08-07T20:36:27Z</time>
      </trkpt>
      <trkpt lat="46.68979" lon="-1.66247">
        <ele>18</ele>
        <time>2025-08-07T20:36:29Z</time>
      </trkpt>
      <trkpt lat="46.68974" lon="-1.66237">
        <ele>18</ele>
        <time>2025-08-07T20:36:31Z</time>
      </trkpt>
      <trkpt lat="46.68969" lon="-1.66227">
        <ele>18</ele>
        <time>2025-08-07T20:36:33Z</time>
      </trkpt>
      <trkpt lat="46.68963" lon="-1.66219">
        <ele>18</ele>
        <time>2025-08-07T20:36:35Z</time>
      </trkpt>
      <trkpt lat="46.68957" lon="-1.66213">
        <ele>18</ele>
        <time>2025-08-07T20:36:37Z</time>
      </trkpt>
      <trkpt lat="46.68952" lon="-1.66208">
        <ele>18</ele>
        <time>2025-08-07T20:36:39Z</time>
      </trkpt>
      <trkpt lat="46.68947" lon="-1.66205">
        <ele>19</ele>
        <time>2025-08-07T20:36:41Z</time>
      </trkpt>
      <trkpt lat="46.68941" lon="-1.66201">
        <ele>19</ele>
        <time>2025-08-07T20:36:43Z</time>
      </trkpt>
      <trkpt lat="46.68934" lon="-1.66197">
        <ele>19</ele>
        <time>2025-08-07T20:36:45Z</time>
      </trkpt>
      <trkpt lat="46.68925" lon="-1.66193">
        <ele>20</ele>
        <time>2025-08-07T20:36:47Z</time>
      </trkpt>
      <trkpt lat="46.68918" lon="-1.6619">
        <ele>20</ele>
        <time>2025-08-07T20:36:49Z</time>
      </trkpt>
      <trkpt lat="46.68911" lon="-1.66187">
        <ele>20</ele>
        <time>2025-08-07T20:36:51Z</time>
      </trkpt>
      <trkpt lat="46.68904" lon="-1.66184">
        <ele>21</ele>
        <time>2025-08-07T20:36:53Z</time>
      </trkpt>
      <trkpt lat="46.68896" lon="-1.66182">
        <ele>21</ele>
        <time>2025-08-07T20:36:55Z</time>
      </trkpt>
      <trkpt lat="46.68888" lon="-1.66181">
        <ele>22</ele>
        <time>2025-08-07T20:36:57Z</time>
      </trkpt>
      <trkpt lat="46.6888" lon="-1.6618">
        <ele>22</ele>
        <time>2025-08-07T20:36:59Z</time>
      </trkpt>
      <trkpt lat="46.68873" lon="-1.66178">
        <ele>23</ele>
        <time>2025-08-07T20:37:01Z</time>
      </trkpt>
      <trkpt lat="46.68866" lon="-1.66175">
        <ele>23</ele>
        <time>2025-08-07T20:37:03Z</time>
      </trkpt>
      <trkpt lat="46.6886" lon="-1.66171">
        <ele>24</ele>
        <time>2025-08-07T20:37:05Z</time>
      </trkpt>
      <trkpt lat="46.68855" lon="-1.66165">
        <ele>24</ele>
        <time>2025-08-07T20:37:07Z</time>
      </trkpt>
      <trkpt lat="46.68848" lon="-1.66159">
        <ele>25</ele>
        <time>2025-08-07T20:37:09Z</time>
      </trkpt>
      <trkpt lat="46.68843" lon="-1.66153">
        <ele>25</ele>
        <time>2025-08-07T20:37:11Z</time>
      </trkpt>
      <trkpt lat="46.68837" lon="-1.66146">
        <ele>26</ele>
        <time>2025-08-07T20:37:13Z</time>
      </trkpt>
      <trkpt lat="46.6883" lon="-1.66138">
        <ele>26</ele>
        <time>2025-08-07T20:37:15Z</time>
      </trkpt>
      <trkpt lat="46.68823" lon="-1.66131">
        <ele>26</ele>
        <time>2025-08-07T20:37:17Z</time>
      </trkpt>
      <trkpt lat="46.68817" lon="-1.66124">
        <ele>27</ele>
        <time>2025-08-07T20:37:19Z</time>
      </trkpt>
      <trkpt lat="46.68809" lon="-1.66117">
        <ele>27</ele>
        <time>2025-08-07T20:37:21Z</time>
      </trkpt>
      <trkpt lat="46.68802" lon="-1.66111">
        <ele>27</ele>
        <time>2025-08-07T20:37:23Z</time>
      </trkpt>
      <trkpt lat="46.68797" lon="-1.66105">
        <ele>27</ele>
        <time>2025-08-07T20:37:25Z</time>
      </trkpt>
      <trkpt lat="46.68792" lon="-1.661">
        <ele>28</ele>
        <time>2025-08-07T20:37:27Z</time>
      </trkpt>
      <trkpt lat="46.68784" lon="-1.66094">
        <ele>28</ele>
        <time>2025-08-07T20:37:29Z</time>
      </trkpt>
      <trkpt lat="46.68775" lon="-1.6609">
        <ele>28</ele>
        <time>2025-08-07T20:37:31Z</time>
      </trkpt>
      <trkpt lat="46.68765" lon="-1.66087">
        <ele>29</ele>
        <time>2025-08-07T20:37:33Z</time>
      </trkpt>
      <trkpt lat="46.68755" lon="-1.66084">
        <ele>29</ele>
        <time>2025-08-07T20:37:35Z</time>
      </trkpt>
      <trkpt lat="46.68747" lon="-1.66082">
        <ele>29</ele>
        <time>2025-08-07T20:37:37Z</time>
      </trkpt>
      <trkpt lat="46.68739" lon="-1.6608">
        <ele>30</ele>
        <time>2025-08-07T20:37:39Z</time>
      </trkpt>
      <trkpt lat="46.68731" lon="-1.66078">
        <ele>30</ele>
        <time>2025-08-07T20:37:41Z</time>
      </trkpt>
      <trkpt lat="46.68723" lon="-1.66076">
        <ele>30</ele>
        <time>2025-08-07T20:37:43Z</time>
      </trkpt>
      <trkpt lat="46.68714" lon="-1.66074">
        <ele>30</ele>
        <time>2025-08-07T20:37:45Z</time>
      </trkpt>
      <trkpt lat="46.68705" lon="-1.66073">
        <ele>30</ele>
        <time>2025-08-07T20:37:47Z</time>
      </trkpt>
      <trkpt lat="46.68697" lon="-1.66071">
        <ele>31</ele>
        <time>2025-08-07T20:37:49Z</time>
      </trkpt>
      <trkpt lat="46.68689" lon="-1.6607">
        <ele>31</ele>
        <time>2025-08-07T20:37:51Z</time>
      </trkpt>
      <trkpt lat="46.68681" lon="-1.66068">
        <ele>31</ele>
        <time>2025-08-07T20:37:53Z</time>
      </trkpt>
      <trkpt lat="46.68673" lon="-1.66066">
        <ele>31</ele>
        <time>2025-08-07T20:37:55Z</time>
      </trkpt>
      <trkpt lat="46.68661" lon="-1.66062">
        <ele>31</ele>
        <time>2025-08-07T20:37:57Z</time>
      </trkpt>
      <trkpt lat="46.68653" lon="-1.6606">
        <ele>31</ele>
        <time>2025-08-07T20:37:59Z</time>
      </trkpt>
      <trkpt lat="46.68645" lon="-1.66058">
        <ele>31</ele>
        <time>2025-08-07T20:38:01Z</time>
      </trkpt>
      <trkpt lat="46.68638" lon="-1.66057">
        <ele>32</ele>
        <time>2025-08-07T20:38:03Z</time>
      </trkpt>
      <trkpt lat="46.68631" lon="-1.66056">
        <ele>32</ele>
        <time>2025-08-07T20:38:05Z</time>
      </trkpt>
      <trkpt lat="46.68624" lon="-1.66055">
        <ele>32</ele>
        <time>2025-08-07T20:38:07Z</time>
      </trkpt>
      <trkpt lat="46.68617" lon="-1.66055">
        <ele>32</ele>
        <time>2025-08-07T20:38:09Z</time>
      </trkpt>
      <trkpt lat="46.68609" lon="-1.66058">
        <ele>32</ele>
        <time>2025-08-07T20:38:11Z</time>
      </trkpt>
      <trkpt lat="46.68605" lon="-1.66068">
        <ele>31</ele>
        <time>2025-08-07T20:38:13Z</time>
      </trkpt>
      <trkpt lat="46.68604" lon="-1.66083">
        <ele>31</ele>
        <time>2025-08-07T20:38:15Z</time>
      </trkpt>
      <trkpt lat="46.68604" lon="-1.661">
        <ele>31</ele>
        <time>2025-08-07T20:38:17Z</time>
      </trkpt>
      <trkpt lat="46.68604" lon="-1.66116">
        <ele>30</ele>
        <time>2025-08-07T20:38:19Z</time>
      </trkpt>
      <trkpt lat="46.68603" lon="-1.66132">
        <ele>30</ele>
        <time>2025-08-07T20:38:21Z</time>
      </trkpt>
      <trkpt lat="46.68601" lon="-1.6615">
        <ele>30</ele>
        <time>2025-08-07T20:38:23Z</time>
      </trkpt>
      <trkpt lat="46.68599" lon="-1.66169">
        <ele>29</ele>
        <time>2025-08-07T20:38:25Z</time>
      </trkpt>
      <trkpt lat="46.68596" lon="-1.66188">
        <ele>29</ele>
        <time>2025-08-07T20:38:27Z</time>
      </trkpt>
      <trkpt lat="46.68593" lon="-1.66206">
        <ele>28</ele>
        <time>2025-08-07T20:38:30Z</time>
      </trkpt>
      <trkpt lat="46.6859" lon="-1.66224">
        <ele>27</ele>
        <time>2025-08-07T20:38:32Z</time>
      </trkpt>
      <trkpt lat="46.68587" lon="-1.66244">
        <ele>26</ele>
        <time>2025-08-07T20:38:34Z</time>
      </trkpt>
      <trkpt lat="46.68584" lon="-1.66265">
        <ele>26</ele>
        <time>2025-08-07T20:38:36Z</time>
      </trkpt>
      <trkpt lat="46.68581" lon="-1.66287">
        <ele>25</ele>
        <time>2025-08-07T20:38:38Z</time>
      </trkpt>
      <trkpt lat="46.68579" lon="-1.66309">
        <ele>25</ele>
        <time>2025-08-07T20:38:40Z</time>
      </trkpt>
      <trkpt lat="46.6858" lon="-1.66332">
        <ele>24</ele>
        <time>2025-08-07T20:38:42Z</time>
      </trkpt>
      <trkpt lat="46.68582" lon="-1.66355">
        <ele>23</ele>
        <time>2025-08-07T20:38:44Z</time>
      </trkpt>
      <trkpt lat="46.68585" lon="-1.66376">
        <ele>23</ele>
        <time>2025-08-07T20:38:46Z</time>
      </trkpt>
      <trkpt lat="46.68586" lon="-1.66395">
        <ele>23</ele>
        <time>2025-08-07T20:38:48Z</time>
      </trkpt>
      <trkpt lat="46.68584" lon="-1.66412">
        <ele>23</ele>
        <time>2025-08-07T20:38:50Z</time>
      </trkpt>
      <trkpt lat="46.68585" lon="-1.66429">
        <ele>23</ele>
        <time>2025-08-07T20:38:52Z</time>
      </trkpt>
      <trkpt lat="46.68592" lon="-1.66443">
        <ele>23</ele>
        <time>2025-08-07T20:38:54Z</time>
      </trkpt>
      <trkpt lat="46.68604" lon="-1.66452">
        <ele>23</ele>
        <time>2025-08-07T20:38:56Z</time>
      </trkpt>
      <trkpt lat="46.68618" lon="-1.66458">
        <ele>23</ele>
        <time>2025-08-07T20:38:58Z</time>
      </trkpt>
      <trkpt lat="46.68633" lon="-1.66461">
        <ele>23</ele>
        <time>2025-08-07T20:39:00Z</time>
      </trkpt>
      <trkpt lat="46.68647" lon="-1.66465">
        <ele>23</ele>
        <time>2025-08-07T20:39:02Z</time>
      </trkpt>
      <trkpt lat="46.6866" lon="-1.6647">
        <ele>23</ele>
        <time>2025-08-07T20:39:04Z</time>
      </trkpt>
      <trkpt lat="46.68673" lon="-1.66474">
        <ele>23</ele>
        <time>2025-08-07T20:39:06Z</time>
      </trkpt>
      <trkpt lat="46.68687" lon="-1.66478">
        <ele>23</ele>
        <time>2025-08-07T20:39:08Z</time>
      </trkpt>
      <trkpt lat="46.687" lon="-1.66481">
        <ele>23</ele>
        <time>2025-08-07T20:39:10Z</time>
      </trkpt>
      <trkpt lat="46.68714" lon="-1.66483">
        <ele>23</ele>
        <time>2025-08-07T20:39:12Z</time>
      </trkpt>
      <trkpt lat="46.68728" lon="-1.66487">
        <ele>22</ele>
        <time>2025-08-07T20:39:14Z</time>
      </trkpt>
      <trkpt lat="46.68741" lon="-1.66494">
        <ele>22</ele>
        <time>2025-08-07T20:39:16Z</time>
      </trkpt>
      <trkpt lat="46.68752" lon="-1.66506">
        <ele>22</ele>
        <time>2025-08-07T20:39:18Z</time>
      </trkpt>
      <trkpt lat="46.6876" lon="-1.66523">
        <ele>22</ele>
        <time>2025-08-07T20:39:20Z</time>
      </trkpt>
      <trkpt lat="46.68764" lon="-1.66542">
        <ele>22</ele>
        <time>2025-08-07T20:39:22Z</time>
      </trkpt>
      <trkpt lat="46.68767" lon="-1.66559">
        <ele>23</ele>
        <time>2025-08-07T20:39:24Z</time>
      </trkpt>
      <trkpt lat="46.68772" lon="-1.66573">
        <ele>24</ele>
        <time>2025-08-07T20:39:26Z</time>
      </trkpt>
      <trkpt lat="46.68778" lon="-1.66585">
        <ele>25</ele>
        <time>2025-08-07T20:39:28Z</time>
      </trkpt>
      <trkpt lat="46.68786" lon="-1.66596">
        <ele>25</ele>
        <time>2025-08-07T20:39:30Z</time>
      </trkpt>
      <trkpt lat="46.68793" lon="-1.66607">
        <ele>26</ele>
        <time>2025-08-07T20:39:32Z</time>
      </trkpt>
      <trkpt lat="46.68797" lon="-1.6662">
        <ele>26</ele>
        <time>2025-08-07T20:39:34Z</time>
      </trkpt>
      <trkpt lat="46.68798" lon="-1.66636">
        <ele>26</ele>
        <time>2025-08-07T20:39:36Z</time>
      </trkpt>
      <trkpt lat="46.68797" lon="-1.66653">
        <ele>26</ele>
        <time>2025-08-07T20:39:38Z</time>
      </trkpt>
      <trkpt lat="46.68797" lon="-1.66668">
        <ele>27</ele>
        <time>2025-08-07T20:39:40Z</time>
      </trkpt>
      <trkpt lat="46.68798" lon="-1.66679">
        <ele>27</ele>
        <time>2025-08-07T20:39:42Z</time>
      </trkpt>
      <trkpt lat="46.688" lon="-1.66689">
        <ele>27</ele>
        <time>2025-08-07T20:39:46Z</time>
      </trkpt>
      <trkpt lat="46.68797" lon="-1.66697">
        <ele>27</ele>
        <time>2025-08-07T20:39:48Z</time>
      </trkpt>
      <trkpt lat="46.68796" lon="-1.66711">
        <ele>27</ele>
        <time>2025-08-07T20:39:50Z</time>
      </trkpt>
      <trkpt lat="46.68795" lon="-1.66724">
        <ele>28</ele>
        <time>2025-08-07T20:39:52Z</time>
      </trkpt>
      <trkpt lat="46.68795" lon="-1.66736">
        <ele>28</ele>
        <time>2025-08-07T20:39:54Z</time>
      </trkpt>
      <trkpt lat="46.68797" lon="-1.66749">
        <ele>28</ele>
        <time>2025-08-07T20:39:56Z</time>
      </trkpt>
      <trkpt lat="46.68798" lon="-1.66761">
        <ele>28</ele>
        <time>2025-08-07T20:39:58Z</time>
      </trkpt>
      <trkpt lat="46.68799" lon="-1.66775">
        <ele>28</ele>
        <time>2025-08-07T20:40:00Z</time>
      </trkpt>
      <trkpt lat="46.68797" lon="-1.6679">
        <ele>28</ele>
        <time>2025-08-07T20:40:02Z</time>
      </trkpt>
      <trkpt lat="46.68796" lon="-1.66805">
        <ele>27</ele>
        <time>2025-08-07T20:40:04Z</time>
      </trkpt>
      <trkpt lat="46.68795" lon="-1.6682">
        <ele>27</ele>
        <time>2025-08-07T20:40:06Z</time>
      </trkpt>
      <trkpt lat="46.68794" lon="-1.66835">
        <ele>27</ele>
        <time>2025-08-07T20:40:08Z</time>
      </trkpt>
      <trkpt lat="46.68795" lon="-1.66849">
        <ele>27</ele>
        <time>2025-08-07T20:40:10Z</time>
      </trkpt>
      <trkpt lat="46.68796" lon="-1.66864">
        <ele>27</ele>
        <time>2025-08-07T20:40:12Z</time>
      </trkpt>
      <trkpt lat="46.68798" lon="-1.66881">
        <ele>27</ele>
        <time>2025-08-07T20:40:14Z</time>
      </trkpt>
      <trkpt lat="46.688" lon="-1.66898">
        <ele>26</ele>
        <time>2025-08-07T20:40:16Z</time>
      </trkpt>
      <trkpt lat="46.68803" lon="-1.66917">
        <ele>25</ele>
        <time>2025-08-07T20:40:18Z</time>
      </trkpt>
      <trkpt lat="46.68807" lon="-1.66936">
        <ele>25</ele>
        <time>2025-08-07T20:40:20Z</time>
      </trkpt>
      <trkpt lat="46.68809" lon="-1.66954">
        <ele>24</ele>
        <time>2025-08-07T20:40:22Z</time>
      </trkpt>
      <trkpt lat="46.6881" lon="-1.66973">
        <ele>23</ele>
        <time>2025-08-07T20:40:25Z</time>
      </trkpt>
      <trkpt lat="46.68808" lon="-1.66992">
        <ele>23</ele>
        <time>2025-08-07T20:40:27Z</time>
      </trkpt>
      <trkpt lat="46.68808" lon="-1.67012">
        <ele>22</ele>
        <time>2025-08-07T20:40:29Z</time>
      </trkpt>
      <trkpt lat="46.68807" lon="-1.67033">
        <ele>21</ele>
        <time>2025-08-07T20:40:31Z</time>
      </trkpt>
      <trkpt lat="46.68806" lon="-1.67054">
        <ele>20</ele>
        <time>2025-08-07T20:40:33Z</time>
      </trkpt>
      <trkpt lat="46.68805" lon="-1.67076">
        <ele>19</ele>
        <time>2025-08-07T20:40:35Z</time>
      </trkpt>
      <trkpt lat="46.68808" lon="-1.67094">
        <ele>19</ele>
        <time>2025-08-07T20:40:37Z</time>
      </trkpt>
      <trkpt lat="46.68814" lon="-1.67113">
        <ele>17</ele>
        <time>2025-08-07T20:40:39Z</time>
      </trkpt>
      <trkpt lat="46.68822" lon="-1.67131">
        <ele>16</ele>
        <time>2025-08-07T20:40:41Z</time>
      </trkpt>
      <trkpt lat="46.68829" lon="-1.6715">
        <ele>16</ele>
        <time>2025-08-07T20:40:43Z</time>
      </trkpt>
      <trkpt lat="46.68836" lon="-1.6717">
        <ele>15</ele>
        <time>2025-08-07T20:40:45Z</time>
      </trkpt>
      <trkpt lat="46.68842" lon="-1.67187">
        <ele>15</ele>
        <time>2025-08-07T20:40:47Z</time>
      </trkpt>
      <trkpt lat="46.68847" lon="-1.67202">
        <ele>14</ele>
        <time>2025-08-07T20:40:49Z</time>
      </trkpt>
      <trkpt lat="46.68849" lon="-1.67212">
        <ele>15</ele>
        <time>2025-08-07T20:40:51Z</time>
      </trkpt>
      <trkpt lat="46.68853" lon="-1.67222">
        <ele>14</ele>
        <time>2025-08-07T20:40:55Z</time>
      </trkpt>
      <trkpt lat="46.6886" lon="-1.67228">
        <ele>15</ele>
        <time>2025-08-07T20:40:59Z</time>
      </trkpt>
      <trkpt lat="46.68864" lon="-1.67232">
        <ele>15</ele>
        <time>2025-08-07T20:41:01Z</time>
      </trkpt>
      <trkpt lat="46.68868" lon="-1.67236">
        <ele>15</ele>
        <time>2025-08-07T20:41:03Z</time>
      </trkpt>
      <trkpt lat="46.68871" lon="-1.67242">
        <ele>16</ele>
        <time>2025-08-07T20:41:05Z</time>
      </trkpt>
      <trkpt lat="46.68873" lon="-1.67249">
        <ele>16</ele>
        <time>2025-08-07T20:41:07Z</time>
      </trkpt>
      <trkpt lat="46.68875" lon="-1.67256">
        <ele>17</ele>
        <time>2025-08-07T20:41:09Z</time>
      </trkpt>
      <trkpt lat="46.68876" lon="-1.67262">
        <ele>18</ele>
        <time>2025-08-07T20:41:11Z</time>
      </trkpt>
      <trkpt lat="46.68876" lon="-1.67269">
        <ele>18</ele>
        <time>2025-08-07T20:41:13Z</time>
      </trkpt>
      <trkpt lat="46.68876" lon="-1.67281">
        <ele>20</ele>
        <time>2025-08-07T20:41:17Z</time>
      </trkpt>
      <trkpt lat="46.68876" lon="-1.67288">
        <ele>20</ele>
        <time>2025-08-07T20:41:19Z</time>
      </trkpt>
      <trkpt lat="46.68877" lon="-1.67296">
        <ele>21</ele>
        <time>2025-08-07T20:41:21Z</time>
      </trkpt>
      <trkpt lat="46.68877" lon="-1.67303">
        <ele>22</ele>
        <time>2025-08-07T20:41:23Z</time>
      </trkpt>
      <trkpt lat="46.68878" lon="-1.6731">
        <ele>22</ele>
        <time>2025-08-07T20:41:25Z</time>
      </trkpt>
      <trkpt lat="46.68878" lon="-1.67318">
        <ele>23</ele>
        <time>2025-08-07T20:41:27Z</time>
      </trkpt>
      <trkpt lat="46.68879" lon="-1.67324">
        <ele>23</ele>
        <time>2025-08-07T20:41:29Z</time>
      </trkpt>
      <trkpt lat="46.6888" lon="-1.67331">
        <ele>24</ele>
        <time>2025-08-07T20:41:31Z</time>
      </trkpt>
      <trkpt lat="46.68881" lon="-1.67338">
        <ele>24</ele>
        <time>2025-08-07T20:41:33Z</time>
      </trkpt>
      <trkpt lat="46.68881" lon="-1.67346">
        <ele>25</ele>
        <time>2025-08-07T20:41:35Z</time>
      </trkpt>
      <trkpt lat="46.68882" lon="-1.67354">
        <ele>25</ele>
        <time>2025-08-07T20:41:37Z</time>
      </trkpt>
      <trkpt lat="46.68883" lon="-1.67362">
        <ele>25</ele>
        <time>2025-08-07T20:41:39Z</time>
      </trkpt>
      <trkpt lat="46.68885" lon="-1.67369">
        <ele>26</ele>
        <time>2025-08-07T20:41:41Z</time>
      </trkpt>
      <trkpt lat="46.68889" lon="-1.67374">
        <ele>26</ele>
        <time>2025-08-07T20:41:43Z</time>
      </trkpt>
      <trkpt lat="46.68894" lon="-1.67376">
        <ele>27</ele>
        <time>2025-08-07T20:41:45Z</time>
      </trkpt>
      <trkpt lat="46.68898" lon="-1.67378">
        <ele>27</ele>
        <time>2025-08-07T20:41:47Z</time>
      </trkpt>
      <trkpt lat="46.68904" lon="-1.67379">
        <ele>27</ele>
        <time>2025-08-07T20:41:49Z</time>
      </trkpt>
      <trkpt lat="46.6891" lon="-1.6738">
        <ele>27</ele>
        <time>2025-08-07T20:41:51Z</time>
      </trkpt>
      <trkpt lat="46.68917" lon="-1.67383">
        <ele>27</ele>
        <time>2025-08-07T20:41:53Z</time>
      </trkpt>
      <trkpt lat="46.68924" lon="-1.67386">
        <ele>27</ele>
        <time>2025-08-07T20:41:55Z</time>
      </trkpt>
      <trkpt lat="46.6893" lon="-1.67389">
        <ele>28</ele>
        <time>2025-08-07T20:41:57Z</time>
      </trkpt>
      <trkpt lat="46.68936" lon="-1.67393">
        <ele>28</ele>
        <time>2025-08-07T20:41:59Z</time>
      </trkpt>
      <trkpt lat="46.68943" lon="-1.67397">
        <ele>28</ele>
        <time>2025-08-07T20:42:01Z</time>
      </trkpt>
      <trkpt lat="46.68949" lon="-1.67403">
        <ele>28</ele>
        <time>2025-08-07T20:42:03Z</time>
      </trkpt>
      <trkpt lat="46.68955" lon="-1.67411">
        <ele>29</ele>
        <time>2025-08-07T20:42:05Z</time>
      </trkpt>
      <trkpt lat="46.68959" lon="-1.6742">
        <ele>29</ele>
        <time>2025-08-07T20:42:07Z</time>
      </trkpt>
      <trkpt lat="46.68961" lon="-1.6743">
        <ele>29</ele>
        <time>2025-08-07T20:42:09Z</time>
      </trkpt>
      <trkpt lat="46.68963" lon="-1.67442">
        <ele>29</ele>
        <time>2025-08-07T20:42:11Z</time>
      </trkpt>
      <trkpt lat="46.68964" lon="-1.67455">
        <ele>29</ele>
        <time>2025-08-07T20:42:13Z</time>
      </trkpt>
      <trkpt lat="46.68966" lon="-1.67465">
        <ele>30</ele>
        <time>2025-08-07T20:42:15Z</time>
      </trkpt>
      <trkpt lat="46.68967" lon="-1.67475">
        <ele>30</ele>
        <time>2025-08-07T20:42:17Z</time>
      </trkpt>
      <trkpt lat="46.68969" lon="-1.67485">
        <ele>30</ele>
        <time>2025-08-07T20:42:19Z</time>
      </trkpt>
      <trkpt lat="46.6897" lon="-1.67495">
        <ele>30</ele>
        <time>2025-08-07T20:42:21Z</time>
      </trkpt>
      <trkpt lat="46.68971" lon="-1.67505">
        <ele>30</ele>
        <time>2025-08-07T20:42:23Z</time>
      </trkpt>
      <trkpt lat="46.68972" lon="-1.67514">
        <ele>30</ele>
        <time>2025-08-07T20:42:25Z</time>
      </trkpt>
      <trkpt lat="46.68974" lon="-1.67524">
        <ele>31</ele>
        <time>2025-08-07T20:42:27Z</time>
      </trkpt>
      <trkpt lat="46.68976" lon="-1.67534">
        <ele>31</ele>
        <time>2025-08-07T20:42:29Z</time>
      </trkpt>
      <trkpt lat="46.68977" lon="-1.67545">
        <ele>31</ele>
        <time>2025-08-07T20:42:31Z</time>
      </trkpt>
      <trkpt lat="46.6898" lon="-1.67555">
        <ele>31</ele>
        <time>2025-08-07T20:42:33Z</time>
      </trkpt>
      <trkpt lat="46.68983" lon="-1.67565">
        <ele>31</ele>
        <time>2025-08-07T20:42:35Z</time>
      </trkpt>
      <trkpt lat="46.68986" lon="-1.67575">
        <ele>32</ele>
        <time>2025-08-07T20:42:37Z</time>
      </trkpt>
      <trkpt lat="46.6899" lon="-1.67585">
        <ele>32</ele>
        <time>2025-08-07T20:42:39Z</time>
      </trkpt>
      <trkpt lat="46.68995" lon="-1.67593">
        <ele>32</ele>
        <time>2025-08-07T20:42:41Z</time>
      </trkpt>
      <trkpt lat="46.69002" lon="-1.676">
        <ele>32</ele>
        <time>2025-08-07T20:42:43Z</time>
      </trkpt>
      <trkpt lat="46.69011" lon="-1.67606">
        <ele>32</ele>
        <time>2025-08-07T20:42:46Z</time>
      </trkpt>
      <trkpt lat="46.69019" lon="-1.67611">
        <ele>33</ele>
        <time>2025-08-07T20:42:48Z</time>
      </trkpt>
      <trkpt lat="46.69028" lon="-1.67616">
        <ele>33</ele>
        <time>2025-08-07T20:42:50Z</time>
      </trkpt>
      <trkpt lat="46.69036" lon="-1.6762">
        <ele>33</ele>
        <time>2025-08-07T20:42:52Z</time>
      </trkpt>
      <trkpt lat="46.69045" lon="-1.67625">
        <ele>33</ele>
        <time>2025-08-07T20:42:54Z</time>
      </trkpt>
      <trkpt lat="46.69053" lon="-1.6763">
        <ele>34</ele>
        <time>2025-08-07T20:42:56Z</time>
      </trkpt>
      <trkpt lat="46.69062" lon="-1.67635">
        <ele>34</ele>
        <time>2025-08-07T20:42:58Z</time>
      </trkpt>
      <trkpt lat="46.6907" lon="-1.67641">
        <ele>34</ele>
        <time>2025-08-07T20:43:00Z</time>
      </trkpt>
      <trkpt lat="46.69079" lon="-1.67646">
        <ele>34</ele>
        <time>2025-08-07T20:43:02Z</time>
      </trkpt>
      <trkpt lat="46.69088" lon="-1.67651">
        <ele>34</ele>
        <time>2025-08-07T20:43:04Z</time>
      </trkpt>
      <trkpt lat="46.69096" lon="-1.67656">
        <ele>34</ele>
        <time>2025-08-07T20:43:06Z</time>
      </trkpt>
      <trkpt lat="46.69105" lon="-1.67661">
        <ele>35</ele>
        <time>2025-08-07T20:43:08Z</time>
      </trkpt>
      <trkpt lat="46.69114" lon="-1.67667">
        <ele>35</ele>
        <time>2025-08-07T20:43:10Z</time>
      </trkpt>
      <trkpt lat="46.69122" lon="-1.67673">
        <ele>35</ele>
        <time>2025-08-07T20:43:12Z</time>
      </trkpt>
      <trkpt lat="46.69131" lon="-1.6768">
        <ele>35</ele>
        <time>2025-08-07T20:43:14Z</time>
      </trkpt>
      <trkpt lat="46.69139" lon="-1.67687">
        <ele>35</ele>
        <time>2025-08-07T20:43:16Z</time>
      </trkpt>
      <trkpt lat="46.69147" lon="-1.67694">
        <ele>36</ele>
        <time>2025-08-07T20:43:18Z</time>
      </trkpt>
      <trkpt lat="46.69155" lon="-1.67702">
        <ele>36</ele>
        <time>2025-08-07T20:43:20Z</time>
      </trkpt>
      <trkpt lat="46.69162" lon="-1.6771">
        <ele>36</ele>
        <time>2025-08-07T20:43:22Z</time>
      </trkpt>
      <trkpt lat="46.69169" lon="-1.67717">
        <ele>36</ele>
        <time>2025-08-07T20:43:24Z</time>
      </trkpt>
      <trkpt lat="46.69177" lon="-1.67726">
        <ele>36</ele>
        <time>2025-08-07T20:43:26Z</time>
      </trkpt>
      <trkpt lat="46.69184" lon="-1.67734">
        <ele>37</ele>
        <time>2025-08-07T20:43:28Z</time>
      </trkpt>
      <trkpt lat="46.69192" lon="-1.67742">
        <ele>37</ele>
        <time>2025-08-07T20:43:30Z</time>
      </trkpt>
      <trkpt lat="46.69199" lon="-1.6775">
        <ele>37</ele>
        <time>2025-08-07T20:43:32Z</time>
      </trkpt>
      <trkpt lat="46.69207" lon="-1.67758">
        <ele>38</ele>
        <time>2025-08-07T20:43:34Z</time>
      </trkpt>
      <trkpt lat="46.69214" lon="-1.67766">
        <ele>38</ele>
        <time>2025-08-07T20:43:36Z</time>
      </trkpt>
      <trkpt lat="46.69221" lon="-1.67774">
        <ele>38</ele>
        <time>2025-08-07T20:43:38Z</time>
      </trkpt>
      <trkpt lat="46.69228" lon="-1.67782">
        <ele>39</ele>
        <time>2025-08-07T20:43:40Z</time>
      </trkpt>
      <trkpt lat="46.69235" lon="-1.67791">
        <ele>39</ele>
        <time>2025-08-07T20:43:42Z</time>
      </trkpt>
      <trkpt lat="46.69242" lon="-1.67799">
        <ele>40</ele>
        <time>2025-08-07T20:43:44Z</time>
      </trkpt>
      <trkpt lat="46.69248" lon="-1.67808">
        <ele>40</ele>
        <time>2025-08-07T20:43:46Z</time>
      </trkpt>
      <trkpt lat="46.69255" lon="-1.67817">
        <ele>41</ele>
        <time>2025-08-07T20:43:48Z</time>
      </trkpt>
      <trkpt lat="46.69261" lon="-1.67826">
        <ele>41</ele>
        <time>2025-08-07T20:43:50Z</time>
      </trkpt>
      <trkpt lat="46.69267" lon="-1.67835">
        <ele>42</ele>
        <time>2025-08-07T20:43:52Z</time>
      </trkpt>
      <trkpt lat="46.69272" lon="-1.67841">
        <ele>43</ele>
        <time>2025-08-07T20:43:54Z</time>
      </trkpt>
      <trkpt lat="46.69278" lon="-1.67843">
        <ele>43</ele>
        <time>2025-08-07T20:43:56Z</time>
      </trkpt>
      <trkpt lat="46.69284" lon="-1.6784">
        <ele>43</ele>
        <time>2025-08-07T20:43:58Z</time>
      </trkpt>
      <trkpt lat="46.69289" lon="-1.67833">
        <ele>44</ele>
        <time>2025-08-07T20:44:00Z</time>
      </trkpt>
      <trkpt lat="46.69294" lon="-1.67827">
        <ele>44</ele>
        <time>2025-08-07T20:44:02Z</time>
      </trkpt>
      <trkpt lat="46.69299" lon="-1.67819">
        <ele>44</ele>
        <time>2025-08-07T20:44:04Z</time>
      </trkpt>
      <trkpt lat="46.69305" lon="-1.67811">
        <ele>44</ele>
        <time>2025-08-07T20:44:06Z</time>
      </trkpt>
      <trkpt lat="46.69312" lon="-1.67802">
        <ele>44</ele>
        <time>2025-08-07T20:44:08Z</time>
      </trkpt>
      <trkpt lat="46.69319" lon="-1.67793">
        <ele>44</ele>
        <time>2025-08-07T20:44:10Z</time>
      </trkpt>
      <trkpt lat="46.69328" lon="-1.67784">
        <ele>43</ele>
        <time>2025-08-07T20:44:12Z</time>
      </trkpt>
      <trkpt lat="46.69336" lon="-1.67775">
        <ele>43</ele>
        <time>2025-08-07T20:44:14Z</time>
      </trkpt>
      <trkpt lat="46.69344" lon="-1.67765">
        <ele>43</ele>
        <time>2025-08-07T20:44:16Z</time>
      </trkpt>
      <trkpt lat="46.69352" lon="-1.67755">
        <ele>43</ele>
        <time>2025-08-07T20:44:18Z</time>
      </trkpt>
      <trkpt lat="46.69359" lon="-1.67746">
        <ele>43</ele>
        <time>2025-08-07T20:44:20Z</time>
      </trkpt>
      <trkpt lat="46.69366" lon="-1.67737">
        <ele>43</ele>
        <time>2025-08-07T20:44:22Z</time>
      </trkpt>
      <trkpt lat="46.69372" lon="-1.67732">
        <ele>43</ele>
        <time>2025-08-07T20:44:24Z</time>
      </trkpt>
      <trkpt lat="46.69379" lon="-1.67735">
        <ele>43</ele>
        <time>2025-08-07T20:44:26Z</time>
      </trkpt>
      <trkpt lat="46.69385" lon="-1.67743">
        <ele>43</ele>
        <time>2025-08-07T20:44:28Z</time>
      </trkpt>
      <trkpt lat="46.6939" lon="-1.67754">
        <ele>43</ele>
        <time>2025-08-07T20:44:30Z</time>
      </trkpt>
      <trkpt lat="46.69395" lon="-1.67766">
        <ele>43</ele>
        <time>2025-08-07T20:44:32Z</time>
      </trkpt>
      <trkpt lat="46.694" lon="-1.67776">
        <ele>44</ele>
        <time>2025-08-07T20:44:34Z</time>
      </trkpt>
      <trkpt lat="46.69407" lon="-1.67785">
        <ele>44</ele>
        <time>2025-08-07T20:44:36Z</time>
      </trkpt>
      <trkpt lat="46.69413" lon="-1.67796">
        <ele>44</ele>
        <time>2025-08-07T20:44:38Z</time>
      </trkpt>
      <trkpt lat="46.69421" lon="-1.67811">
        <ele>44</ele>
        <time>2025-08-07T20:44:40Z</time>
      </trkpt>
      <trkpt lat="46.69429" lon="-1.67824">
        <ele>45</ele>
        <time>2025-08-07T20:44:42Z</time>
      </trkpt>
      <trkpt lat="46.69435" lon="-1.67836">
        <ele>45</ele>
        <time>2025-08-07T20:44:44Z</time>
      </trkpt>
      <trkpt lat="46.69441" lon="-1.67847">
        <ele>45</ele>
        <time>2025-08-07T20:44:46Z</time>
      </trkpt>
      <trkpt lat="46.69447" lon="-1.67858">
        <ele>45</ele>
        <time>2025-08-07T20:44:48Z</time>
      </trkpt>
      <trkpt lat="46.69453" lon="-1.6787">
        <ele>46</ele>
        <time>2025-08-07T20:44:50Z</time>
      </trkpt>
      <trkpt lat="46.6946" lon="-1.67882">
        <ele>46</ele>
        <time>2025-08-07T20:44:52Z</time>
      </trkpt>
      <trkpt lat="46.69468" lon="-1.67894">
        <ele>46</ele>
        <time>2025-08-07T20:44:54Z</time>
      </trkpt>
      <trkpt lat="46.69476" lon="-1.67905">
        <ele>46</ele>
        <time>2025-08-07T20:44:56Z</time>
      </trkpt>
      <trkpt lat="46.69484" lon="-1.67915">
        <ele>46</ele>
        <time>2025-08-07T20:44:58Z</time>
      </trkpt>
      <trkpt lat="46.69493" lon="-1.67925">
        <ele>46</ele>
        <time>2025-08-07T20:45:00Z</time>
      </trkpt>
      <trkpt lat="46.69503" lon="-1.67934">
        <ele>46</ele>
        <time>2025-08-07T20:45:02Z</time>
      </trkpt>
      <trkpt lat="46.69513" lon="-1.67942">
        <ele>46</ele>
        <time>2025-08-07T20:45:04Z</time>
      </trkpt>
      <trkpt lat="46.69524" lon="-1.6795">
        <ele>46</ele>
        <time>2025-08-07T20:45:06Z</time>
      </trkpt>
      <trkpt lat="46.69534" lon="-1.67957">
        <ele>45</ele>
        <time>2025-08-07T20:45:09Z</time>
      </trkpt>
      <trkpt lat="46.69545" lon="-1.67965">
        <ele>45</ele>
        <time>2025-08-07T20:45:11Z</time>
      </trkpt>
      <trkpt lat="46.69556" lon="-1.67973">
        <ele>45</ele>
        <time>2025-08-07T20:45:13Z</time>
      </trkpt>
      <trkpt lat="46.69566" lon="-1.6798">
        <ele>45</ele>
        <time>2025-08-07T20:45:15Z</time>
      </trkpt>
      <trkpt lat="46.69577" lon="-1.67987">
        <ele>45</ele>
        <time>2025-08-07T20:45:17Z</time>
      </trkpt>
      <trkpt lat="46.69588" lon="-1.67993">
        <ele>45</ele>
        <time>2025-08-07T20:45:19Z</time>
      </trkpt>
      <trkpt lat="46.69599" lon="-1.67998">
        <ele>45</ele>
        <time>2025-08-07T20:45:21Z</time>
      </trkpt>
      <trkpt lat="46.6961" lon="-1.68005">
        <ele>45</ele>
        <time>2025-08-07T20:45:23Z</time>
      </trkpt>
      <trkpt lat="46.6962" lon="-1.68011">
        <ele>46</ele>
        <time>2025-08-07T20:45:25Z</time>
      </trkpt>
      <trkpt lat="46.6963" lon="-1.68018">
        <ele>45</ele>
        <time>2025-08-07T20:45:27Z</time>
      </trkpt>
      <trkpt lat="46.6964" lon="-1.68025">
        <ele>45</ele>
        <time>2025-08-07T20:45:29Z</time>
      </trkpt>
      <trkpt lat="46.69651" lon="-1.68032">
        <ele>45</ele>
        <time>2025-08-07T20:45:31Z</time>
      </trkpt>
      <trkpt lat="46.69661" lon="-1.68038">
        <ele>45</ele>
        <time>2025-08-07T20:45:33Z</time>
      </trkpt>
      <trkpt lat="46.69672" lon="-1.68042">
        <ele>45</ele>
        <time>2025-08-07T20:45:35Z</time>
      </trkpt>
      <trkpt lat="46.69683" lon="-1.68047">
        <ele>45</ele>
        <time>2025-08-07T20:45:37Z</time>
      </trkpt>
      <trkpt lat="46.69695" lon="-1.68052">
        <ele>45</ele>
        <time>2025-08-07T20:45:39Z</time>
      </trkpt>
      <trkpt lat="46.69704" lon="-1.68059">
        <ele>45</ele>
        <time>2025-08-07T20:45:41Z</time>
      </trkpt>
      <trkpt lat="46.69714" lon="-1.68067">
        <ele>45</ele>
        <time>2025-08-07T20:45:43Z</time>
      </trkpt>
      <trkpt lat="46.69724" lon="-1.68076">
        <ele>45</ele>
        <time>2025-08-07T20:45:45Z</time>
      </trkpt>
      <trkpt lat="46.69733" lon="-1.68086">
        <ele>45</ele>
        <time>2025-08-07T20:45:47Z</time>
      </trkpt>
      <trkpt lat="46.69741" lon="-1.68098">
        <ele>46</ele>
        <time>2025-08-07T20:45:49Z</time>
      </trkpt>
      <trkpt lat="46.69748" lon="-1.68111">
        <ele>46</ele>
        <time>2025-08-07T20:45:51Z</time>
      </trkpt>
      <trkpt lat="46.69754" lon="-1.68125">
        <ele>46</ele>
        <time>2025-08-07T20:45:53Z</time>
      </trkpt>
      <trkpt lat="46.69758" lon="-1.68139">
        <ele>46</ele>
        <time>2025-08-07T20:45:55Z</time>
      </trkpt>
      <trkpt lat="46.69763" lon="-1.68153">
        <ele>46</ele>
        <time>2025-08-07T20:45:57Z</time>
      </trkpt>
      <trkpt lat="46.69769" lon="-1.68167">
        <ele>46</ele>
        <time>2025-08-07T20:45:59Z</time>
      </trkpt>
      <trkpt lat="46.69775" lon="-1.6818">
        <ele>46</ele>
        <time>2025-08-07T20:46:01Z</time>
      </trkpt>
      <trkpt lat="46.69781" lon="-1.68194">
        <ele>46</ele>
        <time>2025-08-07T20:46:03Z</time>
      </trkpt>
      <trkpt lat="46.69787" lon="-1.68206">
        <ele>46</ele>
        <time>2025-08-07T20:46:05Z</time>
      </trkpt>
      <trkpt lat="46.69793" lon="-1.68218">
        <ele>46</ele>
        <time>2025-08-07T20:46:07Z</time>
      </trkpt>
      <trkpt lat="46.69799" lon="-1.6823">
        <ele>46</ele>
        <time>2025-08-07T20:46:09Z</time>
      </trkpt>
      <trkpt lat="46.69806" lon="-1.68242">
        <ele>46</ele>
        <time>2025-08-07T20:46:11Z</time>
      </trkpt>
      <trkpt lat="46.69812" lon="-1.68255">
        <ele>46</ele>
        <time>2025-08-07T20:46:13Z</time>
      </trkpt>
      <trkpt lat="46.69819" lon="-1.6827">
        <ele>46</ele>
        <time>2025-08-07T20:46:15Z</time>
      </trkpt>
      <trkpt lat="46.69825" lon="-1.68285">
        <ele>46</ele>
        <time>2025-08-07T20:46:17Z</time>
      </trkpt>
      <trkpt lat="46.69833" lon="-1.683">
        <ele>46</ele>
        <time>2025-08-07T20:46:19Z</time>
      </trkpt>
      <trkpt lat="46.6984" lon="-1.68314">
        <ele>46</ele>
        <time>2025-08-07T20:46:21Z</time>
      </trkpt>
      <trkpt lat="46.69849" lon="-1.68326">
        <ele>46</ele>
        <time>2025-08-07T20:46:23Z</time>
      </trkpt>
      <trkpt lat="46.69857" lon="-1.68338">
        <ele>46</ele>
        <time>2025-08-07T20:46:25Z</time>
      </trkpt>
      <trkpt lat="46.69865" lon="-1.68351">
        <ele>46</ele>
        <time>2025-08-07T20:46:27Z</time>
      </trkpt>
      <trkpt lat="46.69872" lon="-1.68362">
        <ele>46</ele>
        <time>2025-08-07T20:46:29Z</time>
      </trkpt>
      <trkpt lat="46.6988" lon="-1.68372">
        <ele>46</ele>
        <time>2025-08-07T20:46:31Z</time>
      </trkpt>
      <trkpt lat="46.69888" lon="-1.68383">
        <ele>46</ele>
        <time>2025-08-07T20:46:33Z</time>
      </trkpt>
      <trkpt lat="46.69896" lon="-1.68393">
        <ele>46</ele>
        <time>2025-08-07T20:46:35Z</time>
      </trkpt>
      <trkpt lat="46.69904" lon="-1.68403">
        <ele>47</ele>
        <time>2025-08-07T20:46:37Z</time>
      </trkpt>
      <trkpt lat="46.69912" lon="-1.68415">
        <ele>47</ele>
        <time>2025-08-07T20:46:39Z</time>
      </trkpt>
      <trkpt lat="46.69919" lon="-1.68428">
        <ele>47</ele>
        <time>2025-08-07T20:46:41Z</time>
      </trkpt>
      <trkpt lat="46.69925" lon="-1.68442">
        <ele>47</ele>
        <time>2025-08-07T20:46:43Z</time>
      </trkpt>
      <trkpt lat="46.69932" lon="-1.68456">
        <ele>47</ele>
        <time>2025-08-07T20:46:45Z</time>
      </trkpt>
      <trkpt lat="46.69939" lon="-1.6847">
        <ele>47</ele>
        <time>2025-08-07T20:46:47Z</time>
      </trkpt>
      <trkpt lat="46.69947" lon="-1.68487">
        <ele>47</ele>
        <time>2025-08-07T20:46:49Z</time>
      </trkpt>
      <trkpt lat="46.69956" lon="-1.68506">
        <ele>47</ele>
        <time>2025-08-07T20:46:51Z</time>
      </trkpt>
      <trkpt lat="46.69963" lon="-1.68522">
        <ele>47</ele>
        <time>2025-08-07T20:46:53Z</time>
      </trkpt>
      <trkpt lat="46.69969" lon="-1.68538">
        <ele>47</ele>
        <time>2025-08-07T20:46:55Z</time>
      </trkpt>
      <trkpt lat="46.69976" lon="-1.68553">
        <ele>47</ele>
        <time>2025-08-07T20:46:57Z</time>
      </trkpt>
      <trkpt lat="46.69983" lon="-1.68567">
        <ele>46</ele>
        <time>2025-08-07T20:46:59Z</time>
      </trkpt>
      <trkpt lat="46.6999" lon="-1.6858">
        <ele>46</ele>
        <time>2025-08-07T20:47:01Z</time>
      </trkpt>
      <trkpt lat="46.69998" lon="-1.68592">
        <ele>47</ele>
        <time>2025-08-07T20:47:03Z</time>
      </trkpt>
      <trkpt lat="46.70007" lon="-1.68603">
        <ele>47</ele>
        <time>2025-08-07T20:47:05Z</time>
      </trkpt>
      <trkpt lat="46.70017" lon="-1.68612">
        <ele>47</ele>
        <time>2025-08-07T20:47:07Z</time>
      </trkpt>
      <trkpt lat="46.70026" lon="-1.68622">
        <ele>47</ele>
        <time>2025-08-07T20:47:09Z</time>
      </trkpt>
      <trkpt lat="46.70035" lon="-1.68631">
        <ele>47</ele>
        <time>2025-08-07T20:47:11Z</time>
      </trkpt>
      <trkpt lat="46.70044" lon="-1.68641">
        <ele>47</ele>
        <time>2025-08-07T20:47:13Z</time>
      </trkpt>
      <trkpt lat="46.70052" lon="-1.68651">
        <ele>47</ele>
        <time>2025-08-07T20:47:15Z</time>
      </trkpt>
      <trkpt lat="46.70061" lon="-1.68663">
        <ele>47</ele>
        <time>2025-08-07T20:47:17Z</time>
      </trkpt>
      <trkpt lat="46.70069" lon="-1.68675">
        <ele>47</ele>
        <time>2025-08-07T20:47:19Z</time>
      </trkpt>
      <trkpt lat="46.70076" lon="-1.68686">
        <ele>47</ele>
        <time>2025-08-07T20:47:22Z</time>
      </trkpt>
      <trkpt lat="46.70085" lon="-1.68701">
        <ele>47</ele>
        <time>2025-08-07T20:47:24Z</time>
      </trkpt>
      <trkpt lat="46.70092" lon="-1.68716">
        <ele>47</ele>
        <time>2025-08-07T20:47:26Z</time>
      </trkpt>
      <trkpt lat="46.70099" lon="-1.68731">
        <ele>48</ele>
        <time>2025-08-07T20:47:28Z</time>
      </trkpt>
      <trkpt lat="46.70105" lon="-1.68746">
        <ele>48</ele>
        <time>2025-08-07T20:47:30Z</time>
      </trkpt>
      <trkpt lat="46.70112" lon="-1.6876">
        <ele>48</ele>
        <time>2025-08-07T20:47:32Z</time>
      </trkpt>
      <trkpt lat="46.70119" lon="-1.68773">
        <ele>48</ele>
        <time>2025-08-07T20:47:34Z</time>
      </trkpt>
      <trkpt lat="46.70126" lon="-1.68788">
        <ele>48</ele>
        <time>2025-08-07T20:47:36Z</time>
      </trkpt>
      <trkpt lat="46.70134" lon="-1.68803">
        <ele>48</ele>
        <time>2025-08-07T20:47:38Z</time>
      </trkpt>
      <trkpt lat="46.70141" lon="-1.68818">
        <ele>48</ele>
        <time>2025-08-07T20:47:40Z</time>
      </trkpt>
      <trkpt lat="46.70148" lon="-1.68832">
        <ele>49</ele>
        <time>2025-08-07T20:47:42Z</time>
      </trkpt>
      <trkpt lat="46.70155" lon="-1.68847">
        <ele>49</ele>
        <time>2025-08-07T20:47:44Z</time>
      </trkpt>
      <trkpt lat="46.70162" lon="-1.68861">
        <ele>49</ele>
        <time>2025-08-07T20:47:46Z</time>
      </trkpt>
      <trkpt lat="46.70168" lon="-1.68875">
        <ele>49</ele>
        <time>2025-08-07T20:47:48Z</time>
      </trkpt>
      <trkpt lat="46.70175" lon="-1.6889">
        <ele>49</ele>
        <time>2025-08-07T20:47:50Z</time>
      </trkpt>
      <trkpt lat="46.70182" lon="-1.68902">
        <ele>49</ele>
        <time>2025-08-07T20:47:52Z</time>
      </trkpt>
      <trkpt lat="46.70191" lon="-1.68915">
        <ele>49</ele>
        <time>2025-08-07T20:47:54Z</time>
      </trkpt>
      <trkpt lat="46.70199" lon="-1.68927">
        <ele>49</ele>
        <time>2025-08-07T20:47:56Z</time>
      </trkpt>
      <trkpt lat="46.70208" lon="-1.68938">
        <ele>49</ele>
        <time>2025-08-07T20:47:58Z</time>
      </trkpt>
      <trkpt lat="46.70217" lon="-1.68949">
        <ele>49</ele>
        <time>2025-08-07T20:48:00Z</time>
      </trkpt>
      <trkpt lat="46.70226" lon="-1.6896">
        <ele>49</ele>
        <time>2025-08-07T20:48:02Z</time>
      </trkpt>
      <trkpt lat="46.70236" lon="-1.6897">
        <ele>49</ele>
        <time>2025-08-07T20:48:04Z</time>
      </trkpt>
      <trkpt lat="46.70244" lon="-1.68979">
        <ele>49</ele>
        <time>2025-08-07T20:48:06Z</time>
      </trkpt>
      <trkpt lat="46.7025" lon="-1.68988">
        <ele>49</ele>
        <time>2025-08-07T20:48:08Z</time>
      </trkpt>
      <trkpt lat="46.70257" lon="-1.68998">
        <ele>49</ele>
        <time>2025-08-07T20:48:10Z</time>
      </trkpt>
      <trkpt lat="46.70265" lon="-1.69009">
        <ele>49</ele>
        <time>2025-08-07T20:48:12Z</time>
      </trkpt>
      <trkpt lat="46.70274" lon="-1.6902">
        <ele>49</ele>
        <time>2025-08-07T20:48:14Z</time>
      </trkpt>
      <trkpt lat="46.70284" lon="-1.69033">
        <ele>49</ele>
        <time>2025-08-07T20:48:16Z</time>
      </trkpt>
      <trkpt lat="46.70294" lon="-1.69045">
        <ele>49</ele>
        <time>2025-08-07T20:48:18Z</time>
      </trkpt>
      <trkpt lat="46.70303" lon="-1.69057">
        <ele>50</ele>
        <time>2025-08-07T20:48:20Z</time>
      </trkpt>
      <trkpt lat="46.70313" lon="-1.69068">
        <ele>50</ele>
        <time>2025-08-07T20:48:22Z</time>
      </trkpt>
      <trkpt lat="46.70324" lon="-1.69081">
        <ele>49</ele>
        <time>2025-08-07T20:48:24Z</time>
      </trkpt>
      <trkpt lat="46.70334" lon="-1.69095">
        <ele>49</ele>
        <time>2025-08-07T20:48:26Z</time>
      </trkpt>
      <trkpt lat="46.70342" lon="-1.6911">
        <ele>49</ele>
        <time>2025-08-07T20:48:28Z</time>
      </trkpt>
      <trkpt lat="46.70349" lon="-1.69125">
        <ele>49</ele>
        <time>2025-08-07T20:48:30Z</time>
      </trkpt>
      <trkpt lat="46.70356" lon="-1.6914">
        <ele>50</ele>
        <time>2025-08-07T20:48:32Z</time>
      </trkpt>
      <trkpt lat="46.70362" lon="-1.69154">
        <ele>50</ele>
        <time>2025-08-07T20:48:34Z</time>
      </trkpt>
      <trkpt lat="46.70367" lon="-1.69167">
        <ele>50</ele>
        <time>2025-08-07T20:48:36Z</time>
      </trkpt>
      <trkpt lat="46.70373" lon="-1.69182">
        <ele>50</ele>
        <time>2025-08-07T20:48:38Z</time>
      </trkpt>
      <trkpt lat="46.70379" lon="-1.69198">
        <ele>50</ele>
        <time>2025-08-07T20:48:40Z</time>
      </trkpt>
      <trkpt lat="46.70386" lon="-1.69211">
        <ele>51</ele>
        <time>2025-08-07T20:48:42Z</time>
      </trkpt>
      <trkpt lat="46.70393" lon="-1.69224">
        <ele>50</ele>
        <time>2025-08-07T20:48:44Z</time>
      </trkpt>
      <trkpt lat="46.70401" lon="-1.69236">
        <ele>51</ele>
        <time>2025-08-07T20:48:46Z</time>
      </trkpt>
      <trkpt lat="46.70408" lon="-1.69248">
        <ele>51</ele>
        <time>2025-08-07T20:48:48Z</time>
      </trkpt>
      <trkpt lat="46.70416" lon="-1.69254">
        <ele>51</ele>
        <time>2025-08-07T20:48:50Z</time>
      </trkpt>
      <trkpt lat="46.70426" lon="-1.69259">
        <ele>51</ele>
        <time>2025-08-07T20:48:52Z</time>
      </trkpt>
      <trkpt lat="46.70436" lon="-1.69263">
        <ele>51</ele>
        <time>2025-08-07T20:48:54Z</time>
      </trkpt>
      <trkpt lat="46.70446" lon="-1.69269">
        <ele>51</ele>
        <time>2025-08-07T20:48:56Z</time>
      </trkpt>
      <trkpt lat="46.70456" lon="-1.69275">
        <ele>51</ele>
        <time>2025-08-07T20:48:58Z</time>
      </trkpt>
      <trkpt lat="46.70472" lon="-1.69283">
        <ele>51</ele>
        <time>2025-08-07T20:49:00Z</time>
      </trkpt>
      <trkpt lat="46.70486" lon="-1.69291">
        <ele>51</ele>
        <time>2025-08-07T20:49:02Z</time>
      </trkpt>
      <trkpt lat="46.70498" lon="-1.69298">
        <ele>51</ele>
        <time>2025-08-07T20:49:04Z</time>
      </trkpt>
      <trkpt lat="46.70508" lon="-1.69303">
        <ele>51</ele>
        <time>2025-08-07T20:49:06Z</time>
      </trkpt>
      <trkpt lat="46.70519" lon="-1.69307">
        <ele>51</ele>
        <time>2025-08-07T20:49:08Z</time>
      </trkpt>
      <trkpt lat="46.70531" lon="-1.69312">
        <ele>51</ele>
        <time>2025-08-07T20:49:10Z</time>
      </trkpt>
      <trkpt lat="46.70543" lon="-1.69318">
        <ele>51</ele>
        <time>2025-08-07T20:49:12Z</time>
      </trkpt>
      <trkpt lat="46.70554" lon="-1.69324">
        <ele>51</ele>
        <time>2025-08-07T20:49:14Z</time>
      </trkpt>
      <trkpt lat="46.70565" lon="-1.69329">
        <ele>51</ele>
        <time>2025-08-07T20:49:16Z</time>
      </trkpt>
      <trkpt lat="46.70574" lon="-1.69334">
        <ele>51</ele>
        <time>2025-08-07T20:49:18Z</time>
      </trkpt>
      <trkpt lat="46.70581" lon="-1.69341">
        <ele>52</ele>
        <time>2025-08-07T20:49:20Z</time>
      </trkpt>
      <trkpt lat="46.70584" lon="-1.69351">
        <ele>52</ele>
        <time>2025-08-07T20:49:22Z</time>
      </trkpt>
      <trkpt lat="46.70584" lon="-1.69363">
        <ele>52</ele>
        <time>2025-08-07T20:49:24Z</time>
      </trkpt>
      <trkpt lat="46.70582" lon="-1.69377">
        <ele>52</ele>
        <time>2025-08-07T20:49:26Z</time>
      </trkpt>
      <trkpt lat="46.70581" lon="-1.6939">
        <ele>52</ele>
        <time>2025-08-07T20:49:28Z</time>
      </trkpt>
      <trkpt lat="46.7058" lon="-1.69403">
        <ele>52</ele>
        <time>2025-08-07T20:49:31Z</time>
      </trkpt>
      <trkpt lat="46.7058" lon="-1.69416">
        <ele>52</ele>
        <time>2025-08-07T20:49:33Z</time>
      </trkpt>
      <trkpt lat="46.70578" lon="-1.69429">
        <ele>52</ele>
        <time>2025-08-07T20:49:35Z</time>
      </trkpt>
      <trkpt lat="46.70577" lon="-1.69441">
        <ele>51</ele>
        <time>2025-08-07T20:49:37Z</time>
      </trkpt>
      <trkpt lat="46.70576" lon="-1.69454">
        <ele>51</ele>
        <time>2025-08-07T20:49:39Z</time>
      </trkpt>
      <trkpt lat="46.70574" lon="-1.69467">
        <ele>51</ele>
        <time>2025-08-07T20:49:41Z</time>
      </trkpt>
      <trkpt lat="46.70572" lon="-1.69477">
        <ele>51</ele>
        <time>2025-08-07T20:49:43Z</time>
      </trkpt>
      <trkpt lat="46.7057" lon="-1.69488">
        <ele>51</ele>
        <time>2025-08-07T20:49:45Z</time>
      </trkpt>
      <trkpt lat="46.70569" lon="-1.69497">
        <ele>51</ele>
        <time>2025-08-07T20:49:47Z</time>
      </trkpt>
      <trkpt lat="46.70569" lon="-1.69507">
        <ele>51</ele>
        <time>2025-08-07T20:49:49Z</time>
      </trkpt>
      <trkpt lat="46.70567" lon="-1.69516">
        <ele>51</ele>
        <time>2025-08-07T20:49:51Z</time>
      </trkpt>
      <trkpt lat="46.70565" lon="-1.69526">
        <ele>51</ele>
        <time>2025-08-07T20:49:53Z</time>
      </trkpt>
      <trkpt lat="46.70564" lon="-1.69537">
        <ele>51</ele>
        <time>2025-08-07T20:49:55Z</time>
      </trkpt>
      <trkpt lat="46.70561" lon="-1.69549">
        <ele>51</ele>
        <time>2025-08-07T20:49:57Z</time>
      </trkpt>
      <trkpt lat="46.70559" lon="-1.69563">
        <ele>50</ele>
        <time>2025-08-07T20:49:59Z</time>
      </trkpt>
      <trkpt lat="46.70556" lon="-1.69577">
        <ele>50</ele>
        <time>2025-08-07T20:50:01Z</time>
      </trkpt>
      <trkpt lat="46.70554" lon="-1.69593">
        <ele>50</ele>
        <time>2025-08-07T20:50:03Z</time>
      </trkpt>
      <trkpt lat="46.70551" lon="-1.69609">
        <ele>50</ele>
        <time>2025-08-07T20:50:05Z</time>
      </trkpt>
      <trkpt lat="46.70548" lon="-1.69624">
        <ele>49</ele>
        <time>2025-08-07T20:50:07Z</time>
      </trkpt>
      <trkpt lat="46.70544" lon="-1.69639">
        <ele>49</ele>
        <time>2025-08-07T20:50:09Z</time>
      </trkpt>
      <trkpt lat="46.7054" lon="-1.69652">
        <ele>49</ele>
        <time>2025-08-07T20:50:11Z</time>
      </trkpt>
      <trkpt lat="46.70532" lon="-1.69664">
        <ele>49</ele>
        <time>2025-08-07T20:50:13Z</time>
      </trkpt>
      <trkpt lat="46.70524" lon="-1.69674">
        <ele>48</ele>
        <time>2025-08-07T20:50:15Z</time>
      </trkpt>
      <trkpt lat="46.70517" lon="-1.69685">
        <ele>48</ele>
        <time>2025-08-07T20:50:17Z</time>
      </trkpt>
      <trkpt lat="46.70509" lon="-1.69696">
        <ele>48</ele>
        <time>2025-08-07T20:50:19Z</time>
      </trkpt>
      <trkpt lat="46.70502" lon="-1.69707">
        <ele>48</ele>
        <time>2025-08-07T20:50:21Z</time>
      </trkpt>
      <trkpt lat="46.70496" lon="-1.69719">
        <ele>49</ele>
        <time>2025-08-07T20:50:23Z</time>
      </trkpt>
      <trkpt lat="46.70489" lon="-1.6973">
        <ele>48</ele>
        <time>2025-08-07T20:50:25Z</time>
      </trkpt>
      <trkpt lat="46.70482" lon="-1.69743">
        <ele>49</ele>
        <time>2025-08-07T20:50:27Z</time>
      </trkpt>
      <trkpt lat="46.70474" lon="-1.69755">
        <ele>49</ele>
        <time>2025-08-07T20:50:29Z</time>
      </trkpt>
      <trkpt lat="46.70467" lon="-1.69768">
        <ele>49</ele>
        <time>2025-08-07T20:50:31Z</time>
      </trkpt>
      <trkpt lat="46.70459" lon="-1.69781">
        <ele>49</ele>
        <time>2025-08-07T20:50:33Z</time>
      </trkpt>
      <trkpt lat="46.70452" lon="-1.69794">
        <ele>49</ele>
        <time>2025-08-07T20:50:35Z</time>
      </trkpt>
      <trkpt lat="46.70445" lon="-1.69806">
        <ele>49</ele>
        <time>2025-08-07T20:50:37Z</time>
      </trkpt>
      <trkpt lat="46.70439" lon="-1.69818">
        <ele>49</ele>
        <time>2025-08-07T20:50:39Z</time>
      </trkpt>
      <trkpt lat="46.70433" lon="-1.69828">
        <ele>49</ele>
        <time>2025-08-07T20:50:41Z</time>
      </trkpt>
      <trkpt lat="46.70427" lon="-1.69835">
        <ele>49</ele>
        <time>2025-08-07T20:50:43Z</time>
      </trkpt>
      <trkpt lat="46.70422" lon="-1.69841">
        <ele>50</ele>
        <time>2025-08-07T20:50:45Z</time>
      </trkpt>
      <trkpt lat="46.70422" lon="-1.6985">
        <ele>50</ele>
        <time>2025-08-07T20:50:47Z</time>
      </trkpt>
      <trkpt lat="46.70426" lon="-1.6986">
        <ele>50</ele>
        <time>2025-08-07T20:50:49Z</time>
      </trkpt>
      <trkpt lat="46.70431" lon="-1.69873">
        <ele>49</ele>
        <time>2025-08-07T20:50:51Z</time>
      </trkpt>
      <trkpt lat="46.70436" lon="-1.69885">
        <ele>49</ele>
        <time>2025-08-07T20:50:53Z</time>
      </trkpt>
      <trkpt lat="46.70441" lon="-1.69898">
        <ele>49</ele>
        <time>2025-08-07T20:50:55Z</time>
      </trkpt>
      <trkpt lat="46.70446" lon="-1.69911">
        <ele>49</ele>
        <time>2025-08-07T20:50:57Z</time>
      </trkpt>
      <trkpt lat="46.7045" lon="-1.69923">
        <ele>50</ele>
        <time>2025-08-07T20:50:59Z</time>
      </trkpt>
      <trkpt lat="46.70454" lon="-1.69936">
        <ele>50</ele>
        <time>2025-08-07T20:51:01Z</time>
      </trkpt>
      <trkpt lat="46.70459" lon="-1.69948">
        <ele>50</ele>
        <time>2025-08-07T20:51:03Z</time>
      </trkpt>
      <trkpt lat="46.70465" lon="-1.6996">
        <ele>49</ele>
        <time>2025-08-07T20:51:05Z</time>
      </trkpt>
      <trkpt lat="46.70471" lon="-1.69973">
        <ele>49</ele>
        <time>2025-08-07T20:51:07Z</time>
      </trkpt>
      <trkpt lat="46.70477" lon="-1.69987">
        <ele>49</ele>
        <time>2025-08-07T20:51:09Z</time>
      </trkpt>
      <trkpt lat="46.70485" lon="-1.70003">
        <ele>49</ele>
        <time>2025-08-07T20:51:11Z</time>
      </trkpt>
      <trkpt lat="46.70493" lon="-1.70017">
        <ele>49</ele>
        <time>2025-08-07T20:51:13Z</time>
      </trkpt>
      <trkpt lat="46.70501" lon="-1.70031">
        <ele>48</ele>
        <time>2025-08-07T20:51:15Z</time>
      </trkpt>
      <trkpt lat="46.7051" lon="-1.70041">
        <ele>48</ele>
        <time>2025-08-07T20:51:17Z</time>
      </trkpt>
      <trkpt lat="46.70517" lon="-1.70051">
        <ele>48</ele>
        <time>2025-08-07T20:51:19Z</time>
      </trkpt>
      <trkpt lat="46.70524" lon="-1.70062">
        <ele>48</ele>
        <time>2025-08-07T20:51:21Z</time>
      </trkpt>
      <trkpt lat="46.70532" lon="-1.70073">
        <ele>47</ele>
        <time>2025-08-07T20:51:23Z</time>
      </trkpt>
      <trkpt lat="46.70541" lon="-1.70083">
        <ele>47</ele>
        <time>2025-08-07T20:51:25Z</time>
      </trkpt>
      <trkpt lat="46.70551" lon="-1.70093">
        <ele>47</ele>
        <time>2025-08-07T20:51:27Z</time>
      </trkpt>
      <trkpt lat="46.70559" lon="-1.70105">
        <ele>47</ele>
        <time>2025-08-07T20:51:29Z</time>
      </trkpt>
      <trkpt lat="46.70565" lon="-1.70116">
        <ele>47</ele>
        <time>2025-08-07T20:51:31Z</time>
      </trkpt>
      <trkpt lat="46.70572" lon="-1.70127">
        <ele>47</ele>
        <time>2025-08-07T20:51:33Z</time>
      </trkpt>
      <trkpt lat="46.70579" lon="-1.70139">
        <ele>47</ele>
        <time>2025-08-07T20:51:35Z</time>
      </trkpt>
      <trkpt lat="46.70586" lon="-1.70149">
        <ele>47</ele>
        <time>2025-08-07T20:51:37Z</time>
      </trkpt>
      <trkpt lat="46.70594" lon="-1.7016">
        <ele>47</ele>
        <time>2025-08-07T20:51:39Z</time>
      </trkpt>
      <trkpt lat="46.70602" lon="-1.70171">
        <ele>47</ele>
        <time>2025-08-07T20:51:42Z</time>
      </trkpt>
      <trkpt lat="46.70609" lon="-1.7018">
        <ele>48</ele>
        <time>2025-08-07T20:51:44Z</time>
      </trkpt>
      <trkpt lat="46.70615" lon="-1.70188">
        <ele>48</ele>
        <time>2025-08-07T20:51:46Z</time>
      </trkpt>
      <trkpt lat="46.70622" lon="-1.70196">
        <ele>48</ele>
        <time>2025-08-07T20:51:48Z</time>
      </trkpt>
      <trkpt lat="46.70629" lon="-1.70204">
        <ele>48</ele>
        <time>2025-08-07T20:51:50Z</time>
      </trkpt>
      <trkpt lat="46.70636" lon="-1.70214">
        <ele>48</ele>
        <time>2025-08-07T20:51:52Z</time>
      </trkpt>
      <trkpt lat="46.70644" lon="-1.70223">
        <ele>48</ele>
        <time>2025-08-07T20:51:54Z</time>
      </trkpt>
      <trkpt lat="46.70652" lon="-1.70232">
        <ele>48</ele>
        <time>2025-08-07T20:51:56Z</time>
      </trkpt>
      <trkpt lat="46.70661" lon="-1.70242">
        <ele>48</ele>
        <time>2025-08-07T20:51:58Z</time>
      </trkpt>
      <trkpt lat="46.70669" lon="-1.70251">
        <ele>48</ele>
        <time>2025-08-07T20:52:00Z</time>
      </trkpt>
      <trkpt lat="46.70677" lon="-1.70261">
        <ele>48</ele>
        <time>2025-08-07T20:52:02Z</time>
      </trkpt>
      <trkpt lat="46.70685" lon="-1.70272">
        <ele>48</ele>
        <time>2025-08-07T20:52:04Z</time>
      </trkpt>
      <trkpt lat="46.70693" lon="-1.70283">
        <ele>48</ele>
        <time>2025-08-07T20:52:06Z</time>
      </trkpt>
      <trkpt lat="46.707" lon="-1.70293">
        <ele>48</ele>
        <time>2025-08-07T20:52:08Z</time>
      </trkpt>
      <trkpt lat="46.70706" lon="-1.70304">
        <ele>48</ele>
        <time>2025-08-07T20:52:10Z</time>
      </trkpt>
      <trkpt lat="46.70713" lon="-1.70316">
        <ele>48</ele>
        <time>2025-08-07T20:52:12Z</time>
      </trkpt>
      <trkpt lat="46.7072" lon="-1.70327">
        <ele>48</ele>
        <time>2025-08-07T20:52:14Z</time>
      </trkpt>
      <trkpt lat="46.70728" lon="-1.70338">
        <ele>48</ele>
        <time>2025-08-07T20:52:16Z</time>
      </trkpt>
      <trkpt lat="46.70736" lon="-1.70349">
        <ele>48</ele>
        <time>2025-08-07T20:52:18Z</time>
      </trkpt>
      <trkpt lat="46.70744" lon="-1.7036">
        <ele>48</ele>
        <time>2025-08-07T20:52:20Z</time>
      </trkpt>
      <trkpt lat="46.70752" lon="-1.7037">
        <ele>48</ele>
        <time>2025-08-07T20:52:22Z</time>
      </trkpt>
      <trkpt lat="46.7076" lon="-1.7038">
        <ele>48</ele>
        <time>2025-08-07T20:52:24Z</time>
      </trkpt>
      <trkpt lat="46.70768" lon="-1.70388">
        <ele>48</ele>
        <time>2025-08-07T20:52:26Z</time>
      </trkpt>
      <trkpt lat="46.70776" lon="-1.70397">
        <ele>47</ele>
        <time>2025-08-07T20:52:28Z</time>
      </trkpt>
      <trkpt lat="46.70784" lon="-1.70405">
        <ele>47</ele>
        <time>2025-08-07T20:52:30Z</time>
      </trkpt>
      <trkpt lat="46.70794" lon="-1.70413">
        <ele>47</ele>
        <time>2025-08-07T20:52:32Z</time>
      </trkpt>
      <trkpt lat="46.70804" lon="-1.70419">
        <ele>47</ele>
        <time>2025-08-07T20:52:34Z</time>
      </trkpt>
      <trkpt lat="46.70813" lon="-1.70426">
        <ele>47</ele>
        <time>2025-08-07T20:52:36Z</time>
      </trkpt>
      <trkpt lat="46.70823" lon="-1.70431">
        <ele>47</ele>
        <time>2025-08-07T20:52:38Z</time>
      </trkpt>
      <trkpt lat="46.70833" lon="-1.70437">
        <ele>47</ele>
        <time>2025-08-07T20:52:40Z</time>
      </trkpt>
      <trkpt lat="46.70843" lon="-1.70443">
        <ele>47</ele>
        <time>2025-08-07T20:52:42Z</time>
      </trkpt>
      <trkpt lat="46.70853" lon="-1.70449">
        <ele>47</ele>
        <time>2025-08-07T20:52:44Z</time>
      </trkpt>
      <trkpt lat="46.70863" lon="-1.70456">
        <ele>47</ele>
        <time>2025-08-07T20:52:46Z</time>
      </trkpt>
      <trkpt lat="46.70872" lon="-1.70463">
        <ele>47</ele>
        <time>2025-08-07T20:52:48Z</time>
      </trkpt>
      <trkpt lat="46.70882" lon="-1.7047">
        <ele>47</ele>
        <time>2025-08-07T20:52:50Z</time>
      </trkpt>
      <trkpt lat="46.70892" lon="-1.70477">
        <ele>47</ele>
        <time>2025-08-07T20:52:52Z</time>
      </trkpt>
      <trkpt lat="46.70902" lon="-1.70484">
        <ele>47</ele>
        <time>2025-08-07T20:52:54Z</time>
      </trkpt>
      <trkpt lat="46.70913" lon="-1.7049">
        <ele>47</ele>
        <time>2025-08-07T20:52:56Z</time>
      </trkpt>
      <trkpt lat="46.70923" lon="-1.70495">
        <ele>47</ele>
        <time>2025-08-07T20:52:58Z</time>
      </trkpt>
      <trkpt lat="46.70934" lon="-1.705">
        <ele>46</ele>
        <time>2025-08-07T20:53:00Z</time>
      </trkpt>
      <trkpt lat="46.70944" lon="-1.70507">
        <ele>46</ele>
        <time>2025-08-07T20:53:02Z</time>
      </trkpt>
      <trkpt lat="46.70955" lon="-1.70513">
        <ele>47</ele>
        <time>2025-08-07T20:53:04Z</time>
      </trkpt>
      <trkpt lat="46.70965" lon="-1.7052">
        <ele>46</ele>
        <time>2025-08-07T20:53:06Z</time>
      </trkpt>
      <trkpt lat="46.70976" lon="-1.70526">
        <ele>46</ele>
        <time>2025-08-07T20:53:08Z</time>
      </trkpt>
      <trkpt lat="46.70986" lon="-1.70532">
        <ele>46</ele>
        <time>2025-08-07T20:53:10Z</time>
      </trkpt>
      <trkpt lat="46.70997" lon="-1.70538">
        <ele>46</ele>
        <time>2025-08-07T20:53:12Z</time>
      </trkpt>
      <trkpt lat="46.7101" lon="-1.70545">
        <ele>46</ele>
        <time>2025-08-07T20:53:14Z</time>
      </trkpt>
      <trkpt lat="46.71019" lon="-1.70549">
        <ele>46</ele>
        <time>2025-08-07T20:53:16Z</time>
      </trkpt>
      <trkpt lat="46.71026" lon="-1.70551">
        <ele>46</ele>
        <time>2025-08-07T20:53:20Z</time>
      </trkpt>
      <trkpt lat="46.7103" lon="-1.70553">
        <ele>46</ele>
        <time>2025-08-07T20:53:22Z</time>
      </trkpt>
      <trkpt lat="46.71038" lon="-1.70558">
        <ele>46</ele>
        <time>2025-08-07T20:53:24Z</time>
      </trkpt>
      <trkpt lat="46.71047" lon="-1.70563">
        <ele>46</ele>
        <time>2025-08-07T20:53:26Z</time>
      </trkpt>
      <trkpt lat="46.71057" lon="-1.70568">
        <ele>46</ele>
        <time>2025-08-07T20:53:28Z</time>
      </trkpt>
      <trkpt lat="46.71067" lon="-1.70573">
        <ele>46</ele>
        <time>2025-08-07T20:53:30Z</time>
      </trkpt>
      <trkpt lat="46.71078" lon="-1.70578">
        <ele>46</ele>
        <time>2025-08-07T20:53:32Z</time>
      </trkpt>
      <trkpt lat="46.71089" lon="-1.70583">
        <ele>46</ele>
        <time>2025-08-07T20:53:34Z</time>
      </trkpt>
      <trkpt lat="46.71099" lon="-1.70589">
        <ele>46</ele>
        <time>2025-08-07T20:53:36Z</time>
      </trkpt>
      <trkpt lat="46.71109" lon="-1.70594">
        <ele>45</ele>
        <time>2025-08-07T20:53:38Z</time>
      </trkpt>
      <trkpt lat="46.71118" lon="-1.70598">
        <ele>45</ele>
        <time>2025-08-07T20:53:41Z</time>
      </trkpt>
      <trkpt lat="46.71125" lon="-1.70597">
        <ele>45</ele>
        <time>2025-08-07T20:53:43Z</time>
      </trkpt>
      <trkpt lat="46.71129" lon="-1.70586">
        <ele>45</ele>
        <time>2025-08-07T20:53:45Z</time>
      </trkpt>
      <trkpt lat="46.71132" lon="-1.7057">
        <ele>45</ele>
        <time>2025-08-07T20:53:47Z</time>
      </trkpt>
      <trkpt lat="46.71136" lon="-1.70552">
        <ele>45</ele>
        <time>2025-08-07T20:53:49Z</time>
      </trkpt>
      <trkpt lat="46.7114" lon="-1.70534">
        <ele>44</ele>
        <time>2025-08-07T20:53:51Z</time>
      </trkpt>
      <trkpt lat="46.71145" lon="-1.70516">
        <ele>44</ele>
        <time>2025-08-07T20:53:53Z</time>
      </trkpt>
      <trkpt lat="46.7115" lon="-1.70498">
        <ele>44</ele>
        <time>2025-08-07T20:53:55Z</time>
      </trkpt>
      <trkpt lat="46.71156" lon="-1.7048">
        <ele>44</ele>
        <time>2025-08-07T20:53:57Z</time>
      </trkpt>
      <trkpt lat="46.71161" lon="-1.70462">
        <ele>44</ele>
        <time>2025-08-07T20:53:59Z</time>
      </trkpt>
      <trkpt lat="46.71166" lon="-1.70443">
        <ele>44</ele>
        <time>2025-08-07T20:54:01Z</time>
      </trkpt>
      <trkpt lat="46.71171" lon="-1.70424">
        <ele>44</ele>
        <time>2025-08-07T20:54:03Z</time>
      </trkpt>
      <trkpt lat="46.71176" lon="-1.70405">
        <ele>45</ele>
        <time>2025-08-07T20:54:05Z</time>
      </trkpt>
      <trkpt lat="46.71181" lon="-1.70386">
        <ele>44</ele>
        <time>2025-08-07T20:54:07Z</time>
      </trkpt>
      <trkpt lat="46.71186" lon="-1.70367">
        <ele>45</ele>
        <time>2025-08-07T20:54:09Z</time>
      </trkpt>
      <trkpt lat="46.71191" lon="-1.70348">
        <ele>45</ele>
        <time>2025-08-07T20:54:11Z</time>
      </trkpt>
      <trkpt lat="46.71196" lon="-1.70329">
        <ele>45</ele>
        <time>2025-08-07T20:54:13Z</time>
      </trkpt>
      <trkpt lat="46.71201" lon="-1.70311">
        <ele>45</ele>
        <time>2025-08-07T20:54:15Z</time>
      </trkpt>
      <trkpt lat="46.71206" lon="-1.70292">
        <ele>45</ele>
        <time>2025-08-07T20:54:17Z</time>
      </trkpt>
      <trkpt lat="46.71211" lon="-1.70273">
        <ele>45</ele>
        <time>2025-08-07T20:54:19Z</time>
      </trkpt>
      <trkpt lat="46.71216" lon="-1.70254">
        <ele>45</ele>
        <time>2025-08-07T20:54:21Z</time>
      </trkpt>
      <trkpt lat="46.71222" lon="-1.70237">
        <ele>45</ele>
        <time>2025-08-07T20:54:23Z</time>
      </trkpt>
      <trkpt lat="46.71227" lon="-1.70219">
        <ele>45</ele>
        <time>2025-08-07T20:54:25Z</time>
      </trkpt>
      <trkpt lat="46.71232" lon="-1.70201">
        <ele>45</ele>
        <time>2025-08-07T20:54:27Z</time>
      </trkpt>
      <trkpt lat="46.71236" lon="-1.70183">
        <ele>45</ele>
        <time>2025-08-07T20:54:29Z</time>
      </trkpt>
      <trkpt lat="46.71241" lon="-1.70166">
        <ele>45</ele>
        <time>2025-08-07T20:54:31Z</time>
      </trkpt>
      <trkpt lat="46.71246" lon="-1.70148">
        <ele>45</ele>
        <time>2025-08-07T20:54:33Z</time>
      </trkpt>
      <trkpt lat="46.71252" lon="-1.7013">
        <ele>45</ele>
        <time>2025-08-07T20:54:35Z</time>
      </trkpt>
      <trkpt lat="46.71257" lon="-1.70112">
        <ele>45</ele>
        <time>2025-08-07T20:54:37Z</time>
      </trkpt>
      <trkpt lat="46.71262" lon="-1.70095">
        <ele>45</ele>
        <time>2025-08-07T20:54:39Z</time>
      </trkpt>
      <trkpt lat="46.71266" lon="-1.70077">
        <ele>45</ele>
        <time>2025-08-07T20:54:41Z</time>
      </trkpt>
      <trkpt lat="46.7127" lon="-1.7006">
        <ele>45</ele>
        <time>2025-08-07T20:54:43Z</time>
      </trkpt>
      <trkpt lat="46.71275" lon="-1.70041">
        <ele>45</ele>
        <time>2025-08-07T20:54:45Z</time>
      </trkpt>
      <trkpt lat="46.71279" lon="-1.70024">
        <ele>45</ele>
        <time>2025-08-07T20:54:47Z</time>
      </trkpt>
      <trkpt lat="46.71284" lon="-1.70006">
        <ele>45</ele>
        <time>2025-08-07T20:54:49Z</time>
      </trkpt>
      <trkpt lat="46.71288" lon="-1.69988">
        <ele>45</ele>
        <time>2025-08-07T20:54:51Z</time>
      </trkpt>
      <trkpt lat="46.71293" lon="-1.6997">
        <ele>45</ele>
        <time>2025-08-07T20:54:53Z</time>
      </trkpt>
      <trkpt lat="46.71298" lon="-1.69952">
        <ele>45</ele>
        <time>2025-08-07T20:54:55Z</time>
      </trkpt>
      <trkpt lat="46.71302" lon="-1.69934">
        <ele>45</ele>
        <time>2025-08-07T20:54:57Z</time>
      </trkpt>
      <trkpt lat="46.71307" lon="-1.69916">
        <ele>45</ele>
        <time>2025-08-07T20:54:59Z</time>
      </trkpt>
      <trkpt lat="46.71313" lon="-1.69898">
        <ele>46</ele>
        <time>2025-08-07T20:55:01Z</time>
      </trkpt>
      <trkpt lat="46.71318" lon="-1.6988">
        <ele>46</ele>
        <time>2025-08-07T20:55:03Z</time>
      </trkpt>
      <trkpt lat="46.71323" lon="-1.69861">
        <ele>46</ele>
        <time>2025-08-07T20:55:05Z</time>
      </trkpt>
      <trkpt lat="46.71328" lon="-1.69843">
        <ele>46</ele>
        <time>2025-08-07T20:55:07Z</time>
      </trkpt>
      <trkpt lat="46.71333" lon="-1.69825">
        <ele>46</ele>
        <time>2025-08-07T20:55:09Z</time>
      </trkpt>
      <trkpt lat="46.71338" lon="-1.69808">
        <ele>46</ele>
        <time>2025-08-07T20:55:11Z</time>
      </trkpt>
      <trkpt lat="46.71343" lon="-1.69792">
        <ele>46</ele>
        <time>2025-08-07T20:55:13Z</time>
      </trkpt>
      <trkpt lat="46.71346" lon="-1.69778">
        <ele>47</ele>
        <time>2025-08-07T20:55:15Z</time>
      </trkpt>
      <trkpt lat="46.7135" lon="-1.69764">
        <ele>47</ele>
        <time>2025-08-07T20:55:17Z</time>
      </trkpt>
      <trkpt lat="46.71355" lon="-1.69742">
        <ele>47</ele>
        <time>2025-08-07T20:55:19Z</time>
      </trkpt>
      <trkpt lat="46.7136" lon="-1.69723">
        <ele>47</ele>
        <time>2025-08-07T20:55:21Z</time>
      </trkpt>
      <trkpt lat="46.71364" lon="-1.69707">
        <ele>47</ele>
        <time>2025-08-07T20:55:23Z</time>
      </trkpt>
      <trkpt lat="46.71369" lon="-1.69691">
        <ele>47</ele>
        <time>2025-08-07T20:55:25Z</time>
      </trkpt>
      <trkpt lat="46.71373" lon="-1.69674">
        <ele>47</ele>
        <time>2025-08-07T20:55:27Z</time>
      </trkpt>
      <trkpt lat="46.71378" lon="-1.69657">
        <ele>47</ele>
        <time>2025-08-07T20:55:29Z</time>
      </trkpt>
      <trkpt lat="46.71383" lon="-1.6964">
        <ele>47</ele>
        <time>2025-08-07T20:55:31Z</time>
      </trkpt>
      <trkpt lat="46.71388" lon="-1.69622">
        <ele>47</ele>
        <time>2025-08-07T20:55:33Z</time>
      </trkpt>
      <trkpt lat="46.71393" lon="-1.69604">
        <ele>47</ele>
        <time>2025-08-07T20:55:35Z</time>
      </trkpt>
      <trkpt lat="46.71398" lon="-1.69587">
        <ele>47</ele>
        <time>2025-08-07T20:55:37Z</time>
      </trkpt>
      <trkpt lat="46.71402" lon="-1.69569">
        <ele>47</ele>
        <time>2025-08-07T20:55:39Z</time>
      </trkpt>
      <trkpt lat="46.71407" lon="-1.69551">
        <ele>47</ele>
        <time>2025-08-07T20:55:41Z</time>
      </trkpt>
      <trkpt lat="46.71412" lon="-1.69534">
        <ele>47</ele>
        <time>2025-08-07T20:55:43Z</time>
      </trkpt>
      <trkpt lat="46.71417" lon="-1.69518">
        <ele>47</ele>
        <time>2025-08-07T20:55:45Z</time>
      </trkpt>
      <trkpt lat="46.71421" lon="-1.69503">
        <ele>48</ele>
        <time>2025-08-07T20:55:47Z</time>
      </trkpt>
      <trkpt lat="46.71426" lon="-1.69489">
        <ele>48</ele>
        <time>2025-08-07T20:55:49Z</time>
      </trkpt>
      <trkpt lat="46.71429" lon="-1.69477">
        <ele>48</ele>
        <time>2025-08-07T20:55:52Z</time>
      </trkpt>
      <trkpt lat="46.71432" lon="-1.69465">
        <ele>48</ele>
        <time>2025-08-07T20:55:54Z</time>
      </trkpt>
      <trkpt lat="46.71434" lon="-1.69455">
        <ele>48</ele>
        <time>2025-08-07T20:55:56Z</time>
      </trkpt>
      <trkpt lat="46.71437" lon="-1.69445">
        <ele>49</ele>
        <time>2025-08-07T20:55:58Z</time>
      </trkpt>
      <trkpt lat="46.71441" lon="-1.69433">
        <ele>49</ele>
        <time>2025-08-07T20:56:00Z</time>
      </trkpt>
      <trkpt lat="46.71444" lon="-1.6942">
        <ele>49</ele>
        <time>2025-08-07T20:56:02Z</time>
      </trkpt>
      <trkpt lat="46.71448" lon="-1.69406">
        <ele>49</ele>
        <time>2025-08-07T20:56:04Z</time>
      </trkpt>
      <trkpt lat="46.71452" lon="-1.69392">
        <ele>48</ele>
        <time>2025-08-07T20:56:06Z</time>
      </trkpt>
      <trkpt lat="46.71456" lon="-1.69377">
        <ele>49</ele>
        <time>2025-08-07T20:56:08Z</time>
      </trkpt>
      <trkpt lat="46.7146" lon="-1.69363">
        <ele>49</ele>
        <time>2025-08-07T20:56:10Z</time>
      </trkpt>
      <trkpt lat="46.71463" lon="-1.69349">
        <ele>49</ele>
        <time>2025-08-07T20:56:12Z</time>
      </trkpt>
      <trkpt lat="46.71467" lon="-1.69337">
        <ele>49</ele>
        <time>2025-08-07T20:56:14Z</time>
      </trkpt>
      <trkpt lat="46.7147" lon="-1.69326">
        <ele>49</ele>
        <time>2025-08-07T20:56:16Z</time>
      </trkpt>
      <trkpt lat="46.71473" lon="-1.69315">
        <ele>49</ele>
        <time>2025-08-07T20:56:18Z</time>
      </trkpt>
      <trkpt lat="46.71479" lon="-1.69309">
        <ele>49</ele>
        <time>2025-08-07T20:56:20Z</time>
      </trkpt>
      <trkpt lat="46.71488" lon="-1.69309">
        <ele>48</ele>
        <time>2025-08-07T20:56:22Z</time>
      </trkpt>
      <trkpt lat="46.71498" lon="-1.6931">
        <ele>48</ele>
        <time>2025-08-07T20:56:24Z</time>
      </trkpt>
      <trkpt lat="46.7151" lon="-1.69311">
        <ele>48</ele>
        <time>2025-08-07T20:56:26Z</time>
      </trkpt>
      <trkpt lat="46.71522" lon="-1.69311">
        <ele>48</ele>
        <time>2025-08-07T20:56:28Z</time>
      </trkpt>
      <trkpt lat="46.71534" lon="-1.69312">
        <ele>48</ele>
        <time>2025-08-07T20:56:30Z</time>
      </trkpt>
      <trkpt lat="46.71547" lon="-1.69312">
        <ele>48</ele>
        <time>2025-08-07T20:56:32Z</time>
      </trkpt>
      <trkpt lat="46.71559" lon="-1.69311">
        <ele>48</ele>
        <time>2025-08-07T20:56:34Z</time>
      </trkpt>
      <trkpt lat="46.71571" lon="-1.69312">
        <ele>48</ele>
        <time>2025-08-07T20:56:36Z</time>
      </trkpt>
      <trkpt lat="46.71584" lon="-1.69311">
        <ele>48</ele>
        <time>2025-08-07T20:56:38Z</time>
      </trkpt>
      <trkpt lat="46.71596" lon="-1.69311">
        <ele>48</ele>
        <time>2025-08-07T20:56:40Z</time>
      </trkpt>
      <trkpt lat="46.71609" lon="-1.69312">
        <ele>47</ele>
        <time>2025-08-07T20:56:42Z</time>
      </trkpt>
      <trkpt lat="46.71623" lon="-1.69312">
        <ele>47</ele>
        <time>2025-08-07T20:56:44Z</time>
      </trkpt>
      <trkpt lat="46.71635" lon="-1.69312">
        <ele>47</ele>
        <time>2025-08-07T20:56:46Z</time>
      </trkpt>
      <trkpt lat="46.71649" lon="-1.69312">
        <ele>47</ele>
        <time>2025-08-07T20:56:48Z</time>
      </trkpt>
      <trkpt lat="46.71664" lon="-1.69313">
        <ele>47</ele>
        <time>2025-08-07T20:56:50Z</time>
      </trkpt>
      <trkpt lat="46.71678" lon="-1.69314">
        <ele>47</ele>
        <time>2025-08-07T20:56:52Z</time>
      </trkpt>
      <trkpt lat="46.7169" lon="-1.69316">
        <ele>47</ele>
        <time>2025-08-07T20:56:54Z</time>
      </trkpt>
      <trkpt lat="46.71701" lon="-1.69319">
        <ele>47</ele>
        <time>2025-08-07T20:56:56Z</time>
      </trkpt>
      <trkpt lat="46.71713" lon="-1.69321">
        <ele>47</ele>
        <time>2025-08-07T20:56:58Z</time>
      </trkpt>
      <trkpt lat="46.71726" lon="-1.69324">
        <ele>47</ele>
        <time>2025-08-07T20:57:00Z</time>
      </trkpt>
      <trkpt lat="46.71738" lon="-1.69326">
        <ele>47</ele>
        <time>2025-08-07T20:57:02Z</time>
      </trkpt>
      <trkpt lat="46.7175" lon="-1.69329">
        <ele>47</ele>
        <time>2025-08-07T20:57:04Z</time>
      </trkpt>
      <trkpt lat="46.71763" lon="-1.69332">
        <ele>47</ele>
        <time>2025-08-07T20:57:06Z</time>
      </trkpt>
      <trkpt lat="46.71773" lon="-1.69336">
        <ele>47</ele>
        <time>2025-08-07T20:57:08Z</time>
      </trkpt>
      <trkpt lat="46.71784" lon="-1.69341">
        <ele>47</ele>
        <time>2025-08-07T20:57:10Z</time>
      </trkpt>
      <trkpt lat="46.71796" lon="-1.69346">
        <ele>47</ele>
        <time>2025-08-07T20:57:12Z</time>
      </trkpt>
      <trkpt lat="46.71806" lon="-1.69351">
        <ele>48</ele>
        <time>2025-08-07T20:57:14Z</time>
      </trkpt>
      <trkpt lat="46.71818" lon="-1.69356">
        <ele>47</ele>
        <time>2025-08-07T20:57:16Z</time>
      </trkpt>
      <trkpt lat="46.71829" lon="-1.69363">
        <ele>48</ele>
        <time>2025-08-07T20:57:18Z</time>
      </trkpt>
      <trkpt lat="46.7184" lon="-1.69369">
        <ele>48</ele>
        <time>2025-08-07T20:57:20Z</time>
      </trkpt>
      <trkpt lat="46.71852" lon="-1.69375">
        <ele>48</ele>
        <time>2025-08-07T20:57:22Z</time>
      </trkpt>
      <trkpt lat="46.71862" lon="-1.69382">
        <ele>48</ele>
        <time>2025-08-07T20:57:24Z</time>
      </trkpt>
      <trkpt lat="46.71872" lon="-1.69389">
        <ele>48</ele>
        <time>2025-08-07T20:57:26Z</time>
      </trkpt>
      <trkpt lat="46.71881" lon="-1.69395">
        <ele>48</ele>
        <time>2025-08-07T20:57:28Z</time>
      </trkpt>
      <trkpt lat="46.71894" lon="-1.69403">
        <ele>48</ele>
        <time>2025-08-07T20:57:30Z</time>
      </trkpt>
      <trkpt lat="46.71906" lon="-1.69413">
        <ele>48</ele>
        <time>2025-08-07T20:57:32Z</time>
      </trkpt>
      <trkpt lat="46.71914" lon="-1.69419">
        <ele>48</ele>
        <time>2025-08-07T20:57:34Z</time>
      </trkpt>
      <trkpt lat="46.71925" lon="-1.69427">
        <ele>48</ele>
        <time>2025-08-07T20:57:36Z</time>
      </trkpt>
      <trkpt lat="46.71935" lon="-1.69434">
        <ele>47</ele>
        <time>2025-08-07T20:57:38Z</time>
      </trkpt>
      <trkpt lat="46.71944" lon="-1.6944">
        <ele>47</ele>
        <time>2025-08-07T20:57:40Z</time>
      </trkpt>
      <trkpt lat="46.71955" lon="-1.69447">
        <ele>47</ele>
        <time>2025-08-07T20:57:42Z</time>
      </trkpt>
      <trkpt lat="46.71966" lon="-1.69454">
        <ele>47</ele>
        <time>2025-08-07T20:57:44Z</time>
      </trkpt>
      <trkpt lat="46.71977" lon="-1.6946">
        <ele>47</ele>
        <time>2025-08-07T20:57:46Z</time>
      </trkpt>
      <trkpt lat="46.71988" lon="-1.69466">
        <ele>47</ele>
        <time>2025-08-07T20:57:48Z</time>
      </trkpt>
      <trkpt lat="46.71999" lon="-1.69473">
        <ele>47</ele>
        <time>2025-08-07T20:57:50Z</time>
      </trkpt>
      <trkpt lat="46.72009" lon="-1.69481">
        <ele>47</ele>
        <time>2025-08-07T20:57:52Z</time>
      </trkpt>
      <trkpt lat="46.72018" lon="-1.69489">
        <ele>47</ele>
        <time>2025-08-07T20:57:54Z</time>
      </trkpt>
      <trkpt lat="46.72026" lon="-1.69497">
        <ele>47</ele>
        <time>2025-08-07T20:57:56Z</time>
      </trkpt>
      <trkpt lat="46.72033" lon="-1.69504">
        <ele>47</ele>
        <time>2025-08-07T20:57:59Z</time>
      </trkpt>
      <trkpt lat="46.72038" lon="-1.69511">
        <ele>47</ele>
        <time>2025-08-07T20:58:01Z</time>
      </trkpt>
      <trkpt lat="46.72043" lon="-1.69518">
        <ele>47</ele>
        <time>2025-08-07T20:58:03Z</time>
      </trkpt>
      <trkpt lat="46.72049" lon="-1.69524">
        <ele>47</ele>
        <time>2025-08-07T20:58:05Z</time>
      </trkpt>
      <trkpt lat="46.72055" lon="-1.69532">
        <ele>47</ele>
        <time>2025-08-07T20:58:07Z</time>
      </trkpt>
      <trkpt lat="46.72062" lon="-1.69539">
        <ele>47</ele>
        <time>2025-08-07T20:58:09Z</time>
      </trkpt>
      <trkpt lat="46.7207" lon="-1.69545">
        <ele>47</ele>
        <time>2025-08-07T20:58:11Z</time>
      </trkpt>
      <trkpt lat="46.72076" lon="-1.6955">
        <ele>47</ele>
        <time>2025-08-07T20:58:13Z</time>
      </trkpt>
      <trkpt lat="46.72083" lon="-1.69556">
        <ele>47</ele>
        <time>2025-08-07T20:58:15Z</time>
      </trkpt>
      <trkpt lat="46.72089" lon="-1.69562">
        <ele>47</ele>
        <time>2025-08-07T20:58:17Z</time>
      </trkpt>
      <trkpt lat="46.72095" lon="-1.69568">
        <ele>47</ele>
        <time>2025-08-07T20:58:19Z</time>
      </trkpt>
      <trkpt lat="46.72101" lon="-1.69573">
        <ele>47</ele>
        <time>2025-08-07T20:58:21Z</time>
      </trkpt>
      <trkpt lat="46.72108" lon="-1.69578">
        <ele>47</ele>
        <time>2025-08-07T20:58:23Z</time>
      </trkpt>
      <trkpt lat="46.72115" lon="-1.69583">
        <ele>47</ele>
        <time>2025-08-07T20:58:25Z</time>
      </trkpt>
      <trkpt lat="46.7212" lon="-1.69588">
        <ele>47</ele>
        <time>2025-08-07T20:58:27Z</time>
      </trkpt>
      <trkpt lat="46.72127" lon="-1.69593">
        <ele>47</ele>
        <time>2025-08-07T20:58:29Z</time>
      </trkpt>
      <trkpt lat="46.72134" lon="-1.69599">
        <ele>47</ele>
        <time>2025-08-07T20:58:31Z</time>
      </trkpt>
      <trkpt lat="46.72139" lon="-1.69604">
        <ele>47</ele>
        <time>2025-08-07T20:58:33Z</time>
      </trkpt>
      <trkpt lat="46.72145" lon="-1.69609">
        <ele>46</ele>
        <time>2025-08-07T20:58:35Z</time>
      </trkpt>
      <trkpt lat="46.72151" lon="-1.69613">
        <ele>46</ele>
        <time>2025-08-07T20:58:37Z</time>
      </trkpt>
      <trkpt lat="46.72157" lon="-1.69619">
        <ele>46</ele>
        <time>2025-08-07T20:58:39Z</time>
      </trkpt>
      <trkpt lat="46.72162" lon="-1.69624">
        <ele>46</ele>
        <time>2025-08-07T20:58:41Z</time>
      </trkpt>
      <trkpt lat="46.72166" lon="-1.69629">
        <ele>46</ele>
        <time>2025-08-07T20:58:43Z</time>
      </trkpt>
      <trkpt lat="46.72171" lon="-1.69634">
        <ele>46</ele>
        <time>2025-08-07T20:58:45Z</time>
      </trkpt>
      <trkpt lat="46.72178" lon="-1.69639">
        <ele>46</ele>
        <time>2025-08-07T20:58:47Z</time>
      </trkpt>
      <trkpt lat="46.72186" lon="-1.69645">
        <ele>46</ele>
        <time>2025-08-07T20:58:49Z</time>
      </trkpt>
      <trkpt lat="46.72196" lon="-1.69652">
        <ele>45</ele>
        <time>2025-08-07T20:58:51Z</time>
      </trkpt>
      <trkpt lat="46.72207" lon="-1.69661">
        <ele>45</ele>
        <time>2025-08-07T20:58:53Z</time>
      </trkpt>
      <trkpt lat="46.72217" lon="-1.6967">
        <ele>45</ele>
        <time>2025-08-07T20:58:55Z</time>
      </trkpt>
      <trkpt lat="46.72227" lon="-1.69678">
        <ele>45</ele>
        <time>2025-08-07T20:58:57Z</time>
      </trkpt>
      <trkpt lat="46.72237" lon="-1.69687">
        <ele>45</ele>
        <time>2025-08-07T20:58:59Z</time>
      </trkpt>
      <trkpt lat="46.72248" lon="-1.69698">
        <ele>44</ele>
        <time>2025-08-07T20:59:01Z</time>
      </trkpt>
      <trkpt lat="46.72258" lon="-1.69708">
        <ele>44</ele>
        <time>2025-08-07T20:59:03Z</time>
      </trkpt>
      <trkpt lat="46.72269" lon="-1.69718">
        <ele>44</ele>
        <time>2025-08-07T20:59:05Z</time>
      </trkpt>
      <trkpt lat="46.72279" lon="-1.69728">
        <ele>44</ele>
        <time>2025-08-07T20:59:07Z</time>
      </trkpt>
      <trkpt lat="46.72289" lon="-1.69739">
        <ele>44</ele>
        <time>2025-08-07T20:59:09Z</time>
      </trkpt>
      <trkpt lat="46.72298" lon="-1.6975">
        <ele>44</ele>
        <time>2025-08-07T20:59:11Z</time>
      </trkpt>
      <trkpt lat="46.72307" lon="-1.69761">
        <ele>44</ele>
        <time>2025-08-07T20:59:13Z</time>
      </trkpt>
      <trkpt lat="46.72317" lon="-1.69773">
        <ele>44</ele>
        <time>2025-08-07T20:59:15Z</time>
      </trkpt>
      <trkpt lat="46.72326" lon="-1.69786">
        <ele>44</ele>
        <time>2025-08-07T20:59:17Z</time>
      </trkpt>
      <trkpt lat="46.72335" lon="-1.69799">
        <ele>44</ele>
        <time>2025-08-07T20:59:19Z</time>
      </trkpt>
      <trkpt lat="46.72343" lon="-1.69812">
        <ele>45</ele>
        <time>2025-08-07T20:59:21Z</time>
      </trkpt>
      <trkpt lat="46.7235" lon="-1.69826">
        <ele>45</ele>
        <time>2025-08-07T20:59:23Z</time>
      </trkpt>
      <trkpt lat="46.72358" lon="-1.69838">
        <ele>45</ele>
        <time>2025-08-07T20:59:25Z</time>
      </trkpt>
      <trkpt lat="46.72366" lon="-1.6985">
        <ele>45</ele>
        <time>2025-08-07T20:59:27Z</time>
      </trkpt>
      <trkpt lat="46.72373" lon="-1.69863">
        <ele>45</ele>
        <time>2025-08-07T20:59:29Z</time>
      </trkpt>
      <trkpt lat="46.72382" lon="-1.69875">
        <ele>45</ele>
        <time>2025-08-07T20:59:31Z</time>
      </trkpt>
      <trkpt lat="46.72391" lon="-1.69888">
        <ele>45</ele>
        <time>2025-08-07T20:59:33Z</time>
      </trkpt>
      <trkpt lat="46.72399" lon="-1.69902">
        <ele>45</ele>
        <time>2025-08-07T20:59:35Z</time>
      </trkpt>
      <trkpt lat="46.72407" lon="-1.69915">
        <ele>45</ele>
        <time>2025-08-07T20:59:37Z</time>
      </trkpt>
      <trkpt lat="46.72414" lon="-1.69929">
        <ele>45</ele>
        <time>2025-08-07T20:59:39Z</time>
      </trkpt>
      <trkpt lat="46.72421" lon="-1.69942">
        <ele>45</ele>
        <time>2025-08-07T20:59:41Z</time>
      </trkpt>
      <trkpt lat="46.72433" lon="-1.6996">
        <ele>45</ele>
        <time>2025-08-07T20:59:43Z</time>
      </trkpt>
      <trkpt lat="46.72442" lon="-1.69975">
        <ele>45</ele>
        <time>2025-08-07T20:59:45Z</time>
      </trkpt>
      <trkpt lat="46.7245" lon="-1.69988">
        <ele>45</ele>
        <time>2025-08-07T20:59:47Z</time>
      </trkpt>
      <trkpt lat="46.72458" lon="-1.7">
        <ele>44</ele>
        <time>2025-08-07T20:59:49Z</time>
      </trkpt>
      <trkpt lat="46.72466" lon="-1.70013">
        <ele>44</ele>
        <time>2025-08-07T20:59:51Z</time>
      </trkpt>
      <trkpt lat="46.72474" lon="-1.70028">
        <ele>44</ele>
        <time>2025-08-07T20:59:53Z</time>
      </trkpt>
      <trkpt lat="46.72482" lon="-1.70042">
        <ele>44</ele>
        <time>2025-08-07T20:59:55Z</time>
      </trkpt>
      <trkpt lat="46.72489" lon="-1.70057">
        <ele>44</ele>
        <time>2025-08-07T20:59:57Z</time>
      </trkpt>
      <trkpt lat="46.72497" lon="-1.70071">
        <ele>44</ele>
        <time>2025-08-07T20:59:59Z</time>
      </trkpt>
      <trkpt lat="46.72504" lon="-1.70086">
        <ele>44</ele>
        <time>2025-08-07T21:00:01Z</time>
      </trkpt>
      <trkpt lat="46.72512" lon="-1.701">
        <ele>44</ele>
        <time>2025-08-07T21:00:03Z</time>
      </trkpt>
      <trkpt lat="46.72519" lon="-1.70114">
        <ele>44</ele>
        <time>2025-08-07T21:00:05Z</time>
      </trkpt>
      <trkpt lat="46.72527" lon="-1.70128">
        <ele>44</ele>
        <time>2025-08-07T21:00:08Z</time>
      </trkpt>
      <trkpt lat="46.72535" lon="-1.70141">
        <ele>44</ele>
        <time>2025-08-07T21:00:10Z</time>
      </trkpt>
      <trkpt lat="46.72543" lon="-1.70154">
        <ele>44</ele>
        <time>2025-08-07T21:00:12Z</time>
      </trkpt>
      <trkpt lat="46.7255" lon="-1.70167">
        <ele>44</ele>
        <time>2025-08-07T21:00:14Z</time>
      </trkpt>
      <trkpt lat="46.72558" lon="-1.70182">
        <ele>43</ele>
        <time>2025-08-07T21:00:16Z</time>
      </trkpt>
      <trkpt lat="46.72566" lon="-1.70196">
        <ele>43</ele>
        <time>2025-08-07T21:00:18Z</time>
      </trkpt>
      <trkpt lat="46.72572" lon="-1.7021">
        <ele>44</ele>
        <time>2025-08-07T21:00:20Z</time>
      </trkpt>
      <trkpt lat="46.72579" lon="-1.70224">
        <ele>44</ele>
        <time>2025-08-07T21:00:22Z</time>
      </trkpt>
      <trkpt lat="46.72586" lon="-1.70237">
        <ele>44</ele>
        <time>2025-08-07T21:00:24Z</time>
      </trkpt>
      <trkpt lat="46.72593" lon="-1.70249">
        <ele>44</ele>
        <time>2025-08-07T21:00:26Z</time>
      </trkpt>
      <trkpt lat="46.726" lon="-1.70259">
        <ele>45</ele>
        <time>2025-08-07T21:00:28Z</time>
      </trkpt>
      <trkpt lat="46.72607" lon="-1.70261">
        <ele>45</ele>
        <time>2025-08-07T21:00:30Z</time>
      </trkpt>
      <trkpt lat="46.72615" lon="-1.70254">
        <ele>45</ele>
        <time>2025-08-07T21:00:32Z</time>
      </trkpt>
      <trkpt lat="46.72623" lon="-1.70242">
        <ele>45</ele>
        <time>2025-08-07T21:00:34Z</time>
      </trkpt>
      <trkpt lat="46.72631" lon="-1.70229">
        <ele>44</ele>
        <time>2025-08-07T21:00:36Z</time>
      </trkpt>
      <trkpt lat="46.7264" lon="-1.70216">
        <ele>44</ele>
        <time>2025-08-07T21:00:38Z</time>
      </trkpt>
      <trkpt lat="46.72649" lon="-1.70203">
        <ele>44</ele>
        <time>2025-08-07T21:00:40Z</time>
      </trkpt>
      <trkpt lat="46.72658" lon="-1.70189">
        <ele>43</ele>
        <time>2025-08-07T21:00:42Z</time>
      </trkpt>
      <trkpt lat="46.72668" lon="-1.70176">
        <ele>43</ele>
        <time>2025-08-07T21:00:44Z</time>
      </trkpt>
      <trkpt lat="46.72677" lon="-1.70162">
        <ele>43</ele>
        <time>2025-08-07T21:00:46Z</time>
      </trkpt>
      <trkpt lat="46.72687" lon="-1.70149">
        <ele>43</ele>
        <time>2025-08-07T21:00:48Z</time>
      </trkpt>
      <trkpt lat="46.72696" lon="-1.70135">
        <ele>43</ele>
        <time>2025-08-07T21:00:50Z</time>
      </trkpt>
      <trkpt lat="46.72705" lon="-1.70122">
        <ele>43</ele>
        <time>2025-08-07T21:00:52Z</time>
      </trkpt>
      <trkpt lat="46.72712" lon="-1.70108">
        <ele>43</ele>
        <time>2025-08-07T21:00:54Z</time>
      </trkpt>
      <trkpt lat="46.72719" lon="-1.70092">
        <ele>43</ele>
        <time>2025-08-07T21:00:56Z</time>
      </trkpt>
      <trkpt lat="46.72724" lon="-1.70075">
        <ele>42</ele>
        <time>2025-08-07T21:00:58Z</time>
      </trkpt>
      <trkpt lat="46.7273" lon="-1.70057">
        <ele>42</ele>
        <time>2025-08-07T21:01:00Z</time>
      </trkpt>
      <trkpt lat="46.72735" lon="-1.70039">
        <ele>42</ele>
        <time>2025-08-07T21:01:02Z</time>
      </trkpt>
      <trkpt lat="46.72741" lon="-1.70021">
        <ele>42</ele>
        <time>2025-08-07T21:01:04Z</time>
      </trkpt>
      <trkpt lat="46.72747" lon="-1.70003">
        <ele>42</ele>
        <time>2025-08-07T21:01:06Z</time>
      </trkpt>
      <trkpt lat="46.72753" lon="-1.69985">
        <ele>41</ele>
        <time>2025-08-07T21:01:08Z</time>
      </trkpt>
      <trkpt lat="46.72759" lon="-1.69967">
        <ele>41</ele>
        <time>2025-08-07T21:01:10Z</time>
      </trkpt>
      <trkpt lat="46.72765" lon="-1.69948">
        <ele>41</ele>
        <time>2025-08-07T21:01:12Z</time>
      </trkpt>
      <trkpt lat="46.72771" lon="-1.6993">
        <ele>40</ele>
        <time>2025-08-07T21:01:14Z</time>
      </trkpt>
      <trkpt lat="46.72777" lon="-1.69911">
        <ele>40</ele>
        <time>2025-08-07T21:01:16Z</time>
      </trkpt>
      <trkpt lat="46.72783" lon="-1.69893">
        <ele>40</ele>
        <time>2025-08-07T21:01:18Z</time>
      </trkpt>
      <trkpt lat="46.72789" lon="-1.69874">
        <ele>40</ele>
        <time>2025-08-07T21:01:20Z</time>
      </trkpt>
      <trkpt lat="46.72794" lon="-1.69856">
        <ele>40</ele>
        <time>2025-08-07T21:01:22Z</time>
      </trkpt>
      <trkpt lat="46.728" lon="-1.69838">
        <ele>39</ele>
        <time>2025-08-07T21:01:24Z</time>
      </trkpt>
      <trkpt lat="46.72805" lon="-1.6982">
        <ele>39</ele>
        <time>2025-08-07T21:01:26Z</time>
      </trkpt>
      <trkpt lat="46.72811" lon="-1.69802">
        <ele>39</ele>
        <time>2025-08-07T21:01:28Z</time>
      </trkpt>
      <trkpt lat="46.72817" lon="-1.69784">
        <ele>39</ele>
        <time>2025-08-07T21:01:30Z</time>
      </trkpt>
      <trkpt lat="46.72823" lon="-1.69766">
        <ele>39</ele>
        <time>2025-08-07T21:01:32Z</time>
      </trkpt>
      <trkpt lat="46.72829" lon="-1.69747">
        <ele>39</ele>
        <time>2025-08-07T21:01:34Z</time>
      </trkpt>
      <trkpt lat="46.72836" lon="-1.6973">
        <ele>38</ele>
        <time>2025-08-07T21:01:36Z</time>
      </trkpt>
      <trkpt lat="46.72845" lon="-1.69714">
        <ele>38</ele>
        <time>2025-08-07T21:01:38Z</time>
      </trkpt>
      <trkpt lat="46.72854" lon="-1.697">
        <ele>39</ele>
        <time>2025-08-07T21:01:40Z</time>
      </trkpt>
      <trkpt lat="46.72862" lon="-1.69686">
        <ele>39</ele>
        <time>2025-08-07T21:01:42Z</time>
      </trkpt>
      <trkpt lat="46.7287" lon="-1.69673">
        <ele>39</ele>
        <time>2025-08-07T21:01:44Z</time>
      </trkpt>
      <trkpt lat="46.72878" lon="-1.69659">
        <ele>40</ele>
        <time>2025-08-07T21:01:46Z</time>
      </trkpt>
      <trkpt lat="46.72885" lon="-1.69645">
        <ele>40</ele>
        <time>2025-08-07T21:01:48Z</time>
      </trkpt>
      <trkpt lat="46.72896" lon="-1.69625">
        <ele>40</ele>
        <time>2025-08-07T21:01:50Z</time>
      </trkpt>
      <trkpt lat="46.72903" lon="-1.69612">
        <ele>39</ele>
        <time>2025-08-07T21:01:52Z</time>
      </trkpt>
      <trkpt lat="46.72912" lon="-1.69594">
        <ele>39</ele>
        <time>2025-08-07T21:01:54Z</time>
      </trkpt>
      <trkpt lat="46.7292" lon="-1.69578">
        <ele>39</ele>
        <time>2025-08-07T21:01:56Z</time>
      </trkpt>
      <trkpt lat="46.72928" lon="-1.69564">
        <ele>39</ele>
        <time>2025-08-07T21:01:58Z</time>
      </trkpt>
      <trkpt lat="46.72936" lon="-1.69549">
        <ele>39</ele>
        <time>2025-08-07T21:02:00Z</time>
      </trkpt>
      <trkpt lat="46.72944" lon="-1.69535">
        <ele>39</ele>
        <time>2025-08-07T21:02:02Z</time>
      </trkpt>
      <trkpt lat="46.72952" lon="-1.69521">
        <ele>39</ele>
        <time>2025-08-07T21:02:04Z</time>
      </trkpt>
      <trkpt lat="46.7296" lon="-1.69507">
        <ele>39</ele>
        <time>2025-08-07T21:02:06Z</time>
      </trkpt>
      <trkpt lat="46.72967" lon="-1.69494">
        <ele>39</ele>
        <time>2025-08-07T21:02:08Z</time>
      </trkpt>
      <trkpt lat="46.72974" lon="-1.69483">
        <ele>39</ele>
        <time>2025-08-07T21:02:10Z</time>
      </trkpt>
      <trkpt lat="46.72982" lon="-1.69473">
        <ele>39</ele>
        <time>2025-08-07T21:02:12Z</time>
      </trkpt>
      <trkpt lat="46.72989" lon="-1.69466">
        <ele>40</ele>
        <time>2025-08-07T21:02:15Z</time>
      </trkpt>
      <trkpt lat="46.72997" lon="-1.69461">
        <ele>40</ele>
        <time>2025-08-07T21:02:17Z</time>
      </trkpt>
      <trkpt lat="46.73005" lon="-1.69458">
        <ele>41</ele>
        <time>2025-08-07T21:02:19Z</time>
      </trkpt>
      <trkpt lat="46.73013" lon="-1.69457">
        <ele>41</ele>
        <time>2025-08-07T21:02:21Z</time>
      </trkpt>
      <trkpt lat="46.7302" lon="-1.69456">
        <ele>41</ele>
        <time>2025-08-07T21:02:23Z</time>
      </trkpt>
      <trkpt lat="46.73027" lon="-1.69453">
        <ele>42</ele>
        <time>2025-08-07T21:02:25Z</time>
      </trkpt>
      <trkpt lat="46.73033" lon="-1.69446">
        <ele>42</ele>
        <time>2025-08-07T21:02:27Z</time>
      </trkpt>
      <trkpt lat="46.73034" lon="-1.69436">
        <ele>42</ele>
        <time>2025-08-07T21:02:29Z</time>
      </trkpt>
      <trkpt lat="46.73031" lon="-1.69425">
        <ele>42</ele>
        <time>2025-08-07T21:02:31Z</time>
      </trkpt>
      <trkpt lat="46.73024" lon="-1.69415">
        <ele>42</ele>
        <time>2025-08-07T21:02:33Z</time>
      </trkpt>
      <trkpt lat="46.73018" lon="-1.69405">
        <ele>41</ele>
        <time>2025-08-07T21:02:35Z</time>
      </trkpt>
      <trkpt lat="46.73014" lon="-1.69393">
        <ele>41</ele>
        <time>2025-08-07T21:02:37Z</time>
      </trkpt>
      <trkpt lat="46.73011" lon="-1.69379">
        <ele>41</ele>
        <time>2025-08-07T21:02:39Z</time>
      </trkpt>
      <trkpt lat="46.7301" lon="-1.69363">
        <ele>40</ele>
        <time>2025-08-07T21:02:41Z</time>
      </trkpt>
      <trkpt lat="46.73011" lon="-1.69346">
        <ele>40</ele>
        <time>2025-08-07T21:02:43Z</time>
      </trkpt>
      <trkpt lat="46.73011" lon="-1.69329">
        <ele>39</ele>
        <time>2025-08-07T21:02:45Z</time>
      </trkpt>
      <trkpt lat="46.73008" lon="-1.69311">
        <ele>39</ele>
        <time>2025-08-07T21:02:47Z</time>
      </trkpt>
      <trkpt lat="46.73002" lon="-1.69295">
        <ele>38</ele>
        <time>2025-08-07T21:02:49Z</time>
      </trkpt>
      <trkpt lat="46.72991" lon="-1.69279">
        <ele>37</ele>
        <time>2025-08-07T21:02:51Z</time>
      </trkpt>
      <trkpt lat="46.7298" lon="-1.69266">
        <ele>36</ele>
        <time>2025-08-07T21:02:53Z</time>
      </trkpt>
      <trkpt lat="46.7297" lon="-1.69255">
        <ele>35</ele>
        <time>2025-08-07T21:02:55Z</time>
      </trkpt>
      <trkpt lat="46.72966" lon="-1.69241">
        <ele>35</ele>
        <time>2025-08-07T21:02:57Z</time>
      </trkpt>
      <trkpt lat="46.72965" lon="-1.69225">
        <ele>34</ele>
        <time>2025-08-07T21:02:59Z</time>
      </trkpt>
      <trkpt lat="46.72965" lon="-1.69209">
        <ele>34</ele>
        <time>2025-08-07T21:03:01Z</time>
      </trkpt>
      <trkpt lat="46.72963" lon="-1.69194">
        <ele>35</ele>
        <time>2025-08-07T21:03:03Z</time>
      </trkpt>
      <trkpt lat="46.72959" lon="-1.69182">
        <ele>35</ele>
        <time>2025-08-07T21:03:05Z</time>
      </trkpt>
      <trkpt lat="46.72954" lon="-1.69171">
        <ele>36</ele>
        <time>2025-08-07T21:03:07Z</time>
      </trkpt>
      <trkpt lat="46.72954" lon="-1.69158">
        <ele>36</ele>
        <time>2025-08-07T21:03:09Z</time>
      </trkpt>
      <trkpt lat="46.72958" lon="-1.69147">
        <ele>36</ele>
        <time>2025-08-07T21:03:11Z</time>
      </trkpt>
      <trkpt lat="46.72965" lon="-1.69136">
        <ele>37</ele>
        <time>2025-08-07T21:03:13Z</time>
      </trkpt>
      <trkpt lat="46.72972" lon="-1.69124">
        <ele>37</ele>
        <time>2025-08-07T21:03:15Z</time>
      </trkpt>
      <trkpt lat="46.72978" lon="-1.69113">
        <ele>37</ele>
        <time>2025-08-07T21:03:17Z</time>
      </trkpt>
      <trkpt lat="46.72984" lon="-1.69101">
        <ele>37</ele>
        <time>2025-08-07T21:03:19Z</time>
      </trkpt>
      <trkpt lat="46.72992" lon="-1.69092">
        <ele>36</ele>
        <time>2025-08-07T21:03:21Z</time>
      </trkpt>
      <trkpt lat="46.73001" lon="-1.69083">
        <ele>36</ele>
        <time>2025-08-07T21:03:23Z</time>
      </trkpt>
      <trkpt lat="46.7301" lon="-1.69076">
        <ele>36</ele>
        <time>2025-08-07T21:03:25Z</time>
      </trkpt>
      <trkpt lat="46.73017" lon="-1.69069">
        <ele>36</ele>
        <time>2025-08-07T21:03:27Z</time>
      </trkpt>
      <trkpt lat="46.73026" lon="-1.69061">
        <ele>35</ele>
        <time>2025-08-07T21:03:29Z</time>
      </trkpt>
      <trkpt lat="46.73035" lon="-1.69053">
        <ele>34</ele>
        <time>2025-08-07T21:03:31Z</time>
      </trkpt>
      <trkpt lat="46.73045" lon="-1.69043">
        <ele>34</ele>
        <time>2025-08-07T21:03:33Z</time>
      </trkpt>
      <trkpt lat="46.73053" lon="-1.69031">
        <ele>34</ele>
        <time>2025-08-07T21:03:35Z</time>
      </trkpt>
      <trkpt lat="46.7306" lon="-1.69015">
        <ele>33</ele>
        <time>2025-08-07T21:03:37Z</time>
      </trkpt>
      <trkpt lat="46.73066" lon="-1.68999">
        <ele>33</ele>
        <time>2025-08-07T21:03:39Z</time>
      </trkpt>
      <trkpt lat="46.7307" lon="-1.68981">
        <ele>33</ele>
        <time>2025-08-07T21:03:41Z</time>
      </trkpt>
      <trkpt lat="46.73073" lon="-1.68963">
        <ele>33</ele>
        <time>2025-08-07T21:03:43Z</time>
      </trkpt>
      <trkpt lat="46.73076" lon="-1.68947">
        <ele>33</ele>
        <time>2025-08-07T21:03:45Z</time>
      </trkpt>
      <trkpt lat="46.73078" lon="-1.68931">
        <ele>32</ele>
        <time>2025-08-07T21:03:47Z</time>
      </trkpt>
      <trkpt lat="46.73081" lon="-1.68914">
        <ele>32</ele>
        <time>2025-08-07T21:03:49Z</time>
      </trkpt>
      <trkpt lat="46.73084" lon="-1.68897">
        <ele>31</ele>
        <time>2025-08-07T21:03:51Z</time>
      </trkpt>
      <trkpt lat="46.73089" lon="-1.68875">
        <ele>30</ele>
        <time>2025-08-07T21:03:53Z</time>
      </trkpt>
      <trkpt lat="46.73094" lon="-1.68853">
        <ele>29</ele>
        <time>2025-08-07T21:03:55Z</time>
      </trkpt>
      <trkpt lat="46.73095" lon="-1.6883">
        <ele>28</ele>
        <time>2025-08-07T21:03:57Z</time>
      </trkpt>
      <trkpt lat="46.73093" lon="-1.68804">
        <ele>28</ele>
        <time>2025-08-07T21:03:59Z</time>
      </trkpt>
      <trkpt lat="46.73092" lon="-1.68787">
        <ele>28</ele>
        <time>2025-08-07T21:04:01Z</time>
      </trkpt>
      <trkpt lat="46.73092" lon="-1.68777">
        <ele>29</ele>
        <time>2025-08-07T21:04:03Z</time>
      </trkpt>
      <trkpt lat="46.73093" lon="-1.68765">
        <ele>32</ele>
        <time>2025-08-07T21:04:07Z</time>
      </trkpt>
      <trkpt lat="46.73093" lon="-1.68752">
        <ele>33</ele>
        <time>2025-08-07T21:04:11Z</time>
      </trkpt>
      <trkpt lat="46.73092" lon="-1.68745">
        <ele>34</ele>
        <time>2025-08-07T21:04:13Z</time>
      </trkpt>
      <trkpt lat="46.73091" lon="-1.68737">
        <ele>35</ele>
        <time>2025-08-07T21:04:16Z</time>
      </trkpt>
      <trkpt lat="46.73091" lon="-1.68729">
        <ele>35</ele>
        <time>2025-08-07T21:04:18Z</time>
      </trkpt>
      <trkpt lat="46.73091" lon="-1.68722">
        <ele>36</ele>
        <time>2025-08-07T21:04:20Z</time>
      </trkpt>
      <trkpt lat="46.73091" lon="-1.68714">
        <ele>36</ele>
        <time>2025-08-07T21:04:22Z</time>
      </trkpt>
      <trkpt lat="46.73091" lon="-1.68706">
        <ele>36</ele>
        <time>2025-08-07T21:04:24Z</time>
      </trkpt>
      <trkpt lat="46.73091" lon="-1.68699">
        <ele>37</ele>
        <time>2025-08-07T21:04:26Z</time>
      </trkpt>
      <trkpt lat="46.73091" lon="-1.6869">
        <ele>37</ele>
        <time>2025-08-07T21:04:28Z</time>
      </trkpt>
      <trkpt lat="46.73091" lon="-1.68682">
        <ele>37</ele>
        <time>2025-08-07T21:04:30Z</time>
      </trkpt>
      <trkpt lat="46.73091" lon="-1.68674">
        <ele>37</ele>
        <time>2025-08-07T21:04:32Z</time>
      </trkpt>
      <trkpt lat="46.73091" lon="-1.68666">
        <ele>37</ele>
        <time>2025-08-07T21:04:34Z</time>
      </trkpt>
      <trkpt lat="46.73091" lon="-1.68658">
        <ele>38</ele>
        <time>2025-08-07T21:04:36Z</time>
      </trkpt>
      <trkpt lat="46.73091" lon="-1.6865">
        <ele>38</ele>
        <time>2025-08-07T21:04:38Z</time>
      </trkpt>
      <trkpt lat="46.73092" lon="-1.68642">
        <ele>38</ele>
        <time>2025-08-07T21:04:40Z</time>
      </trkpt>
      <trkpt lat="46.73093" lon="-1.68635">
        <ele>38</ele>
        <time>2025-08-07T21:04:42Z</time>
      </trkpt>
      <trkpt lat="46.73097" lon="-1.68629">
        <ele>38</ele>
        <time>2025-08-07T21:04:44Z</time>
      </trkpt>
      <trkpt lat="46.73102" lon="-1.68626">
        <ele>38</ele>
        <time>2025-08-07T21:04:46Z</time>
      </trkpt>
      <trkpt lat="46.73109" lon="-1.68625">
        <ele>39</ele>
        <time>2025-08-07T21:04:48Z</time>
      </trkpt>
      <trkpt lat="46.73116" lon="-1.68623">
        <ele>39</ele>
        <time>2025-08-07T21:04:50Z</time>
      </trkpt>
      <trkpt lat="46.73122" lon="-1.68623">
        <ele>39</ele>
        <time>2025-08-07T21:04:52Z</time>
      </trkpt>
      <trkpt lat="46.73128" lon="-1.68621">
        <ele>39</ele>
        <time>2025-08-07T21:04:54Z</time>
      </trkpt>
      <trkpt lat="46.73134" lon="-1.68617">
        <ele>39</ele>
        <time>2025-08-07T21:04:56Z</time>
      </trkpt>
      <trkpt lat="46.73138" lon="-1.6861">
        <ele>39</ele>
        <time>2025-08-07T21:04:58Z</time>
      </trkpt>
      <trkpt lat="46.73138" lon="-1.68599">
        <ele>39</ele>
        <time>2025-08-07T21:05:00Z</time>
      </trkpt>
      <trkpt lat="46.73138" lon="-1.68589">
        <ele>39</ele>
        <time>2025-08-07T21:05:02Z</time>
      </trkpt>
      <trkpt lat="46.73137" lon="-1.68578">
        <ele>40</ele>
        <time>2025-08-07T21:05:04Z</time>
      </trkpt>
      <trkpt lat="46.73138" lon="-1.68568">
        <ele>40</ele>
        <time>2025-08-07T21:05:06Z</time>
      </trkpt>
      <trkpt lat="46.73138" lon="-1.68557">
        <ele>40</ele>
        <time>2025-08-07T21:05:08Z</time>
      </trkpt>
      <trkpt lat="46.73138" lon="-1.68547">
        <ele>40</ele>
        <time>2025-08-07T21:05:10Z</time>
      </trkpt>
      <trkpt lat="46.73138" lon="-1.68536">
        <ele>40</ele>
        <time>2025-08-07T21:05:12Z</time>
      </trkpt>
      <trkpt lat="46.7314" lon="-1.68525">
        <ele>41</ele>
        <time>2025-08-07T21:05:14Z</time>
      </trkpt>
      <trkpt lat="46.73141" lon="-1.68514">
        <ele>41</ele>
        <time>2025-08-07T21:05:16Z</time>
      </trkpt>
      <trkpt lat="46.73142" lon="-1.68501">
        <ele>41</ele>
        <time>2025-08-07T21:05:18Z</time>
      </trkpt>
      <trkpt lat="46.73143" lon="-1.68489">
        <ele>41</ele>
        <time>2025-08-07T21:05:20Z</time>
      </trkpt>
      <trkpt lat="46.73144" lon="-1.68476">
        <ele>41</ele>
        <time>2025-08-07T21:05:22Z</time>
      </trkpt>
      <trkpt lat="46.73145" lon="-1.68464">
        <ele>41</ele>
        <time>2025-08-07T21:05:24Z</time>
      </trkpt>
      <trkpt lat="46.73145" lon="-1.68451">
        <ele>42</ele>
        <time>2025-08-07T21:05:26Z</time>
      </trkpt>
      <trkpt lat="46.73144" lon="-1.68439">
        <ele>42</ele>
        <time>2025-08-07T21:05:28Z</time>
      </trkpt>
      <trkpt lat="46.73144" lon="-1.68426">
        <ele>42</ele>
        <time>2025-08-07T21:05:30Z</time>
      </trkpt>
      <trkpt lat="46.73143" lon="-1.68413">
        <ele>42</ele>
        <time>2025-08-07T21:05:32Z</time>
      </trkpt>
      <trkpt lat="46.73143" lon="-1.684">
        <ele>42</ele>
        <time>2025-08-07T21:05:34Z</time>
      </trkpt>
      <trkpt lat="46.73142" lon="-1.68387">
        <ele>42</ele>
        <time>2025-08-07T21:05:36Z</time>
      </trkpt>
      <trkpt lat="46.73142" lon="-1.68373">
        <ele>43</ele>
        <time>2025-08-07T21:05:38Z</time>
      </trkpt>
      <trkpt lat="46.73142" lon="-1.6836">
        <ele>43</ele>
        <time>2025-08-07T21:05:40Z</time>
      </trkpt>
      <trkpt lat="46.73141" lon="-1.68348">
        <ele>43</ele>
        <time>2025-08-07T21:05:42Z</time>
      </trkpt>
      <trkpt lat="46.7314" lon="-1.68335">
        <ele>43</ele>
        <time>2025-08-07T21:05:44Z</time>
      </trkpt>
      <trkpt lat="46.73139" lon="-1.68323">
        <ele>43</ele>
        <time>2025-08-07T21:05:46Z</time>
      </trkpt>
      <trkpt lat="46.73139" lon="-1.68312">
        <ele>43</ele>
        <time>2025-08-07T21:05:48Z</time>
      </trkpt>
      <trkpt lat="46.73138" lon="-1.68302">
        <ele>43</ele>
        <time>2025-08-07T21:05:50Z</time>
      </trkpt>
      <trkpt lat="46.73137" lon="-1.68294">
        <ele>43</ele>
        <time>2025-08-07T21:05:52Z</time>
      </trkpt>
      <trkpt lat="46.73137" lon="-1.68286">
        <ele>43</ele>
        <time>2025-08-07T21:05:54Z</time>
      </trkpt>
      <trkpt lat="46.73136" lon="-1.68278">
        <ele>43</ele>
        <time>2025-08-07T21:05:56Z</time>
      </trkpt>
      <trkpt lat="46.73134" lon="-1.68264">
        <ele>43</ele>
        <time>2025-08-07T21:05:58Z</time>
      </trkpt>
      <trkpt lat="46.73132" lon="-1.68253">
        <ele>43</ele>
        <time>2025-08-07T21:06:00Z</time>
      </trkpt>
      <trkpt lat="46.7313" lon="-1.68235">
        <ele>43</ele>
        <time>2025-08-07T21:06:02Z</time>
      </trkpt>
      <trkpt lat="46.73129" lon="-1.68215">
        <ele>43</ele>
        <time>2025-08-07T21:06:04Z</time>
      </trkpt>
      <trkpt lat="46.73128" lon="-1.68196">
        <ele>43</ele>
        <time>2025-08-07T21:06:06Z</time>
      </trkpt>
      <trkpt lat="46.73129" lon="-1.68179">
        <ele>43</ele>
        <time>2025-08-07T21:06:08Z</time>
      </trkpt>
      <trkpt lat="46.73129" lon="-1.68161">
        <ele>42</ele>
        <time>2025-08-07T21:06:10Z</time>
      </trkpt>
      <trkpt lat="46.73129" lon="-1.68142">
        <ele>42</ele>
        <time>2025-08-07T21:06:12Z</time>
      </trkpt>
      <trkpt lat="46.73129" lon="-1.68124">
        <ele>42</ele>
        <time>2025-08-07T21:06:14Z</time>
      </trkpt>
      <trkpt lat="46.73129" lon="-1.68104">
        <ele>42</ele>
        <time>2025-08-07T21:06:16Z</time>
      </trkpt>
      <trkpt lat="46.73129" lon="-1.68084">
        <ele>41</ele>
        <time>2025-08-07T21:06:18Z</time>
      </trkpt>
      <trkpt lat="46.73128" lon="-1.68065">
        <ele>41</ele>
        <time>2025-08-07T21:06:20Z</time>
      </trkpt>
      <trkpt lat="46.73127" lon="-1.68046">
        <ele>40</ele>
        <time>2025-08-07T21:06:22Z</time>
      </trkpt>
      <trkpt lat="46.73124" lon="-1.68027">
        <ele>40</ele>
        <time>2025-08-07T21:06:24Z</time>
      </trkpt>
      <trkpt lat="46.73122" lon="-1.6801">
        <ele>39</ele>
        <time>2025-08-07T21:06:26Z</time>
      </trkpt>
      <trkpt lat="46.73119" lon="-1.67993">
        <ele>39</ele>
        <time>2025-08-07T21:06:29Z</time>
      </trkpt>
      <trkpt lat="46.73116" lon="-1.67976">
        <ele>39</ele>
        <time>2025-08-07T21:06:31Z</time>
      </trkpt>
      <trkpt lat="46.73113" lon="-1.6796">
        <ele>38</ele>
        <time>2025-08-07T21:06:33Z</time>
      </trkpt>
      <trkpt lat="46.73111" lon="-1.67943">
        <ele>38</ele>
        <time>2025-08-07T21:06:35Z</time>
      </trkpt>
      <trkpt lat="46.73108" lon="-1.67926">
        <ele>38</ele>
        <time>2025-08-07T21:06:37Z</time>
      </trkpt>
      <trkpt lat="46.73103" lon="-1.67908">
        <ele>37</ele>
        <time>2025-08-07T21:06:39Z</time>
      </trkpt>
      <trkpt lat="46.73097" lon="-1.67888">
        <ele>36</ele>
        <time>2025-08-07T21:06:41Z</time>
      </trkpt>
      <trkpt lat="46.73089" lon="-1.67868">
        <ele>36</ele>
        <time>2025-08-07T21:06:43Z</time>
      </trkpt>
      <trkpt lat="46.7308" lon="-1.67847">
        <ele>34</ele>
        <time>2025-08-07T21:06:45Z</time>
      </trkpt>
      <trkpt lat="46.73072" lon="-1.67824">
        <ele>33</ele>
        <time>2025-08-07T21:06:47Z</time>
      </trkpt>
      <trkpt lat="46.73063" lon="-1.67801">
        <ele>32</ele>
        <time>2025-08-07T21:06:49Z</time>
      </trkpt>
      <trkpt lat="46.73055" lon="-1.67779">
        <ele>31</ele>
        <time>2025-08-07T21:06:51Z</time>
      </trkpt>
      <trkpt lat="46.73049" lon="-1.6776">
        <ele>31</ele>
        <time>2025-08-07T21:06:53Z</time>
      </trkpt>
      <trkpt lat="46.73045" lon="-1.67744">
        <ele>32</ele>
        <time>2025-08-07T21:06:55Z</time>
      </trkpt>
      <trkpt lat="46.73042" lon="-1.6773">
        <ele>33</ele>
        <time>2025-08-07T21:06:57Z</time>
      </trkpt>
      <trkpt lat="46.7304" lon="-1.67718">
        <ele>34</ele>
        <time>2025-08-07T21:06:59Z</time>
      </trkpt>
      <trkpt lat="46.73039" lon="-1.67707">
        <ele>35</ele>
        <time>2025-08-07T21:07:01Z</time>
      </trkpt>
      <trkpt lat="46.73038" lon="-1.67696">
        <ele>36</ele>
        <time>2025-08-07T21:07:03Z</time>
      </trkpt>
      <trkpt lat="46.73037" lon="-1.67684">
        <ele>37</ele>
        <time>2025-08-07T21:07:05Z</time>
      </trkpt>
      <trkpt lat="46.73035" lon="-1.67673">
        <ele>37</ele>
        <time>2025-08-07T21:07:07Z</time>
      </trkpt>
      <trkpt lat="46.73034" lon="-1.67662">
        <ele>38</ele>
        <time>2025-08-07T21:07:09Z</time>
      </trkpt>
      <trkpt lat="46.73032" lon="-1.67651">
        <ele>38</ele>
        <time>2025-08-07T21:07:11Z</time>
      </trkpt>
      <trkpt lat="46.73031" lon="-1.67639">
        <ele>38</ele>
        <time>2025-08-07T21:07:13Z</time>
      </trkpt>
      <trkpt lat="46.73031" lon="-1.67627">
        <ele>38</ele>
        <time>2025-08-07T21:07:15Z</time>
      </trkpt>
      <trkpt lat="46.73031" lon="-1.67616">
        <ele>38</ele>
        <time>2025-08-07T21:07:17Z</time>
      </trkpt>
      <trkpt lat="46.73031" lon="-1.67606">
        <ele>39</ele>
        <time>2025-08-07T21:07:19Z</time>
      </trkpt>
      <trkpt lat="46.7303" lon="-1.67595">
        <ele>39</ele>
        <time>2025-08-07T21:07:21Z</time>
      </trkpt>
      <trkpt lat="46.73029" lon="-1.67585">
        <ele>39</ele>
        <time>2025-08-07T21:07:23Z</time>
      </trkpt>
      <trkpt lat="46.73029" lon="-1.67574">
        <ele>40</ele>
        <time>2025-08-07T21:07:25Z</time>
      </trkpt>
      <trkpt lat="46.73029" lon="-1.67563">
        <ele>40</ele>
        <time>2025-08-07T21:07:27Z</time>
      </trkpt>
      <trkpt lat="46.73029" lon="-1.67552">
        <ele>40</ele>
        <time>2025-08-07T21:07:29Z</time>
      </trkpt>
      <trkpt lat="46.73027" lon="-1.67541">
        <ele>40</ele>
        <time>2025-08-07T21:07:31Z</time>
      </trkpt>
      <trkpt lat="46.73027" lon="-1.6753">
        <ele>41</ele>
        <time>2025-08-07T21:07:33Z</time>
      </trkpt>
      <trkpt lat="46.73025" lon="-1.6752">
        <ele>41</ele>
        <time>2025-08-07T21:07:35Z</time>
      </trkpt>
      <trkpt lat="46.73023" lon="-1.67509">
        <ele>41</ele>
        <time>2025-08-07T21:07:37Z</time>
      </trkpt>
      <trkpt lat="46.73021" lon="-1.67498">
        <ele>41</ele>
        <time>2025-08-07T21:07:39Z</time>
      </trkpt>
      <trkpt lat="46.73019" lon="-1.67487">
        <ele>41</ele>
        <time>2025-08-07T21:07:41Z</time>
      </trkpt>
      <trkpt lat="46.73019" lon="-1.67477">
        <ele>41</ele>
        <time>2025-08-07T21:07:43Z</time>
      </trkpt>
      <trkpt lat="46.73017" lon="-1.67465">
        <ele>41</ele>
        <time>2025-08-07T21:07:45Z</time>
      </trkpt>
      <trkpt lat="46.73015" lon="-1.67454">
        <ele>41</ele>
        <time>2025-08-07T21:07:47Z</time>
      </trkpt>
      <trkpt lat="46.73013" lon="-1.67442">
        <ele>41</ele>
        <time>2025-08-07T21:07:49Z</time>
      </trkpt>
      <trkpt lat="46.73011" lon="-1.6743">
        <ele>41</ele>
        <time>2025-08-07T21:07:51Z</time>
      </trkpt>
      <trkpt lat="46.7301" lon="-1.67418">
        <ele>41</ele>
        <time>2025-08-07T21:07:53Z</time>
      </trkpt>
      <trkpt lat="46.73007" lon="-1.67406">
        <ele>41</ele>
        <time>2025-08-07T21:07:55Z</time>
      </trkpt>
      <trkpt lat="46.73002" lon="-1.67389">
        <ele>42</ele>
        <time>2025-08-07T21:07:57Z</time>
      </trkpt>
      <trkpt lat="46.72999" lon="-1.67375">
        <ele>42</ele>
        <time>2025-08-07T21:07:59Z</time>
      </trkpt>
      <trkpt lat="46.72999" lon="-1.67363">
        <ele>42</ele>
        <time>2025-08-07T21:08:01Z</time>
      </trkpt>
      <trkpt lat="46.73002" lon="-1.67351">
        <ele>42</ele>
        <time>2025-08-07T21:08:03Z</time>
      </trkpt>
      <trkpt lat="46.73007" lon="-1.67339">
        <ele>42</ele>
        <time>2025-08-07T21:08:05Z</time>
      </trkpt>
      <trkpt lat="46.73011" lon="-1.67328">
        <ele>42</ele>
        <time>2025-08-07T21:08:07Z</time>
      </trkpt>
      <trkpt lat="46.73014" lon="-1.67316">
        <ele>42</ele>
        <time>2025-08-07T21:08:09Z</time>
      </trkpt>
      <trkpt lat="46.73015" lon="-1.67303">
        <ele>42</ele>
        <time>2025-08-07T21:08:11Z</time>
      </trkpt>
      <trkpt lat="46.73015" lon="-1.6729">
        <ele>42</ele>
        <time>2025-08-07T21:08:13Z</time>
      </trkpt>
      <trkpt lat="46.73015" lon="-1.67277">
        <ele>42</ele>
        <time>2025-08-07T21:08:15Z</time>
      </trkpt>
      <trkpt lat="46.73016" lon="-1.67264">
        <ele>42</ele>
        <time>2025-08-07T21:08:17Z</time>
      </trkpt>
      <trkpt lat="46.73018" lon="-1.67251">
        <ele>42</ele>
        <time>2025-08-07T21:08:19Z</time>
      </trkpt>
      <trkpt lat="46.73019" lon="-1.67238">
        <ele>42</ele>
        <time>2025-08-07T21:08:21Z</time>
      </trkpt>
      <trkpt lat="46.7302" lon="-1.67225">
        <ele>42</ele>
        <time>2025-08-07T21:08:23Z</time>
      </trkpt>
      <trkpt lat="46.73021" lon="-1.67212">
        <ele>43</ele>
        <time>2025-08-07T21:08:25Z</time>
      </trkpt>
      <trkpt lat="46.73021" lon="-1.67199">
        <ele>43</ele>
        <time>2025-08-07T21:08:28Z</time>
      </trkpt>
      <trkpt lat="46.73022" lon="-1.67185">
        <ele>43</ele>
        <time>2025-08-07T21:08:30Z</time>
      </trkpt>
      <trkpt lat="46.73023" lon="-1.67172">
        <ele>43</ele>
        <time>2025-08-07T21:08:32Z</time>
      </trkpt>
      <trkpt lat="46.73023" lon="-1.67159">
        <ele>43</ele>
        <time>2025-08-07T21:08:34Z</time>
      </trkpt>
      <trkpt lat="46.73024" lon="-1.67146">
        <ele>43</ele>
        <time>2025-08-07T21:08:36Z</time>
      </trkpt>
      <trkpt lat="46.73025" lon="-1.67132">
        <ele>43</ele>
        <time>2025-08-07T21:08:38Z</time>
      </trkpt>
      <trkpt lat="46.73026" lon="-1.67119">
        <ele>43</ele>
        <time>2025-08-07T21:08:40Z</time>
      </trkpt>
      <trkpt lat="46.73026" lon="-1.67105">
        <ele>43</ele>
        <time>2025-08-07T21:08:42Z</time>
      </trkpt>
      <trkpt lat="46.73027" lon="-1.67091">
        <ele>43</ele>
        <time>2025-08-07T21:08:44Z</time>
      </trkpt>
      <trkpt lat="46.73028" lon="-1.67077">
        <ele>43</ele>
        <time>2025-08-07T21:08:46Z</time>
      </trkpt>
      <trkpt lat="46.73028" lon="-1.67062">
        <ele>43</ele>
        <time>2025-08-07T21:08:48Z</time>
      </trkpt>
      <trkpt lat="46.73028" lon="-1.67047">
        <ele>43</ele>
        <time>2025-08-07T21:08:50Z</time>
      </trkpt>
      <trkpt lat="46.7303" lon="-1.67033">
        <ele>43</ele>
        <time>2025-08-07T21:08:52Z</time>
      </trkpt>
      <trkpt lat="46.73031" lon="-1.67018">
        <ele>43</ele>
        <time>2025-08-07T21:08:54Z</time>
      </trkpt>
      <trkpt lat="46.73031" lon="-1.67003">
        <ele>43</ele>
        <time>2025-08-07T21:08:56Z</time>
      </trkpt>
      <trkpt lat="46.7303" lon="-1.66988">
        <ele>43</ele>
        <time>2025-08-07T21:08:58Z</time>
      </trkpt>
      <trkpt lat="46.73029" lon="-1.66973">
        <ele>43</ele>
        <time>2025-08-07T21:09:00Z</time>
      </trkpt>
      <trkpt lat="46.73027" lon="-1.66958">
        <ele>44</ele>
        <time>2025-08-07T21:09:02Z</time>
      </trkpt>
      <trkpt lat="46.73025" lon="-1.66945">
        <ele>44</ele>
        <time>2025-08-07T21:09:04Z</time>
      </trkpt>
      <trkpt lat="46.73023" lon="-1.66931">
        <ele>44</ele>
        <time>2025-08-07T21:09:06Z</time>
      </trkpt>
      <trkpt lat="46.73021" lon="-1.66917">
        <ele>44</ele>
        <time>2025-08-07T21:09:08Z</time>
      </trkpt>
      <trkpt lat="46.73019" lon="-1.66903">
        <ele>44</ele>
        <time>2025-08-07T21:09:10Z</time>
      </trkpt>
      <trkpt lat="46.73018" lon="-1.66889">
        <ele>44</ele>
        <time>2025-08-07T21:09:12Z</time>
      </trkpt>
      <trkpt lat="46.73016" lon="-1.66875">
        <ele>44</ele>
        <time>2025-08-07T21:09:14Z</time>
      </trkpt>
      <trkpt lat="46.73015" lon="-1.66862">
        <ele>44</ele>
        <time>2025-08-07T21:09:16Z</time>
      </trkpt>
      <trkpt lat="46.73013" lon="-1.66848">
        <ele>44</ele>
        <time>2025-08-07T21:09:18Z</time>
      </trkpt>
      <trkpt lat="46.73011" lon="-1.66836">
        <ele>44</ele>
        <time>2025-08-07T21:09:20Z</time>
      </trkpt>
      <trkpt lat="46.7301" lon="-1.66827">
        <ele>44</ele>
        <time>2025-08-07T21:09:22Z</time>
      </trkpt>
      <trkpt lat="46.73007" lon="-1.66818">
        <ele>45</ele>
        <time>2025-08-07T21:09:24Z</time>
      </trkpt>
      <trkpt lat="46.73006" lon="-1.66808">
        <ele>45</ele>
        <time>2025-08-07T21:09:26Z</time>
      </trkpt>
      <trkpt lat="46.73004" lon="-1.66798">
        <ele>45</ele>
        <time>2025-08-07T21:09:28Z</time>
      </trkpt>
      <trkpt lat="46.73002" lon="-1.66789">
        <ele>45</ele>
        <time>2025-08-07T21:09:30Z</time>
      </trkpt>
      <trkpt lat="46.73" lon="-1.6678">
        <ele>45</ele>
        <time>2025-08-07T21:09:32Z</time>
      </trkpt>
      <trkpt lat="46.72998" lon="-1.66772">
        <ele>46</ele>
        <time>2025-08-07T21:09:34Z</time>
      </trkpt>
      <trkpt lat="46.72997" lon="-1.66763">
        <ele>46</ele>
        <time>2025-08-07T21:09:36Z</time>
      </trkpt>
      <trkpt lat="46.72995" lon="-1.66754">
        <ele>46</ele>
        <time>2025-08-07T21:09:38Z</time>
      </trkpt>
      <trkpt lat="46.72993" lon="-1.66745">
        <ele>46</ele>
        <time>2025-08-07T21:09:40Z</time>
      </trkpt>
      <trkpt lat="46.72992" lon="-1.66736">
        <ele>47</ele>
        <time>2025-08-07T21:09:42Z</time>
      </trkpt>
      <trkpt lat="46.7299" lon="-1.66727">
        <ele>47</ele>
        <time>2025-08-07T21:09:44Z</time>
      </trkpt>
      <trkpt lat="46.72989" lon="-1.66719">
        <ele>47</ele>
        <time>2025-08-07T21:09:46Z</time>
      </trkpt>
      <trkpt lat="46.72988" lon="-1.66711">
        <ele>47</ele>
        <time>2025-08-07T21:09:48Z</time>
      </trkpt>
      <trkpt lat="46.72987" lon="-1.66703">
        <ele>48</ele>
        <time>2025-08-07T21:09:50Z</time>
      </trkpt>
      <trkpt lat="46.72986" lon="-1.66695">
        <ele>48</ele>
        <time>2025-08-07T21:09:52Z</time>
      </trkpt>
      <trkpt lat="46.72985" lon="-1.66688">
        <ele>48</ele>
        <time>2025-08-07T21:09:54Z</time>
      </trkpt>
      <trkpt lat="46.72984" lon="-1.6668">
        <ele>48</ele>
        <time>2025-08-07T21:09:56Z</time>
      </trkpt>
      <trkpt lat="46.72983" lon="-1.66672">
        <ele>48</ele>
        <time>2025-08-07T21:09:58Z</time>
      </trkpt>
      <trkpt lat="46.72981" lon="-1.66662">
        <ele>48</ele>
        <time>2025-08-07T21:10:00Z</time>
      </trkpt>
      <trkpt lat="46.72979" lon="-1.66653">
        <ele>48</ele>
        <time>2025-08-07T21:10:02Z</time>
      </trkpt>
      <trkpt lat="46.72977" lon="-1.66642">
        <ele>48</ele>
        <time>2025-08-07T21:10:04Z</time>
      </trkpt>
      <trkpt lat="46.72974" lon="-1.66633">
        <ele>48</ele>
        <time>2025-08-07T21:10:06Z</time>
      </trkpt>
      <trkpt lat="46.72971" lon="-1.66624">
        <ele>48</ele>
        <time>2025-08-07T21:10:08Z</time>
      </trkpt>
      <trkpt lat="46.72968" lon="-1.66615">
        <ele>48</ele>
        <time>2025-08-07T21:10:10Z</time>
      </trkpt>
      <trkpt lat="46.72964" lon="-1.66605">
        <ele>48</ele>
        <time>2025-08-07T21:10:12Z</time>
      </trkpt>
      <trkpt lat="46.72961" lon="-1.66593">
        <ele>48</ele>
        <time>2025-08-07T21:10:14Z</time>
      </trkpt>
      <trkpt lat="46.72957" lon="-1.66582">
        <ele>48</ele>
        <time>2025-08-07T21:10:16Z</time>
      </trkpt>
      <trkpt lat="46.72954" lon="-1.66571">
        <ele>48</ele>
        <time>2025-08-07T21:10:18Z</time>
      </trkpt>
      <trkpt lat="46.7295" lon="-1.6656">
        <ele>48</ele>
        <time>2025-08-07T21:10:20Z</time>
      </trkpt>
      <trkpt lat="46.72947" lon="-1.6655">
        <ele>48</ele>
        <time>2025-08-07T21:10:22Z</time>
      </trkpt>
      <trkpt lat="46.72943" lon="-1.6654">
        <ele>48</ele>
        <time>2025-08-07T21:10:24Z</time>
      </trkpt>
      <trkpt lat="46.7294" lon="-1.66528">
        <ele>47</ele>
        <time>2025-08-07T21:10:26Z</time>
      </trkpt>
      <trkpt lat="46.72937" lon="-1.66516">
        <ele>47</ele>
        <time>2025-08-07T21:10:28Z</time>
      </trkpt>
      <trkpt lat="46.72935" lon="-1.66503">
        <ele>47</ele>
        <time>2025-08-07T21:10:30Z</time>
      </trkpt>
      <trkpt lat="46.72932" lon="-1.6649">
        <ele>47</ele>
        <time>2025-08-07T21:10:32Z</time>
      </trkpt>
      <trkpt lat="46.72929" lon="-1.66479">
        <ele>47</ele>
        <time>2025-08-07T21:10:35Z</time>
      </trkpt>
      <trkpt lat="46.72925" lon="-1.66468">
        <ele>47</ele>
        <time>2025-08-07T21:10:37Z</time>
      </trkpt>
      <trkpt lat="46.72921" lon="-1.66456">
        <ele>47</ele>
        <time>2025-08-07T21:10:39Z</time>
      </trkpt>
      <trkpt lat="46.72918" lon="-1.66444">
        <ele>47</ele>
        <time>2025-08-07T21:10:41Z</time>
      </trkpt>
      <trkpt lat="46.72915" lon="-1.66431">
        <ele>46</ele>
        <time>2025-08-07T21:10:43Z</time>
      </trkpt>
      <trkpt lat="46.72913" lon="-1.66419">
        <ele>46</ele>
        <time>2025-08-07T21:10:45Z</time>
      </trkpt>
      <trkpt lat="46.72912" lon="-1.66406">
        <ele>46</ele>
        <time>2025-08-07T21:10:47Z</time>
      </trkpt>
      <trkpt lat="46.7291" lon="-1.66393">
        <ele>46</ele>
        <time>2025-08-07T21:10:49Z</time>
      </trkpt>
      <trkpt lat="46.72909" lon="-1.66379">
        <ele>46</ele>
        <time>2025-08-07T21:10:51Z</time>
      </trkpt>
      <trkpt lat="46.72906" lon="-1.66365">
        <ele>45</ele>
        <time>2025-08-07T21:10:53Z</time>
      </trkpt>
      <trkpt lat="46.72903" lon="-1.66352">
        <ele>45</ele>
        <time>2025-08-07T21:10:55Z</time>
      </trkpt>
      <trkpt lat="46.729" lon="-1.6634">
        <ele>45</ele>
        <time>2025-08-07T21:10:57Z</time>
      </trkpt>
      <trkpt lat="46.72897" lon="-1.66327">
        <ele>45</ele>
        <time>2025-08-07T21:10:59Z</time>
      </trkpt>
      <trkpt lat="46.72894" lon="-1.66314">
        <ele>45</ele>
        <time>2025-08-07T21:11:01Z</time>
      </trkpt>
      <trkpt lat="46.72892" lon="-1.66301">
        <ele>45</ele>
        <time>2025-08-07T21:11:03Z</time>
      </trkpt>
      <trkpt lat="46.72891" lon="-1.66286">
        <ele>45</ele>
        <time>2025-08-07T21:11:05Z</time>
      </trkpt>
      <trkpt lat="46.72891" lon="-1.66272">
        <ele>45</ele>
        <time>2025-08-07T21:11:07Z</time>
      </trkpt>
      <trkpt lat="46.72891" lon="-1.66258">
        <ele>45</ele>
        <time>2025-08-07T21:11:09Z</time>
      </trkpt>
      <trkpt lat="46.7289" lon="-1.66244">
        <ele>45</ele>
        <time>2025-08-07T21:11:11Z</time>
      </trkpt>
      <trkpt lat="46.7289" lon="-1.6623">
        <ele>44</ele>
        <time>2025-08-07T21:11:13Z</time>
      </trkpt>
      <trkpt lat="46.72889" lon="-1.66216">
        <ele>44</ele>
        <time>2025-08-07T21:11:15Z</time>
      </trkpt>
      <trkpt lat="46.72888" lon="-1.66201">
        <ele>44</ele>
        <time>2025-08-07T21:11:17Z</time>
      </trkpt>
      <trkpt lat="46.72885" lon="-1.66186">
        <ele>44</ele>
        <time>2025-08-07T21:11:19Z</time>
      </trkpt>
      <trkpt lat="46.72883" lon="-1.66172">
        <ele>43</ele>
        <time>2025-08-07T21:11:21Z</time>
      </trkpt>
      <trkpt lat="46.7288" lon="-1.66157">
        <ele>43</ele>
        <time>2025-08-07T21:11:23Z</time>
      </trkpt>
      <trkpt lat="46.72878" lon="-1.66142">
        <ele>44</ele>
        <time>2025-08-07T21:11:25Z</time>
      </trkpt>
      <trkpt lat="46.72875" lon="-1.66129">
        <ele>44</ele>
        <time>2025-08-07T21:11:27Z</time>
      </trkpt>
      <trkpt lat="46.72874" lon="-1.66115">
        <ele>44</ele>
        <time>2025-08-07T21:11:29Z</time>
      </trkpt>
      <trkpt lat="46.72873" lon="-1.661">
        <ele>44</ele>
        <time>2025-08-07T21:11:31Z</time>
      </trkpt>
      <trkpt lat="46.72873" lon="-1.66086">
        <ele>43</ele>
        <time>2025-08-07T21:11:33Z</time>
      </trkpt>
      <trkpt lat="46.72873" lon="-1.66071">
        <ele>43</ele>
        <time>2025-08-07T21:11:35Z</time>
      </trkpt>
      <trkpt lat="46.72873" lon="-1.66056">
        <ele>43</ele>
        <time>2025-08-07T21:11:37Z</time>
      </trkpt>
      <trkpt lat="46.72872" lon="-1.66042">
        <ele>43</ele>
        <time>2025-08-07T21:11:39Z</time>
      </trkpt>
      <trkpt lat="46.72871" lon="-1.66029">
        <ele>43</ele>
        <time>2025-08-07T21:11:41Z</time>
      </trkpt>
      <trkpt lat="46.72871" lon="-1.66015">
        <ele>43</ele>
        <time>2025-08-07T21:11:43Z</time>
      </trkpt>
      <trkpt lat="46.72871" lon="-1.66001">
        <ele>43</ele>
        <time>2025-08-07T21:11:45Z</time>
      </trkpt>
      <trkpt lat="46.72873" lon="-1.65987">
        <ele>43</ele>
        <time>2025-08-07T21:11:47Z</time>
      </trkpt>
      <trkpt lat="46.72875" lon="-1.65974">
        <ele>43</ele>
        <time>2025-08-07T21:11:49Z</time>
      </trkpt>
      <trkpt lat="46.72877" lon="-1.6596">
        <ele>43</ele>
        <time>2025-08-07T21:11:51Z</time>
      </trkpt>
      <trkpt lat="46.72879" lon="-1.65947">
        <ele>43</ele>
        <time>2025-08-07T21:11:53Z</time>
      </trkpt>
      <trkpt lat="46.72881" lon="-1.65935">
        <ele>43</ele>
        <time>2025-08-07T21:11:55Z</time>
      </trkpt>
      <trkpt lat="46.72884" lon="-1.65921">
        <ele>43</ele>
        <time>2025-08-07T21:11:57Z</time>
      </trkpt>
      <trkpt lat="46.72886" lon="-1.65909">
        <ele>43</ele>
        <time>2025-08-07T21:11:59Z</time>
      </trkpt>
      <trkpt lat="46.72889" lon="-1.65896">
        <ele>42</ele>
        <time>2025-08-07T21:12:01Z</time>
      </trkpt>
      <trkpt lat="46.72892" lon="-1.65884">
        <ele>42</ele>
        <time>2025-08-07T21:12:03Z</time>
      </trkpt>
      <trkpt lat="46.72894" lon="-1.65871">
        <ele>42</ele>
        <time>2025-08-07T21:12:05Z</time>
      </trkpt>
      <trkpt lat="46.72897" lon="-1.65858">
        <ele>43</ele>
        <time>2025-08-07T21:12:07Z</time>
      </trkpt>
      <trkpt lat="46.72899" lon="-1.65844">
        <ele>43</ele>
        <time>2025-08-07T21:12:09Z</time>
      </trkpt>
      <trkpt lat="46.72902" lon="-1.65825">
        <ele>42</ele>
        <time>2025-08-07T21:12:11Z</time>
      </trkpt>
      <trkpt lat="46.72904" lon="-1.65809">
        <ele>42</ele>
        <time>2025-08-07T21:12:13Z</time>
      </trkpt>
      <trkpt lat="46.72906" lon="-1.65794">
        <ele>42</ele>
        <time>2025-08-07T21:12:15Z</time>
      </trkpt>
      <trkpt lat="46.72907" lon="-1.6578">
        <ele>42</ele>
        <time>2025-08-07T21:12:17Z</time>
      </trkpt>
      <trkpt lat="46.72908" lon="-1.65766">
        <ele>42</ele>
        <time>2025-08-07T21:12:19Z</time>
      </trkpt>
      <trkpt lat="46.7291" lon="-1.65753">
        <ele>42</ele>
        <time>2025-08-07T21:12:21Z</time>
      </trkpt>
      <trkpt lat="46.72911" lon="-1.6574">
        <ele>42</ele>
        <time>2025-08-07T21:12:23Z</time>
      </trkpt>
      <trkpt lat="46.72913" lon="-1.65726">
        <ele>41</ele>
        <time>2025-08-07T21:12:25Z</time>
      </trkpt>
      <trkpt lat="46.72914" lon="-1.65713">
        <ele>41</ele>
        <time>2025-08-07T21:12:27Z</time>
      </trkpt>
      <trkpt lat="46.72915" lon="-1.65698">
        <ele>41</ele>
        <time>2025-08-07T21:12:29Z</time>
      </trkpt>
      <trkpt lat="46.72916" lon="-1.65682">
        <ele>41</ele>
        <time>2025-08-07T21:12:31Z</time>
      </trkpt>
      <trkpt lat="46.72917" lon="-1.65666">
        <ele>40</ele>
        <time>2025-08-07T21:12:33Z</time>
      </trkpt>
      <trkpt lat="46.72919" lon="-1.6565">
        <ele>40</ele>
        <time>2025-08-07T21:12:35Z</time>
      </trkpt>
      <trkpt lat="46.72921" lon="-1.65637">
        <ele>40</ele>
        <time>2025-08-07T21:12:37Z</time>
      </trkpt>
      <trkpt lat="46.72923" lon="-1.65625">
        <ele>40</ele>
        <time>2025-08-07T21:12:40Z</time>
      </trkpt>
      <trkpt lat="46.72925" lon="-1.65616">
        <ele>40</ele>
        <time>2025-08-07T21:12:42Z</time>
      </trkpt>
      <trkpt lat="46.72928" lon="-1.65606">
        <ele>40</ele>
        <time>2025-08-07T21:12:44Z</time>
      </trkpt>
      <trkpt lat="46.72931" lon="-1.65594">
        <ele>40</ele>
        <time>2025-08-07T21:12:46Z</time>
      </trkpt>
      <trkpt lat="46.72932" lon="-1.65581">
        <ele>40</ele>
        <time>2025-08-07T21:12:48Z</time>
      </trkpt>
      <trkpt lat="46.72936" lon="-1.65566">
        <ele>39</ele>
        <time>2025-08-07T21:12:50Z</time>
      </trkpt>
      <trkpt lat="46.72939" lon="-1.65552">
        <ele>39</ele>
        <time>2025-08-07T21:12:52Z</time>
      </trkpt>
      <trkpt lat="46.72943" lon="-1.65538">
        <ele>39</ele>
        <time>2025-08-07T21:12:54Z</time>
      </trkpt>
      <trkpt lat="46.72946" lon="-1.65525">
        <ele>39</ele>
        <time>2025-08-07T21:12:56Z</time>
      </trkpt>
      <trkpt lat="46.72948" lon="-1.65512">
        <ele>39</ele>
        <time>2025-08-07T21:12:58Z</time>
      </trkpt>
      <trkpt lat="46.7295" lon="-1.65498">
        <ele>39</ele>
        <time>2025-08-07T21:13:00Z</time>
      </trkpt>
      <trkpt lat="46.72951" lon="-1.65485">
        <ele>39</ele>
        <time>2025-08-07T21:13:02Z</time>
      </trkpt>
      <trkpt lat="46.72952" lon="-1.65471">
        <ele>39</ele>
        <time>2025-08-07T21:13:04Z</time>
      </trkpt>
      <trkpt lat="46.72952" lon="-1.65458">
        <ele>39</ele>
        <time>2025-08-07T21:13:06Z</time>
      </trkpt>
      <trkpt lat="46.72952" lon="-1.65445">
        <ele>39</ele>
        <time>2025-08-07T21:13:08Z</time>
      </trkpt>
      <trkpt lat="46.72952" lon="-1.65433">
        <ele>39</ele>
        <time>2025-08-07T21:13:10Z</time>
      </trkpt>
      <trkpt lat="46.72952" lon="-1.6542">
        <ele>39</ele>
        <time>2025-08-07T21:13:12Z</time>
      </trkpt>
      <trkpt lat="46.72952" lon="-1.65408">
        <ele>40</ele>
        <time>2025-08-07T21:13:14Z</time>
      </trkpt>
      <trkpt lat="46.72952" lon="-1.65396">
        <ele>40</ele>
        <time>2025-08-07T21:13:16Z</time>
      </trkpt>
      <trkpt lat="46.72952" lon="-1.65384">
        <ele>40</ele>
        <time>2025-08-07T21:13:18Z</time>
      </trkpt>
      <trkpt lat="46.72953" lon="-1.65372">
        <ele>40</ele>
        <time>2025-08-07T21:13:20Z</time>
      </trkpt>
      <trkpt lat="46.72953" lon="-1.65359">
        <ele>40</ele>
        <time>2025-08-07T21:13:22Z</time>
      </trkpt>
      <trkpt lat="46.72954" lon="-1.65347">
        <ele>40</ele>
        <time>2025-08-07T21:13:24Z</time>
      </trkpt>
      <trkpt lat="46.72955" lon="-1.65334">
        <ele>40</ele>
        <time>2025-08-07T21:13:26Z</time>
      </trkpt>
      <trkpt lat="46.72957" lon="-1.65321">
        <ele>41</ele>
        <time>2025-08-07T21:13:28Z</time>
      </trkpt>
      <trkpt lat="46.72957" lon="-1.65308">
        <ele>41</ele>
        <time>2025-08-07T21:13:30Z</time>
      </trkpt>
      <trkpt lat="46.72958" lon="-1.65295">
        <ele>41</ele>
        <time>2025-08-07T21:13:32Z</time>
      </trkpt>
      <trkpt lat="46.72958" lon="-1.65282">
        <ele>41</ele>
        <time>2025-08-07T21:13:34Z</time>
      </trkpt>
      <trkpt lat="46.72958" lon="-1.65268">
        <ele>40</ele>
        <time>2025-08-07T21:13:36Z</time>
      </trkpt>
      <trkpt lat="46.72958" lon="-1.65255">
        <ele>40</ele>
        <time>2025-08-07T21:13:38Z</time>
      </trkpt>
      <trkpt lat="46.72958" lon="-1.65241">
        <ele>40</ele>
        <time>2025-08-07T21:13:40Z</time>
      </trkpt>
      <trkpt lat="46.72958" lon="-1.65228">
        <ele>40</ele>
        <time>2025-08-07T21:13:42Z</time>
      </trkpt>
      <trkpt lat="46.72957" lon="-1.65214">
        <ele>39</ele>
        <time>2025-08-07T21:13:44Z</time>
      </trkpt>
      <trkpt lat="46.72957" lon="-1.65201">
        <ele>39</ele>
        <time>2025-08-07T21:13:46Z</time>
      </trkpt>
      <trkpt lat="46.72958" lon="-1.65188">
        <ele>39</ele>
        <time>2025-08-07T21:13:48Z</time>
      </trkpt>
      <trkpt lat="46.72958" lon="-1.65175">
        <ele>38</ele>
        <time>2025-08-07T21:13:50Z</time>
      </trkpt>
      <trkpt lat="46.72958" lon="-1.65161">
        <ele>38</ele>
        <time>2025-08-07T21:13:52Z</time>
      </trkpt>
      <trkpt lat="46.72958" lon="-1.65147">
        <ele>38</ele>
        <time>2025-08-07T21:13:54Z</time>
      </trkpt>
      <trkpt lat="46.72958" lon="-1.65134">
        <ele>38</ele>
        <time>2025-08-07T21:13:56Z</time>
      </trkpt>
      <trkpt lat="46.72958" lon="-1.65122">
        <ele>38</ele>
        <time>2025-08-07T21:13:58Z</time>
      </trkpt>
      <trkpt lat="46.72959" lon="-1.65111">
        <ele>38</ele>
        <time>2025-08-07T21:14:00Z</time>
      </trkpt>
      <trkpt lat="46.72958" lon="-1.651">
        <ele>38</ele>
        <time>2025-08-07T21:14:02Z</time>
      </trkpt>
      <trkpt lat="46.72959" lon="-1.65088">
        <ele>38</ele>
        <time>2025-08-07T21:14:04Z</time>
      </trkpt>
      <trkpt lat="46.72961" lon="-1.65076">
        <ele>38</ele>
        <time>2025-08-07T21:14:06Z</time>
      </trkpt>
      <trkpt lat="46.72961" lon="-1.65063">
        <ele>38</ele>
        <time>2025-08-07T21:14:08Z</time>
      </trkpt>
      <trkpt lat="46.72963" lon="-1.65051">
        <ele>39</ele>
        <time>2025-08-07T21:14:10Z</time>
      </trkpt>
      <trkpt lat="46.72964" lon="-1.65039">
        <ele>39</ele>
        <time>2025-08-07T21:14:12Z</time>
      </trkpt>
      <trkpt lat="46.72965" lon="-1.65026">
        <ele>39</ele>
        <time>2025-08-07T21:14:14Z</time>
      </trkpt>
      <trkpt lat="46.72966" lon="-1.65013">
        <ele>39</ele>
        <time>2025-08-07T21:14:16Z</time>
      </trkpt>
      <trkpt lat="46.72968" lon="-1.65">
        <ele>39</ele>
        <time>2025-08-07T21:14:18Z</time>
      </trkpt>
      <trkpt lat="46.72971" lon="-1.64982">
        <ele>39</ele>
        <time>2025-08-07T21:14:20Z</time>
      </trkpt>
      <trkpt lat="46.72975" lon="-1.64965">
        <ele>39</ele>
        <time>2025-08-07T21:14:22Z</time>
      </trkpt>
      <trkpt lat="46.72978" lon="-1.6495">
        <ele>38</ele>
        <time>2025-08-07T21:14:24Z</time>
      </trkpt>
      <trkpt lat="46.72982" lon="-1.64936">
        <ele>38</ele>
        <time>2025-08-07T21:14:26Z</time>
      </trkpt>
      <trkpt lat="46.72987" lon="-1.64925">
        <ele>38</ele>
        <time>2025-08-07T21:14:28Z</time>
      </trkpt>
      <trkpt lat="46.72991" lon="-1.64916">
        <ele>38</ele>
        <time>2025-08-07T21:14:30Z</time>
      </trkpt>
      <trkpt lat="46.72996" lon="-1.64907">
        <ele>38</ele>
        <time>2025-08-07T21:14:32Z</time>
      </trkpt>
      <trkpt lat="46.73" lon="-1.649">
        <ele>37</ele>
        <time>2025-08-07T21:14:34Z</time>
      </trkpt>
      <trkpt lat="46.73005" lon="-1.64893">
        <ele>37</ele>
        <time>2025-08-07T21:14:36Z</time>
      </trkpt>
      <trkpt lat="46.73009" lon="-1.64888">
        <ele>37</ele>
        <time>2025-08-07T21:14:38Z</time>
      </trkpt>
      <trkpt lat="46.73013" lon="-1.6488">
        <ele>37</ele>
        <time>2025-08-07T21:14:40Z</time>
      </trkpt>
      <trkpt lat="46.73016" lon="-1.64872">
        <ele>37</ele>
        <time>2025-08-07T21:14:42Z</time>
      </trkpt>
      <trkpt lat="46.73018" lon="-1.64862">
        <ele>37</ele>
        <time>2025-08-07T21:14:44Z</time>
      </trkpt>
      <trkpt lat="46.73018" lon="-1.64851">
        <ele>36</ele>
        <time>2025-08-07T21:14:47Z</time>
      </trkpt>
      <trkpt lat="46.73018" lon="-1.64837">
        <ele>36</ele>
        <time>2025-08-07T21:14:49Z</time>
      </trkpt>
      <trkpt lat="46.73018" lon="-1.64823">
        <ele>36</ele>
        <time>2025-08-07T21:14:51Z</time>
      </trkpt>
      <trkpt lat="46.73018" lon="-1.64808">
        <ele>36</ele>
        <time>2025-08-07T21:14:53Z</time>
      </trkpt>
      <trkpt lat="46.73019" lon="-1.64795">
        <ele>36</ele>
        <time>2025-08-07T21:14:55Z</time>
      </trkpt>
      <trkpt lat="46.73019" lon="-1.64782">
        <ele>37</ele>
        <time>2025-08-07T21:14:57Z</time>
      </trkpt>
      <trkpt lat="46.7302" lon="-1.64769">
        <ele>37</ele>
        <time>2025-08-07T21:14:59Z</time>
      </trkpt>
      <trkpt lat="46.7302" lon="-1.64757">
        <ele>38</ele>
        <time>2025-08-07T21:15:01Z</time>
      </trkpt>
      <trkpt lat="46.7302" lon="-1.64745">
        <ele>38</ele>
        <time>2025-08-07T21:15:03Z</time>
      </trkpt>
      <trkpt lat="46.73021" lon="-1.64733">
        <ele>38</ele>
        <time>2025-08-07T21:15:05Z</time>
      </trkpt>
      <trkpt lat="46.73021" lon="-1.64722">
        <ele>39</ele>
        <time>2025-08-07T21:15:07Z</time>
      </trkpt>
      <trkpt lat="46.73022" lon="-1.6471">
        <ele>39</ele>
        <time>2025-08-07T21:15:09Z</time>
      </trkpt>
      <trkpt lat="46.73023" lon="-1.64699">
        <ele>39</ele>
        <time>2025-08-07T21:15:11Z</time>
      </trkpt>
      <trkpt lat="46.73023" lon="-1.64687">
        <ele>40</ele>
        <time>2025-08-07T21:15:13Z</time>
      </trkpt>
      <trkpt lat="46.73025" lon="-1.64676">
        <ele>40</ele>
        <time>2025-08-07T21:15:15Z</time>
      </trkpt>
      <trkpt lat="46.73027" lon="-1.64665">
        <ele>40</ele>
        <time>2025-08-07T21:15:17Z</time>
      </trkpt>
      <trkpt lat="46.73029" lon="-1.64654">
        <ele>40</ele>
        <time>2025-08-07T21:15:19Z</time>
      </trkpt>
      <trkpt lat="46.73032" lon="-1.64645">
        <ele>40</ele>
        <time>2025-08-07T21:15:21Z</time>
      </trkpt>
      <trkpt lat="46.73036" lon="-1.64635">
        <ele>40</ele>
        <time>2025-08-07T21:15:23Z</time>
      </trkpt>
      <trkpt lat="46.7304" lon="-1.64625">
        <ele>41</ele>
        <time>2025-08-07T21:15:25Z</time>
      </trkpt>
      <trkpt lat="46.73044" lon="-1.64615">
        <ele>41</ele>
        <time>2025-08-07T21:15:27Z</time>
      </trkpt>
      <trkpt lat="46.73047" lon="-1.64605">
        <ele>41</ele>
        <time>2025-08-07T21:15:29Z</time>
      </trkpt>
      <trkpt lat="46.7305" lon="-1.64595">
        <ele>41</ele>
        <time>2025-08-07T21:15:31Z</time>
      </trkpt>
      <trkpt lat="46.73054" lon="-1.64584">
        <ele>41</ele>
        <time>2025-08-07T21:15:33Z</time>
      </trkpt>
      <trkpt lat="46.73057" lon="-1.64573">
        <ele>41</ele>
        <time>2025-08-07T21:15:35Z</time>
      </trkpt>
      <trkpt lat="46.7306" lon="-1.64563">
        <ele>41</ele>
        <time>2025-08-07T21:15:37Z</time>
      </trkpt>
      <trkpt lat="46.73064" lon="-1.64552">
        <ele>41</ele>
        <time>2025-08-07T21:15:39Z</time>
      </trkpt>
      <trkpt lat="46.73069" lon="-1.6454">
        <ele>41</ele>
        <time>2025-08-07T21:15:41Z</time>
      </trkpt>
      <trkpt lat="46.73074" lon="-1.64528">
        <ele>41</ele>
        <time>2025-08-07T21:15:43Z</time>
      </trkpt>
      <trkpt lat="46.7308" lon="-1.64514">
        <ele>40</ele>
        <time>2025-08-07T21:15:45Z</time>
      </trkpt>
      <trkpt lat="46.73085" lon="-1.64501">
        <ele>40</ele>
        <time>2025-08-07T21:15:47Z</time>
      </trkpt>
      <trkpt lat="46.73092" lon="-1.64489">
        <ele>40</ele>
        <time>2025-08-07T21:15:49Z</time>
      </trkpt>
      <trkpt lat="46.731" lon="-1.64478">
        <ele>40</ele>
        <time>2025-08-07T21:15:51Z</time>
      </trkpt>
      <trkpt lat="46.73109" lon="-1.64468">
        <ele>40</ele>
        <time>2025-08-07T21:15:53Z</time>
      </trkpt>
      <trkpt lat="46.73119" lon="-1.64456">
        <ele>39</ele>
        <time>2025-08-07T21:15:55Z</time>
      </trkpt>
      <trkpt lat="46.73129" lon="-1.64444">
        <ele>38</ele>
        <time>2025-08-07T21:15:57Z</time>
      </trkpt>
      <trkpt lat="46.73139" lon="-1.6443">
        <ele>38</ele>
        <time>2025-08-07T21:15:59Z</time>
      </trkpt>
      <trkpt lat="46.73148" lon="-1.64416">
        <ele>38</ele>
        <time>2025-08-07T21:16:01Z</time>
      </trkpt>
      <trkpt lat="46.73158" lon="-1.64402">
        <ele>37</ele>
        <time>2025-08-07T21:16:03Z</time>
      </trkpt>
      <trkpt lat="46.73167" lon="-1.64388">
        <ele>37</ele>
        <time>2025-08-07T21:16:05Z</time>
      </trkpt>
      <trkpt lat="46.73177" lon="-1.64373">
        <ele>37</ele>
        <time>2025-08-07T21:16:07Z</time>
      </trkpt>
      <trkpt lat="46.73186" lon="-1.64358">
        <ele>37</ele>
        <time>2025-08-07T21:16:09Z</time>
      </trkpt>
      <trkpt lat="46.73196" lon="-1.64343">
        <ele>36</ele>
        <time>2025-08-07T21:16:11Z</time>
      </trkpt>
      <trkpt lat="46.73206" lon="-1.64328">
        <ele>36</ele>
        <time>2025-08-07T21:16:13Z</time>
      </trkpt>
      <trkpt lat="46.73216" lon="-1.64312">
        <ele>36</ele>
        <time>2025-08-07T21:16:15Z</time>
      </trkpt>
      <trkpt lat="46.73226" lon="-1.64297">
        <ele>35</ele>
        <time>2025-08-07T21:16:17Z</time>
      </trkpt>
      <trkpt lat="46.73237" lon="-1.64282">
        <ele>35</ele>
        <time>2025-08-07T21:16:19Z</time>
      </trkpt>
      <trkpt lat="46.73248" lon="-1.64268">
        <ele>35</ele>
        <time>2025-08-07T21:16:21Z</time>
      </trkpt>
      <trkpt lat="46.73259" lon="-1.64255">
        <ele>35</ele>
        <time>2025-08-07T21:16:23Z</time>
      </trkpt>
      <trkpt lat="46.7327" lon="-1.64241">
        <ele>35</ele>
        <time>2025-08-07T21:16:25Z</time>
      </trkpt>
      <trkpt lat="46.73281" lon="-1.64226">
        <ele>34</ele>
        <time>2025-08-07T21:16:27Z</time>
      </trkpt>
      <trkpt lat="46.73296" lon="-1.64206">
        <ele>34</ele>
        <time>2025-08-07T21:16:29Z</time>
      </trkpt>
      <trkpt lat="46.73309" lon="-1.6419">
        <ele>34</ele>
        <time>2025-08-07T21:16:31Z</time>
      </trkpt>
      <trkpt lat="46.7332" lon="-1.64176">
        <ele>34</ele>
        <time>2025-08-07T21:16:33Z</time>
      </trkpt>
      <trkpt lat="46.73331" lon="-1.64164">
        <ele>34</ele>
        <time>2025-08-07T21:16:35Z</time>
      </trkpt>
      <trkpt lat="46.73343" lon="-1.64151">
        <ele>34</ele>
        <time>2025-08-07T21:16:37Z</time>
      </trkpt>
      <trkpt lat="46.73354" lon="-1.64138">
        <ele>33</ele>
        <time>2025-08-07T21:16:39Z</time>
      </trkpt>
      <trkpt lat="46.73365" lon="-1.64124">
        <ele>33</ele>
        <time>2025-08-07T21:16:41Z</time>
      </trkpt>
      <trkpt lat="46.73376" lon="-1.64109">
        <ele>32</ele>
        <time>2025-08-07T21:16:43Z</time>
      </trkpt>
      <trkpt lat="46.73385" lon="-1.64092">
        <ele>32</ele>
        <time>2025-08-07T21:16:45Z</time>
      </trkpt>
      <trkpt lat="46.73394" lon="-1.64075">
        <ele>32</ele>
        <time>2025-08-07T21:16:47Z</time>
      </trkpt>
      <trkpt lat="46.73404" lon="-1.64058">
        <ele>31</ele>
        <time>2025-08-07T21:16:50Z</time>
      </trkpt>
      <trkpt lat="46.73414" lon="-1.64041">
        <ele>31</ele>
        <time>2025-08-07T21:16:52Z</time>
      </trkpt>
      <trkpt lat="46.73423" lon="-1.64025">
        <ele>31</ele>
        <time>2025-08-07T21:16:54Z</time>
      </trkpt>
      <trkpt lat="46.73433" lon="-1.64008">
        <ele>30</ele>
        <time>2025-08-07T21:16:56Z</time>
      </trkpt>
      <trkpt lat="46.73443" lon="-1.63992">
        <ele>30</ele>
        <time>2025-08-07T21:16:58Z</time>
      </trkpt>
      <trkpt lat="46.73452" lon="-1.63975">
        <ele>29</ele>
        <time>2025-08-07T21:17:00Z</time>
      </trkpt>
      <trkpt lat="46.7346" lon="-1.63958">
        <ele>29</ele>
        <time>2025-08-07T21:17:02Z</time>
      </trkpt>
      <trkpt lat="46.73468" lon="-1.63941">
        <ele>29</ele>
        <time>2025-08-07T21:17:04Z</time>
      </trkpt>
      <trkpt lat="46.73474" lon="-1.63925">
        <ele>28</ele>
        <time>2025-08-07T21:17:06Z</time>
      </trkpt>
      <trkpt lat="46.73481" lon="-1.63909">
        <ele>28</ele>
        <time>2025-08-07T21:17:08Z</time>
      </trkpt>
      <trkpt lat="46.73489" lon="-1.63894">
        <ele>28</ele>
        <time>2025-08-07T21:17:10Z</time>
      </trkpt>
      <trkpt lat="46.73499" lon="-1.63884">
        <ele>27</ele>
        <time>2025-08-07T21:17:12Z</time>
      </trkpt>
      <trkpt lat="46.73511" lon="-1.6388">
        <ele>27</ele>
        <time>2025-08-07T21:17:14Z</time>
      </trkpt>
      <trkpt lat="46.7352" lon="-1.63872">
        <ele>26</ele>
        <time>2025-08-07T21:17:16Z</time>
      </trkpt>
      <trkpt lat="46.73523" lon="-1.63855">
        <ele>26</ele>
        <time>2025-08-07T21:17:18Z</time>
      </trkpt>
      <trkpt lat="46.73523" lon="-1.63833">
        <ele>25</ele>
        <time>2025-08-07T21:17:20Z</time>
      </trkpt>
      <trkpt lat="46.73522" lon="-1.63808">
        <ele>24</ele>
        <time>2025-08-07T21:17:22Z</time>
      </trkpt>
      <trkpt lat="46.73521" lon="-1.63783">
        <ele>23</ele>
        <time>2025-08-07T21:17:24Z</time>
      </trkpt>
      <trkpt lat="46.73522" lon="-1.63756">
        <ele>21</ele>
        <time>2025-08-07T21:17:26Z</time>
      </trkpt>
      <trkpt lat="46.73523" lon="-1.63729">
        <ele>20</ele>
        <time>2025-08-07T21:17:28Z</time>
      </trkpt>
      <trkpt lat="46.73523" lon="-1.63702">
        <ele>19</ele>
        <time>2025-08-07T21:17:30Z</time>
      </trkpt>
      <trkpt lat="46.73524" lon="-1.63675">
        <ele>19</ele>
        <time>2025-08-07T21:17:32Z</time>
      </trkpt>
      <trkpt lat="46.73525" lon="-1.6365">
        <ele>18</ele>
        <time>2025-08-07T21:17:34Z</time>
      </trkpt>
      <trkpt lat="46.73527" lon="-1.63626">
        <ele>18</ele>
        <time>2025-08-07T21:17:36Z</time>
      </trkpt>
      <trkpt lat="46.73531" lon="-1.63605">
        <ele>18</ele>
        <time>2025-08-07T21:17:38Z</time>
      </trkpt>
      <trkpt lat="46.73535" lon="-1.63585">
        <ele>18</ele>
        <time>2025-08-07T21:17:40Z</time>
      </trkpt>
      <trkpt lat="46.7354" lon="-1.63566">
        <ele>19</ele>
        <time>2025-08-07T21:17:42Z</time>
      </trkpt>
      <trkpt lat="46.73545" lon="-1.63548">
        <ele>19</ele>
        <time>2025-08-07T21:17:44Z</time>
      </trkpt>
      <trkpt lat="46.7355" lon="-1.63531">
        <ele>19</ele>
        <time>2025-08-07T21:17:46Z</time>
      </trkpt>
      <trkpt lat="46.73554" lon="-1.63513">
        <ele>20</ele>
        <time>2025-08-07T21:17:48Z</time>
      </trkpt>
      <trkpt lat="46.73554" lon="-1.63496">
        <ele>20</ele>
        <time>2025-08-07T21:17:50Z</time>
      </trkpt>
      <trkpt lat="46.73552" lon="-1.63478">
        <ele>20</ele>
        <time>2025-08-07T21:17:52Z</time>
      </trkpt>
      <trkpt lat="46.73547" lon="-1.6346">
        <ele>20</ele>
        <time>2025-08-07T21:17:54Z</time>
      </trkpt>
      <trkpt lat="46.73542" lon="-1.63444">
        <ele>20</ele>
        <time>2025-08-07T21:17:56Z</time>
      </trkpt>
      <trkpt lat="46.73536" lon="-1.63427">
        <ele>21</ele>
        <time>2025-08-07T21:17:58Z</time>
      </trkpt>
      <trkpt lat="46.73531" lon="-1.63411">
        <ele>21</ele>
        <time>2025-08-07T21:18:00Z</time>
      </trkpt>
      <trkpt lat="46.73525" lon="-1.63395">
        <ele>21</ele>
        <time>2025-08-07T21:18:02Z</time>
      </trkpt>
      <trkpt lat="46.7352" lon="-1.63378">
        <ele>21</ele>
        <time>2025-08-07T21:18:04Z</time>
      </trkpt>
      <trkpt lat="46.73515" lon="-1.63362">
        <ele>21</ele>
        <time>2025-08-07T21:18:06Z</time>
      </trkpt>
      <trkpt lat="46.7351" lon="-1.63345">
        <ele>21</ele>
        <time>2025-08-07T21:18:08Z</time>
      </trkpt>
      <trkpt lat="46.73505" lon="-1.63329">
        <ele>21</ele>
        <time>2025-08-07T21:18:10Z</time>
      </trkpt>
      <trkpt lat="46.735" lon="-1.63313">
        <ele>22</ele>
        <time>2025-08-07T21:18:12Z</time>
      </trkpt>
      <trkpt lat="46.73495" lon="-1.63297">
        <ele>22</ele>
        <time>2025-08-07T21:18:14Z</time>
      </trkpt>
      <trkpt lat="46.73489" lon="-1.63283">
        <ele>22</ele>
        <time>2025-08-07T21:18:16Z</time>
      </trkpt>
      <trkpt lat="46.73482" lon="-1.63269">
        <ele>22</ele>
        <time>2025-08-07T21:18:18Z</time>
      </trkpt>
      <trkpt lat="46.73474" lon="-1.63258">
        <ele>22</ele>
        <time>2025-08-07T21:18:20Z</time>
      </trkpt>
      <trkpt lat="46.73467" lon="-1.63246">
        <ele>23</ele>
        <time>2025-08-07T21:18:22Z</time>
      </trkpt>
      <trkpt lat="46.73461" lon="-1.63234">
        <ele>23</ele>
        <time>2025-08-07T21:18:24Z</time>
      </trkpt>
      <trkpt lat="46.73457" lon="-1.6322">
        <ele>23</ele>
        <time>2025-08-07T21:18:26Z</time>
      </trkpt>
      <trkpt lat="46.73454" lon="-1.63199">
        <ele>23</ele>
        <time>2025-08-07T21:18:28Z</time>
      </trkpt>
      <trkpt lat="46.73452" lon="-1.63183">
        <ele>24</ele>
        <time>2025-08-07T21:18:30Z</time>
      </trkpt>
      <trkpt lat="46.73451" lon="-1.63168">
        <ele>24</ele>
        <time>2025-08-07T21:18:32Z</time>
      </trkpt>
      <trkpt lat="46.7345" lon="-1.63154">
        <ele>24</ele>
        <time>2025-08-07T21:18:34Z</time>
      </trkpt>
      <trkpt lat="46.73449" lon="-1.63139">
        <ele>25</ele>
        <time>2025-08-07T21:18:36Z</time>
      </trkpt>
      <trkpt lat="46.73447" lon="-1.63124">
        <ele>25</ele>
        <time>2025-08-07T21:18:38Z</time>
      </trkpt>
      <trkpt lat="46.73446" lon="-1.6311">
        <ele>25</ele>
        <time>2025-08-07T21:18:40Z</time>
      </trkpt>
      <trkpt lat="46.73445" lon="-1.63095">
        <ele>25</ele>
        <time>2025-08-07T21:18:42Z</time>
      </trkpt>
      <trkpt lat="46.73444" lon="-1.63081">
        <ele>26</ele>
        <time>2025-08-07T21:18:44Z</time>
      </trkpt>
      <trkpt lat="46.73442" lon="-1.63068">
        <ele>26</ele>
        <time>2025-08-07T21:18:46Z</time>
      </trkpt>
      <trkpt lat="46.73441" lon="-1.63054">
        <ele>26</ele>
        <time>2025-08-07T21:18:48Z</time>
      </trkpt>
      <trkpt lat="46.7344" lon="-1.63041">
        <ele>27</ele>
        <time>2025-08-07T21:18:50Z</time>
      </trkpt>
      <trkpt lat="46.73439" lon="-1.63028">
        <ele>27</ele>
        <time>2025-08-07T21:18:53Z</time>
      </trkpt>
      <trkpt lat="46.73438" lon="-1.63014">
        <ele>27</ele>
        <time>2025-08-07T21:18:55Z</time>
      </trkpt>
      <trkpt lat="46.73437" lon="-1.63001">
        <ele>27</ele>
        <time>2025-08-07T21:18:57Z</time>
      </trkpt>
      <trkpt lat="46.73436" lon="-1.62988">
        <ele>28</ele>
        <time>2025-08-07T21:18:59Z</time>
      </trkpt>
      <trkpt lat="46.73434" lon="-1.62975">
        <ele>28</ele>
        <time>2025-08-07T21:19:01Z</time>
      </trkpt>
      <trkpt lat="46.73433" lon="-1.62963">
        <ele>28</ele>
        <time>2025-08-07T21:19:03Z</time>
      </trkpt>
      <trkpt lat="46.73432" lon="-1.62952">
        <ele>28</ele>
        <time>2025-08-07T21:19:05Z</time>
      </trkpt>
      <trkpt lat="46.73431" lon="-1.6294">
        <ele>29</ele>
        <time>2025-08-07T21:19:07Z</time>
      </trkpt>
      <trkpt lat="46.7343" lon="-1.62929">
        <ele>29</ele>
        <time>2025-08-07T21:19:09Z</time>
      </trkpt>
      <trkpt lat="46.73429" lon="-1.62917">
        <ele>29</ele>
        <time>2025-08-07T21:19:11Z</time>
      </trkpt>
      <trkpt lat="46.73429" lon="-1.62906">
        <ele>30</ele>
        <time>2025-08-07T21:19:13Z</time>
      </trkpt>
      <trkpt lat="46.73428" lon="-1.62895">
        <ele>30</ele>
        <time>2025-08-07T21:19:15Z</time>
      </trkpt>
      <trkpt lat="46.73428" lon="-1.62885">
        <ele>31</ele>
        <time>2025-08-07T21:19:17Z</time>
      </trkpt>
      <trkpt lat="46.73429" lon="-1.62874">
        <ele>31</ele>
        <time>2025-08-07T21:19:19Z</time>
      </trkpt>
      <trkpt lat="46.73431" lon="-1.62865">
        <ele>31</ele>
        <time>2025-08-07T21:19:21Z</time>
      </trkpt>
      <trkpt lat="46.73433" lon="-1.62856">
        <ele>32</ele>
        <time>2025-08-07T21:19:23Z</time>
      </trkpt>
      <trkpt lat="46.73435" lon="-1.62847">
        <ele>32</ele>
        <time>2025-08-07T21:19:25Z</time>
      </trkpt>
      <trkpt lat="46.73438" lon="-1.62838">
        <ele>33</ele>
        <time>2025-08-07T21:19:27Z</time>
      </trkpt>
      <trkpt lat="46.7344" lon="-1.6283">
        <ele>33</ele>
        <time>2025-08-07T21:19:29Z</time>
      </trkpt>
      <trkpt lat="46.73444" lon="-1.62822">
        <ele>34</ele>
        <time>2025-08-07T21:19:31Z</time>
      </trkpt>
      <trkpt lat="46.73447" lon="-1.62815">
        <ele>34</ele>
        <time>2025-08-07T21:19:33Z</time>
      </trkpt>
      <trkpt lat="46.73451" lon="-1.62808">
        <ele>35</ele>
        <time>2025-08-07T21:19:35Z</time>
      </trkpt>
      <trkpt lat="46.73456" lon="-1.62801">
        <ele>35</ele>
        <time>2025-08-07T21:19:37Z</time>
      </trkpt>
      <trkpt lat="46.7346" lon="-1.62794">
        <ele>36</ele>
        <time>2025-08-07T21:19:39Z</time>
      </trkpt>
      <trkpt lat="46.73465" lon="-1.62788">
        <ele>36</ele>
        <time>2025-08-07T21:19:41Z</time>
      </trkpt>
      <trkpt lat="46.7347" lon="-1.62782">
        <ele>37</ele>
        <time>2025-08-07T21:19:43Z</time>
      </trkpt>
      <trkpt lat="46.73475" lon="-1.62775">
        <ele>37</ele>
        <time>2025-08-07T21:19:45Z</time>
      </trkpt>
      <trkpt lat="46.7348" lon="-1.62769">
        <ele>37</ele>
        <time>2025-08-07T21:19:47Z</time>
      </trkpt>
      <trkpt lat="46.73485" lon="-1.62761">
        <ele>38</ele>
        <time>2025-08-07T21:19:49Z</time>
      </trkpt>
      <trkpt lat="46.73489" lon="-1.62754">
        <ele>38</ele>
        <time>2025-08-07T21:19:51Z</time>
      </trkpt>
      <trkpt lat="46.73493" lon="-1.62745">
        <ele>38</ele>
        <time>2025-08-07T21:19:53Z</time>
      </trkpt>
      <trkpt lat="46.73497" lon="-1.62737">
        <ele>38</ele>
        <time>2025-08-07T21:19:55Z</time>
      </trkpt>
      <trkpt lat="46.735" lon="-1.62728">
        <ele>39</ele>
        <time>2025-08-07T21:19:57Z</time>
      </trkpt>
      <trkpt lat="46.73503" lon="-1.62719">
        <ele>39</ele>
        <time>2025-08-07T21:19:59Z</time>
      </trkpt>
      <trkpt lat="46.73506" lon="-1.6271">
        <ele>39</ele>
        <time>2025-08-07T21:20:01Z</time>
      </trkpt>
      <trkpt lat="46.73509" lon="-1.627">
        <ele>39</ele>
        <time>2025-08-07T21:20:03Z</time>
      </trkpt>
      <trkpt lat="46.73511" lon="-1.62689">
        <ele>39</ele>
        <time>2025-08-07T21:20:05Z</time>
      </trkpt>
      <trkpt lat="46.73512" lon="-1.62678">
        <ele>40</ele>
        <time>2025-08-07T21:20:07Z</time>
      </trkpt>
      <trkpt lat="46.73514" lon="-1.62665">
        <ele>40</ele>
        <time>2025-08-07T21:20:09Z</time>
      </trkpt>
      <trkpt lat="46.73516" lon="-1.62653">
        <ele>40</ele>
        <time>2025-08-07T21:20:11Z</time>
      </trkpt>
      <trkpt lat="46.73517" lon="-1.62642">
        <ele>40</ele>
        <time>2025-08-07T21:20:13Z</time>
      </trkpt>
      <trkpt lat="46.73518" lon="-1.62631">
        <ele>40</ele>
        <time>2025-08-07T21:20:15Z</time>
      </trkpt>
      <trkpt lat="46.7352" lon="-1.62621">
        <ele>40</ele>
        <time>2025-08-07T21:20:17Z</time>
      </trkpt>
      <trkpt lat="46.73521" lon="-1.62609">
        <ele>39</ele>
        <time>2025-08-07T21:20:19Z</time>
      </trkpt>
      <trkpt lat="46.73523" lon="-1.62598">
        <ele>39</ele>
        <time>2025-08-07T21:20:21Z</time>
      </trkpt>
      <trkpt lat="46.73525" lon="-1.62587">
        <ele>39</ele>
        <time>2025-08-07T21:20:23Z</time>
      </trkpt>
      <trkpt lat="46.73526" lon="-1.62576">
        <ele>39</ele>
        <time>2025-08-07T21:20:25Z</time>
      </trkpt>
      <trkpt lat="46.73529" lon="-1.62566">
        <ele>39</ele>
        <time>2025-08-07T21:20:27Z</time>
      </trkpt>
      <trkpt lat="46.73532" lon="-1.62555">
        <ele>39</ele>
        <time>2025-08-07T21:20:29Z</time>
      </trkpt>
      <trkpt lat="46.73536" lon="-1.62544">
        <ele>39</ele>
        <time>2025-08-07T21:20:31Z</time>
      </trkpt>
      <trkpt lat="46.73542" lon="-1.62527">
        <ele>38</ele>
        <time>2025-08-07T21:20:33Z</time>
      </trkpt>
      <trkpt lat="46.7355" lon="-1.62513">
        <ele>38</ele>
        <time>2025-08-07T21:20:35Z</time>
      </trkpt>
      <trkpt lat="46.73557" lon="-1.62499">
        <ele>37</ele>
        <time>2025-08-07T21:20:37Z</time>
      </trkpt>
      <trkpt lat="46.73565" lon="-1.62485">
        <ele>36</ele>
        <time>2025-08-07T21:20:39Z</time>
      </trkpt>
      <trkpt lat="46.73573" lon="-1.6247">
        <ele>35</ele>
        <time>2025-08-07T21:20:41Z</time>
      </trkpt>
      <trkpt lat="46.73581" lon="-1.62455">
        <ele>35</ele>
        <time>2025-08-07T21:20:43Z</time>
      </trkpt>
      <trkpt lat="46.73589" lon="-1.62439">
        <ele>34</ele>
        <time>2025-08-07T21:20:45Z</time>
      </trkpt>
      <trkpt lat="46.73597" lon="-1.62424">
        <ele>33</ele>
        <time>2025-08-07T21:20:47Z</time>
      </trkpt>
      <trkpt lat="46.73605" lon="-1.6241">
        <ele>32</ele>
        <time>2025-08-07T21:20:49Z</time>
      </trkpt>
      <trkpt lat="46.73612" lon="-1.62399">
        <ele>31</ele>
        <time>2025-08-07T21:20:51Z</time>
      </trkpt>
      <trkpt lat="46.73616" lon="-1.62402">
        <ele>31</ele>
        <time>2025-08-07T21:20:56Z</time>
      </trkpt>
      <trkpt lat="46.7362" lon="-1.62408">
        <ele>30</ele>
        <time>2025-08-07T21:21:00Z</time>
      </trkpt>
      <trkpt lat="46.73622" lon="-1.62401">
        <ele>30</ele>
        <time>2025-08-07T21:21:04Z</time>
      </trkpt>
      <trkpt lat="46.73626" lon="-1.62392">
        <ele>30</ele>
        <time>2025-08-07T21:21:08Z</time>
      </trkpt>
      <trkpt lat="46.73631" lon="-1.62381">
        <ele>30</ele>
        <time>2025-08-07T21:21:12Z</time>
      </trkpt>
      <trkpt lat="46.73632" lon="-1.62375">
        <ele>30</ele>
        <time>2025-08-07T21:21:14Z</time>
      </trkpt>
      <trkpt lat="46.73625" lon="-1.62371">
        <ele>30</ele>
        <time>2025-08-07T21:21:18Z</time>
      </trkpt>
      <trkpt lat="46.73621" lon="-1.6238">
        <ele>30</ele>
        <time>2025-08-07T21:21:20Z</time>
      </trkpt>
      <trkpt lat="46.73616" lon="-1.62391">
        <ele>30</ele>
        <time>2025-08-07T21:21:22Z</time>
      </trkpt>
      <trkpt lat="46.73612" lon="-1.62403">
        <ele>30</ele>
        <time>2025-08-07T21:21:24Z</time>
      </trkpt>
      <trkpt lat="46.73612" lon="-1.62414">
        <ele>30</ele>
        <time>2025-08-07T21:21:26Z</time>
      </trkpt>
      <trkpt lat="46.7361" lon="-1.62423">
        <ele>30</ele>
        <time>2025-08-07T21:21:28Z</time>
      </trkpt>
      <trkpt lat="46.73607" lon="-1.62431">
        <ele>31</ele>
        <time>2025-08-07T21:21:32Z</time>
      </trkpt>
      <trkpt lat="46.73605" lon="-1.62447">
        <ele>31</ele>
        <time>2025-08-07T21:21:36Z</time>
      </trkpt>
      <trkpt lat="46.73604" lon="-1.62459">
        <ele>32</ele>
        <time>2025-08-07T21:21:38Z</time>
      </trkpt>
      <trkpt lat="46.73605" lon="-1.62471">
        <ele>32</ele>
        <time>2025-08-07T21:21:40Z</time>
      </trkpt>
      <trkpt lat="46.73607" lon="-1.62482">
        <ele>32</ele>
        <time>2025-08-07T21:21:42Z</time>
      </trkpt>
      <trkpt lat="46.73613" lon="-1.62491">
        <ele>32</ele>
        <time>2025-08-07T21:21:44Z</time>
      </trkpt>
      <trkpt lat="46.73621" lon="-1.62499">
        <ele>31</ele>
        <time>2025-08-07T21:21:46Z</time>
      </trkpt>
      <trkpt lat="46.73631" lon="-1.62509">
        <ele>31</ele>
        <time>2025-08-07T21:21:48Z</time>
      </trkpt>
      <trkpt lat="46.73639" lon="-1.62523">
        <ele>30</ele>
        <time>2025-08-07T21:21:50Z</time>
      </trkpt>
      <trkpt lat="46.73644" lon="-1.6254">
        <ele>30</ele>
        <time>2025-08-07T21:21:52Z</time>
      </trkpt>
      <trkpt lat="46.73645" lon="-1.62558">
        <ele>29</ele>
        <time>2025-08-07T21:21:54Z</time>
      </trkpt>
      <trkpt lat="46.73645" lon="-1.62574">
        <ele>29</ele>
        <time>2025-08-07T21:21:56Z</time>
      </trkpt>
      <trkpt lat="46.73646" lon="-1.62589">
        <ele>29</ele>
        <time>2025-08-07T21:21:58Z</time>
      </trkpt>
      <trkpt lat="46.73649" lon="-1.62603">
        <ele>30</ele>
        <time>2025-08-07T21:22:00Z</time>
      </trkpt>
      <trkpt lat="46.73654" lon="-1.62615">
        <ele>30</ele>
        <time>2025-08-07T21:22:02Z</time>
      </trkpt>
      <trkpt lat="46.73661" lon="-1.62626">
        <ele>30</ele>
        <time>2025-08-07T21:22:04Z</time>
      </trkpt>
      <trkpt lat="46.73669" lon="-1.62636">
        <ele>30</ele>
        <time>2025-08-07T21:22:06Z</time>
      </trkpt>
      <trkpt lat="46.73679" lon="-1.62643">
        <ele>30</ele>
        <time>2025-08-07T21:22:08Z</time>
      </trkpt>
      <trkpt lat="46.73689" lon="-1.62648">
        <ele>31</ele>
        <time>2025-08-07T21:22:10Z</time>
      </trkpt>
      <trkpt lat="46.73699" lon="-1.62652">
        <ele>31</ele>
        <time>2025-08-07T21:22:12Z</time>
      </trkpt>
      <trkpt lat="46.73709" lon="-1.62656">
        <ele>31</ele>
        <time>2025-08-07T21:22:14Z</time>
      </trkpt>
      <trkpt lat="46.73719" lon="-1.62658">
        <ele>31</ele>
        <time>2025-08-07T21:22:16Z</time>
      </trkpt>
      <trkpt lat="46.7373" lon="-1.62657">
        <ele>31</ele>
        <time>2025-08-07T21:22:18Z</time>
      </trkpt>
      <trkpt lat="46.7374" lon="-1.62657">
        <ele>31</ele>
        <time>2025-08-07T21:22:20Z</time>
      </trkpt>
      <trkpt lat="46.73755" lon="-1.62662">
        <ele>32</ele>
        <time>2025-08-07T21:22:22Z</time>
      </trkpt>
      <trkpt lat="46.73764" lon="-1.62667">
        <ele>32</ele>
        <time>2025-08-07T21:22:24Z</time>
      </trkpt>
      <trkpt lat="46.73776" lon="-1.62676">
        <ele>32</ele>
        <time>2025-08-07T21:22:26Z</time>
      </trkpt>
      <trkpt lat="46.73786" lon="-1.62685">
        <ele>32</ele>
        <time>2025-08-07T21:22:28Z</time>
      </trkpt>
      <trkpt lat="46.73796" lon="-1.62693">
        <ele>31</ele>
        <time>2025-08-07T21:22:30Z</time>
      </trkpt>
      <trkpt lat="46.73805" lon="-1.62701">
        <ele>31</ele>
        <time>2025-08-07T21:22:32Z</time>
      </trkpt>
      <trkpt lat="46.73815" lon="-1.62708">
        <ele>31</ele>
        <time>2025-08-07T21:22:34Z</time>
      </trkpt>
      <trkpt lat="46.73825" lon="-1.62714">
        <ele>31</ele>
        <time>2025-08-07T21:22:36Z</time>
      </trkpt>
      <trkpt lat="46.73835" lon="-1.62717">
        <ele>30</ele>
        <time>2025-08-07T21:22:38Z</time>
      </trkpt>
      <trkpt lat="46.73842" lon="-1.62713">
        <ele>30</ele>
        <time>2025-08-07T21:22:40Z</time>
      </trkpt>
      <trkpt lat="46.73845" lon="-1.627">
        <ele>29</ele>
        <time>2025-08-07T21:22:42Z</time>
      </trkpt>
      <trkpt lat="46.73846" lon="-1.62683">
        <ele>29</ele>
        <time>2025-08-07T21:22:44Z</time>
      </trkpt>
      <trkpt lat="46.73847" lon="-1.62666">
        <ele>29</ele>
        <time>2025-08-07T21:22:46Z</time>
      </trkpt>
      <trkpt lat="46.73849" lon="-1.6265">
        <ele>28</ele>
        <time>2025-08-07T21:22:49Z</time>
      </trkpt>
      <trkpt lat="46.73851" lon="-1.62637">
        <ele>28</ele>
        <time>2025-08-07T21:22:51Z</time>
      </trkpt>
      <trkpt lat="46.73854" lon="-1.6263">
        <ele>28</ele>
        <time>2025-08-07T21:22:53Z</time>
      </trkpt>
      <trkpt lat="46.73859" lon="-1.62635">
        <ele>27</ele>
        <time>2025-08-07T21:22:55Z</time>
      </trkpt>
      <trkpt lat="46.73864" lon="-1.62651">
        <ele>26</ele>
        <time>2025-08-07T21:22:57Z</time>
      </trkpt>
      <trkpt lat="46.73873" lon="-1.62669">
        <ele>25</ele>
        <time>2025-08-07T21:22:59Z</time>
      </trkpt>
      <trkpt lat="46.73884" lon="-1.62681">
        <ele>24</ele>
        <time>2025-08-07T21:23:01Z</time>
      </trkpt>
      <trkpt lat="46.73897" lon="-1.6269">
        <ele>23</ele>
        <time>2025-08-07T21:23:03Z</time>
      </trkpt>
      <trkpt lat="46.73908" lon="-1.62697">
        <ele>23</ele>
        <time>2025-08-07T21:23:05Z</time>
      </trkpt>
      <trkpt lat="46.73917" lon="-1.62698">
        <ele>23</ele>
        <time>2025-08-07T21:23:07Z</time>
      </trkpt>
      <trkpt lat="46.73922" lon="-1.62697">
        <ele>23</ele>
        <time>2025-08-07T21:23:09Z</time>
      </trkpt>
      <trkpt lat="46.7393" lon="-1.62702">
        <ele>23</ele>
        <time>2025-08-07T21:23:13Z</time>
      </trkpt>
      <trkpt lat="46.73935" lon="-1.62707">
        <ele>23</ele>
        <time>2025-08-07T21:23:15Z</time>
      </trkpt>
      <trkpt lat="46.73938" lon="-1.62717">
        <ele>23</ele>
        <time>2025-08-07T21:23:17Z</time>
      </trkpt>
      <trkpt lat="46.73939" lon="-1.6273">
        <ele>23</ele>
        <time>2025-08-07T21:23:19Z</time>
      </trkpt>
      <trkpt lat="46.73936" lon="-1.62745">
        <ele>22</ele>
        <time>2025-08-07T21:23:21Z</time>
      </trkpt>
      <trkpt lat="46.73932" lon="-1.62763">
        <ele>22</ele>
        <time>2025-08-07T21:23:23Z</time>
      </trkpt>
      <trkpt lat="46.73928" lon="-1.6278">
        <ele>21</ele>
        <time>2025-08-07T21:23:25Z</time>
      </trkpt>
      <trkpt lat="46.73923" lon="-1.62797">
        <ele>21</ele>
        <time>2025-08-07T21:23:27Z</time>
      </trkpt>
      <trkpt lat="46.73918" lon="-1.62814">
        <ele>21</ele>
        <time>2025-08-07T21:23:29Z</time>
      </trkpt>
      <trkpt lat="46.73916" lon="-1.62831">
        <ele>20</ele>
        <time>2025-08-07T21:23:31Z</time>
      </trkpt>
      <trkpt lat="46.73919" lon="-1.62848">
        <ele>20</ele>
        <time>2025-08-07T21:23:33Z</time>
      </trkpt>
      <trkpt lat="46.73924" lon="-1.62865">
        <ele>20</ele>
        <time>2025-08-07T21:23:35Z</time>
      </trkpt>
      <trkpt lat="46.73932" lon="-1.62881">
        <ele>20</ele>
        <time>2025-08-07T21:23:37Z</time>
      </trkpt>
      <trkpt lat="46.73942" lon="-1.62895">
        <ele>20</ele>
        <time>2025-08-07T21:23:39Z</time>
      </trkpt>
      <trkpt lat="46.73952" lon="-1.62909">
        <ele>20</ele>
        <time>2025-08-07T21:23:41Z</time>
      </trkpt>
      <trkpt lat="46.73961" lon="-1.62923">
        <ele>19</ele>
        <time>2025-08-07T21:23:43Z</time>
      </trkpt>
      <trkpt lat="46.73971" lon="-1.62937">
        <ele>19</ele>
        <time>2025-08-07T21:23:45Z</time>
      </trkpt>
      <trkpt lat="46.73982" lon="-1.62948">
        <ele>19</ele>
        <time>2025-08-07T21:23:47Z</time>
      </trkpt>
      <trkpt lat="46.73993" lon="-1.62959">
        <ele>19</ele>
        <time>2025-08-07T21:23:49Z</time>
      </trkpt>
      <trkpt lat="46.74001" lon="-1.62973">
        <ele>19</ele>
        <time>2025-08-07T21:23:51Z</time>
      </trkpt>
      <trkpt lat="46.74009" lon="-1.62988">
        <ele>19</ele>
        <time>2025-08-07T21:23:53Z</time>
      </trkpt>
      <trkpt lat="46.74016" lon="-1.63002">
        <ele>19</ele>
        <time>2025-08-07T21:23:55Z</time>
      </trkpt>
      <trkpt lat="46.74024" lon="-1.63012">
        <ele>19</ele>
        <time>2025-08-07T21:23:57Z</time>
      </trkpt>
      <trkpt lat="46.74033" lon="-1.63017">
        <ele>19</ele>
        <time>2025-08-07T21:23:59Z</time>
      </trkpt>
      <trkpt lat="46.74042" lon="-1.63018">
        <ele>19</ele>
        <time>2025-08-07T21:24:01Z</time>
      </trkpt>
      <trkpt lat="46.74051" lon="-1.63018">
        <ele>20</ele>
        <time>2025-08-07T21:24:03Z</time>
      </trkpt>
      <trkpt lat="46.7406" lon="-1.63022">
        <ele>20</ele>
        <time>2025-08-07T21:24:05Z</time>
      </trkpt>
      <trkpt lat="46.7407" lon="-1.63037">
        <ele>20</ele>
        <time>2025-08-07T21:24:07Z</time>
      </trkpt>
      <trkpt lat="46.74077" lon="-1.63052">
        <ele>20</ele>
        <time>2025-08-07T21:24:09Z</time>
      </trkpt>
      <trkpt lat="46.74082" lon="-1.63066">
        <ele>20</ele>
        <time>2025-08-07T21:24:11Z</time>
      </trkpt>
      <trkpt lat="46.74088" lon="-1.63079">
        <ele>20</ele>
        <time>2025-08-07T21:24:13Z</time>
      </trkpt>
      <trkpt lat="46.74093" lon="-1.63092">
        <ele>20</ele>
        <time>2025-08-07T21:24:15Z</time>
      </trkpt>
      <trkpt lat="46.74097" lon="-1.63104">
        <ele>20</ele>
        <time>2025-08-07T21:24:17Z</time>
      </trkpt>
      <trkpt lat="46.74102" lon="-1.63116">
        <ele>20</ele>
        <time>2025-08-07T21:24:19Z</time>
      </trkpt>
      <trkpt lat="46.74109" lon="-1.63126">
        <ele>20</ele>
        <time>2025-08-07T21:24:21Z</time>
      </trkpt>
      <trkpt lat="46.74119" lon="-1.63131">
        <ele>20</ele>
        <time>2025-08-07T21:24:23Z</time>
      </trkpt>
      <trkpt lat="46.74129" lon="-1.63134">
        <ele>20</ele>
        <time>2025-08-07T21:24:25Z</time>
      </trkpt>
      <trkpt lat="46.74136" lon="-1.63141">
        <ele>20</ele>
        <time>2025-08-07T21:24:27Z</time>
      </trkpt>
      <trkpt lat="46.74143" lon="-1.63148">
        <ele>21</ele>
        <time>2025-08-07T21:24:29Z</time>
      </trkpt>
      <trkpt lat="46.74148" lon="-1.63149">
        <ele>21</ele>
        <time>2025-08-07T21:24:31Z</time>
      </trkpt>
      <trkpt lat="46.74152" lon="-1.63146">
        <ele>22</ele>
        <time>2025-08-07T21:24:34Z</time>
      </trkpt>
      <trkpt lat="46.7416" lon="-1.63141">
        <ele>23</ele>
        <time>2025-08-07T21:24:38Z</time>
      </trkpt>
      <trkpt lat="46.74163" lon="-1.63133">
        <ele>23</ele>
        <time>2025-08-07T21:24:40Z</time>
      </trkpt>
      <trkpt lat="46.74166" lon="-1.63123">
        <ele>23</ele>
        <time>2025-08-07T21:24:42Z</time>
      </trkpt>
      <trkpt lat="46.7417" lon="-1.63112">
        <ele>24</ele>
        <time>2025-08-07T21:24:44Z</time>
      </trkpt>
      <trkpt lat="46.74173" lon="-1.63102">
        <ele>24</ele>
        <time>2025-08-07T21:24:46Z</time>
      </trkpt>
      <trkpt lat="46.74176" lon="-1.63092">
        <ele>24</ele>
        <time>2025-08-07T21:24:48Z</time>
      </trkpt>
      <trkpt lat="46.74179" lon="-1.63081">
        <ele>24</ele>
        <time>2025-08-07T21:24:50Z</time>
      </trkpt>
      <trkpt lat="46.74181" lon="-1.63069">
        <ele>24</ele>
        <time>2025-08-07T21:24:52Z</time>
      </trkpt>
      <trkpt lat="46.74184" lon="-1.63057">
        <ele>24</ele>
        <time>2025-08-07T21:24:54Z</time>
      </trkpt>
      <trkpt lat="46.74188" lon="-1.63045">
        <ele>24</ele>
        <time>2025-08-07T21:24:56Z</time>
      </trkpt>
      <trkpt lat="46.74192" lon="-1.63033">
        <ele>24</ele>
        <time>2025-08-07T21:24:58Z</time>
      </trkpt>
      <trkpt lat="46.74196" lon="-1.63021">
        <ele>24</ele>
        <time>2025-08-07T21:25:00Z</time>
      </trkpt>
      <trkpt lat="46.742" lon="-1.6301">
        <ele>24</ele>
        <time>2025-08-07T21:25:02Z</time>
      </trkpt>
      <trkpt lat="46.74205" lon="-1.63001">
        <ele>25</ele>
        <time>2025-08-07T21:25:04Z</time>
      </trkpt>
      <trkpt lat="46.74209" lon="-1.62991">
        <ele>25</ele>
        <time>2025-08-07T21:25:06Z</time>
      </trkpt>
      <trkpt lat="46.74214" lon="-1.62981">
        <ele>25</ele>
        <time>2025-08-07T21:25:08Z</time>
      </trkpt>
      <trkpt lat="46.74219" lon="-1.62971">
        <ele>25</ele>
        <time>2025-08-07T21:25:10Z</time>
      </trkpt>
      <trkpt lat="46.74225" lon="-1.62961">
        <ele>25</ele>
        <time>2025-08-07T21:25:12Z</time>
      </trkpt>
      <trkpt lat="46.7423" lon="-1.62955">
        <ele>25</ele>
        <time>2025-08-07T21:25:14Z</time>
      </trkpt>
      <trkpt lat="46.74236" lon="-1.62957">
        <ele>25</ele>
        <time>2025-08-07T21:25:16Z</time>
      </trkpt>
      <trkpt lat="46.74242" lon="-1.62965">
        <ele>26</ele>
        <time>2025-08-07T21:25:18Z</time>
      </trkpt>
      <trkpt lat="46.74247" lon="-1.62975">
        <ele>26</ele>
        <time>2025-08-07T21:25:20Z</time>
      </trkpt>
      <trkpt lat="46.74251" lon="-1.62985">
        <ele>26</ele>
        <time>2025-08-07T21:25:22Z</time>
      </trkpt>
      <trkpt lat="46.74256" lon="-1.62993">
        <ele>27</ele>
        <time>2025-08-07T21:25:24Z</time>
      </trkpt>
      <trkpt lat="46.7426" lon="-1.63002">
        <ele>27</ele>
        <time>2025-08-07T21:25:26Z</time>
      </trkpt>
      <trkpt lat="46.74265" lon="-1.6301">
        <ele>27</ele>
        <time>2025-08-07T21:25:28Z</time>
      </trkpt>
      <trkpt lat="46.74269" lon="-1.63018">
        <ele>28</ele>
        <time>2025-08-07T21:25:30Z</time>
      </trkpt>
      <trkpt lat="46.74274" lon="-1.63026">
        <ele>28</ele>
        <time>2025-08-07T21:25:32Z</time>
      </trkpt>
      <trkpt lat="46.74278" lon="-1.63034">
        <ele>29</ele>
        <time>2025-08-07T21:25:34Z</time>
      </trkpt>
      <trkpt lat="46.74283" lon="-1.63042">
        <ele>30</ele>
        <time>2025-08-07T21:25:36Z</time>
      </trkpt>
      <trkpt lat="46.74287" lon="-1.6305">
        <ele>30</ele>
        <time>2025-08-07T21:25:38Z</time>
      </trkpt>
      <trkpt lat="46.74291" lon="-1.63058">
        <ele>30</ele>
        <time>2025-08-07T21:25:40Z</time>
      </trkpt>
      <trkpt lat="46.74295" lon="-1.63066">
        <ele>31</ele>
        <time>2025-08-07T21:25:42Z</time>
      </trkpt>
      <trkpt lat="46.743" lon="-1.63073">
        <ele>31</ele>
        <time>2025-08-07T21:25:44Z</time>
      </trkpt>
      <trkpt lat="46.74304" lon="-1.63081">
        <ele>32</ele>
        <time>2025-08-07T21:25:46Z</time>
      </trkpt>
      <trkpt lat="46.74309" lon="-1.63089">
        <ele>32</ele>
        <time>2025-08-07T21:25:48Z</time>
      </trkpt>
      <trkpt lat="46.74313" lon="-1.63097">
        <ele>32</ele>
        <time>2025-08-07T21:25:50Z</time>
      </trkpt>
      <trkpt lat="46.74318" lon="-1.63105">
        <ele>32</ele>
        <time>2025-08-07T21:25:52Z</time>
      </trkpt>
      <trkpt lat="46.74323" lon="-1.63114">
        <ele>33</ele>
        <time>2025-08-07T21:25:54Z</time>
      </trkpt>
      <trkpt lat="46.7433" lon="-1.63127">
        <ele>33</ele>
        <time>2025-08-07T21:25:56Z</time>
      </trkpt>
      <trkpt lat="46.74336" lon="-1.63138">
        <ele>33</ele>
        <time>2025-08-07T21:25:58Z</time>
      </trkpt>
      <trkpt lat="46.74342" lon="-1.63148">
        <ele>33</ele>
        <time>2025-08-07T21:26:00Z</time>
      </trkpt>
      <trkpt lat="46.74347" lon="-1.63158">
        <ele>33</ele>
        <time>2025-08-07T21:26:02Z</time>
      </trkpt>
      <trkpt lat="46.74353" lon="-1.63167">
        <ele>33</ele>
        <time>2025-08-07T21:26:04Z</time>
      </trkpt>
      <trkpt lat="46.74359" lon="-1.63178">
        <ele>33</ele>
        <time>2025-08-07T21:26:06Z</time>
      </trkpt>
      <trkpt lat="46.74366" lon="-1.63189">
        <ele>33</ele>
        <time>2025-08-07T21:26:08Z</time>
      </trkpt>
      <trkpt lat="46.74372" lon="-1.63201">
        <ele>33</ele>
        <time>2025-08-07T21:26:10Z</time>
      </trkpt>
      <trkpt lat="46.74379" lon="-1.63213">
        <ele>33</ele>
        <time>2025-08-07T21:26:12Z</time>
      </trkpt>
      <trkpt lat="46.74386" lon="-1.63225">
        <ele>33</ele>
        <time>2025-08-07T21:26:14Z</time>
      </trkpt>
      <trkpt lat="46.74393" lon="-1.63238">
        <ele>33</ele>
        <time>2025-08-07T21:26:16Z</time>
      </trkpt>
      <trkpt lat="46.744" lon="-1.6325">
        <ele>33</ele>
        <time>2025-08-07T21:26:19Z</time>
      </trkpt>
      <trkpt lat="46.74406" lon="-1.63263">
        <ele>33</ele>
        <time>2025-08-07T21:26:21Z</time>
      </trkpt>
      <trkpt lat="46.74413" lon="-1.63275">
        <ele>33</ele>
        <time>2025-08-07T21:26:23Z</time>
      </trkpt>
      <trkpt lat="46.7442" lon="-1.63288">
        <ele>34</ele>
        <time>2025-08-07T21:26:25Z</time>
      </trkpt>
      <trkpt lat="46.74426" lon="-1.63299">
        <ele>34</ele>
        <time>2025-08-07T21:26:27Z</time>
      </trkpt>
      <trkpt lat="46.74432" lon="-1.63309">
        <ele>34</ele>
        <time>2025-08-07T21:26:29Z</time>
      </trkpt>
      <trkpt lat="46.74438" lon="-1.63319">
        <ele>34</ele>
        <time>2025-08-07T21:26:31Z</time>
      </trkpt>
      <trkpt lat="46.74446" lon="-1.63328">
        <ele>33</ele>
        <time>2025-08-07T21:26:33Z</time>
      </trkpt>
      <trkpt lat="46.74456" lon="-1.63333">
        <ele>33</ele>
        <time>2025-08-07T21:26:35Z</time>
      </trkpt>
      <trkpt lat="46.74468" lon="-1.63332">
        <ele>33</ele>
        <time>2025-08-07T21:26:37Z</time>
      </trkpt>
      <trkpt lat="46.74478" lon="-1.63327">
        <ele>33</ele>
        <time>2025-08-07T21:26:39Z</time>
      </trkpt>
      <trkpt lat="46.74488" lon="-1.63322">
        <ele>34</ele>
        <time>2025-08-07T21:26:41Z</time>
      </trkpt>
      <trkpt lat="46.74498" lon="-1.63317">
        <ele>34</ele>
        <time>2025-08-07T21:26:43Z</time>
      </trkpt>
      <trkpt lat="46.74509" lon="-1.63312">
        <ele>34</ele>
        <time>2025-08-07T21:26:45Z</time>
      </trkpt>
      <trkpt lat="46.7452" lon="-1.6331">
        <ele>34</ele>
        <time>2025-08-07T21:26:47Z</time>
      </trkpt>
      <trkpt lat="46.74531" lon="-1.63308">
        <ele>34</ele>
        <time>2025-08-07T21:26:49Z</time>
      </trkpt>
      <trkpt lat="46.74543" lon="-1.63308">
        <ele>33</ele>
        <time>2025-08-07T21:26:51Z</time>
      </trkpt>
      <trkpt lat="46.74554" lon="-1.63308">
        <ele>33</ele>
        <time>2025-08-07T21:26:53Z</time>
      </trkpt>
      <trkpt lat="46.74565" lon="-1.63307">
        <ele>33</ele>
        <time>2025-08-07T21:26:55Z</time>
      </trkpt>
      <trkpt lat="46.74576" lon="-1.63305">
        <ele>33</ele>
        <time>2025-08-07T21:26:57Z</time>
      </trkpt>
      <trkpt lat="46.74587" lon="-1.63303">
        <ele>33</ele>
        <time>2025-08-07T21:26:59Z</time>
      </trkpt>
      <trkpt lat="46.74597" lon="-1.63301">
        <ele>32</ele>
        <time>2025-08-07T21:27:01Z</time>
      </trkpt>
      <trkpt lat="46.74607" lon="-1.63301">
        <ele>32</ele>
        <time>2025-08-07T21:27:03Z</time>
      </trkpt>
      <trkpt lat="46.74614" lon="-1.63309">
        <ele>32</ele>
        <time>2025-08-07T21:27:05Z</time>
      </trkpt>
      <trkpt lat="46.74616" lon="-1.63325">
        <ele>32</ele>
        <time>2025-08-07T21:27:07Z</time>
      </trkpt>
      <trkpt lat="46.74616" lon="-1.63344">
        <ele>31</ele>
        <time>2025-08-07T21:27:09Z</time>
      </trkpt>
      <trkpt lat="46.74615" lon="-1.63363">
        <ele>31</ele>
        <time>2025-08-07T21:27:11Z</time>
      </trkpt>
      <trkpt lat="46.74615" lon="-1.63382">
        <ele>31</ele>
        <time>2025-08-07T21:27:13Z</time>
      </trkpt>
      <trkpt lat="46.74615" lon="-1.634">
        <ele>31</ele>
        <time>2025-08-07T21:27:15Z</time>
      </trkpt>
      <trkpt lat="46.74616" lon="-1.63418">
        <ele>31</ele>
        <time>2025-08-07T21:27:17Z</time>
      </trkpt>
      <trkpt lat="46.74617" lon="-1.63437">
        <ele>31</ele>
        <time>2025-08-07T21:27:19Z</time>
      </trkpt>
      <trkpt lat="46.74619" lon="-1.63456">
        <ele>31</ele>
        <time>2025-08-07T21:27:21Z</time>
      </trkpt>
      <trkpt lat="46.74619" lon="-1.63476">
        <ele>31</ele>
        <time>2025-08-07T21:27:23Z</time>
      </trkpt>
      <trkpt lat="46.7462" lon="-1.63496">
        <ele>30</ele>
        <time>2025-08-07T21:27:25Z</time>
      </trkpt>
      <trkpt lat="46.74622" lon="-1.63516">
        <ele>30</ele>
        <time>2025-08-07T21:27:27Z</time>
      </trkpt>
      <trkpt lat="46.74624" lon="-1.63535">
        <ele>30</ele>
        <time>2025-08-07T21:27:29Z</time>
      </trkpt>
      <trkpt lat="46.74625" lon="-1.63554">
        <ele>30</ele>
        <time>2025-08-07T21:27:31Z</time>
      </trkpt>
      <trkpt lat="46.74628" lon="-1.63573">
        <ele>30</ele>
        <time>2025-08-07T21:27:33Z</time>
      </trkpt>
      <trkpt lat="46.7463" lon="-1.63592">
        <ele>30</ele>
        <time>2025-08-07T21:27:35Z</time>
      </trkpt>
      <trkpt lat="46.74632" lon="-1.63612">
        <ele>30</ele>
        <time>2025-08-07T21:27:37Z</time>
      </trkpt>
      <trkpt lat="46.74634" lon="-1.63631">
        <ele>30</ele>
        <time>2025-08-07T21:27:39Z</time>
      </trkpt>
      <trkpt lat="46.74636" lon="-1.6365">
        <ele>30</ele>
        <time>2025-08-07T21:27:41Z</time>
      </trkpt>
      <trkpt lat="46.74638" lon="-1.6367">
        <ele>30</ele>
        <time>2025-08-07T21:27:43Z</time>
      </trkpt>
      <trkpt lat="46.7464" lon="-1.63689">
        <ele>30</ele>
        <time>2025-08-07T21:27:45Z</time>
      </trkpt>
      <trkpt lat="46.74643" lon="-1.63713">
        <ele>30</ele>
        <time>2025-08-07T21:27:47Z</time>
      </trkpt>
      <trkpt lat="46.74645" lon="-1.63734">
        <ele>30</ele>
        <time>2025-08-07T21:27:49Z</time>
      </trkpt>
      <trkpt lat="46.74647" lon="-1.63756">
        <ele>30</ele>
        <time>2025-08-07T21:27:51Z</time>
      </trkpt>
      <trkpt lat="46.74649" lon="-1.63775">
        <ele>30</ele>
        <time>2025-08-07T21:27:53Z</time>
      </trkpt>
      <trkpt lat="46.74652" lon="-1.63792">
        <ele>30</ele>
        <time>2025-08-07T21:27:55Z</time>
      </trkpt>
      <trkpt lat="46.74654" lon="-1.6381">
        <ele>30</ele>
        <time>2025-08-07T21:27:57Z</time>
      </trkpt>
      <trkpt lat="46.74657" lon="-1.63827">
        <ele>31</ele>
        <time>2025-08-07T21:27:59Z</time>
      </trkpt>
      <trkpt lat="46.74661" lon="-1.63844">
        <ele>31</ele>
        <time>2025-08-07T21:28:01Z</time>
      </trkpt>
      <trkpt lat="46.74664" lon="-1.63861">
        <ele>31</ele>
        <time>2025-08-07T21:28:03Z</time>
      </trkpt>
      <trkpt lat="46.74668" lon="-1.63878">
        <ele>31</ele>
        <time>2025-08-07T21:28:06Z</time>
      </trkpt>
      <trkpt lat="46.74671" lon="-1.63894">
        <ele>31</ele>
        <time>2025-08-07T21:28:08Z</time>
      </trkpt>
      <trkpt lat="46.74675" lon="-1.63911">
        <ele>32</ele>
        <time>2025-08-07T21:28:10Z</time>
      </trkpt>
      <trkpt lat="46.74678" lon="-1.63927">
        <ele>32</ele>
        <time>2025-08-07T21:28:12Z</time>
      </trkpt>
      <trkpt lat="46.74682" lon="-1.63943">
        <ele>32</ele>
        <time>2025-08-07T21:28:14Z</time>
      </trkpt>
      <trkpt lat="46.74686" lon="-1.63959">
        <ele>32</ele>
        <time>2025-08-07T21:28:16Z</time>
      </trkpt>
      <trkpt lat="46.74691" lon="-1.63973">
        <ele>33</ele>
        <time>2025-08-07T21:28:18Z</time>
      </trkpt>
      <trkpt lat="46.74696" lon="-1.63987">
        <ele>33</ele>
        <time>2025-08-07T21:28:20Z</time>
      </trkpt>
      <trkpt lat="46.74701" lon="-1.64001">
        <ele>33</ele>
        <time>2025-08-07T21:28:22Z</time>
      </trkpt>
      <trkpt lat="46.74707" lon="-1.64014">
        <ele>33</ele>
        <time>2025-08-07T21:28:24Z</time>
      </trkpt>
      <trkpt lat="46.74714" lon="-1.64027">
        <ele>33</ele>
        <time>2025-08-07T21:28:26Z</time>
      </trkpt>
      <trkpt lat="46.7472" lon="-1.6404">
        <ele>33</ele>
        <time>2025-08-07T21:28:28Z</time>
      </trkpt>
      <trkpt lat="46.74726" lon="-1.64052">
        <ele>34</ele>
        <time>2025-08-07T21:28:30Z</time>
      </trkpt>
      <trkpt lat="46.74732" lon="-1.64063">
        <ele>34</ele>
        <time>2025-08-07T21:28:32Z</time>
      </trkpt>
      <trkpt lat="46.74738" lon="-1.64074">
        <ele>34</ele>
        <time>2025-08-07T21:28:34Z</time>
      </trkpt>
      <trkpt lat="46.74743" lon="-1.64086">
        <ele>34</ele>
        <time>2025-08-07T21:28:36Z</time>
      </trkpt>
      <trkpt lat="46.74749" lon="-1.64098">
        <ele>34</ele>
        <time>2025-08-07T21:28:38Z</time>
      </trkpt>
      <trkpt lat="46.74756" lon="-1.64107">
        <ele>34</ele>
        <time>2025-08-07T21:28:40Z</time>
      </trkpt>
      <trkpt lat="46.74766" lon="-1.64108">
        <ele>34</ele>
        <time>2025-08-07T21:28:42Z</time>
      </trkpt>
      <trkpt lat="46.74777" lon="-1.64101">
        <ele>34</ele>
        <time>2025-08-07T21:28:44Z</time>
      </trkpt>
      <trkpt lat="46.74787" lon="-1.64093">
        <ele>34</ele>
        <time>2025-08-07T21:28:46Z</time>
      </trkpt>
      <trkpt lat="46.74797" lon="-1.64085">
        <ele>34</ele>
        <time>2025-08-07T21:28:48Z</time>
      </trkpt>
      <trkpt lat="46.74807" lon="-1.64079">
        <ele>34</ele>
        <time>2025-08-07T21:28:50Z</time>
      </trkpt>
      <trkpt lat="46.74817" lon="-1.64072">
        <ele>34</ele>
        <time>2025-08-07T21:28:52Z</time>
      </trkpt>
      <trkpt lat="46.74827" lon="-1.64067">
        <ele>34</ele>
        <time>2025-08-07T21:28:54Z</time>
      </trkpt>
      <trkpt lat="46.74837" lon="-1.64061">
        <ele>34</ele>
        <time>2025-08-07T21:28:56Z</time>
      </trkpt>
      <trkpt lat="46.74847" lon="-1.64054">
        <ele>35</ele>
        <time>2025-08-07T21:28:58Z</time>
      </trkpt>
      <trkpt lat="46.74857" lon="-1.64048">
        <ele>35</ele>
        <time>2025-08-07T21:29:00Z</time>
      </trkpt>
      <trkpt lat="46.74867" lon="-1.64041">
        <ele>35</ele>
        <time>2025-08-07T21:29:02Z</time>
      </trkpt>
      <trkpt lat="46.74877" lon="-1.64034">
        <ele>35</ele>
        <time>2025-08-07T21:29:04Z</time>
      </trkpt>
      <trkpt lat="46.74887" lon="-1.64028">
        <ele>35</ele>
        <time>2025-08-07T21:29:06Z</time>
      </trkpt>
      <trkpt lat="46.74896" lon="-1.64022">
        <ele>35</ele>
        <time>2025-08-07T21:29:08Z</time>
      </trkpt>
      <trkpt lat="46.74906" lon="-1.64017">
        <ele>35</ele>
        <time>2025-08-07T21:29:10Z</time>
      </trkpt>
      <trkpt lat="46.74915" lon="-1.64011">
        <ele>35</ele>
        <time>2025-08-07T21:29:12Z</time>
      </trkpt>
      <trkpt lat="46.74925" lon="-1.64006">
        <ele>35</ele>
        <time>2025-08-07T21:29:14Z</time>
      </trkpt>
      <trkpt lat="46.74935" lon="-1.64001">
        <ele>35</ele>
        <time>2025-08-07T21:29:16Z</time>
      </trkpt>
      <trkpt lat="46.74945" lon="-1.63996">
        <ele>35</ele>
        <time>2025-08-07T21:29:18Z</time>
      </trkpt>
      <trkpt lat="46.74955" lon="-1.6399">
        <ele>36</ele>
        <time>2025-08-07T21:29:20Z</time>
      </trkpt>
      <trkpt lat="46.74964" lon="-1.63984">
        <ele>36</ele>
        <time>2025-08-07T21:29:22Z</time>
      </trkpt>
      <trkpt lat="46.74973" lon="-1.63977">
        <ele>36</ele>
        <time>2025-08-07T21:29:24Z</time>
      </trkpt>
      <trkpt lat="46.74982" lon="-1.6397">
        <ele>36</ele>
        <time>2025-08-07T21:29:26Z</time>
      </trkpt>
      <trkpt lat="46.74991" lon="-1.63962">
        <ele>36</ele>
        <time>2025-08-07T21:29:28Z</time>
      </trkpt>
      <trkpt lat="46.75" lon="-1.63954">
        <ele>36</ele>
        <time>2025-08-07T21:29:30Z</time>
      </trkpt>
      <trkpt lat="46.7501" lon="-1.63947">
        <ele>36</ele>
        <time>2025-08-07T21:29:32Z</time>
      </trkpt>
      <trkpt lat="46.75023" lon="-1.63937">
        <ele>36</ele>
        <time>2025-08-07T21:29:34Z</time>
      </trkpt>
      <trkpt lat="46.75034" lon="-1.63928">
        <ele>36</ele>
        <time>2025-08-07T21:29:36Z</time>
      </trkpt>
      <trkpt lat="46.75043" lon="-1.63922">
        <ele>36</ele>
        <time>2025-08-07T21:29:38Z</time>
      </trkpt>
      <trkpt lat="46.75052" lon="-1.63915">
        <ele>36</ele>
        <time>2025-08-07T21:29:40Z</time>
      </trkpt>
      <trkpt lat="46.7506" lon="-1.63909">
        <ele>36</ele>
        <time>2025-08-07T21:29:42Z</time>
      </trkpt>
      <trkpt lat="46.75067" lon="-1.63902">
        <ele>36</ele>
        <time>2025-08-07T21:29:44Z</time>
      </trkpt>
      <trkpt lat="46.75075" lon="-1.63896">
        <ele>36</ele>
        <time>2025-08-07T21:29:46Z</time>
      </trkpt>
      <trkpt lat="46.75084" lon="-1.63889">
        <ele>36</ele>
        <time>2025-08-07T21:29:48Z</time>
      </trkpt>
      <trkpt lat="46.75092" lon="-1.63883">
        <ele>35</ele>
        <time>2025-08-07T21:29:50Z</time>
      </trkpt>
      <trkpt lat="46.751" lon="-1.63877">
        <ele>35</ele>
        <time>2025-08-07T21:29:52Z</time>
      </trkpt>
      <trkpt lat="46.75109" lon="-1.6387">
        <ele>35</ele>
        <time>2025-08-07T21:29:54Z</time>
      </trkpt>
      <trkpt lat="46.75118" lon="-1.63863">
        <ele>35</ele>
        <time>2025-08-07T21:29:57Z</time>
      </trkpt>
      <trkpt lat="46.75128" lon="-1.63855">
        <ele>34</ele>
        <time>2025-08-07T21:29:59Z</time>
      </trkpt>
      <trkpt lat="46.75139" lon="-1.63847">
        <ele>33</ele>
        <time>2025-08-07T21:30:01Z</time>
      </trkpt>
      <trkpt lat="46.7515" lon="-1.63838">
        <ele>33</ele>
        <time>2025-08-07T21:30:03Z</time>
      </trkpt>
      <trkpt lat="46.75163" lon="-1.63829">
        <ele>32</ele>
        <time>2025-08-07T21:30:05Z</time>
      </trkpt>
      <trkpt lat="46.75175" lon="-1.63819">
        <ele>31</ele>
        <time>2025-08-07T21:30:07Z</time>
      </trkpt>
      <trkpt lat="46.75188" lon="-1.63809">
        <ele>31</ele>
        <time>2025-08-07T21:30:09Z</time>
      </trkpt>
      <trkpt lat="46.75201" lon="-1.638">
        <ele>30</ele>
        <time>2025-08-07T21:30:11Z</time>
      </trkpt>
      <trkpt lat="46.75213" lon="-1.6379">
        <ele>29</ele>
        <time>2025-08-07T21:30:13Z</time>
      </trkpt>
      <trkpt lat="46.75225" lon="-1.63781">
        <ele>29</ele>
        <time>2025-08-07T21:30:15Z</time>
      </trkpt>
      <trkpt lat="46.75237" lon="-1.63772">
        <ele>29</ele>
        <time>2025-08-07T21:30:17Z</time>
      </trkpt>
      <trkpt lat="46.75248" lon="-1.63763">
        <ele>28</ele>
        <time>2025-08-07T21:30:19Z</time>
      </trkpt>
      <trkpt lat="46.75257" lon="-1.63753">
        <ele>28</ele>
        <time>2025-08-07T21:30:21Z</time>
      </trkpt>
      <trkpt lat="46.75266" lon="-1.6375">
        <ele>28</ele>
        <time>2025-08-07T21:30:23Z</time>
      </trkpt>
      <trkpt lat="46.75275" lon="-1.63756">
        <ele>28</ele>
        <time>2025-08-07T21:30:25Z</time>
      </trkpt>
      <trkpt lat="46.75282" lon="-1.6377">
        <ele>28</ele>
        <time>2025-08-07T21:30:27Z</time>
      </trkpt>
      <trkpt lat="46.75286" lon="-1.63787">
        <ele>28</ele>
        <time>2025-08-07T21:30:29Z</time>
      </trkpt>
      <trkpt lat="46.75291" lon="-1.63805">
        <ele>28</ele>
        <time>2025-08-07T21:30:31Z</time>
      </trkpt>
      <trkpt lat="46.75296" lon="-1.63821">
        <ele>28</ele>
        <time>2025-08-07T21:30:33Z</time>
      </trkpt>
      <trkpt lat="46.75301" lon="-1.63837">
        <ele>28</ele>
        <time>2025-08-07T21:30:35Z</time>
      </trkpt>
      <trkpt lat="46.75305" lon="-1.63852">
        <ele>29</ele>
        <time>2025-08-07T21:30:37Z</time>
      </trkpt>
      <trkpt lat="46.75309" lon="-1.63866">
        <ele>29</ele>
        <time>2025-08-07T21:30:39Z</time>
      </trkpt>
      <trkpt lat="46.75313" lon="-1.6388">
        <ele>30</ele>
        <time>2025-08-07T21:30:41Z</time>
      </trkpt>
      <trkpt lat="46.75316" lon="-1.63894">
        <ele>30</ele>
        <time>2025-08-07T21:30:43Z</time>
      </trkpt>
      <trkpt lat="46.75318" lon="-1.63908">
        <ele>30</ele>
        <time>2025-08-07T21:30:45Z</time>
      </trkpt>
      <trkpt lat="46.7532" lon="-1.63922">
        <ele>31</ele>
        <time>2025-08-07T21:30:47Z</time>
      </trkpt>
      <trkpt lat="46.75322" lon="-1.63937">
        <ele>32</ele>
        <time>2025-08-07T21:30:49Z</time>
      </trkpt>
      <trkpt lat="46.75325" lon="-1.63951">
        <ele>32</ele>
        <time>2025-08-07T21:30:51Z</time>
      </trkpt>
      <trkpt lat="46.75327" lon="-1.63966">
        <ele>32</ele>
        <time>2025-08-07T21:30:53Z</time>
      </trkpt>
      <trkpt lat="46.7533" lon="-1.63981">
        <ele>32</ele>
        <time>2025-08-07T21:30:55Z</time>
      </trkpt>
      <trkpt lat="46.75333" lon="-1.63996">
        <ele>32</ele>
        <time>2025-08-07T21:30:57Z</time>
      </trkpt>
      <trkpt lat="46.75337" lon="-1.64011">
        <ele>32</ele>
        <time>2025-08-07T21:30:59Z</time>
      </trkpt>
      <trkpt lat="46.75341" lon="-1.64025">
        <ele>32</ele>
        <time>2025-08-07T21:31:01Z</time>
      </trkpt>
      <trkpt lat="46.75347" lon="-1.6404">
        <ele>32</ele>
        <time>2025-08-07T21:31:03Z</time>
      </trkpt>
      <trkpt lat="46.75351" lon="-1.64053">
        <ele>32</ele>
        <time>2025-08-07T21:31:05Z</time>
      </trkpt>
      <trkpt lat="46.75355" lon="-1.64069">
        <ele>32</ele>
        <time>2025-08-07T21:31:07Z</time>
      </trkpt>
      <trkpt lat="46.75357" lon="-1.64085">
        <ele>32</ele>
        <time>2025-08-07T21:31:09Z</time>
      </trkpt>
      <trkpt lat="46.75361" lon="-1.64107">
        <ele>32</ele>
        <time>2025-08-07T21:31:11Z</time>
      </trkpt>
      <trkpt lat="46.75365" lon="-1.6413">
        <ele>31</ele>
        <time>2025-08-07T21:31:13Z</time>
      </trkpt>
      <trkpt lat="46.7537" lon="-1.64149">
        <ele>31</ele>
        <time>2025-08-07T21:31:15Z</time>
      </trkpt>
      <trkpt lat="46.75375" lon="-1.64166">
        <ele>31</ele>
        <time>2025-08-07T21:31:17Z</time>
      </trkpt>
      <trkpt lat="46.75382" lon="-1.64182">
        <ele>31</ele>
        <time>2025-08-07T21:31:19Z</time>
      </trkpt>
      <trkpt lat="46.75388" lon="-1.642">
        <ele>30</ele>
        <time>2025-08-07T21:31:21Z</time>
      </trkpt>
      <trkpt lat="46.75396" lon="-1.64216">
        <ele>30</ele>
        <time>2025-08-07T21:31:23Z</time>
      </trkpt>
      <trkpt lat="46.75404" lon="-1.64232">
        <ele>30</ele>
        <time>2025-08-07T21:31:25Z</time>
      </trkpt>
      <trkpt lat="46.75412" lon="-1.64247">
        <ele>29</ele>
        <time>2025-08-07T21:31:27Z</time>
      </trkpt>
      <trkpt lat="46.75421" lon="-1.64263">
        <ele>29</ele>
        <time>2025-08-07T21:31:29Z</time>
      </trkpt>
      <trkpt lat="46.75428" lon="-1.64279">
        <ele>29</ele>
        <time>2025-08-07T21:31:31Z</time>
      </trkpt>
      <trkpt lat="46.75433" lon="-1.64296">
        <ele>29</ele>
        <time>2025-08-07T21:31:33Z</time>
      </trkpt>
      <trkpt lat="46.75437" lon="-1.64314">
        <ele>29</ele>
        <time>2025-08-07T21:31:35Z</time>
      </trkpt>
      <trkpt lat="46.7544" lon="-1.64333">
        <ele>28</ele>
        <time>2025-08-07T21:31:38Z</time>
      </trkpt>
      <trkpt lat="46.75444" lon="-1.64351">
        <ele>28</ele>
        <time>2025-08-07T21:31:40Z</time>
      </trkpt>
      <trkpt lat="46.7545" lon="-1.64367">
        <ele>28</ele>
        <time>2025-08-07T21:31:42Z</time>
      </trkpt>
      <trkpt lat="46.75456" lon="-1.64382">
        <ele>28</ele>
        <time>2025-08-07T21:31:44Z</time>
      </trkpt>
      <trkpt lat="46.75463" lon="-1.64398">
        <ele>28</ele>
        <time>2025-08-07T21:31:46Z</time>
      </trkpt>
      <trkpt lat="46.75469" lon="-1.64414">
        <ele>28</ele>
        <time>2025-08-07T21:31:48Z</time>
      </trkpt>
      <trkpt lat="46.75475" lon="-1.64429">
        <ele>28</ele>
        <time>2025-08-07T21:31:50Z</time>
      </trkpt>
      <trkpt lat="46.75482" lon="-1.64444">
        <ele>28</ele>
        <time>2025-08-07T21:31:52Z</time>
      </trkpt>
      <trkpt lat="46.75488" lon="-1.6446">
        <ele>28</ele>
        <time>2025-08-07T21:31:54Z</time>
      </trkpt>
      <trkpt lat="46.75493" lon="-1.64474">
        <ele>29</ele>
        <time>2025-08-07T21:31:56Z</time>
      </trkpt>
      <trkpt lat="46.75499" lon="-1.64486">
        <ele>29</ele>
        <time>2025-08-07T21:31:58Z</time>
      </trkpt>
      <trkpt lat="46.75504" lon="-1.64499">
        <ele>29</ele>
        <time>2025-08-07T21:32:00Z</time>
      </trkpt>
      <trkpt lat="46.75509" lon="-1.64514">
        <ele>29</ele>
        <time>2025-08-07T21:32:02Z</time>
      </trkpt>
      <trkpt lat="46.75514" lon="-1.64529">
        <ele>29</ele>
        <time>2025-08-07T21:32:04Z</time>
      </trkpt>
      <trkpt lat="46.7552" lon="-1.64544">
        <ele>29</ele>
        <time>2025-08-07T21:32:06Z</time>
      </trkpt>
      <trkpt lat="46.75525" lon="-1.64557">
        <ele>30</ele>
        <time>2025-08-07T21:32:08Z</time>
      </trkpt>
      <trkpt lat="46.75529" lon="-1.6457">
        <ele>30</ele>
        <time>2025-08-07T21:32:10Z</time>
      </trkpt>
      <trkpt lat="46.75534" lon="-1.64584">
        <ele>30</ele>
        <time>2025-08-07T21:32:12Z</time>
      </trkpt>
      <trkpt lat="46.75538" lon="-1.64599">
        <ele>30</ele>
        <time>2025-08-07T21:32:14Z</time>
      </trkpt>
      <trkpt lat="46.75543" lon="-1.64612">
        <ele>30</ele>
        <time>2025-08-07T21:32:16Z</time>
      </trkpt>
      <trkpt lat="46.75546" lon="-1.64622">
        <ele>30</ele>
        <time>2025-08-07T21:32:18Z</time>
      </trkpt>
      <trkpt lat="46.75549" lon="-1.64627">
        <ele>30</ele>
        <time>2025-08-07T21:32:20Z</time>
      </trkpt>
      <trkpt lat="46.7555" lon="-1.64643">
        <ele>30</ele>
        <time>2025-08-07T21:32:24Z</time>
      </trkpt>
      <trkpt lat="46.75547" lon="-1.64655">
        <ele>30</ele>
        <time>2025-08-07T21:32:26Z</time>
      </trkpt>
      <trkpt lat="46.75544" lon="-1.6467">
        <ele>29</ele>
        <time>2025-08-07T21:32:28Z</time>
      </trkpt>
      <trkpt lat="46.75542" lon="-1.64685">
        <ele>29</ele>
        <time>2025-08-07T21:32:30Z</time>
      </trkpt>
      <trkpt lat="46.7554" lon="-1.64702">
        <ele>29</ele>
        <time>2025-08-07T21:32:32Z</time>
      </trkpt>
      <trkpt lat="46.75538" lon="-1.64719">
        <ele>29</ele>
        <time>2025-08-07T21:32:34Z</time>
      </trkpt>
      <trkpt lat="46.75535" lon="-1.64735">
        <ele>28</ele>
        <time>2025-08-07T21:32:36Z</time>
      </trkpt>
      <trkpt lat="46.75532" lon="-1.64751">
        <ele>28</ele>
        <time>2025-08-07T21:32:38Z</time>
      </trkpt>
      <trkpt lat="46.7553" lon="-1.64768">
        <ele>28</ele>
        <time>2025-08-07T21:32:40Z</time>
      </trkpt>
      <trkpt lat="46.75527" lon="-1.64784">
        <ele>28</ele>
        <time>2025-08-07T21:32:42Z</time>
      </trkpt>
      <trkpt lat="46.75524" lon="-1.64801">
        <ele>27</ele>
        <time>2025-08-07T21:32:44Z</time>
      </trkpt>
      <trkpt lat="46.7552" lon="-1.64818">
        <ele>27</ele>
        <time>2025-08-07T21:32:46Z</time>
      </trkpt>
      <trkpt lat="46.75515" lon="-1.64833">
        <ele>27</ele>
        <time>2025-08-07T21:32:48Z</time>
      </trkpt>
      <trkpt lat="46.7551" lon="-1.64848">
        <ele>27</ele>
        <time>2025-08-07T21:32:50Z</time>
      </trkpt>
      <trkpt lat="46.75505" lon="-1.64862">
        <ele>27</ele>
        <time>2025-08-07T21:32:52Z</time>
      </trkpt>
      <trkpt lat="46.755" lon="-1.64875">
        <ele>27</ele>
        <time>2025-08-07T21:32:54Z</time>
      </trkpt>
      <trkpt lat="46.75494" lon="-1.64888">
        <ele>27</ele>
        <time>2025-08-07T21:32:56Z</time>
      </trkpt>
      <trkpt lat="46.75487" lon="-1.64903">
        <ele>27</ele>
        <time>2025-08-07T21:32:58Z</time>
      </trkpt>
      <trkpt lat="46.75483" lon="-1.64919">
        <ele>27</ele>
        <time>2025-08-07T21:33:00Z</time>
      </trkpt>
      <trkpt lat="46.75488" lon="-1.64929">
        <ele>27</ele>
        <time>2025-08-07T21:33:02Z</time>
      </trkpt>
      <trkpt lat="46.75499" lon="-1.64935">
        <ele>27</ele>
        <time>2025-08-07T21:33:04Z</time>
      </trkpt>
      <trkpt lat="46.75511" lon="-1.64941">
        <ele>27</ele>
        <time>2025-08-07T21:33:06Z</time>
      </trkpt>
      <trkpt lat="46.75522" lon="-1.64949">
        <ele>26</ele>
        <time>2025-08-07T21:33:08Z</time>
      </trkpt>
      <trkpt lat="46.75534" lon="-1.64957">
        <ele>26</ele>
        <time>2025-08-07T21:33:10Z</time>
      </trkpt>
      <trkpt lat="46.75545" lon="-1.64964">
        <ele>26</ele>
        <time>2025-08-07T21:33:12Z</time>
      </trkpt>
      <trkpt lat="46.75555" lon="-1.64973">
        <ele>26</ele>
        <time>2025-08-07T21:33:14Z</time>
      </trkpt>
      <trkpt lat="46.75566" lon="-1.64982">
        <ele>26</ele>
        <time>2025-08-07T21:33:16Z</time>
      </trkpt>
      <trkpt lat="46.75577" lon="-1.6499">
        <ele>25</ele>
        <time>2025-08-07T21:33:18Z</time>
      </trkpt>
      <trkpt lat="46.75588" lon="-1.64998">
        <ele>25</ele>
        <time>2025-08-07T21:33:20Z</time>
      </trkpt>
      <trkpt lat="46.75599" lon="-1.65007">
        <ele>25</ele>
        <time>2025-08-07T21:33:22Z</time>
      </trkpt>
      <trkpt lat="46.7561" lon="-1.65014">
        <ele>25</ele>
        <time>2025-08-07T21:33:25Z</time>
      </trkpt>
      <trkpt lat="46.7562" lon="-1.65021">
        <ele>25</ele>
        <time>2025-08-07T21:33:27Z</time>
      </trkpt>
      <trkpt lat="46.75629" lon="-1.65028">
        <ele>25</ele>
        <time>2025-08-07T21:33:29Z</time>
      </trkpt>
      <trkpt lat="46.75638" lon="-1.65035">
        <ele>25</ele>
        <time>2025-08-07T21:33:31Z</time>
      </trkpt>
      <trkpt lat="46.75647" lon="-1.6504">
        <ele>25</ele>
        <time>2025-08-07T21:33:33Z</time>
      </trkpt>
      <trkpt lat="46.75654" lon="-1.65039">
        <ele>25</ele>
        <time>2025-08-07T21:33:35Z</time>
      </trkpt>
      <trkpt lat="46.75661" lon="-1.65037">
        <ele>25</ele>
        <time>2025-08-07T21:33:37Z</time>
      </trkpt>
      <trkpt lat="46.75666" lon="-1.65039">
        <ele>25</ele>
        <time>2025-08-07T21:33:39Z</time>
      </trkpt>
      <trkpt lat="46.75668" lon="-1.65048">
        <ele>25</ele>
        <time>2025-08-07T21:33:41Z</time>
      </trkpt>
      <trkpt lat="46.75669" lon="-1.6506">
        <ele>25</ele>
        <time>2025-08-07T21:33:43Z</time>
      </trkpt>
      <trkpt lat="46.75669" lon="-1.65074">
        <ele>25</ele>
        <time>2025-08-07T21:33:45Z</time>
      </trkpt>
      <trkpt lat="46.7567" lon="-1.65089">
        <ele>25</ele>
        <time>2025-08-07T21:33:47Z</time>
      </trkpt>
      <trkpt lat="46.7567" lon="-1.65103">
        <ele>25</ele>
        <time>2025-08-07T21:33:49Z</time>
      </trkpt>
      <trkpt lat="46.75671" lon="-1.65117">
        <ele>25</ele>
        <time>2025-08-07T21:33:51Z</time>
      </trkpt>
      <trkpt lat="46.75671" lon="-1.65131">
        <ele>25</ele>
        <time>2025-08-07T21:33:53Z</time>
      </trkpt>
      <trkpt lat="46.75672" lon="-1.65145">
        <ele>26</ele>
        <time>2025-08-07T21:33:55Z</time>
      </trkpt>
      <trkpt lat="46.75673" lon="-1.65159">
        <ele>26</ele>
        <time>2025-08-07T21:33:57Z</time>
      </trkpt>
      <trkpt lat="46.75673" lon="-1.65173">
        <ele>26</ele>
        <time>2025-08-07T21:33:59Z</time>
      </trkpt>
      <trkpt lat="46.75673" lon="-1.65187">
        <ele>26</ele>
        <time>2025-08-07T21:34:01Z</time>
      </trkpt>
      <trkpt lat="46.75674" lon="-1.65201">
        <ele>26</ele>
        <time>2025-08-07T21:34:03Z</time>
      </trkpt>
      <trkpt lat="46.75674" lon="-1.65215">
        <ele>26</ele>
        <time>2025-08-07T21:34:05Z</time>
      </trkpt>
      <trkpt lat="46.75675" lon="-1.65229">
        <ele>26</ele>
        <time>2025-08-07T21:34:07Z</time>
      </trkpt>
      <trkpt lat="46.75676" lon="-1.65243">
        <ele>26</ele>
        <time>2025-08-07T21:34:09Z</time>
      </trkpt>
      <trkpt lat="46.75677" lon="-1.65258">
        <ele>26</ele>
        <time>2025-08-07T21:34:11Z</time>
      </trkpt>
      <trkpt lat="46.75678" lon="-1.65272">
        <ele>26</ele>
        <time>2025-08-07T21:34:13Z</time>
      </trkpt>
      <trkpt lat="46.75679" lon="-1.65286">
        <ele>27</ele>
        <time>2025-08-07T21:34:15Z</time>
      </trkpt>
      <trkpt lat="46.75679" lon="-1.653">
        <ele>27</ele>
        <time>2025-08-07T21:34:17Z</time>
      </trkpt>
      <trkpt lat="46.75679" lon="-1.65314">
        <ele>27</ele>
        <time>2025-08-07T21:34:19Z</time>
      </trkpt>
      <trkpt lat="46.7568" lon="-1.65328">
        <ele>27</ele>
        <time>2025-08-07T21:34:21Z</time>
      </trkpt>
      <trkpt lat="46.75681" lon="-1.65342">
        <ele>27</ele>
        <time>2025-08-07T21:34:23Z</time>
      </trkpt>
      <trkpt lat="46.75681" lon="-1.65355">
        <ele>27</ele>
        <time>2025-08-07T21:34:25Z</time>
      </trkpt>
      <trkpt lat="46.75682" lon="-1.65369">
        <ele>27</ele>
        <time>2025-08-07T21:34:27Z</time>
      </trkpt>
      <trkpt lat="46.75683" lon="-1.65383">
        <ele>27</ele>
        <time>2025-08-07T21:34:29Z</time>
      </trkpt>
      <trkpt lat="46.75684" lon="-1.65396">
        <ele>28</ele>
        <time>2025-08-07T21:34:31Z</time>
      </trkpt>
      <trkpt lat="46.75686" lon="-1.6541">
        <ele>28</ele>
        <time>2025-08-07T21:34:33Z</time>
      </trkpt>
      <trkpt lat="46.75688" lon="-1.65422">
        <ele>28</ele>
        <time>2025-08-07T21:34:35Z</time>
      </trkpt>
      <trkpt lat="46.75691" lon="-1.65435">
        <ele>28</ele>
        <time>2025-08-07T21:34:37Z</time>
      </trkpt>
      <trkpt lat="46.75694" lon="-1.65448">
        <ele>28</ele>
        <time>2025-08-07T21:34:39Z</time>
      </trkpt>
      <trkpt lat="46.75696" lon="-1.65461">
        <ele>29</ele>
        <time>2025-08-07T21:34:41Z</time>
      </trkpt>
      <trkpt lat="46.75699" lon="-1.65474">
        <ele>29</ele>
        <time>2025-08-07T21:34:43Z</time>
      </trkpt>
      <trkpt lat="46.75701" lon="-1.65487">
        <ele>29</ele>
        <time>2025-08-07T21:34:45Z</time>
      </trkpt>
      <trkpt lat="46.75703" lon="-1.65499">
        <ele>29</ele>
        <time>2025-08-07T21:34:47Z</time>
      </trkpt>
      <trkpt lat="46.75706" lon="-1.65512">
        <ele>29</ele>
        <time>2025-08-07T21:34:49Z</time>
      </trkpt>
      <trkpt lat="46.7571" lon="-1.6553">
        <ele>29</ele>
        <time>2025-08-07T21:34:51Z</time>
      </trkpt>
      <trkpt lat="46.75712" lon="-1.65544">
        <ele>29</ele>
        <time>2025-08-07T21:34:53Z</time>
      </trkpt>
      <trkpt lat="46.75715" lon="-1.65557">
        <ele>30</ele>
        <time>2025-08-07T21:34:55Z</time>
      </trkpt>
      <trkpt lat="46.75717" lon="-1.65569">
        <ele>30</ele>
        <time>2025-08-07T21:34:57Z</time>
      </trkpt>
      <trkpt lat="46.7572" lon="-1.65582">
        <ele>30</ele>
        <time>2025-08-07T21:34:59Z</time>
      </trkpt>
      <trkpt lat="46.75722" lon="-1.65594">
        <ele>30</ele>
        <time>2025-08-07T21:35:01Z</time>
      </trkpt>
      <trkpt lat="46.75724" lon="-1.65607">
        <ele>30</ele>
        <time>2025-08-07T21:35:03Z</time>
      </trkpt>
      <trkpt lat="46.75727" lon="-1.65619">
        <ele>30</ele>
        <time>2025-08-07T21:35:05Z</time>
      </trkpt>
      <trkpt lat="46.75729" lon="-1.65631">
        <ele>30</ele>
        <time>2025-08-07T21:35:07Z</time>
      </trkpt>
      <trkpt lat="46.75732" lon="-1.65644">
        <ele>30</ele>
        <time>2025-08-07T21:35:10Z</time>
      </trkpt>
      <trkpt lat="46.75734" lon="-1.65657">
        <ele>30</ele>
        <time>2025-08-07T21:35:12Z</time>
      </trkpt>
      <trkpt lat="46.75736" lon="-1.6567">
        <ele>31</ele>
        <time>2025-08-07T21:35:14Z</time>
      </trkpt>
      <trkpt lat="46.75739" lon="-1.65683">
        <ele>31</ele>
        <time>2025-08-07T21:35:16Z</time>
      </trkpt>
      <trkpt lat="46.75741" lon="-1.65695">
        <ele>31</ele>
        <time>2025-08-07T21:35:18Z</time>
      </trkpt>
      <trkpt lat="46.75744" lon="-1.65706">
        <ele>31</ele>
        <time>2025-08-07T21:35:20Z</time>
      </trkpt>
      <trkpt lat="46.75745" lon="-1.65717">
        <ele>31</ele>
        <time>2025-08-07T21:35:22Z</time>
      </trkpt>
      <trkpt lat="46.75747" lon="-1.65728">
        <ele>31</ele>
        <time>2025-08-07T21:35:24Z</time>
      </trkpt>
      <trkpt lat="46.75749" lon="-1.65739">
        <ele>31</ele>
        <time>2025-08-07T21:35:26Z</time>
      </trkpt>
      <trkpt lat="46.75752" lon="-1.6575">
        <ele>31</ele>
        <time>2025-08-07T21:35:28Z</time>
      </trkpt>
      <trkpt lat="46.75755" lon="-1.65761">
        <ele>31</ele>
        <time>2025-08-07T21:35:30Z</time>
      </trkpt>
      <trkpt lat="46.75761" lon="-1.65769">
        <ele>31</ele>
        <time>2025-08-07T21:35:32Z</time>
      </trkpt>
      <trkpt lat="46.75769" lon="-1.65771">
        <ele>31</ele>
        <time>2025-08-07T21:35:34Z</time>
      </trkpt>
      <trkpt lat="46.75778" lon="-1.65768">
        <ele>31</ele>
        <time>2025-08-07T21:35:36Z</time>
      </trkpt>
      <trkpt lat="46.75786" lon="-1.65765">
        <ele>31</ele>
        <time>2025-08-07T21:35:38Z</time>
      </trkpt>
      <trkpt lat="46.75795" lon="-1.65763">
        <ele>31</ele>
        <time>2025-08-07T21:35:40Z</time>
      </trkpt>
      <trkpt lat="46.75803" lon="-1.65763">
        <ele>31</ele>
        <time>2025-08-07T21:35:42Z</time>
      </trkpt>
      <trkpt lat="46.75812" lon="-1.65763">
        <ele>31</ele>
        <time>2025-08-07T21:35:44Z</time>
      </trkpt>
      <trkpt lat="46.7582" lon="-1.65763">
        <ele>31</ele>
        <time>2025-08-07T21:35:46Z</time>
      </trkpt>
      <trkpt lat="46.75829" lon="-1.65764">
        <ele>31</ele>
        <time>2025-08-07T21:35:48Z</time>
      </trkpt>
      <trkpt lat="46.75837" lon="-1.65764">
        <ele>31</ele>
        <time>2025-08-07T21:35:50Z</time>
      </trkpt>
      <trkpt lat="46.75846" lon="-1.65766">
        <ele>31</ele>
        <time>2025-08-07T21:35:52Z</time>
      </trkpt>
      <trkpt lat="46.75855" lon="-1.65768">
        <ele>31</ele>
        <time>2025-08-07T21:35:54Z</time>
      </trkpt>
      <trkpt lat="46.75863" lon="-1.65772">
        <ele>31</ele>
        <time>2025-08-07T21:35:56Z</time>
      </trkpt>
      <trkpt lat="46.75871" lon="-1.65776">
        <ele>32</ele>
        <time>2025-08-07T21:35:58Z</time>
      </trkpt>
      <trkpt lat="46.75879" lon="-1.65781">
        <ele>32</ele>
        <time>2025-08-07T21:36:00Z</time>
      </trkpt>
      <trkpt lat="46.75887" lon="-1.65787">
        <ele>32</ele>
        <time>2025-08-07T21:36:02Z</time>
      </trkpt>
      <trkpt lat="46.75895" lon="-1.65792">
        <ele>32</ele>
        <time>2025-08-07T21:36:04Z</time>
      </trkpt>
      <trkpt lat="46.75904" lon="-1.65798">
        <ele>32</ele>
        <time>2025-08-07T21:36:06Z</time>
      </trkpt>
      <trkpt lat="46.75913" lon="-1.65803">
        <ele>32</ele>
        <time>2025-08-07T21:36:08Z</time>
      </trkpt>
      <trkpt lat="46.75921" lon="-1.65809">
        <ele>32</ele>
        <time>2025-08-07T21:36:10Z</time>
      </trkpt>
      <trkpt lat="46.75928" lon="-1.65814">
        <ele>32</ele>
        <time>2025-08-07T21:36:12Z</time>
      </trkpt>
      <trkpt lat="46.75935" lon="-1.65819">
        <ele>32</ele>
        <time>2025-08-07T21:36:14Z</time>
      </trkpt>
      <trkpt lat="46.75943" lon="-1.65824">
        <ele>32</ele>
        <time>2025-08-07T21:36:16Z</time>
      </trkpt>
      <trkpt lat="46.75952" lon="-1.65829">
        <ele>32</ele>
        <time>2025-08-07T21:36:18Z</time>
      </trkpt>
      <trkpt lat="46.7596" lon="-1.65835">
        <ele>32</ele>
        <time>2025-08-07T21:36:20Z</time>
      </trkpt>
      <trkpt lat="46.75968" lon="-1.65841">
        <ele>32</ele>
        <time>2025-08-07T21:36:22Z</time>
      </trkpt>
      <trkpt lat="46.75976" lon="-1.65848">
        <ele>32</ele>
        <time>2025-08-07T21:36:24Z</time>
      </trkpt>
      <trkpt lat="46.75984" lon="-1.65855">
        <ele>32</ele>
        <time>2025-08-07T21:36:26Z</time>
      </trkpt>
      <trkpt lat="46.75992" lon="-1.65861">
        <ele>32</ele>
        <time>2025-08-07T21:36:28Z</time>
      </trkpt>
      <trkpt lat="46.76001" lon="-1.65866">
        <ele>32</ele>
        <time>2025-08-07T21:36:30Z</time>
      </trkpt>
      <trkpt lat="46.7601" lon="-1.65872">
        <ele>32</ele>
        <time>2025-08-07T21:36:32Z</time>
      </trkpt>
      <trkpt lat="46.76024" lon="-1.65878">
        <ele>32</ele>
        <time>2025-08-07T21:36:34Z</time>
      </trkpt>
      <trkpt lat="46.76035" lon="-1.65882">
        <ele>32</ele>
        <time>2025-08-07T21:36:36Z</time>
      </trkpt>
      <trkpt lat="46.76045" lon="-1.65885">
        <ele>32</ele>
        <time>2025-08-07T21:36:38Z</time>
      </trkpt>
      <trkpt lat="46.76054" lon="-1.65888">
        <ele>31</ele>
        <time>2025-08-07T21:36:40Z</time>
      </trkpt>
      <trkpt lat="46.76063" lon="-1.65891">
        <ele>31</ele>
        <time>2025-08-07T21:36:42Z</time>
      </trkpt>
      <trkpt lat="46.76072" lon="-1.65893">
        <ele>31</ele>
        <time>2025-08-07T21:36:44Z</time>
      </trkpt>
      <trkpt lat="46.76081" lon="-1.65895">
        <ele>31</ele>
        <time>2025-08-07T21:36:46Z</time>
      </trkpt>
      <trkpt lat="46.76089" lon="-1.65898">
        <ele>31</ele>
        <time>2025-08-07T21:36:48Z</time>
      </trkpt>
      <trkpt lat="46.76097" lon="-1.65903">
        <ele>31</ele>
        <time>2025-08-07T21:36:50Z</time>
      </trkpt>
      <trkpt lat="46.76104" lon="-1.65909">
        <ele>30</ele>
        <time>2025-08-07T21:36:52Z</time>
      </trkpt>
      <trkpt lat="46.76112" lon="-1.65916">
        <ele>30</ele>
        <time>2025-08-07T21:36:54Z</time>
      </trkpt>
      <trkpt lat="46.76118" lon="-1.65925">
        <ele>30</ele>
        <time>2025-08-07T21:36:56Z</time>
      </trkpt>
      <trkpt lat="46.76125" lon="-1.65934">
        <ele>29</ele>
        <time>2025-08-07T21:36:59Z</time>
      </trkpt>
      <trkpt lat="46.76131" lon="-1.65944">
        <ele>29</ele>
        <time>2025-08-07T21:37:01Z</time>
      </trkpt>
      <trkpt lat="46.76135" lon="-1.65956">
        <ele>29</ele>
        <time>2025-08-07T21:37:03Z</time>
      </trkpt>
      <trkpt lat="46.76137" lon="-1.6597">
        <ele>29</ele>
        <time>2025-08-07T21:37:05Z</time>
      </trkpt>
      <trkpt lat="46.76139" lon="-1.65984">
        <ele>29</ele>
        <time>2025-08-07T21:37:07Z</time>
      </trkpt>
      <trkpt lat="46.76144" lon="-1.65997">
        <ele>28</ele>
        <time>2025-08-07T21:37:09Z</time>
      </trkpt>
      <trkpt lat="46.76152" lon="-1.66007">
        <ele>28</ele>
        <time>2025-08-07T21:37:11Z</time>
      </trkpt>
      <trkpt lat="46.76162" lon="-1.66014">
        <ele>28</ele>
        <time>2025-08-07T21:37:13Z</time>
      </trkpt>
      <trkpt lat="46.76171" lon="-1.66021">
        <ele>28</ele>
        <time>2025-08-07T21:37:15Z</time>
      </trkpt>
      <trkpt lat="46.76179" lon="-1.66031">
        <ele>28</ele>
        <time>2025-08-07T21:37:17Z</time>
      </trkpt>
      <trkpt lat="46.76184" lon="-1.66044">
        <ele>28</ele>
        <time>2025-08-07T21:37:19Z</time>
      </trkpt>
      <trkpt lat="46.76188" lon="-1.66058">
        <ele>28</ele>
        <time>2025-08-07T21:37:21Z</time>
      </trkpt>
      <trkpt lat="46.76193" lon="-1.66072">
        <ele>28</ele>
        <time>2025-08-07T21:37:23Z</time>
      </trkpt>
      <trkpt lat="46.76202" lon="-1.66081">
        <ele>28</ele>
        <time>2025-08-07T21:37:25Z</time>
      </trkpt>
      <trkpt lat="46.76212" lon="-1.66087">
        <ele>28</ele>
        <time>2025-08-07T21:37:27Z</time>
      </trkpt>
      <trkpt lat="46.76223" lon="-1.66091">
        <ele>28</ele>
        <time>2025-08-07T21:37:29Z</time>
      </trkpt>
      <trkpt lat="46.76234" lon="-1.66096">
        <ele>27</ele>
        <time>2025-08-07T21:37:31Z</time>
      </trkpt>
      <trkpt lat="46.76245" lon="-1.66102">
        <ele>27</ele>
        <time>2025-08-07T21:37:33Z</time>
      </trkpt>
      <trkpt lat="46.76255" lon="-1.66107">
        <ele>27</ele>
        <time>2025-08-07T21:37:35Z</time>
      </trkpt>
      <trkpt lat="46.76266" lon="-1.66112">
        <ele>27</ele>
        <time>2025-08-07T21:37:37Z</time>
      </trkpt>
      <trkpt lat="46.76276" lon="-1.66117">
        <ele>27</ele>
        <time>2025-08-07T21:37:39Z</time>
      </trkpt>
      <trkpt lat="46.76287" lon="-1.66122">
        <ele>27</ele>
        <time>2025-08-07T21:37:41Z</time>
      </trkpt>
      <trkpt lat="46.76297" lon="-1.6613">
        <ele>27</ele>
        <time>2025-08-07T21:37:43Z</time>
      </trkpt>
      <trkpt lat="46.76305" lon="-1.66141">
        <ele>27</ele>
        <time>2025-08-07T21:37:45Z</time>
      </trkpt>
      <trkpt lat="46.76312" lon="-1.66155">
        <ele>27</ele>
        <time>2025-08-07T21:37:47Z</time>
      </trkpt>
      <trkpt lat="46.76319" lon="-1.6617">
        <ele>27</ele>
        <time>2025-08-07T21:37:49Z</time>
      </trkpt>
      <trkpt lat="46.76325" lon="-1.66185">
        <ele>27</ele>
        <time>2025-08-07T21:37:51Z</time>
      </trkpt>
      <trkpt lat="46.76331" lon="-1.66199">
        <ele>27</ele>
        <time>2025-08-07T21:37:53Z</time>
      </trkpt>
      <trkpt lat="46.76336" lon="-1.66213">
        <ele>27</ele>
        <time>2025-08-07T21:37:55Z</time>
      </trkpt>
      <trkpt lat="46.76341" lon="-1.66228">
        <ele>27</ele>
        <time>2025-08-07T21:37:57Z</time>
      </trkpt>
      <trkpt lat="46.76343" lon="-1.66243">
        <ele>27</ele>
        <time>2025-08-07T21:37:59Z</time>
      </trkpt>
      <trkpt lat="46.76343" lon="-1.66259">
        <ele>27</ele>
        <time>2025-08-07T21:38:01Z</time>
      </trkpt>
      <trkpt lat="46.76342" lon="-1.66275">
        <ele>28</ele>
        <time>2025-08-07T21:38:03Z</time>
      </trkpt>
      <trkpt lat="46.76341" lon="-1.66291">
        <ele>28</ele>
        <time>2025-08-07T21:38:05Z</time>
      </trkpt>
      <trkpt lat="46.7634" lon="-1.66306">
        <ele>28</ele>
        <time>2025-08-07T21:38:07Z</time>
      </trkpt>
      <trkpt lat="46.7634" lon="-1.66321">
        <ele>28</ele>
        <time>2025-08-07T21:38:09Z</time>
      </trkpt>
      <trkpt lat="46.7634" lon="-1.66337">
        <ele>28</ele>
        <time>2025-08-07T21:38:11Z</time>
      </trkpt>
      <trkpt lat="46.7634" lon="-1.66353">
        <ele>28</ele>
        <time>2025-08-07T21:38:13Z</time>
      </trkpt>
      <trkpt lat="46.7634" lon="-1.66368">
        <ele>28</ele>
        <time>2025-08-07T21:38:15Z</time>
      </trkpt>
      <trkpt lat="46.76339" lon="-1.66383">
        <ele>28</ele>
        <time>2025-08-07T21:38:17Z</time>
      </trkpt>
      <trkpt lat="46.76339" lon="-1.66398">
        <ele>28</ele>
        <time>2025-08-07T21:38:19Z</time>
      </trkpt>
      <trkpt lat="46.76337" lon="-1.66413">
        <ele>28</ele>
        <time>2025-08-07T21:38:21Z</time>
      </trkpt>
      <trkpt lat="46.76335" lon="-1.66427">
        <ele>27</ele>
        <time>2025-08-07T21:38:23Z</time>
      </trkpt>
      <trkpt lat="46.76329" lon="-1.66447">
        <ele>27</ele>
        <time>2025-08-07T21:38:25Z</time>
      </trkpt>
      <trkpt lat="46.76324" lon="-1.66461">
        <ele>27</ele>
        <time>2025-08-07T21:38:27Z</time>
      </trkpt>
      <trkpt lat="46.76318" lon="-1.66474">
        <ele>27</ele>
        <time>2025-08-07T21:38:29Z</time>
      </trkpt>
      <trkpt lat="46.76312" lon="-1.66487">
        <ele>26</ele>
        <time>2025-08-07T21:38:31Z</time>
      </trkpt>
      <trkpt lat="46.76305" lon="-1.66501">
        <ele>26</ele>
        <time>2025-08-07T21:38:33Z</time>
      </trkpt>
      <trkpt lat="46.76299" lon="-1.66517">
        <ele>25</ele>
        <time>2025-08-07T21:38:35Z</time>
      </trkpt>
      <trkpt lat="46.76291" lon="-1.66533">
        <ele>24</ele>
        <time>2025-08-07T21:38:37Z</time>
      </trkpt>
      <trkpt lat="46.76285" lon="-1.66549">
        <ele>24</ele>
        <time>2025-08-07T21:38:39Z</time>
      </trkpt>
      <trkpt lat="46.76284" lon="-1.66565">
        <ele>23</ele>
        <time>2025-08-07T21:38:41Z</time>
      </trkpt>
      <trkpt lat="46.7629" lon="-1.66583">
        <ele>22</ele>
        <time>2025-08-07T21:38:43Z</time>
      </trkpt>
      <trkpt lat="46.76299" lon="-1.66603">
        <ele>20</ele>
        <time>2025-08-07T21:38:46Z</time>
      </trkpt>
      <trkpt lat="46.76308" lon="-1.66626">
        <ele>18</ele>
        <time>2025-08-07T21:38:48Z</time>
      </trkpt>
      <trkpt lat="46.76318" lon="-1.66651">
        <ele>16</ele>
        <time>2025-08-07T21:38:50Z</time>
      </trkpt>
      <trkpt lat="46.76327" lon="-1.66677">
        <ele>15</ele>
        <time>2025-08-07T21:38:52Z</time>
      </trkpt>
      <trkpt lat="46.76337" lon="-1.66704">
        <ele>13</ele>
        <time>2025-08-07T21:38:54Z</time>
      </trkpt>
      <trkpt lat="46.76346" lon="-1.66729">
        <ele>12</ele>
        <time>2025-08-07T21:38:56Z</time>
      </trkpt>
      <trkpt lat="46.76355" lon="-1.66753">
        <ele>11</ele>
        <time>2025-08-07T21:38:58Z</time>
      </trkpt>
      <trkpt lat="46.76362" lon="-1.66773">
        <ele>10</ele>
        <time>2025-08-07T21:39:00Z</time>
      </trkpt>
      <trkpt lat="46.76368" lon="-1.66788">
        <ele>9</ele>
        <time>2025-08-07T21:39:02Z</time>
      </trkpt>
      <trkpt lat="46.76374" lon="-1.668">
        <ele>9</ele>
        <time>2025-08-07T21:39:04Z</time>
      </trkpt>
      <trkpt lat="46.76378" lon="-1.6681">
        <ele>8</ele>
        <time>2025-08-07T21:39:06Z</time>
      </trkpt>
      <trkpt lat="46.76378" lon="-1.66818">
        <ele>8</ele>
        <time>2025-08-07T21:39:08Z</time>
      </trkpt>
      <trkpt lat="46.76373" lon="-1.66824">
        <ele>7</ele>
        <time>2025-08-07T21:39:10Z</time>
      </trkpt>
      <trkpt lat="46.76365" lon="-1.66828">
        <ele>7</ele>
        <time>2025-08-07T21:39:12Z</time>
      </trkpt>
      <trkpt lat="46.76357" lon="-1.66833">
        <ele>7</ele>
        <time>2025-08-07T21:39:14Z</time>
      </trkpt>
      <trkpt lat="46.76348" lon="-1.66838">
        <ele>7</ele>
        <time>2025-08-07T21:39:16Z</time>
      </trkpt>
      <trkpt lat="46.76341" lon="-1.66845">
        <ele>7</ele>
        <time>2025-08-07T21:39:18Z</time>
      </trkpt>
      <trkpt lat="46.76333" lon="-1.66853">
        <ele>6</ele>
        <time>2025-08-07T21:39:20Z</time>
      </trkpt>
      <trkpt lat="46.76326" lon="-1.66862">
        <ele>6</ele>
        <time>2025-08-07T21:39:22Z</time>
      </trkpt>
      <trkpt lat="46.7632" lon="-1.66872">
        <ele>6</ele>
        <time>2025-08-07T21:39:24Z</time>
      </trkpt>
      <trkpt lat="46.76313" lon="-1.66883">
        <ele>6</ele>
        <time>2025-08-07T21:39:26Z</time>
      </trkpt>
      <trkpt lat="46.76307" lon="-1.66893">
        <ele>6</ele>
        <time>2025-08-07T21:39:28Z</time>
      </trkpt>
      <trkpt lat="46.763" lon="-1.66902">
        <ele>6</ele>
        <time>2025-08-07T21:39:30Z</time>
      </trkpt>
      <trkpt lat="46.76293" lon="-1.66912">
        <ele>6</ele>
        <time>2025-08-07T21:39:32Z</time>
      </trkpt>
      <trkpt lat="46.76288" lon="-1.66921">
        <ele>6</ele>
        <time>2025-08-07T21:39:34Z</time>
      </trkpt>
      <trkpt lat="46.76282" lon="-1.66931">
        <ele>6</ele>
        <time>2025-08-07T21:39:36Z</time>
      </trkpt>
      <trkpt lat="46.76276" lon="-1.6694">
        <ele>6</ele>
        <time>2025-08-07T21:39:38Z</time>
      </trkpt>
      <trkpt lat="46.7627" lon="-1.6695">
        <ele>6</ele>
        <time>2025-08-07T21:39:40Z</time>
      </trkpt>
      <trkpt lat="46.76263" lon="-1.6696">
        <ele>6</ele>
        <time>2025-08-07T21:39:42Z</time>
      </trkpt>
      <trkpt lat="46.76257" lon="-1.66971">
        <ele>6</ele>
        <time>2025-08-07T21:39:44Z</time>
      </trkpt>
      <trkpt lat="46.76252" lon="-1.66982">
        <ele>6</ele>
        <time>2025-08-07T21:39:46Z</time>
      </trkpt>
      <trkpt lat="46.76247" lon="-1.66992">
        <ele>6</ele>
        <time>2025-08-07T21:39:48Z</time>
      </trkpt>
      <trkpt lat="46.76241" lon="-1.67003">
        <ele>6</ele>
        <time>2025-08-07T21:39:50Z</time>
      </trkpt>
      <trkpt lat="46.76236" lon="-1.67014">
        <ele>6</ele>
        <time>2025-08-07T21:39:52Z</time>
      </trkpt>
      <trkpt lat="46.7623" lon="-1.67022">
        <ele>6</ele>
        <time>2025-08-07T21:39:54Z</time>
      </trkpt>
      <trkpt lat="46.76222" lon="-1.67027">
        <ele>7</ele>
        <time>2025-08-07T21:39:56Z</time>
      </trkpt>
      <trkpt lat="46.7621" lon="-1.67037">
        <ele>7</ele>
        <time>2025-08-07T21:39:58Z</time>
      </trkpt>
      <trkpt lat="46.76201" lon="-1.67045">
        <ele>6</ele>
        <time>2025-08-07T21:40:00Z</time>
      </trkpt>
      <trkpt lat="46.76192" lon="-1.67052">
        <ele>6</ele>
        <time>2025-08-07T21:40:02Z</time>
      </trkpt>
      <trkpt lat="46.76184" lon="-1.67058">
        <ele>6</ele>
        <time>2025-08-07T21:40:04Z</time>
      </trkpt>
      <trkpt lat="46.76175" lon="-1.67065">
        <ele>6</ele>
        <time>2025-08-07T21:40:06Z</time>
      </trkpt>
      <trkpt lat="46.76167" lon="-1.6707">
        <ele>6</ele>
        <time>2025-08-07T21:40:08Z</time>
      </trkpt>
      <trkpt lat="46.76159" lon="-1.67076">
        <ele>6</ele>
        <time>2025-08-07T21:40:10Z</time>
      </trkpt>
      <trkpt lat="46.76151" lon="-1.67081">
        <ele>6</ele>
        <time>2025-08-07T21:40:12Z</time>
      </trkpt>
      <trkpt lat="46.76143" lon="-1.67087">
        <ele>6</ele>
        <time>2025-08-07T21:40:14Z</time>
      </trkpt>
      <trkpt lat="46.76135" lon="-1.67093">
        <ele>6</ele>
        <time>2025-08-07T21:40:16Z</time>
      </trkpt>
      <trkpt lat="46.76127" lon="-1.67098">
        <ele>6</ele>
        <time>2025-08-07T21:40:18Z</time>
      </trkpt>
      <trkpt lat="46.76118" lon="-1.67102">
        <ele>6</ele>
        <time>2025-08-07T21:40:20Z</time>
      </trkpt>
      <trkpt lat="46.7611" lon="-1.67105">
        <ele>6</ele>
        <time>2025-08-07T21:40:22Z</time>
      </trkpt>
      <trkpt lat="46.76101" lon="-1.67108">
        <ele>6</ele>
        <time>2025-08-07T21:40:25Z</time>
      </trkpt>
      <trkpt lat="46.76093" lon="-1.67112">
        <ele>6</ele>
        <time>2025-08-07T21:40:27Z</time>
      </trkpt>
      <trkpt lat="46.76084" lon="-1.67115">
        <ele>6</ele>
        <time>2025-08-07T21:40:29Z</time>
      </trkpt>
      <trkpt lat="46.76076" lon="-1.67119">
        <ele>6</ele>
        <time>2025-08-07T21:40:31Z</time>
      </trkpt>
      <trkpt lat="46.76067" lon="-1.67121">
        <ele>6</ele>
        <time>2025-08-07T21:40:33Z</time>
      </trkpt>
      <trkpt lat="46.76059" lon="-1.67123">
        <ele>6</ele>
        <time>2025-08-07T21:40:35Z</time>
      </trkpt>
      <trkpt lat="46.76051" lon="-1.67125">
        <ele>6</ele>
        <time>2025-08-07T21:40:37Z</time>
      </trkpt>
      <trkpt lat="46.76043" lon="-1.67127">
        <ele>6</ele>
        <time>2025-08-07T21:40:39Z</time>
      </trkpt>
      <trkpt lat="46.76035" lon="-1.67129">
        <ele>6</ele>
        <time>2025-08-07T21:40:41Z</time>
      </trkpt>
      <trkpt lat="46.76027" lon="-1.67131">
        <ele>7</ele>
        <time>2025-08-07T21:40:43Z</time>
      </trkpt>
      <trkpt lat="46.76019" lon="-1.67132">
        <ele>7</ele>
        <time>2025-08-07T21:40:45Z</time>
      </trkpt>
      <trkpt lat="46.76011" lon="-1.67132">
        <ele>7</ele>
        <time>2025-08-07T21:40:47Z</time>
      </trkpt>
      <trkpt lat="46.76003" lon="-1.67133">
        <ele>7</ele>
        <time>2025-08-07T21:40:49Z</time>
      </trkpt>
      <trkpt lat="46.75995" lon="-1.67134">
        <ele>7</ele>
        <time>2025-08-07T21:40:51Z</time>
      </trkpt>
      <trkpt lat="46.75987" lon="-1.67135">
        <ele>7</ele>
        <time>2025-08-07T21:40:53Z</time>
      </trkpt>
      <trkpt lat="46.75979" lon="-1.67137">
        <ele>7</ele>
        <time>2025-08-07T21:40:55Z</time>
      </trkpt>
      <trkpt lat="46.75972" lon="-1.6714">
        <ele>7</ele>
        <time>2025-08-07T21:40:57Z</time>
      </trkpt>
      <trkpt lat="46.75964" lon="-1.67142">
        <ele>7</ele>
        <time>2025-08-07T21:40:59Z</time>
      </trkpt>
      <trkpt lat="46.75957" lon="-1.67146">
        <ele>7</ele>
        <time>2025-08-07T21:41:01Z</time>
      </trkpt>
      <trkpt lat="46.7595" lon="-1.67149">
        <ele>7</ele>
        <time>2025-08-07T21:41:03Z</time>
      </trkpt>
      <trkpt lat="46.75942" lon="-1.67152">
        <ele>6</ele>
        <time>2025-08-07T21:41:05Z</time>
      </trkpt>
      <trkpt lat="46.75935" lon="-1.67156">
        <ele>6</ele>
        <time>2025-08-07T21:41:07Z</time>
      </trkpt>
      <trkpt lat="46.75927" lon="-1.67158">
        <ele>6</ele>
        <time>2025-08-07T21:41:09Z</time>
      </trkpt>
      <trkpt lat="46.75919" lon="-1.67162">
        <ele>7</ele>
        <time>2025-08-07T21:41:11Z</time>
      </trkpt>
      <trkpt lat="46.75911" lon="-1.67166">
        <ele>7</ele>
        <time>2025-08-07T21:41:13Z</time>
      </trkpt>
      <trkpt lat="46.75902" lon="-1.6717">
        <ele>7</ele>
        <time>2025-08-07T21:41:15Z</time>
      </trkpt>
      <trkpt lat="46.75894" lon="-1.67173">
        <ele>7</ele>
        <time>2025-08-07T21:41:17Z</time>
      </trkpt>
      <trkpt lat="46.75886" lon="-1.67175">
        <ele>6</ele>
        <time>2025-08-07T21:41:19Z</time>
      </trkpt>
      <trkpt lat="46.75879" lon="-1.67178">
        <ele>6</ele>
        <time>2025-08-07T21:41:21Z</time>
      </trkpt>
      <trkpt lat="46.75871" lon="-1.6718">
        <ele>7</ele>
        <time>2025-08-07T21:41:23Z</time>
      </trkpt>
      <trkpt lat="46.75863" lon="-1.67183">
        <ele>7</ele>
        <time>2025-08-07T21:41:25Z</time>
      </trkpt>
      <trkpt lat="46.75856" lon="-1.67185">
        <ele>7</ele>
        <time>2025-08-07T21:41:27Z</time>
      </trkpt>
      <trkpt lat="46.75848" lon="-1.67187">
        <ele>7</ele>
        <time>2025-08-07T21:41:29Z</time>
      </trkpt>
      <trkpt lat="46.7584" lon="-1.6719">
        <ele>7</ele>
        <time>2025-08-07T21:41:31Z</time>
      </trkpt>
      <trkpt lat="46.75832" lon="-1.67192">
        <ele>7</ele>
        <time>2025-08-07T21:41:33Z</time>
      </trkpt>
      <trkpt lat="46.75826" lon="-1.67192">
        <ele>7</ele>
        <time>2025-08-07T21:41:35Z</time>
      </trkpt>
      <trkpt lat="46.75821" lon="-1.67192">
        <ele>7</ele>
        <time>2025-08-07T21:41:37Z</time>
      </trkpt>
      <trkpt lat="46.75814" lon="-1.67197">
        <ele>7</ele>
        <time>2025-08-07T21:41:41Z</time>
      </trkpt>
      <trkpt lat="46.75809" lon="-1.672">
        <ele>7</ele>
        <time>2025-08-07T21:41:45Z</time>
      </trkpt>
      <trkpt lat="46.75799" lon="-1.67203">
        <ele>7</ele>
        <time>2025-08-07T21:42:01Z</time>
      </trkpt>
      <trkpt lat="46.75792" lon="-1.67205">
        <ele>7</ele>
        <time>2025-08-07T21:42:03Z</time>
      </trkpt>
      <trkpt lat="46.75785" lon="-1.67208">
        <ele>7</ele>
        <time>2025-08-07T21:42:05Z</time>
      </trkpt>
      <trkpt lat="46.75776" lon="-1.67213">
        <ele>7</ele>
        <time>2025-08-07T21:42:07Z</time>
      </trkpt>
      <trkpt lat="46.75768" lon="-1.6722">
        <ele>7</ele>
        <time>2025-08-07T21:42:09Z</time>
      </trkpt>
      <trkpt lat="46.75759" lon="-1.67227">
        <ele>7</ele>
        <time>2025-08-07T21:42:11Z</time>
      </trkpt>
      <trkpt lat="46.75751" lon="-1.67234">
        <ele>7</ele>
        <time>2025-08-07T21:42:13Z</time>
      </trkpt>
      <trkpt lat="46.75744" lon="-1.67241">
        <ele>7</ele>
        <time>2025-08-07T21:42:16Z</time>
      </trkpt>
      <trkpt lat="46.75736" lon="-1.67249">
        <ele>7</ele>
        <time>2025-08-07T21:42:18Z</time>
      </trkpt>
      <trkpt lat="46.75729" lon="-1.67258">
        <ele>7</ele>
        <time>2025-08-07T21:42:20Z</time>
      </trkpt>
      <trkpt lat="46.75723" lon="-1.67268">
        <ele>7</ele>
        <time>2025-08-07T21:42:22Z</time>
      </trkpt>
      <trkpt lat="46.75715" lon="-1.67279">
        <ele>7</ele>
        <time>2025-08-07T21:42:24Z</time>
      </trkpt>
      <trkpt lat="46.75707" lon="-1.67287">
        <ele>7</ele>
        <time>2025-08-07T21:42:26Z</time>
      </trkpt>
      <trkpt lat="46.75699" lon="-1.67293">
        <ele>7</ele>
        <time>2025-08-07T21:42:28Z</time>
      </trkpt>
      <trkpt lat="46.75691" lon="-1.67298">
        <ele>7</ele>
        <time>2025-08-07T21:42:30Z</time>
      </trkpt>
      <trkpt lat="46.75682" lon="-1.67303">
        <ele>7</ele>
        <time>2025-08-07T21:42:32Z</time>
      </trkpt>
      <trkpt lat="46.75674" lon="-1.67308">
        <ele>7</ele>
        <time>2025-08-07T21:42:34Z</time>
      </trkpt>
      <trkpt lat="46.75665" lon="-1.67313">
        <ele>7</ele>
        <time>2025-08-07T21:42:36Z</time>
      </trkpt>
      <trkpt lat="46.75655" lon="-1.67318">
        <ele>7</ele>
        <time>2025-08-07T21:42:38Z</time>
      </trkpt>
      <trkpt lat="46.75645" lon="-1.67323">
        <ele>7</ele>
        <time>2025-08-07T21:42:40Z</time>
      </trkpt>
      <trkpt lat="46.75635" lon="-1.67327">
        <ele>7</ele>
        <time>2025-08-07T21:42:42Z</time>
      </trkpt>
      <trkpt lat="46.75625" lon="-1.6733">
        <ele>7</ele>
        <time>2025-08-07T21:42:44Z</time>
      </trkpt>
      <trkpt lat="46.75615" lon="-1.67331">
        <ele>7</ele>
        <time>2025-08-07T21:42:46Z</time>
      </trkpt>
      <trkpt lat="46.75607" lon="-1.6733">
        <ele>7</ele>
        <time>2025-08-07T21:42:48Z</time>
      </trkpt>
      <trkpt lat="46.75599" lon="-1.67326">
        <ele>7</ele>
        <time>2025-08-07T21:42:50Z</time>
      </trkpt>
      <trkpt lat="46.75592" lon="-1.67319">
        <ele>7</ele>
        <time>2025-08-07T21:42:52Z</time>
      </trkpt>
      <trkpt lat="46.75587" lon="-1.67309">
        <ele>7</ele>
        <time>2025-08-07T21:42:54Z</time>
      </trkpt>
      <trkpt lat="46.75581" lon="-1.67298">
        <ele>7</ele>
        <time>2025-08-07T21:42:56Z</time>
      </trkpt>
      <trkpt lat="46.75576" lon="-1.67287">
        <ele>7</ele>
        <time>2025-08-07T21:42:58Z</time>
      </trkpt>
      <trkpt lat="46.7557" lon="-1.67276">
        <ele>7</ele>
        <time>2025-08-07T21:43:00Z</time>
      </trkpt>
      <trkpt lat="46.75563" lon="-1.67267">
        <ele>7</ele>
        <time>2025-08-07T21:43:02Z</time>
      </trkpt>
      <trkpt lat="46.75555" lon="-1.67264">
        <ele>7</ele>
        <time>2025-08-07T21:43:04Z</time>
      </trkpt>
      <trkpt lat="46.75549" lon="-1.6727">
        <ele>7</ele>
        <time>2025-08-07T21:43:06Z</time>
      </trkpt>
      <trkpt lat="46.75542" lon="-1.67279">
        <ele>7</ele>
        <time>2025-08-07T21:43:08Z</time>
      </trkpt>
      <trkpt lat="46.75537" lon="-1.67292">
        <ele>7</ele>
        <time>2025-08-07T21:43:10Z</time>
      </trkpt>
      <trkpt lat="46.75534" lon="-1.67307">
        <ele>7</ele>
        <time>2025-08-07T21:43:12Z</time>
      </trkpt>
      <trkpt lat="46.75531" lon="-1.67319">
        <ele>7</ele>
        <time>2025-08-07T21:43:14Z</time>
      </trkpt>
      <trkpt lat="46.75524" lon="-1.67326">
        <ele>7</ele>
        <time>2025-08-07T21:43:16Z</time>
      </trkpt>
      <trkpt lat="46.75516" lon="-1.67329">
        <ele>7</ele>
        <time>2025-08-07T21:43:18Z</time>
      </trkpt>
      <trkpt lat="46.75507" lon="-1.67332">
        <ele>7</ele>
        <time>2025-08-07T21:43:20Z</time>
      </trkpt>
      <trkpt lat="46.75498" lon="-1.67336">
        <ele>7</ele>
        <time>2025-08-07T21:43:22Z</time>
      </trkpt>
      <trkpt lat="46.75489" lon="-1.6734">
        <ele>7</ele>
        <time>2025-08-07T21:43:24Z</time>
      </trkpt>
      <trkpt lat="46.7548" lon="-1.67345">
        <ele>7</ele>
        <time>2025-08-07T21:43:26Z</time>
      </trkpt>
      <trkpt lat="46.75471" lon="-1.67349">
        <ele>8</ele>
        <time>2025-08-07T21:43:28Z</time>
      </trkpt>
      <trkpt lat="46.75462" lon="-1.67352">
        <ele>8</ele>
        <time>2025-08-07T21:43:30Z</time>
      </trkpt>
      <trkpt lat="46.75452" lon="-1.67356">
        <ele>8</ele>
        <time>2025-08-07T21:43:32Z</time>
      </trkpt>
      <trkpt lat="46.75444" lon="-1.6736">
        <ele>8</ele>
        <time>2025-08-07T21:43:34Z</time>
      </trkpt>
      <trkpt lat="46.75433" lon="-1.67366">
        <ele>7</ele>
        <time>2025-08-07T21:43:36Z</time>
      </trkpt>
      <trkpt lat="46.75424" lon="-1.6737">
        <ele>7</ele>
        <time>2025-08-07T21:43:38Z</time>
      </trkpt>
      <trkpt lat="46.75417" lon="-1.67375">
        <ele>7</ele>
        <time>2025-08-07T21:43:40Z</time>
      </trkpt>
      <trkpt lat="46.7541" lon="-1.67376">
        <ele>7</ele>
        <time>2025-08-07T21:43:42Z</time>
      </trkpt>
      <trkpt lat="46.75404" lon="-1.67376">
        <ele>7</ele>
        <time>2025-08-07T21:43:44Z</time>
      </trkpt>
      <trkpt lat="46.75399" lon="-1.6738">
        <ele>7</ele>
        <time>2025-08-07T21:43:46Z</time>
      </trkpt>
      <trkpt lat="46.75394" lon="-1.67387">
        <ele>7</ele>
        <time>2025-08-07T21:43:48Z</time>
      </trkpt>
      <trkpt lat="46.75387" lon="-1.67392">
        <ele>7</ele>
        <time>2025-08-07T21:43:50Z</time>
      </trkpt>
      <trkpt lat="46.7538" lon="-1.67399">
        <ele>7</ele>
        <time>2025-08-07T21:43:52Z</time>
      </trkpt>
      <trkpt lat="46.75373" lon="-1.67406">
        <ele>7</ele>
        <time>2025-08-07T21:43:54Z</time>
      </trkpt>
      <trkpt lat="46.75365" lon="-1.67413">
        <ele>7</ele>
        <time>2025-08-07T21:43:56Z</time>
      </trkpt>
      <trkpt lat="46.75358" lon="-1.67419">
        <ele>7</ele>
        <time>2025-08-07T21:43:58Z</time>
      </trkpt>
      <trkpt lat="46.7535" lon="-1.67424">
        <ele>7</ele>
        <time>2025-08-07T21:44:01Z</time>
      </trkpt>
      <trkpt lat="46.75343" lon="-1.67428">
        <ele>7</ele>
        <time>2025-08-07T21:44:03Z</time>
      </trkpt>
      <trkpt lat="46.75335" lon="-1.67432">
        <ele>7</ele>
        <time>2025-08-07T21:44:05Z</time>
      </trkpt>
      <trkpt lat="46.75326" lon="-1.67438">
        <ele>6</ele>
        <time>2025-08-07T21:44:07Z</time>
      </trkpt>
      <trkpt lat="46.75316" lon="-1.67443">
        <ele>6</ele>
        <time>2025-08-07T21:44:09Z</time>
      </trkpt>
      <trkpt lat="46.75307" lon="-1.67449">
        <ele>6</ele>
        <time>2025-08-07T21:44:11Z</time>
      </trkpt>
      <trkpt lat="46.75298" lon="-1.67454">
        <ele>6</ele>
        <time>2025-08-07T21:44:13Z</time>
      </trkpt>
      <trkpt lat="46.7529" lon="-1.67458">
        <ele>6</ele>
        <time>2025-08-07T21:44:15Z</time>
      </trkpt>
      <trkpt lat="46.75283" lon="-1.67462">
        <ele>7</ele>
        <time>2025-08-07T21:44:17Z</time>
      </trkpt>
      <trkpt lat="46.75276" lon="-1.67464">
        <ele>7</ele>
        <time>2025-08-07T21:44:19Z</time>
      </trkpt>
      <trkpt lat="46.7527" lon="-1.67465">
        <ele>7</ele>
        <time>2025-08-07T21:44:21Z</time>
      </trkpt>
      <trkpt lat="46.75264" lon="-1.67466">
        <ele>7</ele>
        <time>2025-08-07T21:44:23Z</time>
      </trkpt>
      <trkpt lat="46.75257" lon="-1.67467">
        <ele>7</ele>
        <time>2025-08-07T21:44:25Z</time>
      </trkpt>
      <trkpt lat="46.75251" lon="-1.67472">
        <ele>8</ele>
        <time>2025-08-07T21:44:27Z</time>
      </trkpt>
      <trkpt lat="46.7525" lon="-1.67478">
        <ele>8</ele>
        <time>2025-08-07T21:44:29Z</time>
      </trkpt>
      <trkpt lat="46.75254" lon="-1.67486">
        <ele>9</ele>
        <time>2025-08-07T21:44:31Z</time>
      </trkpt>
      <trkpt lat="46.75261" lon="-1.67495">
        <ele>9</ele>
        <time>2025-08-07T21:44:33Z</time>
      </trkpt>
      <trkpt lat="46.75267" lon="-1.67506">
        <ele>8</ele>
        <time>2025-08-07T21:44:35Z</time>
      </trkpt>
      <trkpt lat="46.75274" lon="-1.67517">
        <ele>9</ele>
        <time>2025-08-07T21:44:37Z</time>
      </trkpt>
      <trkpt lat="46.75279" lon="-1.67528">
        <ele>9</ele>
        <time>2025-08-07T21:44:39Z</time>
      </trkpt>
      <trkpt lat="46.75285" lon="-1.67539">
        <ele>8</ele>
        <time>2025-08-07T21:44:41Z</time>
      </trkpt>
      <trkpt lat="46.75292" lon="-1.67551">
        <ele>8</ele>
        <time>2025-08-07T21:44:43Z</time>
      </trkpt>
      <trkpt lat="46.75298" lon="-1.67563">
        <ele>8</ele>
        <time>2025-08-07T21:44:45Z</time>
      </trkpt>
      <trkpt lat="46.75305" lon="-1.67575">
        <ele>8</ele>
        <time>2025-08-07T21:44:47Z</time>
      </trkpt>
      <trkpt lat="46.75311" lon="-1.67587">
        <ele>8</ele>
        <time>2025-08-07T21:44:49Z</time>
      </trkpt>
      <trkpt lat="46.75318" lon="-1.67599">
        <ele>8</ele>
        <time>2025-08-07T21:44:51Z</time>
      </trkpt>
      <trkpt lat="46.75325" lon="-1.67611">
        <ele>8</ele>
        <time>2025-08-07T21:44:53Z</time>
      </trkpt>
      <trkpt lat="46.75332" lon="-1.67623">
        <ele>8</ele>
        <time>2025-08-07T21:44:55Z</time>
      </trkpt>
      <trkpt lat="46.75339" lon="-1.67635">
        <ele>8</ele>
        <time>2025-08-07T21:44:57Z</time>
      </trkpt>
      <trkpt lat="46.75346" lon="-1.67648">
        <ele>8</ele>
        <time>2025-08-07T21:44:59Z</time>
      </trkpt>
      <trkpt lat="46.75353" lon="-1.67661">
        <ele>8</ele>
        <time>2025-08-07T21:45:01Z</time>
      </trkpt>
      <trkpt lat="46.75359" lon="-1.67673">
        <ele>8</ele>
        <time>2025-08-07T21:45:03Z</time>
      </trkpt>
      <trkpt lat="46.75364" lon="-1.67685">
        <ele>8</ele>
        <time>2025-08-07T21:45:05Z</time>
      </trkpt>
      <trkpt lat="46.7537" lon="-1.67694">
        <ele>8</ele>
        <time>2025-08-07T21:45:07Z</time>
      </trkpt>
      <trkpt lat="46.75378" lon="-1.67699">
        <ele>8</ele>
        <time>2025-08-07T21:45:09Z</time>
      </trkpt>
      <trkpt lat="46.75388" lon="-1.67701">
        <ele>8</ele>
        <time>2025-08-07T21:45:11Z</time>
      </trkpt>
      <trkpt lat="46.75398" lon="-1.67703">
        <ele>8</ele>
        <time>2025-08-07T21:45:13Z</time>
      </trkpt>
      <trkpt lat="46.75409" lon="-1.67705">
        <ele>7</ele>
        <time>2025-08-07T21:45:15Z</time>
      </trkpt>
      <trkpt lat="46.75419" lon="-1.677">
        <ele>7</ele>
        <time>2025-08-07T21:45:17Z</time>
      </trkpt>
      <trkpt lat="46.75428" lon="-1.67692">
        <ele>7</ele>
        <time>2025-08-07T21:45:19Z</time>
      </trkpt>
      <trkpt lat="46.75438" lon="-1.67684">
        <ele>7</ele>
        <time>2025-08-07T21:45:21Z</time>
      </trkpt>
      <trkpt lat="46.75448" lon="-1.67675">
        <ele>6</ele>
        <time>2025-08-07T21:45:23Z</time>
      </trkpt>
      <trkpt lat="46.75462" lon="-1.67665">
        <ele>6</ele>
        <time>2025-08-07T21:45:25Z</time>
      </trkpt>
      <trkpt lat="46.75474" lon="-1.67658">
        <ele>6</ele>
        <time>2025-08-07T21:45:27Z</time>
      </trkpt>
      <trkpt lat="46.75483" lon="-1.6765">
        <ele>6</ele>
        <time>2025-08-07T21:45:29Z</time>
      </trkpt>
      <trkpt lat="46.75491" lon="-1.67641">
        <ele>6</ele>
        <time>2025-08-07T21:45:31Z</time>
      </trkpt>
      <trkpt lat="46.75499" lon="-1.67632">
        <ele>7</ele>
        <time>2025-08-07T21:45:33Z</time>
      </trkpt>
      <trkpt lat="46.75507" lon="-1.67621">
        <ele>7</ele>
        <time>2025-08-07T21:45:35Z</time>
      </trkpt>
      <trkpt lat="46.75515" lon="-1.67611">
        <ele>7</ele>
        <time>2025-08-07T21:45:37Z</time>
      </trkpt>
      <trkpt lat="46.75524" lon="-1.67603">
        <ele>7</ele>
        <time>2025-08-07T21:45:39Z</time>
      </trkpt>
      <trkpt lat="46.75533" lon="-1.67596">
        <ele>7</ele>
        <time>2025-08-07T21:45:41Z</time>
      </trkpt>
      <trkpt lat="46.75542" lon="-1.67589">
        <ele>7</ele>
        <time>2025-08-07T21:45:44Z</time>
      </trkpt>
      <trkpt lat="46.75551" lon="-1.67581">
        <ele>7</ele>
        <time>2025-08-07T21:45:46Z</time>
      </trkpt>
      <trkpt lat="46.7556" lon="-1.67574">
        <ele>7</ele>
        <time>2025-08-07T21:45:48Z</time>
      </trkpt>
      <trkpt lat="46.75567" lon="-1.67568">
        <ele>7</ele>
        <time>2025-08-07T21:45:50Z</time>
      </trkpt>
      <trkpt lat="46.75575" lon="-1.67564">
        <ele>7</ele>
        <time>2025-08-07T21:45:52Z</time>
      </trkpt>
      <trkpt lat="46.75584" lon="-1.67558">
        <ele>7</ele>
        <time>2025-08-07T21:45:54Z</time>
      </trkpt>
      <trkpt lat="46.75593" lon="-1.67552">
        <ele>7</ele>
        <time>2025-08-07T21:45:56Z</time>
      </trkpt>
      <trkpt lat="46.75602" lon="-1.67546">
        <ele>7</ele>
        <time>2025-08-07T21:45:58Z</time>
      </trkpt>
      <trkpt lat="46.75612" lon="-1.67539">
        <ele>7</ele>
        <time>2025-08-07T21:46:00Z</time>
      </trkpt>
      <trkpt lat="46.75623" lon="-1.67534">
        <ele>7</ele>
        <time>2025-08-07T21:46:02Z</time>
      </trkpt>
      <trkpt lat="46.75634" lon="-1.67531">
        <ele>7</ele>
        <time>2025-08-07T21:46:04Z</time>
      </trkpt>
      <trkpt lat="46.75644" lon="-1.67529">
        <ele>8</ele>
        <time>2025-08-07T21:46:06Z</time>
      </trkpt>
      <trkpt lat="46.75652" lon="-1.67529">
        <ele>8</ele>
        <time>2025-08-07T21:46:08Z</time>
      </trkpt>
      <trkpt lat="46.7566" lon="-1.67529">
        <ele>8</ele>
        <time>2025-08-07T21:46:10Z</time>
      </trkpt>
      <trkpt lat="46.75667" lon="-1.6753">
        <ele>9</ele>
        <time>2025-08-07T21:46:12Z</time>
      </trkpt>
      <trkpt lat="46.75674" lon="-1.67531">
        <ele>9</ele>
        <time>2025-08-07T21:46:14Z</time>
      </trkpt>
      <trkpt lat="46.75682" lon="-1.67533">
        <ele>10</ele>
        <time>2025-08-07T21:46:16Z</time>
      </trkpt>
      <trkpt lat="46.7569" lon="-1.67534">
        <ele>10</ele>
        <time>2025-08-07T21:46:18Z</time>
      </trkpt>
      <trkpt lat="46.757" lon="-1.67532">
        <ele>9</ele>
        <time>2025-08-07T21:46:20Z</time>
      </trkpt>
      <trkpt lat="46.75711" lon="-1.67531">
        <ele>8</ele>
        <time>2025-08-07T21:46:22Z</time>
      </trkpt>
      <trkpt lat="46.75723" lon="-1.67533">
        <ele>7</ele>
        <time>2025-08-07T21:46:24Z</time>
      </trkpt>
      <trkpt lat="46.75735" lon="-1.67538">
        <ele>7</ele>
        <time>2025-08-07T21:46:26Z</time>
      </trkpt>
      <trkpt lat="46.75747" lon="-1.67543">
        <ele>6</ele>
        <time>2025-08-07T21:46:28Z</time>
      </trkpt>
      <trkpt lat="46.75756" lon="-1.67553">
        <ele>6</ele>
        <time>2025-08-07T21:46:30Z</time>
      </trkpt>
      <trkpt lat="46.75764" lon="-1.67564">
        <ele>6</ele>
        <time>2025-08-07T21:46:32Z</time>
      </trkpt>
      <trkpt lat="46.75772" lon="-1.67576">
        <ele>6</ele>
        <time>2025-08-07T21:46:34Z</time>
      </trkpt>
      <trkpt lat="46.7578" lon="-1.67586">
        <ele>6</ele>
        <time>2025-08-07T21:46:36Z</time>
      </trkpt>
      <trkpt lat="46.75789" lon="-1.67595">
        <ele>6</ele>
        <time>2025-08-07T21:46:38Z</time>
      </trkpt>
      <trkpt lat="46.75797" lon="-1.67603">
        <ele>6</ele>
        <time>2025-08-07T21:46:40Z</time>
      </trkpt>
      <trkpt lat="46.75806" lon="-1.67608">
        <ele>6</ele>
        <time>2025-08-07T21:46:42Z</time>
      </trkpt>
      <trkpt lat="46.75816" lon="-1.6761">
        <ele>6</ele>
        <time>2025-08-07T21:46:44Z</time>
      </trkpt>
      <trkpt lat="46.75826" lon="-1.67611">
        <ele>6</ele>
        <time>2025-08-07T21:46:46Z</time>
      </trkpt>
      <trkpt lat="46.75835" lon="-1.67612">
        <ele>6</ele>
        <time>2025-08-07T21:46:48Z</time>
      </trkpt>
      <trkpt lat="46.75843" lon="-1.67613">
        <ele>6</ele>
        <time>2025-08-07T21:46:50Z</time>
      </trkpt>
      <trkpt lat="46.75851" lon="-1.67614">
        <ele>7</ele>
        <time>2025-08-07T21:46:52Z</time>
      </trkpt>
      <trkpt lat="46.75858" lon="-1.67616">
        <ele>7</ele>
        <time>2025-08-07T21:46:54Z</time>
      </trkpt>
      <trkpt lat="46.75867" lon="-1.67619">
        <ele>6</ele>
        <time>2025-08-07T21:46:56Z</time>
      </trkpt>
      <trkpt lat="46.75877" lon="-1.67622">
        <ele>6</ele>
        <time>2025-08-07T21:46:58Z</time>
      </trkpt>
      <trkpt lat="46.75888" lon="-1.67625">
        <ele>6</ele>
        <time>2025-08-07T21:47:00Z</time>
      </trkpt>
      <trkpt lat="46.75898" lon="-1.67628">
        <ele>6</ele>
        <time>2025-08-07T21:47:02Z</time>
      </trkpt>
      <trkpt lat="46.75911" lon="-1.67632">
        <ele>6</ele>
        <time>2025-08-07T21:47:04Z</time>
      </trkpt>
      <trkpt lat="46.75925" lon="-1.67635">
        <ele>7</ele>
        <time>2025-08-07T21:47:06Z</time>
      </trkpt>
      <trkpt lat="46.75936" lon="-1.67637">
        <ele>7</ele>
        <time>2025-08-07T21:47:08Z</time>
      </trkpt>
      <trkpt lat="46.75946" lon="-1.67636">
        <ele>7</ele>
        <time>2025-08-07T21:47:10Z</time>
      </trkpt>
      <trkpt lat="46.75956" lon="-1.67636">
        <ele>7</ele>
        <time>2025-08-07T21:47:12Z</time>
      </trkpt>
      <trkpt lat="46.75967" lon="-1.67636">
        <ele>7</ele>
        <time>2025-08-07T21:47:14Z</time>
      </trkpt>
      <trkpt lat="46.75978" lon="-1.67636">
        <ele>7</ele>
        <time>2025-08-07T21:47:16Z</time>
      </trkpt>
      <trkpt lat="46.75989" lon="-1.67633">
        <ele>7</ele>
        <time>2025-08-07T21:47:18Z</time>
      </trkpt>
      <trkpt lat="46.76" lon="-1.67628">
        <ele>6</ele>
        <time>2025-08-07T21:47:20Z</time>
      </trkpt>
      <trkpt lat="46.7601" lon="-1.6762">
        <ele>6</ele>
        <time>2025-08-07T21:47:22Z</time>
      </trkpt>
      <trkpt lat="46.7602" lon="-1.67612">
        <ele>6</ele>
        <time>2025-08-07T21:47:24Z</time>
      </trkpt>
      <trkpt lat="46.7603" lon="-1.67604">
        <ele>6</ele>
        <time>2025-08-07T21:47:26Z</time>
      </trkpt>
      <trkpt lat="46.76039" lon="-1.67596">
        <ele>6</ele>
        <time>2025-08-07T21:47:28Z</time>
      </trkpt>
      <trkpt lat="46.76049" lon="-1.67589">
        <ele>6</ele>
        <time>2025-08-07T21:47:31Z</time>
      </trkpt>
      <trkpt lat="46.76059" lon="-1.67582">
        <ele>6</ele>
        <time>2025-08-07T21:47:33Z</time>
      </trkpt>
      <trkpt lat="46.76069" lon="-1.67575">
        <ele>7</ele>
        <time>2025-08-07T21:47:35Z</time>
      </trkpt>
      <trkpt lat="46.76078" lon="-1.67567">
        <ele>7</ele>
        <time>2025-08-07T21:47:37Z</time>
      </trkpt>
      <trkpt lat="46.76088" lon="-1.6756">
        <ele>7</ele>
        <time>2025-08-07T21:47:39Z</time>
      </trkpt>
      <trkpt lat="46.76098" lon="-1.67552">
        <ele>7</ele>
        <time>2025-08-07T21:47:41Z</time>
      </trkpt>
      <trkpt lat="46.76108" lon="-1.67545">
        <ele>7</ele>
        <time>2025-08-07T21:47:43Z</time>
      </trkpt>
      <trkpt lat="46.76118" lon="-1.6754">
        <ele>7</ele>
        <time>2025-08-07T21:47:45Z</time>
      </trkpt>
      <trkpt lat="46.76127" lon="-1.67534">
        <ele>7</ele>
        <time>2025-08-07T21:47:47Z</time>
      </trkpt>
      <trkpt lat="46.76134" lon="-1.67527">
        <ele>7</ele>
        <time>2025-08-07T21:47:49Z</time>
      </trkpt>
      <trkpt lat="46.7614" lon="-1.67524">
        <ele>7</ele>
        <time>2025-08-07T21:47:51Z</time>
      </trkpt>
      <trkpt lat="46.76146" lon="-1.6752">
        <ele>7</ele>
        <time>2025-08-07T21:47:53Z</time>
      </trkpt>
      <trkpt lat="46.76154" lon="-1.67513">
        <ele>7</ele>
        <time>2025-08-07T21:47:55Z</time>
      </trkpt>
      <trkpt lat="46.76162" lon="-1.67503">
        <ele>7</ele>
        <time>2025-08-07T21:47:57Z</time>
      </trkpt>
      <trkpt lat="46.76171" lon="-1.67494">
        <ele>7</ele>
        <time>2025-08-07T21:47:59Z</time>
      </trkpt>
      <trkpt lat="46.76179" lon="-1.67484">
        <ele>7</ele>
        <time>2025-08-07T21:48:01Z</time>
      </trkpt>
      <trkpt lat="46.76188" lon="-1.67475">
        <ele>7</ele>
        <time>2025-08-07T21:48:03Z</time>
      </trkpt>
      <trkpt lat="46.76196" lon="-1.67466">
        <ele>7</ele>
        <time>2025-08-07T21:48:05Z</time>
      </trkpt>
      <trkpt lat="46.76205" lon="-1.67456">
        <ele>7</ele>
        <time>2025-08-07T21:48:07Z</time>
      </trkpt>
      <trkpt lat="46.76213" lon="-1.67445">
        <ele>7</ele>
        <time>2025-08-07T21:48:09Z</time>
      </trkpt>
      <trkpt lat="46.76221" lon="-1.67434">
        <ele>7</ele>
        <time>2025-08-07T21:48:11Z</time>
      </trkpt>
      <trkpt lat="46.76228" lon="-1.67422">
        <ele>7</ele>
        <time>2025-08-07T21:48:13Z</time>
      </trkpt>
      <trkpt lat="46.76235" lon="-1.67411">
        <ele>7</ele>
        <time>2025-08-07T21:48:15Z</time>
      </trkpt>
      <trkpt lat="46.76241" lon="-1.67398">
        <ele>7</ele>
        <time>2025-08-07T21:48:17Z</time>
      </trkpt>
      <trkpt lat="46.76247" lon="-1.67385">
        <ele>7</ele>
        <time>2025-08-07T21:48:19Z</time>
      </trkpt>
      <trkpt lat="46.76253" lon="-1.67374">
        <ele>7</ele>
        <time>2025-08-07T21:48:21Z</time>
      </trkpt>
      <trkpt lat="46.7626" lon="-1.67364">
        <ele>7</ele>
        <time>2025-08-07T21:48:23Z</time>
      </trkpt>
      <trkpt lat="46.76267" lon="-1.67355">
        <ele>7</ele>
        <time>2025-08-07T21:48:25Z</time>
      </trkpt>
      <trkpt lat="46.76276" lon="-1.67346">
        <ele>7</ele>
        <time>2025-08-07T21:48:27Z</time>
      </trkpt>
      <trkpt lat="46.76285" lon="-1.67337">
        <ele>7</ele>
        <time>2025-08-07T21:48:29Z</time>
      </trkpt>
      <trkpt lat="46.76294" lon="-1.67327">
        <ele>7</ele>
        <time>2025-08-07T21:48:31Z</time>
      </trkpt>
      <trkpt lat="46.76303" lon="-1.67317">
        <ele>7</ele>
        <time>2025-08-07T21:48:33Z</time>
      </trkpt>
      <trkpt lat="46.76312" lon="-1.67308">
        <ele>7</ele>
        <time>2025-08-07T21:48:35Z</time>
      </trkpt>
      <trkpt lat="46.76322" lon="-1.67298">
        <ele>7</ele>
        <time>2025-08-07T21:48:37Z</time>
      </trkpt>
      <trkpt lat="46.76331" lon="-1.67289">
        <ele>7</ele>
        <time>2025-08-07T21:48:39Z</time>
      </trkpt>
      <trkpt lat="46.7634" lon="-1.67279">
        <ele>7</ele>
        <time>2025-08-07T21:48:41Z</time>
      </trkpt>
      <trkpt lat="46.76349" lon="-1.6727">
        <ele>7</ele>
        <time>2025-08-07T21:48:43Z</time>
      </trkpt>
      <trkpt lat="46.76362" lon="-1.67256">
        <ele>7</ele>
        <time>2025-08-07T21:48:45Z</time>
      </trkpt>
      <trkpt lat="46.76373" lon="-1.67246">
        <ele>7</ele>
        <time>2025-08-07T21:48:47Z</time>
      </trkpt>
      <trkpt lat="46.7638" lon="-1.67233">
        <ele>7</ele>
        <time>2025-08-07T21:48:49Z</time>
      </trkpt>
      <trkpt lat="46.76387" lon="-1.67221">
        <ele>7</ele>
        <time>2025-08-07T21:48:51Z</time>
      </trkpt>
      <trkpt lat="46.76395" lon="-1.6721">
        <ele>6</ele>
        <time>2025-08-07T21:48:53Z</time>
      </trkpt>
      <trkpt lat="46.76403" lon="-1.672">
        <ele>6</ele>
        <time>2025-08-07T21:48:55Z</time>
      </trkpt>
      <trkpt lat="46.76413" lon="-1.6719">
        <ele>6</ele>
        <time>2025-08-07T21:48:57Z</time>
      </trkpt>
      <trkpt lat="46.76421" lon="-1.6718">
        <ele>6</ele>
        <time>2025-08-07T21:48:59Z</time>
      </trkpt>
      <trkpt lat="46.76431" lon="-1.6717">
        <ele>6</ele>
        <time>2025-08-07T21:49:01Z</time>
      </trkpt>
      <trkpt lat="46.76439" lon="-1.6716">
        <ele>6</ele>
        <time>2025-08-07T21:49:03Z</time>
      </trkpt>
      <trkpt lat="46.76448" lon="-1.6715">
        <ele>6</ele>
        <time>2025-08-07T21:49:05Z</time>
      </trkpt>
      <trkpt lat="46.76457" lon="-1.6714">
        <ele>6</ele>
        <time>2025-08-07T21:49:07Z</time>
      </trkpt>
      <trkpt lat="46.76465" lon="-1.6713">
        <ele>6</ele>
        <time>2025-08-07T21:49:10Z</time>
      </trkpt>
      <trkpt lat="46.76473" lon="-1.67122">
        <ele>6</ele>
        <time>2025-08-07T21:49:12Z</time>
      </trkpt>
      <trkpt lat="46.7648" lon="-1.67113">
        <ele>6</ele>
        <time>2025-08-07T21:49:14Z</time>
      </trkpt>
      <trkpt lat="46.76487" lon="-1.67105">
        <ele>6</ele>
        <time>2025-08-07T21:49:16Z</time>
      </trkpt>
      <trkpt lat="46.76495" lon="-1.67095">
        <ele>6</ele>
        <time>2025-08-07T21:49:18Z</time>
      </trkpt>
      <trkpt lat="46.76503" lon="-1.67086">
        <ele>6</ele>
        <time>2025-08-07T21:49:20Z</time>
      </trkpt>
      <trkpt lat="46.76511" lon="-1.67076">
        <ele>6</ele>
        <time>2025-08-07T21:49:22Z</time>
      </trkpt>
      <trkpt lat="46.76519" lon="-1.67067">
        <ele>6</ele>
        <time>2025-08-07T21:49:24Z</time>
      </trkpt>
      <trkpt lat="46.76527" lon="-1.67057">
        <ele>6</ele>
        <time>2025-08-07T21:49:26Z</time>
      </trkpt>
      <trkpt lat="46.76535" lon="-1.67047">
        <ele>6</ele>
        <time>2025-08-07T21:49:28Z</time>
      </trkpt>
      <trkpt lat="46.76543" lon="-1.67038">
        <ele>6</ele>
        <time>2025-08-07T21:49:30Z</time>
      </trkpt>
      <trkpt lat="46.76552" lon="-1.6703">
        <ele>6</ele>
        <time>2025-08-07T21:49:32Z</time>
      </trkpt>
      <trkpt lat="46.76561" lon="-1.67022">
        <ele>6</ele>
        <time>2025-08-07T21:49:34Z</time>
      </trkpt>
      <trkpt lat="46.76569" lon="-1.67014">
        <ele>6</ele>
        <time>2025-08-07T21:49:36Z</time>
      </trkpt>
      <trkpt lat="46.76578" lon="-1.67007">
        <ele>6</ele>
        <time>2025-08-07T21:49:38Z</time>
      </trkpt>
      <trkpt lat="46.76586" lon="-1.67">
        <ele>6</ele>
        <time>2025-08-07T21:49:40Z</time>
      </trkpt>
      <trkpt lat="46.76593" lon="-1.66994">
        <ele>6</ele>
        <time>2025-08-07T21:49:42Z</time>
      </trkpt>
      <trkpt lat="46.766" lon="-1.66989">
        <ele>6</ele>
        <time>2025-08-07T21:49:44Z</time>
      </trkpt>
      <trkpt lat="46.76608" lon="-1.66992">
        <ele>6</ele>
        <time>2025-08-07T21:49:46Z</time>
      </trkpt>
      <trkpt lat="46.76616" lon="-1.67001">
        <ele>6</ele>
        <time>2025-08-07T21:49:48Z</time>
      </trkpt>
      <trkpt lat="46.76625" lon="-1.6701">
        <ele>6</ele>
        <time>2025-08-07T21:49:50Z</time>
      </trkpt>
      <trkpt lat="46.76633" lon="-1.6702">
        <ele>6</ele>
        <time>2025-08-07T21:49:52Z</time>
      </trkpt>
      <trkpt lat="46.76639" lon="-1.67033">
        <ele>6</ele>
        <time>2025-08-07T21:49:54Z</time>
      </trkpt>
      <trkpt lat="46.76645" lon="-1.67045">
        <ele>6</ele>
        <time>2025-08-07T21:49:56Z</time>
      </trkpt>
      <trkpt lat="46.76653" lon="-1.67057">
        <ele>6</ele>
        <time>2025-08-07T21:49:58Z</time>
      </trkpt>
      <trkpt lat="46.76661" lon="-1.67068">
        <ele>6</ele>
        <time>2025-08-07T21:50:00Z</time>
      </trkpt>
      <trkpt lat="46.76669" lon="-1.6708">
        <ele>6</ele>
        <time>2025-08-07T21:50:02Z</time>
      </trkpt>
      <trkpt lat="46.76678" lon="-1.6709">
        <ele>6</ele>
        <time>2025-08-07T21:50:04Z</time>
      </trkpt>
      <trkpt lat="46.76687" lon="-1.671">
        <ele>6</ele>
        <time>2025-08-07T21:50:06Z</time>
      </trkpt>
      <trkpt lat="46.76696" lon="-1.67109">
        <ele>6</ele>
        <time>2025-08-07T21:50:08Z</time>
      </trkpt>
      <trkpt lat="46.76704" lon="-1.67117">
        <ele>7</ele>
        <time>2025-08-07T21:50:10Z</time>
      </trkpt>
      <trkpt lat="46.76712" lon="-1.67127">
        <ele>7</ele>
        <time>2025-08-07T21:50:12Z</time>
      </trkpt>
      <trkpt lat="46.76718" lon="-1.67136">
        <ele>7</ele>
        <time>2025-08-07T21:50:14Z</time>
      </trkpt>
      <trkpt lat="46.76724" lon="-1.67141">
        <ele>8</ele>
        <time>2025-08-07T21:50:16Z</time>
      </trkpt>
      <trkpt lat="46.7673" lon="-1.67139">
        <ele>8</ele>
        <time>2025-08-07T21:50:18Z</time>
      </trkpt>
      <trkpt lat="46.76737" lon="-1.67136">
        <ele>8</ele>
        <time>2025-08-07T21:50:20Z</time>
      </trkpt>
      <trkpt lat="46.76745" lon="-1.67133">
        <ele>9</ele>
        <time>2025-08-07T21:50:22Z</time>
      </trkpt>
      <trkpt lat="46.76752" lon="-1.67128">
        <ele>9</ele>
        <time>2025-08-07T21:50:24Z</time>
      </trkpt>
      <trkpt lat="46.76761" lon="-1.67123">
        <ele>9</ele>
        <time>2025-08-07T21:50:26Z</time>
      </trkpt>
      <trkpt lat="46.76768" lon="-1.6712">
        <ele>9</ele>
        <time>2025-08-07T21:50:28Z</time>
      </trkpt>
      <trkpt lat="46.76774" lon="-1.67116">
        <ele>10</ele>
        <time>2025-08-07T21:50:30Z</time>
      </trkpt>
      <trkpt lat="46.7678" lon="-1.67114">
        <ele>10</ele>
        <time>2025-08-07T21:50:32Z</time>
      </trkpt>
      <trkpt lat="46.76786" lon="-1.67112">
        <ele>10</ele>
        <time>2025-08-07T21:50:34Z</time>
      </trkpt>
      <trkpt lat="46.76791" lon="-1.6711">
        <ele>11</ele>
        <time>2025-08-07T21:50:36Z</time>
      </trkpt>
      <trkpt lat="46.76796" lon="-1.67107">
        <ele>11</ele>
        <time>2025-08-07T21:50:38Z</time>
      </trkpt>
      <trkpt lat="46.76801" lon="-1.67105">
        <ele>12</ele>
        <time>2025-08-07T21:50:40Z</time>
      </trkpt>
      <trkpt lat="46.76806" lon="-1.67102">
        <ele>13</ele>
        <time>2025-08-07T21:50:42Z</time>
      </trkpt>
      <trkpt lat="46.76812" lon="-1.671">
        <ele>13</ele>
        <time>2025-08-07T21:50:44Z</time>
      </trkpt>
      <trkpt lat="46.76817" lon="-1.67097">
        <ele>13</ele>
        <time>2025-08-07T21:50:46Z</time>
      </trkpt>
      <trkpt lat="46.76822" lon="-1.67095">
        <ele>14</ele>
        <time>2025-08-07T21:50:49Z</time>
      </trkpt>
      <trkpt lat="46.76827" lon="-1.67093">
        <ele>14</ele>
        <time>2025-08-07T21:50:51Z</time>
      </trkpt>
      <trkpt lat="46.76833" lon="-1.67091">
        <ele>14</ele>
        <time>2025-08-07T21:50:53Z</time>
      </trkpt>
      <trkpt lat="46.76838" lon="-1.67088">
        <ele>14</ele>
        <time>2025-08-07T21:50:55Z</time>
      </trkpt>
      <trkpt lat="46.76843" lon="-1.67084">
        <ele>15</ele>
        <time>2025-08-07T21:50:57Z</time>
      </trkpt>
      <trkpt lat="46.76848" lon="-1.67082">
        <ele>15</ele>
        <time>2025-08-07T21:50:59Z</time>
      </trkpt>
      <trkpt lat="46.76854" lon="-1.6708">
        <ele>15</ele>
        <time>2025-08-07T21:51:01Z</time>
      </trkpt>
      <trkpt lat="46.7686" lon="-1.67078">
        <ele>15</ele>
        <time>2025-08-07T21:51:03Z</time>
      </trkpt>
      <trkpt lat="46.76867" lon="-1.67076">
        <ele>15</ele>
        <time>2025-08-07T21:51:05Z</time>
      </trkpt>
      <trkpt lat="46.76873" lon="-1.67073">
        <ele>15</ele>
        <time>2025-08-07T21:51:07Z</time>
      </trkpt>
      <trkpt lat="46.76879" lon="-1.67069">
        <ele>15</ele>
        <time>2025-08-07T21:51:09Z</time>
      </trkpt>
      <trkpt lat="46.76885" lon="-1.67064">
        <ele>15</ele>
        <time>2025-08-07T21:51:11Z</time>
      </trkpt>
      <trkpt lat="46.76888" lon="-1.67056">
        <ele>15</ele>
        <time>2025-08-07T21:51:13Z</time>
      </trkpt>
      <trkpt lat="46.76886" lon="-1.67047">
        <ele>15</ele>
        <time>2025-08-07T21:51:15Z</time>
      </trkpt>
      <trkpt lat="46.76883" lon="-1.67037">
        <ele>15</ele>
        <time>2025-08-07T21:51:17Z</time>
      </trkpt>
      <trkpt lat="46.76885" lon="-1.67028">
        <ele>15</ele>
        <time>2025-08-07T21:51:19Z</time>
      </trkpt>
      <trkpt lat="46.7689" lon="-1.67025">
        <ele>15</ele>
        <time>2025-08-07T21:51:21Z</time>
      </trkpt>
      <trkpt lat="46.76895" lon="-1.67026">
        <ele>15</ele>
        <time>2025-08-07T21:51:23Z</time>
      </trkpt>
      <trkpt lat="46.76901" lon="-1.67028">
        <ele>15</ele>
        <time>2025-08-07T21:51:25Z</time>
      </trkpt>
      <trkpt lat="46.76908" lon="-1.67027">
        <ele>16</ele>
        <time>2025-08-07T21:51:27Z</time>
      </trkpt>
      <trkpt lat="46.76915" lon="-1.67026">
        <ele>16</ele>
        <time>2025-08-07T21:51:29Z</time>
      </trkpt>
      <trkpt lat="46.76922" lon="-1.67024">
        <ele>16</ele>
        <time>2025-08-07T21:51:31Z</time>
      </trkpt>
      <trkpt lat="46.76928" lon="-1.67023">
        <ele>17</ele>
        <time>2025-08-07T21:51:33Z</time>
      </trkpt>
      <trkpt lat="46.76934" lon="-1.67025">
        <ele>17</ele>
        <time>2025-08-07T21:51:35Z</time>
      </trkpt>
      <trkpt lat="46.76936" lon="-1.67031">
        <ele>18</ele>
        <time>2025-08-07T21:51:37Z</time>
      </trkpt>
      <trkpt lat="46.76938" lon="-1.67039">
        <ele>18</ele>
        <time>2025-08-07T21:51:39Z</time>
      </trkpt>
      <trkpt lat="46.7694" lon="-1.67048">
        <ele>18</ele>
        <time>2025-08-07T21:51:41Z</time>
      </trkpt>
      <trkpt lat="46.76946" lon="-1.67052">
        <ele>19</ele>
        <time>2025-08-07T21:51:43Z</time>
      </trkpt>
      <trkpt lat="46.76952" lon="-1.67049">
        <ele>19</ele>
        <time>2025-08-07T21:51:45Z</time>
      </trkpt>
      <trkpt lat="46.76959" lon="-1.67044">
        <ele>20</ele>
        <time>2025-08-07T21:51:47Z</time>
      </trkpt>
      <trkpt lat="46.76965" lon="-1.67039">
        <ele>20</ele>
        <time>2025-08-07T21:51:49Z</time>
      </trkpt>
      <trkpt lat="46.76971" lon="-1.67035">
        <ele>20</ele>
        <time>2025-08-07T21:51:51Z</time>
      </trkpt>
      <trkpt lat="46.76977" lon="-1.67032">
        <ele>21</ele>
        <time>2025-08-07T21:51:53Z</time>
      </trkpt>
      <trkpt lat="46.76983" lon="-1.67029">
        <ele>21</ele>
        <time>2025-08-07T21:51:55Z</time>
      </trkpt>
      <trkpt lat="46.7699" lon="-1.67027">
        <ele>21</ele>
        <time>2025-08-07T21:51:57Z</time>
      </trkpt>
      <trkpt lat="46.76996" lon="-1.67024">
        <ele>22</ele>
        <time>2025-08-07T21:51:59Z</time>
      </trkpt>
      <trkpt lat="46.77002" lon="-1.67021">
        <ele>22</ele>
        <time>2025-08-07T21:52:01Z</time>
      </trkpt>
      <trkpt lat="46.77009" lon="-1.67017">
        <ele>22</ele>
        <time>2025-08-07T21:52:03Z</time>
      </trkpt>
      <trkpt lat="46.77015" lon="-1.67013">
        <ele>22</ele>
        <time>2025-08-07T21:52:05Z</time>
      </trkpt>
      <trkpt lat="46.77021" lon="-1.67009">
        <ele>23</ele>
        <time>2025-08-07T21:52:07Z</time>
      </trkpt>
      <trkpt lat="46.77028" lon="-1.67005">
        <ele>23</ele>
        <time>2025-08-07T21:52:09Z</time>
      </trkpt>
      <trkpt lat="46.77034" lon="-1.67001">
        <ele>23</ele>
        <time>2025-08-07T21:52:11Z</time>
      </trkpt>
      <trkpt lat="46.77041" lon="-1.66999">
        <ele>23</ele>
        <time>2025-08-07T21:52:13Z</time>
      </trkpt>
      <trkpt lat="46.7705" lon="-1.67008">
        <ele>23</ele>
        <time>2025-08-07T21:52:15Z</time>
      </trkpt>
      <trkpt lat="46.77053" lon="-1.6702">
        <ele>24</ele>
        <time>2025-08-07T21:52:17Z</time>
      </trkpt>
      <trkpt lat="46.77054" lon="-1.67033">
        <ele>24</ele>
        <time>2025-08-07T21:52:19Z</time>
      </trkpt>
      <trkpt lat="46.77055" lon="-1.67044">
        <ele>24</ele>
        <time>2025-08-07T21:52:21Z</time>
      </trkpt>
      <trkpt lat="46.77057" lon="-1.67055">
        <ele>25</ele>
        <time>2025-08-07T21:52:23Z</time>
      </trkpt>
      <trkpt lat="46.77059" lon="-1.67065">
        <ele>25</ele>
        <time>2025-08-07T21:52:25Z</time>
      </trkpt>
      <trkpt lat="46.77061" lon="-1.67076">
        <ele>25</ele>
        <time>2025-08-07T21:52:27Z</time>
      </trkpt>
      <trkpt lat="46.77064" lon="-1.67086">
        <ele>26</ele>
        <time>2025-08-07T21:52:29Z</time>
      </trkpt>
      <trkpt lat="46.7707" lon="-1.67091">
        <ele>26</ele>
        <time>2025-08-07T21:52:31Z</time>
      </trkpt>
      <trkpt lat="46.77078" lon="-1.67094">
        <ele>26</ele>
        <time>2025-08-07T21:52:33Z</time>
      </trkpt>
      <trkpt lat="46.77086" lon="-1.67096">
        <ele>26</ele>
        <time>2025-08-07T21:52:35Z</time>
      </trkpt>
      <trkpt lat="46.77094" lon="-1.67098">
        <ele>26</ele>
        <time>2025-08-07T21:52:37Z</time>
      </trkpt>
      <trkpt lat="46.77103" lon="-1.67101">
        <ele>26</ele>
        <time>2025-08-07T21:52:40Z</time>
      </trkpt>
      <trkpt lat="46.77111" lon="-1.67104">
        <ele>26</ele>
        <time>2025-08-07T21:52:42Z</time>
      </trkpt>
      <trkpt lat="46.77119" lon="-1.67107">
        <ele>26</ele>
        <time>2025-08-07T21:52:44Z</time>
      </trkpt>
      <trkpt lat="46.77127" lon="-1.6711">
        <ele>27</ele>
        <time>2025-08-07T21:52:46Z</time>
      </trkpt>
      <trkpt lat="46.77134" lon="-1.67112">
        <ele>27</ele>
        <time>2025-08-07T21:52:48Z</time>
      </trkpt>
      <trkpt lat="46.77139" lon="-1.67111">
        <ele>27</ele>
        <time>2025-08-07T21:52:50Z</time>
      </trkpt>
      <trkpt lat="46.77145" lon="-1.67111">
        <ele>27</ele>
        <time>2025-08-07T21:52:54Z</time>
      </trkpt>
      <trkpt lat="46.77148" lon="-1.67122">
        <ele>27</ele>
        <time>2025-08-07T21:52:58Z</time>
      </trkpt>
      <trkpt lat="46.77148" lon="-1.67131">
        <ele>27</ele>
        <time>2025-08-07T21:53:00Z</time>
      </trkpt>
      <trkpt lat="46.77146" lon="-1.67141">
        <ele>27</ele>
        <time>2025-08-07T21:53:02Z</time>
      </trkpt>
      <trkpt lat="46.77147" lon="-1.67149">
        <ele>27</ele>
        <time>2025-08-07T21:53:04Z</time>
      </trkpt>
      <trkpt lat="46.77148" lon="-1.67157">
        <ele>27</ele>
        <time>2025-08-07T21:53:06Z</time>
      </trkpt>
      <trkpt lat="46.7715" lon="-1.67164">
        <ele>27</ele>
        <time>2025-08-07T21:53:08Z</time>
      </trkpt>
      <trkpt lat="46.77152" lon="-1.67171">
        <ele>27</ele>
        <time>2025-08-07T21:53:10Z</time>
      </trkpt>
      <trkpt lat="46.77152" lon="-1.67177">
        <ele>27</ele>
        <time>2025-08-07T21:53:12Z</time>
      </trkpt>
      <trkpt lat="46.77144" lon="-1.67177">
        <ele>27</ele>
        <time>2025-08-07T21:53:16Z</time>
      </trkpt>
      <trkpt lat="46.77137" lon="-1.67176">
        <ele>27</ele>
        <time>2025-08-07T21:53:20Z</time>
      </trkpt>
    </trkseg>
  </trk>
</gpx>